<?xml version="1.0" encoding="UTF-8" standalone="no" ?>
<gpx xmlns="http://www.topografix.com/GPX/1/1" xmlns:xsi="http://www.w3.org/2001/XMLSchema-instance" xsi:schemaLocation="http://www.topografix.com/GPX/1/1 http://www.topografix.com/GPX/1/1/gpx.xsd" version="1.1" creator="VisuGPX - https://www.visugpx.com">
  <metadata>
    <name>Plouarzel - Belgrade</name>
    <desc><![CDATA[Arrivée à Belgrade le 11 juillet. 66 jours pédalés. 7 jours de repos.
]]></desc>
  </metadata>
  <trk>
    <name><![CDATA[Sortie à vélo]]></name>
    <extensions>
      <line xmlns="http://www.topografix.com/GPX/gpx_style/0/2">
        <color>0000FF</color>
        <width>4</width>
      </line>
    </extensions>
    <trkseg>
      <trkpt lat="48.06396" lon="-2.95461">
        <ele>147.201532</ele>
        <time>2023-05-04T10:15:09.219Z</time>
      </trkpt>
      <trkpt lat="48.06387" lon="-2.95466">
        <ele>147.201532</ele>
        <time>2023-05-04T10:15:35.077Z</time>
      </trkpt>
      <trkpt lat="48.06379" lon="-2.95475">
        <ele>147.201532</ele>
        <time>2023-05-04T10:15:43.078Z</time>
      </trkpt>
      <trkpt lat="48.0637" lon="-2.95484">
        <ele>147.201532</ele>
        <time>2023-05-04T10:15:48.084Z</time>
      </trkpt>
      <trkpt lat="48.06361" lon="-2.95495">
        <ele>147.201532</ele>
        <time>2023-05-04T10:15:53.076Z</time>
      </trkpt>
      <trkpt lat="48.06353" lon="-2.95505">
        <ele>147.201532</ele>
        <time>2023-05-04T10:15:57.091Z</time>
      </trkpt>
      <trkpt lat="48.06343" lon="-2.95508">
        <ele>147.201532</ele>
        <time>2023-05-04T10:16:02.094Z</time>
      </trkpt>
      <trkpt lat="48.06334" lon="-2.95514">
        <ele>147.201532</ele>
        <time>2023-05-04T10:16:06.082Z</time>
      </trkpt>
      <trkpt lat="48.06324" lon="-2.95519">
        <ele>147.201532</ele>
        <time>2023-05-04T10:16:10.085Z</time>
      </trkpt>
      <trkpt lat="48.06317" lon="-2.95532">
        <ele>147.063072</ele>
        <time>2023-05-04T10:16:14.085Z</time>
      </trkpt>
      <trkpt lat="48.0631" lon="-2.95546">
        <ele>146.717951</ele>
        <time>2023-05-04T10:16:18.093Z</time>
      </trkpt>
      <trkpt lat="48.06305" lon="-2.9556">
        <ele>146.408609</ele>
        <time>2023-05-04T10:16:22.093Z</time>
      </trkpt>
      <trkpt lat="48.06306" lon="-2.95575">
        <ele>146.098126</ele>
        <time>2023-05-04T10:16:27.086Z</time>
      </trkpt>
      <trkpt lat="48.06313" lon="-2.95586">
        <ele>145.792066</ele>
        <time>2023-05-04T10:16:31.087Z</time>
      </trkpt>
      <trkpt lat="48.06323" lon="-2.95594">
        <ele>145.44595</ele>
        <time>2023-05-04T10:16:35.089Z</time>
      </trkpt>
      <trkpt lat="48.06332" lon="-2.95601">
        <ele>145.133498</ele>
        <time>2023-05-04T10:16:38.090Z</time>
      </trkpt>
      <trkpt lat="48.06342" lon="-2.95608">
        <ele>144.781126</ele>
        <time>2023-05-04T10:16:42.088Z</time>
      </trkpt>
      <trkpt lat="48.06349" lon="-2.95619">
        <ele>144.485091</ele>
        <time>2023-05-04T10:16:47.089Z</time>
      </trkpt>
      <trkpt lat="48.06347" lon="-2.95634">
        <ele>144.167993</ele>
        <time>2023-05-04T10:16:52.085Z</time>
      </trkpt>
      <trkpt lat="48.06339" lon="-2.95644">
        <ele>143.863871</ele>
        <time>2023-05-04T10:16:55.087Z</time>
      </trkpt>
      <trkpt lat="48.06332" lon="-2.95652">
        <ele>143.574813</ele>
        <time>2023-05-04T10:16:58.094Z</time>
      </trkpt>
      <trkpt lat="48.06323" lon="-2.9566">
        <ele>143.268346</ele>
        <time>2023-05-04T10:17:01.094Z</time>
      </trkpt>
      <trkpt lat="48.06315" lon="-2.95668">
        <ele>142.978123</ele>
        <time>2023-05-04T10:17:04.079Z</time>
      </trkpt>
      <trkpt lat="48.06307" lon="-2.95678">
        <ele>142.672093</ele>
        <time>2023-05-04T10:17:07.085Z</time>
      </trkpt>
      <trkpt lat="48.06299" lon="-2.95686">
        <ele>142.358302</ele>
        <time>2023-05-04T10:17:10.082Z</time>
      </trkpt>
      <trkpt lat="48.0629" lon="-2.95694">
        <ele>142.042207</ele>
        <time>2023-05-04T10:17:13.085Z</time>
      </trkpt>
      <trkpt lat="48.0628" lon="-2.95703">
        <ele>141.704637</ele>
        <time>2023-05-04T10:17:16.084Z</time>
      </trkpt>
      <trkpt lat="48.0627" lon="-2.95715">
        <ele>141.539499</ele>
        <time>2023-05-04T10:17:19.085Z</time>
      </trkpt>
      <trkpt lat="48.06262" lon="-2.95726">
        <ele>141.390078</ele>
        <time>2023-05-04T10:17:23.091Z</time>
      </trkpt>
      <trkpt lat="48.06253" lon="-2.95736">
        <ele>141.237661</ele>
        <time>2023-05-04T10:17:26.079Z</time>
      </trkpt>
      <trkpt lat="48.06243" lon="-2.95747">
        <ele>141.075997</ele>
        <time>2023-05-04T10:17:29.091Z</time>
      </trkpt>
      <trkpt lat="48.06235" lon="-2.95757">
        <ele>140.931149</ele>
        <time>2023-05-04T10:17:32.082Z</time>
      </trkpt>
      <trkpt lat="48.06227" lon="-2.95769">
        <ele>140.779994</ele>
        <time>2023-05-04T10:17:35.093Z</time>
      </trkpt>
      <trkpt lat="48.06218" lon="-2.95779">
        <ele>140.633501</ele>
        <time>2023-05-04T10:17:38.087Z</time>
      </trkpt>
      <trkpt lat="48.06212" lon="-2.9579">
        <ele>140.512616</ele>
        <time>2023-05-04T10:17:41.086Z</time>
      </trkpt>
      <trkpt lat="48.06211" lon="-2.95804">
        <ele>140.387419</ele>
        <time>2023-05-04T10:17:44.080Z</time>
      </trkpt>
      <trkpt lat="48.06215" lon="-2.95818">
        <ele>140.248524</ele>
        <time>2023-05-04T10:17:47.083Z</time>
      </trkpt>
      <trkpt lat="48.06221" lon="-2.95832">
        <ele>140.095865</ele>
        <time>2023-05-04T10:17:50.084Z</time>
      </trkpt>
      <trkpt lat="48.06231" lon="-2.95844">
        <ele>139.933247</ele>
        <time>2023-05-04T10:17:53.089Z</time>
      </trkpt>
      <trkpt lat="48.06241" lon="-2.95853">
        <ele>139.770204</ele>
        <time>2023-05-04T10:17:56.088Z</time>
      </trkpt>
      <trkpt lat="48.06248" lon="-2.95863">
        <ele>139.643342</ele>
        <time>2023-05-04T10:17:58.088Z</time>
      </trkpt>
      <trkpt lat="48.06254" lon="-2.95875">
        <ele>139.503132</ele>
        <time>2023-05-04T10:18:00.084Z</time>
      </trkpt>
      <trkpt lat="48.06263" lon="-2.95882">
        <ele>139.374818</ele>
        <time>2023-05-04T10:18:02.091Z</time>
      </trkpt>
      <trkpt lat="48.0627" lon="-2.95894">
        <ele>139.195961</ele>
        <time>2023-05-04T10:18:04.083Z</time>
      </trkpt>
      <trkpt lat="48.06278" lon="-2.95903">
        <ele>138.99801</ele>
        <time>2023-05-04T10:18:06.086Z</time>
      </trkpt>
      <trkpt lat="48.06286" lon="-2.95914">
        <ele>138.788491</ele>
        <time>2023-05-04T10:18:08.088Z</time>
      </trkpt>
      <trkpt lat="48.06294" lon="-2.95926">
        <ele>138.57882</ele>
        <time>2023-05-04T10:18:10.089Z</time>
      </trkpt>
      <trkpt lat="48.06301" lon="-2.95937">
        <ele>138.383805</ele>
        <time>2023-05-04T10:18:12.092Z</time>
      </trkpt>
      <trkpt lat="48.06308" lon="-2.95945">
        <ele>138.200649</ele>
        <time>2023-05-04T10:18:14.087Z</time>
      </trkpt>
      <trkpt lat="48.06318" lon="-2.95959">
        <ele>137.936337</ele>
        <time>2023-05-04T10:18:17.095Z</time>
      </trkpt>
      <trkpt lat="48.06325" lon="-2.9597">
        <ele>137.743021</ele>
        <time>2023-05-04T10:18:19.087Z</time>
      </trkpt>
      <trkpt lat="48.06331" lon="-2.95983">
        <ele>137.543241</ele>
        <time>2023-05-04T10:18:21.098Z</time>
      </trkpt>
      <trkpt lat="48.06339" lon="-2.95993">
        <ele>137.349329</ele>
        <time>2023-05-04T10:18:23.094Z</time>
      </trkpt>
      <trkpt lat="48.06345" lon="-2.96002">
        <ele>137.169847</ele>
        <time>2023-05-04T10:18:25.084Z</time>
      </trkpt>
      <trkpt lat="48.06352" lon="-2.96012">
        <ele>136.982832</ele>
        <time>2023-05-04T10:18:27.096Z</time>
      </trkpt>
      <trkpt lat="48.06359" lon="-2.96021">
        <ele>136.80587</ele>
        <time>2023-05-04T10:18:29.095Z</time>
      </trkpt>
      <trkpt lat="48.06366" lon="-2.96031">
        <ele>136.615876</ele>
        <time>2023-05-04T10:18:31.094Z</time>
      </trkpt>
      <trkpt lat="48.06373" lon="-2.96043">
        <ele>136.416383</ele>
        <time>2023-05-04T10:18:33.090Z</time>
      </trkpt>
      <trkpt lat="48.0638" lon="-2.96054">
        <ele>136.220924</ele>
        <time>2023-05-04T10:18:35.075Z</time>
      </trkpt>
      <trkpt lat="48.06387" lon="-2.96066">
        <ele>136.009297</ele>
        <time>2023-05-04T10:18:37.071Z</time>
      </trkpt>
      <trkpt lat="48.06394" lon="-2.96081">
        <ele>135.695595</ele>
        <time>2023-05-04T10:18:39.094Z</time>
      </trkpt>
      <trkpt lat="48.06401" lon="-2.96093">
        <ele>135.139995</ele>
        <time>2023-05-04T10:18:41.090Z</time>
      </trkpt>
      <trkpt lat="48.06408" lon="-2.96105">
        <ele>134.566486</ele>
        <time>2023-05-04T10:18:43.085Z</time>
      </trkpt>
      <trkpt lat="48.06415" lon="-2.96117">
        <ele>134.030033</ele>
        <time>2023-05-04T10:18:45.080Z</time>
      </trkpt>
      <trkpt lat="48.06421" lon="-2.96128">
        <ele>133.538793</ele>
        <time>2023-05-04T10:18:47.081Z</time>
      </trkpt>
      <trkpt lat="48.06429" lon="-2.96143">
        <ele>132.886169</ele>
        <time>2023-05-04T10:18:50.080Z</time>
      </trkpt>
      <trkpt lat="48.06435" lon="-2.96152">
        <ele>132.414577</ele>
        <time>2023-05-04T10:18:52.086Z</time>
      </trkpt>
      <trkpt lat="48.06441" lon="-2.96162">
        <ele>131.941621</ele>
        <time>2023-05-04T10:18:54.086Z</time>
      </trkpt>
      <trkpt lat="48.06448" lon="-2.96172">
        <ele>131.455039</ele>
        <time>2023-05-04T10:18:56.083Z</time>
      </trkpt>
      <trkpt lat="48.06455" lon="-2.96189">
        <ele>130.772815</ele>
        <time>2023-05-04T10:18:59.084Z</time>
      </trkpt>
      <trkpt lat="48.06457" lon="-2.96205">
        <ele>130.229093</ele>
        <time>2023-05-04T10:19:02.091Z</time>
      </trkpt>
      <trkpt lat="48.06458" lon="-2.9622">
        <ele>129.693788</ele>
        <time>2023-05-04T10:19:04.082Z</time>
      </trkpt>
      <trkpt lat="48.06459" lon="-2.96234">
        <ele>129.205461</ele>
        <time>2023-05-04T10:19:06.084Z</time>
      </trkpt>
      <trkpt lat="48.06462" lon="-2.96248">
        <ele>128.698011</ele>
        <time>2023-05-04T10:19:08.090Z</time>
      </trkpt>
      <trkpt lat="48.06464" lon="-2.96261">
        <ele>128.226131</ele>
        <time>2023-05-04T10:19:10.093Z</time>
      </trkpt>
      <trkpt lat="48.06465" lon="-2.96276">
        <ele>127.720641</ele>
        <time>2023-05-04T10:19:12.091Z</time>
      </trkpt>
      <trkpt lat="48.06468" lon="-2.96295">
        <ele>127.031671</ele>
        <time>2023-05-04T10:19:15.085Z</time>
      </trkpt>
      <trkpt lat="48.0647" lon="-2.96313">
        <ele>126.396413</ele>
        <time>2023-05-04T10:19:18.090Z</time>
      </trkpt>
      <trkpt lat="48.06473" lon="-2.96331">
        <ele>125.802076</ele>
        <time>2023-05-04T10:19:21.083Z</time>
      </trkpt>
      <trkpt lat="48.06476" lon="-2.96348">
        <ele>125.201279</ele>
        <time>2023-05-04T10:19:24.082Z</time>
      </trkpt>
      <trkpt lat="48.06479" lon="-2.96367">
        <ele>124.543698</ele>
        <time>2023-05-04T10:19:27.088Z</time>
      </trkpt>
      <trkpt lat="48.06483" lon="-2.96385">
        <ele>123.908259</ele>
        <time>2023-05-04T10:19:30.085Z</time>
      </trkpt>
      <trkpt lat="48.06486" lon="-2.96403">
        <ele>123.2976</ele>
        <time>2023-05-04T10:19:33.074Z</time>
      </trkpt>
      <trkpt lat="48.06487" lon="-2.96418">
        <ele>122.798191</ele>
        <time>2023-05-04T10:19:35.092Z</time>
      </trkpt>
      <trkpt lat="48.06491" lon="-2.96436">
        <ele>122.146266</ele>
        <time>2023-05-04T10:19:38.089Z</time>
      </trkpt>
      <trkpt lat="48.06492" lon="-2.96452">
        <ele>121.593821</ele>
        <time>2023-05-04T10:19:40.081Z</time>
      </trkpt>
      <trkpt lat="48.06495" lon="-2.96465">
        <ele>121.132073</ele>
        <time>2023-05-04T10:19:42.088Z</time>
      </trkpt>
      <trkpt lat="48.06498" lon="-2.96479">
        <ele>120.642322</ele>
        <time>2023-05-04T10:19:44.086Z</time>
      </trkpt>
      <trkpt lat="48.06499" lon="-2.96493">
        <ele>120.158862</ele>
        <time>2023-05-04T10:19:46.085Z</time>
      </trkpt>
      <trkpt lat="48.06502" lon="-2.96507">
        <ele>119.678111</ele>
        <time>2023-05-04T10:19:48.086Z</time>
      </trkpt>
      <trkpt lat="48.06503" lon="-2.96524">
        <ele>119.130904</ele>
        <time>2023-05-04T10:19:50.088Z</time>
      </trkpt>
      <trkpt lat="48.06506" lon="-2.96537">
        <ele>118.653438</ele>
        <time>2023-05-04T10:19:52.090Z</time>
      </trkpt>
      <trkpt lat="48.06508" lon="-2.96554">
        <ele>118.077072</ele>
        <time>2023-05-04T10:19:54.090Z</time>
      </trkpt>
      <trkpt lat="48.06512" lon="-2.96572">
        <ele>117.47501</ele>
        <time>2023-05-04T10:19:57.089Z</time>
      </trkpt>
      <trkpt lat="48.06513" lon="-2.96587">
        <ele>117.342651</ele>
        <time>2023-05-04T10:19:59.090Z</time>
      </trkpt>
      <trkpt lat="48.06516" lon="-2.966">
        <ele>117.214334</ele>
        <time>2023-05-04T10:20:02.088Z</time>
      </trkpt>
      <trkpt lat="48.06511" lon="-2.96613">
        <ele>117.077459</ele>
        <time>2023-05-04T10:20:06.078Z</time>
      </trkpt>
      <trkpt lat="48.06502" lon="-2.96609">
        <ele>116.949818</ele>
        <time>2023-05-04T10:20:11.086Z</time>
      </trkpt>
      <trkpt lat="48.06493" lon="-2.96611">
        <ele>116.826195</ele>
        <time>2023-05-04T10:20:15.086Z</time>
      </trkpt>
      <trkpt lat="48.06486" lon="-2.96623">
        <ele>116.671165</ele>
        <time>2023-05-04T10:20:19.088Z</time>
      </trkpt>
      <trkpt lat="48.06485" lon="-2.9664">
        <ele>116.522197</ele>
        <time>2023-05-04T10:20:23.085Z</time>
      </trkpt>
      <trkpt lat="48.06488" lon="-2.96656">
        <ele>116.367385</ele>
        <time>2023-05-04T10:20:26.082Z</time>
      </trkpt>
      <trkpt lat="48.06491" lon="-2.96673">
        <ele>116.207517</ele>
        <time>2023-05-04T10:20:29.089Z</time>
      </trkpt>
      <trkpt lat="48.06493" lon="-2.96691">
        <ele>116.039146</ele>
        <time>2023-05-04T10:20:32.090Z</time>
      </trkpt>
      <trkpt lat="48.06495" lon="-2.96711">
        <ele>115.856807</ele>
        <time>2023-05-04T10:20:35.086Z</time>
      </trkpt>
      <trkpt lat="48.06497" lon="-2.9673">
        <ele>115.685526</ele>
        <time>2023-05-04T10:20:38.091Z</time>
      </trkpt>
      <trkpt lat="48.06499" lon="-2.96747">
        <ele>115.529918</ele>
        <time>2023-05-04T10:20:41.095Z</time>
      </trkpt>
      <trkpt lat="48.06501" lon="-2.96763">
        <ele>115.380698</ele>
        <time>2023-05-04T10:20:43.083Z</time>
      </trkpt>
      <trkpt lat="48.06503" lon="-2.96779">
        <ele>115.229641</ele>
        <time>2023-05-04T10:20:46.082Z</time>
      </trkpt>
      <trkpt lat="48.06506" lon="-2.96792">
        <ele>115.103457</ele>
        <time>2023-05-04T10:20:49.088Z</time>
      </trkpt>
      <trkpt lat="48.0651" lon="-2.96809">
        <ele>114.914398</ele>
        <time>2023-05-04T10:20:52.088Z</time>
      </trkpt>
      <trkpt lat="48.06513" lon="-2.96824">
        <ele>114.720944</ele>
        <time>2023-05-04T10:20:55.085Z</time>
      </trkpt>
      <trkpt lat="48.06513" lon="-2.96839">
        <ele>114.545663</ele>
        <time>2023-05-04T10:20:57.088Z</time>
      </trkpt>
      <trkpt lat="48.06519" lon="-2.9685">
        <ele>114.370058</ele>
        <time>2023-05-04T10:21:00.082Z</time>
      </trkpt>
      <trkpt lat="48.0653" lon="-2.9685">
        <ele>114.167213</ele>
        <time>2023-05-04T10:21:04.080Z</time>
      </trkpt>
      <trkpt lat="48.06539" lon="-2.96847">
        <ele>113.999144</ele>
        <time>2023-05-04T10:21:07.087Z</time>
      </trkpt>
      <trkpt lat="48.06548" lon="-2.96843">
        <ele>113.833708</ele>
        <time>2023-05-04T10:21:10.090Z</time>
      </trkpt>
      <trkpt lat="48.06557" lon="-2.96842">
        <ele>113.666501</ele>
        <time>2023-05-04T10:21:13.090Z</time>
      </trkpt>
      <trkpt lat="48.06568" lon="-2.96842">
        <ele>113.467202</ele>
        <time>2023-05-04T10:21:16.081Z</time>
      </trkpt>
      <trkpt lat="48.06579" lon="-2.96839">
        <ele>113.277876</ele>
        <time>2023-05-04T10:21:19.088Z</time>
      </trkpt>
      <trkpt lat="48.06589" lon="-2.96833">
        <ele>113.080282</ele>
        <time>2023-05-04T10:21:22.089Z</time>
      </trkpt>
      <trkpt lat="48.06599" lon="-2.9683">
        <ele>112.890956</ele>
        <time>2023-05-04T10:21:25.086Z</time>
      </trkpt>
      <trkpt lat="48.06611" lon="-2.96827">
        <ele>112.680418</ele>
        <time>2023-05-04T10:21:28.093Z</time>
      </trkpt>
      <trkpt lat="48.06623" lon="-2.96824">
        <ele>112.461755</ele>
        <time>2023-05-04T10:21:31.087Z</time>
      </trkpt>
      <trkpt lat="48.06635" lon="-2.96819">
        <ele>112.245786</ele>
        <time>2023-05-04T10:21:34.084Z</time>
      </trkpt>
      <trkpt lat="48.06645" lon="-2.96818">
        <ele>112.051097</ele>
        <time>2023-05-04T10:21:37.090Z</time>
      </trkpt>
      <trkpt lat="48.06656" lon="-2.96819">
        <ele>111.866026</ele>
        <time>2023-05-04T10:21:40.086Z</time>
      </trkpt>
      <trkpt lat="48.06666" lon="-2.96823">
        <ele>111.895497</ele>
        <time>2023-05-04T10:21:43.094Z</time>
      </trkpt>
      <trkpt lat="48.06677" lon="-2.96825">
        <ele>111.986571</ele>
        <time>2023-05-04T10:21:46.086Z</time>
      </trkpt>
      <trkpt lat="48.06688" lon="-2.96829">
        <ele>112.084885</ele>
        <time>2023-05-04T10:21:49.088Z</time>
      </trkpt>
      <trkpt lat="48.06699" lon="-2.9683">
        <ele>112.178884</ele>
        <time>2023-05-04T10:21:52.090Z</time>
      </trkpt>
      <trkpt lat="48.06709" lon="-2.96826">
        <ele>112.270094</ele>
        <time>2023-05-04T10:21:55.083Z</time>
      </trkpt>
      <trkpt lat="48.06718" lon="-2.9682">
        <ele>112.355247</ele>
        <time>2023-05-04T10:21:58.090Z</time>
      </trkpt>
      <trkpt lat="48.06727" lon="-2.96827">
        <ele>112.437078</ele>
        <time>2023-05-04T10:22:01.086Z</time>
      </trkpt>
      <trkpt lat="48.06735" lon="-2.96837">
        <ele>112.529281</ele>
        <time>2023-05-04T10:22:04.084Z</time>
      </trkpt>
      <trkpt lat="48.06746" lon="-2.96841">
        <ele>112.623109</ele>
        <time>2023-05-04T10:22:07.087Z</time>
      </trkpt>
      <trkpt lat="48.06756" lon="-2.96842">
        <ele>112.708636</ele>
        <time>2023-05-04T10:22:10.090Z</time>
      </trkpt>
      <trkpt lat="48.06767" lon="-2.9684">
        <ele>112.801852</ele>
        <time>2023-05-04T10:22:13.099Z</time>
      </trkpt>
      <trkpt lat="48.06777" lon="-2.96835">
        <ele>112.890443</ele>
        <time>2023-05-04T10:22:16.092Z</time>
      </trkpt>
      <trkpt lat="48.06787" lon="-2.96832">
        <ele>112.98384</ele>
        <time>2023-05-04T10:22:19.085Z</time>
      </trkpt>
      <trkpt lat="48.06799" lon="-2.96829">
        <ele>113.084664</ele>
        <time>2023-05-04T10:22:22.098Z</time>
      </trkpt>
      <trkpt lat="48.06809" lon="-2.96826">
        <ele>113.172826</ele>
        <time>2023-05-04T10:22:25.083Z</time>
      </trkpt>
      <trkpt lat="48.06819" lon="-2.9682">
        <ele>113.266516</ele>
        <time>2023-05-04T10:22:28.093Z</time>
      </trkpt>
      <trkpt lat="48.06828" lon="-2.96815">
        <ele>113.345421</ele>
        <time>2023-05-04T10:22:31.092Z</time>
      </trkpt>
      <trkpt lat="48.06837" lon="-2.96806">
        <ele>113.416003</ele>
        <time>2023-05-04T10:22:34.092Z</time>
      </trkpt>
      <trkpt lat="48.06847" lon="-2.96797">
        <ele>113.487749</ele>
        <time>2023-05-04T10:22:37.093Z</time>
      </trkpt>
      <trkpt lat="48.06856" lon="-2.96786">
        <ele>113.554938</ele>
        <time>2023-05-04T10:22:40.094Z</time>
      </trkpt>
      <trkpt lat="48.06862" lon="-2.96777">
        <ele>113.609843</ele>
        <time>2023-05-04T10:22:43.092Z</time>
      </trkpt>
      <trkpt lat="48.0687" lon="-2.96765">
        <ele>113.680289</ele>
        <time>2023-05-04T10:22:47.087Z</time>
      </trkpt>
      <trkpt lat="48.06879" lon="-2.96755">
        <ele>113.748167</ele>
        <time>2023-05-04T10:22:50.089Z</time>
      </trkpt>
      <trkpt lat="48.06886" lon="-2.96745">
        <ele>113.806823</ele>
        <time>2023-05-04T10:22:52.085Z</time>
      </trkpt>
      <trkpt lat="48.06895" lon="-2.96732">
        <ele>113.882744</ele>
        <time>2023-05-04T10:22:55.089Z</time>
      </trkpt>
      <trkpt lat="48.06902" lon="-2.9672">
        <ele>113.952374</ele>
        <time>2023-05-04T10:22:58.094Z</time>
      </trkpt>
      <trkpt lat="48.06911" lon="-2.96704">
        <ele>114.036519</ele>
        <time>2023-05-04T10:23:01.088Z</time>
      </trkpt>
      <trkpt lat="48.06919" lon="-2.9669">
        <ele>114.112273</ele>
        <time>2023-05-04T10:23:03.090Z</time>
      </trkpt>
      <trkpt lat="48.06929" lon="-2.96677">
        <ele>114.192028</ele>
        <time>2023-05-04T10:23:05.084Z</time>
      </trkpt>
      <trkpt lat="48.06938" lon="-2.96665">
        <ele>114.26588</ele>
        <time>2023-05-04T10:23:07.090Z</time>
      </trkpt>
      <trkpt lat="48.06948" lon="-2.96656">
        <ele>114.338375</ele>
        <time>2023-05-04T10:23:09.091Z</time>
      </trkpt>
      <trkpt lat="48.06957" lon="-2.96644">
        <ele>114.410828</ele>
        <time>2023-05-04T10:23:11.087Z</time>
      </trkpt>
      <trkpt lat="48.06965" lon="-2.96635">
        <ele>114.395201</ele>
        <time>2023-05-04T10:23:13.093Z</time>
      </trkpt>
      <trkpt lat="48.06975" lon="-2.96624">
        <ele>113.998793</ele>
        <time>2023-05-04T10:23:16.090Z</time>
      </trkpt>
      <trkpt lat="48.06985" lon="-2.96614">
        <ele>113.603359</ele>
        <time>2023-05-04T10:23:19.097Z</time>
      </trkpt>
      <trkpt lat="48.06994" lon="-2.96604">
        <ele>113.260102</ele>
        <time>2023-05-04T10:23:22.091Z</time>
      </trkpt>
      <trkpt lat="48.07002" lon="-2.96598">
        <ele>112.962988</ele>
        <time>2023-05-04T10:23:25.082Z</time>
      </trkpt>
      <trkpt lat="48.07013" lon="-2.96597">
        <ele>112.620165</ele>
        <time>2023-05-04T10:23:30.088Z</time>
      </trkpt>
      <trkpt lat="48.07022" lon="-2.96595">
        <ele>112.314697</ele>
        <time>2023-05-04T10:23:50.090Z</time>
      </trkpt>
      <trkpt lat="48.07031" lon="-2.96591">
        <ele>112.003951</ele>
        <time>2023-05-04T10:24:13.086Z</time>
      </trkpt>
      <trkpt lat="48.07041" lon="-2.96584">
        <ele>111.654936</ele>
        <time>2023-05-04T10:24:17.089Z</time>
      </trkpt>
      <trkpt lat="48.07052" lon="-2.96577">
        <ele>111.26964</ele>
        <time>2023-05-04T10:24:20.090Z</time>
      </trkpt>
      <trkpt lat="48.07062" lon="-2.9657">
        <ele>110.922025</ele>
        <time>2023-05-04T10:24:23.089Z</time>
      </trkpt>
      <trkpt lat="48.07071" lon="-2.96562">
        <ele>110.578513</ele>
        <time>2023-05-04T10:24:26.084Z</time>
      </trkpt>
      <trkpt lat="48.07079" lon="-2.96555">
        <ele>110.278496</ele>
        <time>2023-05-04T10:24:28.085Z</time>
      </trkpt>
      <trkpt lat="48.07088" lon="-2.96547">
        <ele>109.956991</ele>
        <time>2023-05-04T10:24:31.088Z</time>
      </trkpt>
      <trkpt lat="48.07096" lon="-2.96538">
        <ele>109.612364</ele>
        <time>2023-05-04T10:24:34.094Z</time>
      </trkpt>
      <trkpt lat="48.07105" lon="-2.96526">
        <ele>109.235781</ele>
        <time>2023-05-04T10:24:37.085Z</time>
      </trkpt>
      <trkpt lat="48.07114" lon="-2.96517">
        <ele>108.87178</ele>
        <time>2023-05-04T10:24:40.084Z</time>
      </trkpt>
      <trkpt lat="48.07124" lon="-2.96511">
        <ele>108.732237</ele>
        <time>2023-05-04T10:24:43.090Z</time>
      </trkpt>
      <trkpt lat="48.07134" lon="-2.9651">
        <ele>108.937412</ele>
        <time>2023-05-04T10:24:47.091Z</time>
      </trkpt>
      <trkpt lat="48.07144" lon="-2.96507">
        <ele>109.122914</ele>
        <time>2023-05-04T10:24:51.090Z</time>
      </trkpt>
      <trkpt lat="48.07153" lon="-2.96503">
        <ele>109.296745</ele>
        <time>2023-05-04T10:24:54.085Z</time>
      </trkpt>
      <trkpt lat="48.07162" lon="-2.96499">
        <ele>109.489413</ele>
        <time>2023-05-04T10:24:57.089Z</time>
      </trkpt>
      <trkpt lat="48.07172" lon="-2.96494">
        <ele>109.678419</ele>
        <time>2023-05-04T10:25:00.085Z</time>
      </trkpt>
      <trkpt lat="48.07181" lon="-2.96489">
        <ele>109.862404</ele>
        <time>2023-05-04T10:25:03.089Z</time>
      </trkpt>
      <trkpt lat="48.0719" lon="-2.9648">
        <ele>110.063446</ele>
        <time>2023-05-04T10:25:06.088Z</time>
      </trkpt>
      <trkpt lat="48.072" lon="-2.96474">
        <ele>110.270465</ele>
        <time>2023-05-04T10:25:09.078Z</time>
      </trkpt>
      <trkpt lat="48.07209" lon="-2.96472">
        <ele>110.446554</ele>
        <time>2023-05-04T10:25:12.094Z</time>
      </trkpt>
      <trkpt lat="48.07218" lon="-2.96467">
        <ele>110.629021</ele>
        <time>2023-05-04T10:25:16.091Z</time>
      </trkpt>
      <trkpt lat="48.07229" lon="-2.96458">
        <ele>110.871121</ele>
        <time>2023-05-04T10:25:20.089Z</time>
      </trkpt>
      <trkpt lat="48.07236" lon="-2.96449">
        <ele>111.051583</ele>
        <time>2023-05-04T10:25:22.084Z</time>
      </trkpt>
      <trkpt lat="48.07244" lon="-2.96441">
        <ele>111.232004</ele>
        <time>2023-05-04T10:25:24.078Z</time>
      </trkpt>
      <trkpt lat="48.07254" lon="-2.96432">
        <ele>111.462188</ele>
        <time>2023-05-04T10:25:27.090Z</time>
      </trkpt>
      <trkpt lat="48.07264" lon="-2.96426">
        <ele>111.668598</ele>
        <time>2023-05-04T10:25:30.085Z</time>
      </trkpt>
      <trkpt lat="48.07275" lon="-2.96421">
        <ele>111.877019</ele>
        <time>2023-05-04T10:25:33.086Z</time>
      </trkpt>
      <trkpt lat="48.07284" lon="-2.96414">
        <ele>112.071683</ele>
        <time>2023-05-04T10:25:36.088Z</time>
      </trkpt>
      <trkpt lat="48.07294" lon="-2.96405">
        <ele>112.057816</ele>
        <time>2023-05-04T10:25:39.087Z</time>
      </trkpt>
      <trkpt lat="48.07303" lon="-2.96394">
        <ele>112.015423</ele>
        <time>2023-05-04T10:25:42.091Z</time>
      </trkpt>
      <trkpt lat="48.07313" lon="-2.9639">
        <ele>111.975486</ele>
        <time>2023-05-04T10:25:45.083Z</time>
      </trkpt>
      <trkpt lat="48.07323" lon="-2.96382">
        <ele>111.933939</ele>
        <time>2023-05-04T10:25:48.091Z</time>
      </trkpt>
      <trkpt lat="48.07331" lon="-2.96375">
        <ele>111.898476</ele>
        <time>2023-05-04T10:25:50.090Z</time>
      </trkpt>
      <trkpt lat="48.0734" lon="-2.96369">
        <ele>111.861347</ele>
        <time>2023-05-04T10:25:52.092Z</time>
      </trkpt>
      <trkpt lat="48.07349" lon="-2.96363">
        <ele>111.825878</ele>
        <time>2023-05-04T10:25:54.073Z</time>
      </trkpt>
      <trkpt lat="48.07358" lon="-2.96356">
        <ele>111.788551</ele>
        <time>2023-05-04T10:25:57.077Z</time>
      </trkpt>
      <trkpt lat="48.07367" lon="-2.9635">
        <ele>111.753104</ele>
        <time>2023-05-04T10:26:00.079Z</time>
      </trkpt>
      <trkpt lat="48.07376" lon="-2.96341">
        <ele>111.710277</ele>
        <time>2023-05-04T10:26:04.089Z</time>
      </trkpt>
      <trkpt lat="48.07384" lon="-2.96332">
        <ele>111.674738</ele>
        <time>2023-05-04T10:26:07.089Z</time>
      </trkpt>
      <trkpt lat="48.07391" lon="-2.96322">
        <ele>111.638969</ele>
        <time>2023-05-04T10:26:10.089Z</time>
      </trkpt>
      <trkpt lat="48.07397" lon="-2.96311">
        <ele>111.603881</ele>
        <time>2023-05-04T10:26:13.096Z</time>
      </trkpt>
      <trkpt lat="48.07403" lon="-2.96301">
        <ele>111.569789</ele>
        <time>2023-05-04T10:26:16.097Z</time>
      </trkpt>
      <trkpt lat="48.0741" lon="-2.96288">
        <ele>111.527274</ele>
        <time>2023-05-04T10:26:20.090Z</time>
      </trkpt>
      <trkpt lat="48.07416" lon="-2.96274">
        <ele>111.487405</ele>
        <time>2023-05-04T10:26:24.089Z</time>
      </trkpt>
      <trkpt lat="48.07421" lon="-2.96259">
        <ele>111.445169</ele>
        <time>2023-05-04T10:26:28.090Z</time>
      </trkpt>
      <trkpt lat="48.07424" lon="-2.96246">
        <ele>111.447949</ele>
        <time>2023-05-04T10:26:32.095Z</time>
      </trkpt>
      <trkpt lat="48.07424" lon="-2.96232">
        <ele>111.485636</ele>
        <time>2023-05-04T10:26:37.099Z</time>
      </trkpt>
      <trkpt lat="48.07432" lon="-2.96221">
        <ele>111.527735</ele>
        <time>2023-05-04T10:26:44.096Z</time>
      </trkpt>
      <trkpt lat="48.07442" lon="-2.96225">
        <ele>111.571454</ele>
        <time>2023-05-04T10:26:49.092Z</time>
      </trkpt>
      <trkpt lat="48.0745" lon="-2.96233">
        <ele>111.61071</ele>
        <time>2023-05-04T10:26:54.094Z</time>
      </trkpt>
      <trkpt lat="48.09498" lon="-2.93648">
        <ele>124.217954</ele>
        <time>2023-05-04T10:50:05.090Z</time>
      </trkpt>
      <trkpt lat="48.09524" lon="-2.93649">
        <ele>124.628619</ele>
        <time>2023-05-04T10:52:35.087Z</time>
      </trkpt>
      <trkpt lat="48.09533" lon="-2.93648">
        <ele>124.77253</ele>
        <time>2023-05-04T10:52:38.087Z</time>
      </trkpt>
      <trkpt lat="48.09544" lon="-2.93648">
        <ele>124.939185</ele>
        <time>2023-05-04T10:52:41.075Z</time>
      </trkpt>
      <trkpt lat="48.09555" lon="-2.93646">
        <ele>125.109684</ele>
        <time>2023-05-04T10:52:44.088Z</time>
      </trkpt>
      <trkpt lat="48.09566" lon="-2.93645">
        <ele>125.282801</ele>
        <time>2023-05-04T10:52:47.101Z</time>
      </trkpt>
      <trkpt lat="48.09575" lon="-2.93644">
        <ele>125.432372</ele>
        <time>2023-05-04T10:52:50.083Z</time>
      </trkpt>
      <trkpt lat="48.09585" lon="-2.93646">
        <ele>125.585661</ele>
        <time>2023-05-04T10:52:54.089Z</time>
      </trkpt>
      <trkpt lat="48.09597" lon="-2.93648">
        <ele>125.774555</ele>
        <time>2023-05-04T10:52:59.084Z</time>
      </trkpt>
      <trkpt lat="48.09608" lon="-2.93651">
        <ele>125.94575</ele>
        <time>2023-05-04T10:53:03.086Z</time>
      </trkpt>
      <trkpt lat="48.09618" lon="-2.93652">
        <ele>126.116455</ele>
        <time>2023-05-04T10:53:07.094Z</time>
      </trkpt>
      <trkpt lat="48.09629" lon="-2.93653">
        <ele>126.278583</ele>
        <time>2023-05-04T10:53:10.098Z</time>
      </trkpt>
      <trkpt lat="48.09638" lon="-2.93655">
        <ele>126.42599</ele>
        <time>2023-05-04T10:53:13.084Z</time>
      </trkpt>
      <trkpt lat="48.09651" lon="-2.93653">
        <ele>126.625056</ele>
        <time>2023-05-04T10:53:17.089Z</time>
      </trkpt>
      <trkpt lat="48.09662" lon="-2.93653">
        <ele>126.633204</ele>
        <time>2023-05-04T10:53:20.090Z</time>
      </trkpt>
      <trkpt lat="48.09672" lon="-2.93654">
        <ele>126.630893</ele>
        <time>2023-05-04T10:53:23.091Z</time>
      </trkpt>
      <trkpt lat="48.09684" lon="-2.93658">
        <ele>126.628114</ele>
        <time>2023-05-04T10:53:27.095Z</time>
      </trkpt>
      <trkpt lat="48.09694" lon="-2.93665">
        <ele>126.625705</ele>
        <time>2023-05-04T10:53:31.085Z</time>
      </trkpt>
      <trkpt lat="48.09703" lon="-2.93671">
        <ele>126.623459</ele>
        <time>2023-05-04T10:53:36.085Z</time>
      </trkpt>
      <trkpt lat="48.09714" lon="-2.93677">
        <ele>126.620939</ele>
        <time>2023-05-04T10:53:40.096Z</time>
      </trkpt>
      <trkpt lat="48.09723" lon="-2.93682">
        <ele>126.618752</ele>
        <time>2023-05-04T10:53:43.092Z</time>
      </trkpt>
      <trkpt lat="48.09731" lon="-2.9369">
        <ele>126.616448</ele>
        <time>2023-05-04T10:53:46.083Z</time>
      </trkpt>
      <trkpt lat="48.09742" lon="-2.93696">
        <ele>126.613896</ele>
        <time>2023-05-04T10:53:50.094Z</time>
      </trkpt>
      <trkpt lat="48.09751" lon="-2.93702">
        <ele>126.611565</ele>
        <time>2023-05-04T10:53:54.088Z</time>
      </trkpt>
      <trkpt lat="48.09763" lon="-2.93705">
        <ele>126.608948</ele>
        <time>2023-05-04T10:53:58.095Z</time>
      </trkpt>
      <trkpt lat="48.09773" lon="-2.9371">
        <ele>126.606585</ele>
        <time>2023-05-04T10:54:02.092Z</time>
      </trkpt>
      <trkpt lat="48.09783" lon="-2.93717">
        <ele>126.60409</ele>
        <time>2023-05-04T10:54:07.085Z</time>
      </trkpt>
      <trkpt lat="48.09791" lon="-2.93724">
        <ele>126.601835</ele>
        <time>2023-05-04T10:54:10.094Z</time>
      </trkpt>
      <trkpt lat="48.09801" lon="-2.93731">
        <ele>126.599508</ele>
        <time>2023-05-04T10:54:13.083Z</time>
      </trkpt>
      <trkpt lat="48.0981" lon="-2.93735">
        <ele>126.597389</ele>
        <time>2023-05-04T10:54:16.086Z</time>
      </trkpt>
      <trkpt lat="48.09819" lon="-2.93742">
        <ele>126.59388</ele>
        <time>2023-05-04T10:54:19.083Z</time>
      </trkpt>
      <trkpt lat="48.09829" lon="-2.93752">
        <ele>126.527262</ele>
        <time>2023-05-04T10:54:22.091Z</time>
      </trkpt>
      <trkpt lat="48.09838" lon="-2.93758">
        <ele>126.469261</ele>
        <time>2023-05-04T10:54:25.094Z</time>
      </trkpt>
      <trkpt lat="48.09847" lon="-2.93764">
        <ele>126.411161</ele>
        <time>2023-05-04T10:54:28.095Z</time>
      </trkpt>
      <trkpt lat="48.09856" lon="-2.9377">
        <ele>126.357618</ele>
        <time>2023-05-04T10:54:31.087Z</time>
      </trkpt>
      <trkpt lat="48.09866" lon="-2.93775">
        <ele>126.296816</ele>
        <time>2023-05-04T10:54:34.082Z</time>
      </trkpt>
      <trkpt lat="48.09876" lon="-2.9378">
        <ele>126.233573</ele>
        <time>2023-05-04T10:54:37.093Z</time>
      </trkpt>
      <trkpt lat="48.09887" lon="-2.93786">
        <ele>126.166287</ele>
        <time>2023-05-04T10:54:40.097Z</time>
      </trkpt>
      <trkpt lat="48.09896" lon="-2.93794">
        <ele>126.107571</ele>
        <time>2023-05-04T10:54:43.093Z</time>
      </trkpt>
      <trkpt lat="48.09906" lon="-2.938">
        <ele>126.044282</ele>
        <time>2023-05-04T10:54:47.094Z</time>
      </trkpt>
      <trkpt lat="48.09916" lon="-2.93807">
        <ele>125.983113</ele>
        <time>2023-05-04T10:54:51.084Z</time>
      </trkpt>
      <trkpt lat="48.09927" lon="-2.93808">
        <ele>125.915773</ele>
        <time>2023-05-04T10:54:55.086Z</time>
      </trkpt>
      <trkpt lat="48.09939" lon="-2.93804">
        <ele>125.844753</ele>
        <time>2023-05-04T10:54:58.094Z</time>
      </trkpt>
      <trkpt lat="48.09949" lon="-2.93806">
        <ele>125.78663</ele>
        <time>2023-05-04T10:55:01.092Z</time>
      </trkpt>
      <trkpt lat="48.09958" lon="-2.93813">
        <ele>125.724983</ele>
        <time>2023-05-04T10:55:04.088Z</time>
      </trkpt>
      <trkpt lat="48.09968" lon="-2.93821">
        <ele>125.663494</ele>
        <time>2023-05-04T10:55:07.089Z</time>
      </trkpt>
      <trkpt lat="48.09976" lon="-2.93831">
        <ele>125.603189</ele>
        <time>2023-05-04T10:55:10.089Z</time>
      </trkpt>
      <trkpt lat="48.09985" lon="-2.9384">
        <ele>125.4634</ele>
        <time>2023-05-04T10:55:14.084Z</time>
      </trkpt>
      <trkpt lat="48.09995" lon="-2.9385">
        <ele>125.138069</ele>
        <time>2023-05-04T10:55:18.090Z</time>
      </trkpt>
      <trkpt lat="48.10007" lon="-2.93853">
        <ele>124.812788</ele>
        <time>2023-05-04T10:55:22.092Z</time>
      </trkpt>
      <trkpt lat="48.10016" lon="-2.93857">
        <ele>124.541764</ele>
        <time>2023-05-04T10:55:25.096Z</time>
      </trkpt>
      <trkpt lat="48.10026" lon="-2.93864">
        <ele>124.257755</ele>
        <time>2023-05-04T10:55:28.094Z</time>
      </trkpt>
      <trkpt lat="48.10035" lon="-2.9387">
        <ele>123.983383</ele>
        <time>2023-05-04T10:55:31.087Z</time>
      </trkpt>
      <trkpt lat="48.10045" lon="-2.9388">
        <ele>123.655497</ele>
        <time>2023-05-04T10:55:35.093Z</time>
      </trkpt>
      <trkpt lat="48.10054" lon="-2.93888">
        <ele>123.372634</ele>
        <time>2023-05-04T10:55:38.095Z</time>
      </trkpt>
      <trkpt lat="48.10064" lon="-2.93894">
        <ele>123.076166</ele>
        <time>2023-05-04T10:55:41.087Z</time>
      </trkpt>
      <trkpt lat="48.10073" lon="-2.939">
        <ele>122.790597</ele>
        <time>2023-05-04T10:55:44.094Z</time>
      </trkpt>
      <trkpt lat="48.10082" lon="-2.93902">
        <ele>122.534766</ele>
        <time>2023-05-04T10:55:47.093Z</time>
      </trkpt>
      <trkpt lat="48.10093" lon="-2.93905">
        <ele>122.24732</ele>
        <time>2023-05-04T10:55:51.077Z</time>
      </trkpt>
      <trkpt lat="48.10105" lon="-2.93904">
        <ele>121.903208</ele>
        <time>2023-05-04T10:55:55.095Z</time>
      </trkpt>
      <trkpt lat="48.10116" lon="-2.93904">
        <ele>121.614111</ele>
        <time>2023-05-04T10:55:58.087Z</time>
      </trkpt>
      <trkpt lat="48.10126" lon="-2.93908">
        <ele>121.332401</ele>
        <time>2023-05-04T10:56:01.089Z</time>
      </trkpt>
      <trkpt lat="48.10134" lon="-2.93915">
        <ele>121.050454</ele>
        <time>2023-05-04T10:56:04.080Z</time>
      </trkpt>
      <trkpt lat="48.10143" lon="-2.93921">
        <ele>120.788741</ele>
        <time>2023-05-04T10:56:07.088Z</time>
      </trkpt>
      <trkpt lat="48.10155" lon="-2.93922">
        <ele>120.737713</ele>
        <time>2023-05-04T10:56:11.087Z</time>
      </trkpt>
      <trkpt lat="48.10164" lon="-2.93925">
        <ele>120.999141</ele>
        <time>2023-05-04T10:56:14.084Z</time>
      </trkpt>
      <trkpt lat="48.10172" lon="-2.9393">
        <ele>121.250585</ele>
        <time>2023-05-04T10:56:17.091Z</time>
      </trkpt>
      <trkpt lat="48.10181" lon="-2.93936">
        <ele>121.499808</ele>
        <time>2023-05-04T10:56:20.090Z</time>
      </trkpt>
      <trkpt lat="48.10191" lon="-2.93942">
        <ele>121.792304</ele>
        <time>2023-05-04T10:56:23.086Z</time>
      </trkpt>
      <trkpt lat="48.10201" lon="-2.93948">
        <ele>122.098916</ele>
        <time>2023-05-04T10:56:26.094Z</time>
      </trkpt>
      <trkpt lat="48.10211" lon="-2.93954">
        <ele>122.390057</ele>
        <time>2023-05-04T10:56:29.094Z</time>
      </trkpt>
      <trkpt lat="48.10221" lon="-2.93956">
        <ele>122.665052</ele>
        <time>2023-05-04T10:56:32.086Z</time>
      </trkpt>
      <trkpt lat="48.1023" lon="-2.93959">
        <ele>122.917621</ele>
        <time>2023-05-04T10:56:35.086Z</time>
      </trkpt>
      <trkpt lat="48.10241" lon="-2.93966">
        <ele>123.241597</ele>
        <time>2023-05-04T10:56:39.090Z</time>
      </trkpt>
      <trkpt lat="48.1025" lon="-2.93968">
        <ele>123.512095</ele>
        <time>2023-05-04T10:56:42.086Z</time>
      </trkpt>
      <trkpt lat="48.10261" lon="-2.93971">
        <ele>123.797851</ele>
        <time>2023-05-04T10:56:45.091Z</time>
      </trkpt>
      <trkpt lat="48.10271" lon="-2.93977">
        <ele>124.110873</ele>
        <time>2023-05-04T10:56:48.089Z</time>
      </trkpt>
      <trkpt lat="48.1028" lon="-2.93983">
        <ele>124.373286</ele>
        <time>2023-05-04T10:56:51.087Z</time>
      </trkpt>
      <trkpt lat="48.10289" lon="-2.93988">
        <ele>124.633634</ele>
        <time>2023-05-04T10:56:54.083Z</time>
      </trkpt>
      <trkpt lat="48.10298" lon="-2.93993">
        <ele>124.904352</ele>
        <time>2023-05-04T10:56:58.088Z</time>
      </trkpt>
      <trkpt lat="48.10308" lon="-2.93998">
        <ele>125.196365</ele>
        <time>2023-05-04T10:57:03.089Z</time>
      </trkpt>
      <trkpt lat="48.10319" lon="-2.93999">
        <ele>125.484499</ele>
        <time>2023-05-04T10:57:08.089Z</time>
      </trkpt>
      <trkpt lat="48.10328" lon="-2.94001">
        <ele>125.447509</ele>
        <time>2023-05-04T10:57:12.085Z</time>
      </trkpt>
      <trkpt lat="48.10338" lon="-2.94004">
        <ele>125.330924</ele>
        <time>2023-05-04T10:57:17.093Z</time>
      </trkpt>
      <trkpt lat="48.10347" lon="-2.94006">
        <ele>125.220242</ele>
        <time>2023-05-04T10:57:22.082Z</time>
      </trkpt>
      <trkpt lat="48.10357" lon="-2.94012">
        <ele>125.093053</ele>
        <time>2023-05-04T10:57:26.089Z</time>
      </trkpt>
      <trkpt lat="48.10367" lon="-2.9401">
        <ele>124.976537</ele>
        <time>2023-05-04T10:57:28.089Z</time>
      </trkpt>
      <trkpt lat="48.10376" lon="-2.94013">
        <ele>124.867917</ele>
        <time>2023-05-04T10:57:30.094Z</time>
      </trkpt>
      <trkpt lat="48.10389" lon="-2.94016">
        <ele>124.712716</ele>
        <time>2023-05-04T10:57:33.086Z</time>
      </trkpt>
      <trkpt lat="48.10403" lon="-2.94019">
        <ele>124.549878</ele>
        <time>2023-05-04T10:57:36.096Z</time>
      </trkpt>
      <trkpt lat="48.10415" lon="-2.94023">
        <ele>124.397894</ele>
        <time>2023-05-04T10:57:39.091Z</time>
      </trkpt>
      <trkpt lat="48.10424" lon="-2.94032">
        <ele>124.273236</ele>
        <time>2023-05-04T10:57:42.092Z</time>
      </trkpt>
      <trkpt lat="48.10434" lon="-2.94036">
        <ele>124.150889</ele>
        <time>2023-05-04T10:57:45.094Z</time>
      </trkpt>
      <trkpt lat="48.10443" lon="-2.9404">
        <ele>124.037811</ele>
        <time>2023-05-04T10:57:48.094Z</time>
      </trkpt>
      <trkpt lat="48.10452" lon="-2.94045">
        <ele>123.922431</ele>
        <time>2023-05-04T10:57:51.082Z</time>
      </trkpt>
      <trkpt lat="48.10463" lon="-2.9405">
        <ele>123.795498</ele>
        <time>2023-05-04T10:57:54.088Z</time>
      </trkpt>
      <trkpt lat="48.10473" lon="-2.94055">
        <ele>123.667748</ele>
        <time>2023-05-04T10:57:57.094Z</time>
      </trkpt>
      <trkpt lat="48.10484" lon="-2.94059">
        <ele>123.539087</ele>
        <time>2023-05-04T10:58:00.086Z</time>
      </trkpt>
      <trkpt lat="48.10494" lon="-2.9406">
        <ele>123.418718</ele>
        <time>2023-05-04T10:58:03.090Z</time>
      </trkpt>
      <trkpt lat="48.10504" lon="-2.94059">
        <ele>123.737035</ele>
        <time>2023-05-04T10:58:06.095Z</time>
      </trkpt>
      <trkpt lat="48.10513" lon="-2.94062">
        <ele>124.021011</ele>
        <time>2023-05-04T10:58:09.090Z</time>
      </trkpt>
      <trkpt lat="48.10524" lon="-2.94065">
        <ele>124.348113</ele>
        <time>2023-05-04T10:58:13.083Z</time>
      </trkpt>
      <trkpt lat="48.10533" lon="-2.94068">
        <ele>124.627826</ele>
        <time>2023-05-04T10:58:16.093Z</time>
      </trkpt>
      <trkpt lat="48.10543" lon="-2.9407">
        <ele>124.939315</ele>
        <time>2023-05-04T10:58:19.092Z</time>
      </trkpt>
      <trkpt lat="48.10552" lon="-2.94072">
        <ele>125.241353</ele>
        <time>2023-05-04T10:58:22.091Z</time>
      </trkpt>
      <trkpt lat="48.10562" lon="-2.94077">
        <ele>125.554212</ele>
        <time>2023-05-04T10:58:26.094Z</time>
      </trkpt>
      <trkpt lat="48.10572" lon="-2.94083">
        <ele>125.884436</ele>
        <time>2023-05-04T10:58:30.093Z</time>
      </trkpt>
      <trkpt lat="48.10581" lon="-2.9409">
        <ele>126.214755</ele>
        <time>2023-05-04T10:58:34.087Z</time>
      </trkpt>
      <trkpt lat="48.10593" lon="-2.94094">
        <ele>126.591108</ele>
        <time>2023-05-04T10:58:38.087Z</time>
      </trkpt>
      <trkpt lat="48.10604" lon="-2.94094">
        <ele>126.915165</ele>
        <time>2023-05-04T10:58:41.088Z</time>
      </trkpt>
      <trkpt lat="48.10615" lon="-2.94093">
        <ele>127.27415</ele>
        <time>2023-05-04T10:58:45.095Z</time>
      </trkpt>
      <trkpt lat="48.10625" lon="-2.9409">
        <ele>127.583121</ele>
        <time>2023-05-04T10:58:49.089Z</time>
      </trkpt>
      <trkpt lat="48.10634" lon="-2.94085">
        <ele>127.873455</ele>
        <time>2023-05-04T10:58:52.096Z</time>
      </trkpt>
      <trkpt lat="48.10643" lon="-2.94076">
        <ele>128.184238</ele>
        <time>2023-05-04T10:58:56.089Z</time>
      </trkpt>
      <trkpt lat="48.10652" lon="-2.94067">
        <ele>128.532902</ele>
        <time>2023-05-04T10:59:00.082Z</time>
      </trkpt>
      <trkpt lat="48.10661" lon="-2.94056">
        <ele>128.90602</ele>
        <time>2023-05-04T10:59:03.096Z</time>
      </trkpt>
      <trkpt lat="48.10668" lon="-2.94045">
        <ele>129.309976</ele>
        <time>2023-05-04T10:59:05.100Z</time>
      </trkpt>
      <trkpt lat="48.10674" lon="-2.94032">
        <ele>129.772473</ele>
        <time>2023-05-04T10:59:08.096Z</time>
      </trkpt>
      <trkpt lat="48.10678" lon="-2.94019">
        <ele>130.210918</ele>
        <time>2023-05-04T10:59:11.087Z</time>
      </trkpt>
      <trkpt lat="48.10682" lon="-2.94004">
        <ele>130.695559</ele>
        <time>2023-05-04T10:59:15.089Z</time>
      </trkpt>
      <trkpt lat="48.10686" lon="-2.9399">
        <ele>131.142092</ele>
        <time>2023-05-04T10:59:18.094Z</time>
      </trkpt>
      <trkpt lat="48.1069" lon="-2.93972">
        <ele>131.680903</ele>
        <time>2023-05-04T10:59:21.091Z</time>
      </trkpt>
      <trkpt lat="48.10691" lon="-2.93958">
        <ele>132.10303</ele>
        <time>2023-05-04T10:59:24.089Z</time>
      </trkpt>
      <trkpt lat="48.10693" lon="-2.93945">
        <ele>132.517612</ele>
        <time>2023-05-04T10:59:27.094Z</time>
      </trkpt>
      <trkpt lat="48.10692" lon="-2.9393">
        <ele>132.943692</ele>
        <time>2023-05-04T10:59:32.079Z</time>
      </trkpt>
      <trkpt lat="48.10691" lon="-2.93916">
        <ele>133.362434</ele>
        <time>2023-05-04T10:59:36.092Z</time>
      </trkpt>
      <trkpt lat="48.10689" lon="-2.93902">
        <ele>133.777985</ele>
        <time>2023-05-04T10:59:40.098Z</time>
      </trkpt>
      <trkpt lat="48.10687" lon="-2.93887">
        <ele>134.242655</ele>
        <time>2023-05-04T10:59:45.105Z</time>
      </trkpt>
      <trkpt lat="48.10686" lon="-2.93871">
        <ele>134.715999</ele>
        <time>2023-05-04T10:59:48.092Z</time>
      </trkpt>
      <trkpt lat="48.10687" lon="-2.93855">
        <ele>135.18067</ele>
        <time>2023-05-04T10:59:50.092Z</time>
      </trkpt>
      <trkpt lat="48.10688" lon="-2.9384">
        <ele>135.646003</ele>
        <time>2023-05-04T10:59:54.084Z</time>
      </trkpt>
      <trkpt lat="48.10688" lon="-2.93825">
        <ele>136.080606</ele>
        <time>2023-05-04T10:59:58.095Z</time>
      </trkpt>
      <trkpt lat="48.1069" lon="-2.9381">
        <ele>136.535596</ele>
        <time>2023-05-04T11:00:02.097Z</time>
      </trkpt>
      <trkpt lat="48.10692" lon="-2.93795">
        <ele>136.960909</ele>
        <time>2023-05-04T11:00:06.098Z</time>
      </trkpt>
      <trkpt lat="48.10688" lon="-2.9378">
        <ele>137.250498</ele>
        <time>2023-05-04T11:00:11.110Z</time>
      </trkpt>
      <trkpt lat="48.10688" lon="-2.93765">
        <ele>137.516736</ele>
        <time>2023-05-04T11:00:17.079Z</time>
      </trkpt>
      <trkpt lat="48.10685" lon="-2.93751">
        <ele>137.780075</ele>
        <time>2023-05-04T11:00:23.079Z</time>
      </trkpt>
      <trkpt lat="48.10681" lon="-2.93738">
        <ele>138.02805</ele>
        <time>2023-05-04T11:00:30.081Z</time>
      </trkpt>
      <trkpt lat="48.10682" lon="-2.93724">
        <ele>138.286823</ele>
        <time>2023-05-04T11:00:38.077Z</time>
      </trkpt>
      <trkpt lat="48.10685" lon="-2.93709">
        <ele>138.553554</ele>
        <time>2023-05-04T11:00:42.101Z</time>
      </trkpt>
      <trkpt lat="48.10686" lon="-2.93693">
        <ele>138.845015</ele>
        <time>2023-05-04T11:00:47.085Z</time>
      </trkpt>
      <trkpt lat="48.10683" lon="-2.93679">
        <ele>139.099618</ele>
        <time>2023-05-04T11:00:52.078Z</time>
      </trkpt>
      <trkpt lat="48.10679" lon="-2.93667">
        <ele>139.345487</ele>
        <time>2023-05-04T11:00:56.089Z</time>
      </trkpt>
      <trkpt lat="48.10677" lon="-2.93652">
        <ele>139.616319</ele>
        <time>2023-05-04T11:01:01.093Z</time>
      </trkpt>
      <trkpt lat="48.10675" lon="-2.93638">
        <ele>139.869628</ele>
        <time>2023-05-04T11:01:07.093Z</time>
      </trkpt>
      <trkpt lat="48.10674" lon="-2.93623">
        <ele>140.150139</ele>
        <time>2023-05-04T11:01:12.090Z</time>
      </trkpt>
      <trkpt lat="48.10672" lon="-2.93608">
        <ele>140.424986</ele>
        <time>2023-05-04T11:01:17.088Z</time>
      </trkpt>
      <trkpt lat="48.10672" lon="-2.93594">
        <ele>140.673516</ele>
        <time>2023-05-04T11:01:21.096Z</time>
      </trkpt>
      <trkpt lat="48.10671" lon="-2.93577">
        <ele>140.964977</ele>
        <time>2023-05-04T11:01:26.090Z</time>
      </trkpt>
      <trkpt lat="48.10671" lon="-2.93564">
        <ele>141.206539</ele>
        <time>2023-05-04T11:01:31.090Z</time>
      </trkpt>
      <trkpt lat="48.10671" lon="-2.93549">
        <ele>141.475201</ele>
        <time>2023-05-04T11:01:35.095Z</time>
      </trkpt>
      <trkpt lat="48.10671" lon="-2.93535">
        <ele>141.726956</ele>
        <time>2023-05-04T11:01:39.095Z</time>
      </trkpt>
      <trkpt lat="48.10673" lon="-2.93517">
        <ele>142.070911</ele>
        <time>2023-05-04T11:01:43.088Z</time>
      </trkpt>
      <trkpt lat="48.10674" lon="-2.93503">
        <ele>142.344921</ele>
        <time>2023-05-04T11:01:46.095Z</time>
      </trkpt>
      <trkpt lat="48.10675" lon="-2.93486">
        <ele>142.683812</ele>
        <time>2023-05-04T11:01:50.095Z</time>
      </trkpt>
      <trkpt lat="48.10675" lon="-2.9347">
        <ele>142.988152</ele>
        <time>2023-05-04T11:01:55.098Z</time>
      </trkpt>
      <trkpt lat="48.10677" lon="-2.93456">
        <ele>143.282615</ele>
        <time>2023-05-04T11:01:59.091Z</time>
      </trkpt>
      <trkpt lat="48.10678" lon="-2.93442">
        <ele>143.554243</ele>
        <time>2023-05-04T11:02:03.092Z</time>
      </trkpt>
      <trkpt lat="48.10679" lon="-2.93428">
        <ele>143.831224</ele>
        <time>2023-05-04T11:02:07.087Z</time>
      </trkpt>
      <trkpt lat="48.10681" lon="-2.93412">
        <ele>144.147635</ele>
        <time>2023-05-04T11:02:12.085Z</time>
      </trkpt>
      <trkpt lat="48.10683" lon="-2.93395">
        <ele>144.476232</ele>
        <time>2023-05-04T11:02:17.096Z</time>
      </trkpt>
      <trkpt lat="48.10684" lon="-2.93381">
        <ele>144.740527</ele>
        <time>2023-05-04T11:02:22.093Z</time>
      </trkpt>
      <trkpt lat="48.10683" lon="-2.93364">
        <ele>145.080043</ele>
        <time>2023-05-04T11:02:27.090Z</time>
      </trkpt>
      <trkpt lat="48.10684" lon="-2.93347">
        <ele>145.41627</ele>
        <time>2023-05-04T11:02:31.091Z</time>
      </trkpt>
      <trkpt lat="48.10685" lon="-2.93333">
        <ele>145.686115</ele>
        <time>2023-05-04T11:02:34.094Z</time>
      </trkpt>
      <trkpt lat="48.10687" lon="-2.93317">
        <ele>146.013613</ele>
        <time>2023-05-04T11:02:38.093Z</time>
      </trkpt>
      <trkpt lat="48.10687" lon="-2.933">
        <ele>146.341435</ele>
        <time>2023-05-04T11:02:43.091Z</time>
      </trkpt>
      <trkpt lat="48.10685" lon="-2.93283">
        <ele>146.664105</ele>
        <time>2023-05-04T11:02:47.092Z</time>
      </trkpt>
      <trkpt lat="48.10683" lon="-2.93268">
        <ele>146.963737</ele>
        <time>2023-05-04T11:02:51.097Z</time>
      </trkpt>
      <trkpt lat="48.10682" lon="-2.93253">
        <ele>147.038005</ele>
        <time>2023-05-04T11:02:55.120Z</time>
      </trkpt>
      <trkpt lat="48.1068" lon="-2.9324">
        <ele>147.085988</ele>
        <time>2023-05-04T11:02:58.096Z</time>
      </trkpt>
      <trkpt lat="48.10679" lon="-2.93226">
        <ele>147.135425</ele>
        <time>2023-05-04T11:03:01.099Z</time>
      </trkpt>
      <trkpt lat="48.1068" lon="-2.93209">
        <ele>147.194074</ele>
        <time>2023-05-04T11:03:05.096Z</time>
      </trkpt>
      <trkpt lat="48.10678" lon="-2.93194">
        <ele>147.250896</ele>
        <time>2023-05-04T11:03:09.093Z</time>
      </trkpt>
      <trkpt lat="48.10675" lon="-2.93181">
        <ele>147.298926</ele>
        <time>2023-05-04T11:03:13.097Z</time>
      </trkpt>
      <trkpt lat="48.10672" lon="-2.93166">
        <ele>147.352916</ele>
        <time>2023-05-04T11:03:17.100Z</time>
      </trkpt>
      <trkpt lat="48.11645" lon="-2.8343">
        <ele>182.127402</ele>
        <time>2023-05-04T11:59:23.088Z</time>
      </trkpt>
      <trkpt lat="48.11637" lon="-2.83417">
        <ele>182.192099</ele>
        <time>2023-05-04T12:00:42.106Z</time>
      </trkpt>
      <trkpt lat="48.11631" lon="-2.83403">
        <ele>181.847188</ele>
        <time>2023-05-04T12:00:46.099Z</time>
      </trkpt>
      <trkpt lat="48.11624" lon="-2.8339">
        <ele>181.423878</ele>
        <time>2023-05-04T12:00:50.097Z</time>
      </trkpt>
      <trkpt lat="48.11618" lon="-2.83376">
        <ele>181.011194</ele>
        <time>2023-05-04T12:00:54.093Z</time>
      </trkpt>
      <trkpt lat="48.11612" lon="-2.83361">
        <ele>180.560249</ele>
        <time>2023-05-04T12:00:58.104Z</time>
      </trkpt>
      <trkpt lat="48.11605" lon="-2.83345">
        <ele>180.075462</ele>
        <time>2023-05-04T12:01:01.101Z</time>
      </trkpt>
      <trkpt lat="48.11597" lon="-2.83327">
        <ele>179.50793</ele>
        <time>2023-05-04T12:01:04.099Z</time>
      </trkpt>
      <trkpt lat="48.11589" lon="-2.83312">
        <ele>179.013406</ele>
        <time>2023-05-04T12:01:07.092Z</time>
      </trkpt>
      <trkpt lat="48.11582" lon="-2.83298">
        <ele>178.591923</ele>
        <time>2023-05-04T12:01:10.106Z</time>
      </trkpt>
      <trkpt lat="48.11575" lon="-2.83288">
        <ele>178.206893</ele>
        <time>2023-05-04T12:01:12.100Z</time>
      </trkpt>
      <trkpt lat="48.11568" lon="-2.83278">
        <ele>177.826599</ele>
        <time>2023-05-04T12:01:14.091Z</time>
      </trkpt>
      <trkpt lat="48.1156" lon="-2.83268">
        <ele>177.435271</ele>
        <time>2023-05-04T12:01:16.082Z</time>
      </trkpt>
      <trkpt lat="48.11549" lon="-2.83257">
        <ele>176.936242</ele>
        <time>2023-05-04T12:01:19.098Z</time>
      </trkpt>
      <trkpt lat="48.11539" lon="-2.83247">
        <ele>176.493439</ele>
        <time>2023-05-04T12:01:22.104Z</time>
      </trkpt>
      <trkpt lat="48.1153" lon="-2.83239">
        <ele>176.096136</ele>
        <time>2023-05-04T12:01:24.095Z</time>
      </trkpt>
      <trkpt lat="48.11522" lon="-2.83229">
        <ele>175.695704</ele>
        <time>2023-05-04T12:01:26.095Z</time>
      </trkpt>
      <trkpt lat="48.11515" lon="-2.83219">
        <ele>175.317382</ele>
        <time>2023-05-04T12:01:28.095Z</time>
      </trkpt>
      <trkpt lat="48.11506" lon="-2.83207">
        <ele>174.760955</ele>
        <time>2023-05-04T12:01:30.087Z</time>
      </trkpt>
      <trkpt lat="48.11498" lon="-2.832">
        <ele>174.29221</ele>
        <time>2023-05-04T12:01:32.086Z</time>
      </trkpt>
      <trkpt lat="48.11492" lon="-2.8319">
        <ele>173.864848</ele>
        <time>2023-05-04T12:01:34.090Z</time>
      </trkpt>
      <trkpt lat="48.11487" lon="-2.83173">
        <ele>173.283269</ele>
        <time>2023-05-04T12:01:37.097Z</time>
      </trkpt>
      <trkpt lat="48.11482" lon="-2.83158">
        <ele>172.758332</ele>
        <time>2023-05-04T12:01:40.091Z</time>
      </trkpt>
      <trkpt lat="48.11474" lon="-2.83147">
        <ele>172.23942</ele>
        <time>2023-05-04T12:01:44.097Z</time>
      </trkpt>
      <trkpt lat="48.11464" lon="-2.83143">
        <ele>171.769664</ele>
        <time>2023-05-04T12:01:53.091Z</time>
      </trkpt>
      <trkpt lat="48.11456" lon="-2.83138">
        <ele>171.334685</ele>
        <time>2023-05-04T12:02:01.087Z</time>
      </trkpt>
      <trkpt lat="48.11448" lon="-2.83129">
        <ele>170.882102</ele>
        <time>2023-05-04T12:02:10.091Z</time>
      </trkpt>
      <trkpt lat="48.1144" lon="-2.83117">
        <ele>170.32589</ele>
        <time>2023-05-04T12:02:24.091Z</time>
      </trkpt>
      <trkpt lat="48.11432" lon="-2.83104">
        <ele>169.773336</ele>
        <time>2023-05-04T12:02:29.091Z</time>
      </trkpt>
      <trkpt lat="48.11426" lon="-2.83092">
        <ele>169.28695</ele>
        <time>2023-05-04T12:02:32.097Z</time>
      </trkpt>
      <trkpt lat="48.11417" lon="-2.83077">
        <ele>168.643205</ele>
        <time>2023-05-04T12:02:35.084Z</time>
      </trkpt>
      <trkpt lat="48.11408" lon="-2.83074">
        <ele>168.21438</ele>
        <time>2023-05-04T12:02:36.088Z</time>
      </trkpt>
      <trkpt lat="48.11401" lon="-2.83063">
        <ele>167.729066</ele>
        <time>2023-05-04T12:02:38.095Z</time>
      </trkpt>
      <trkpt lat="48.11392" lon="-2.83053">
        <ele>167.179483</ele>
        <time>2023-05-04T12:02:40.092Z</time>
      </trkpt>
      <trkpt lat="48.11383" lon="-2.83044">
        <ele>166.765106</ele>
        <time>2023-05-04T12:02:42.093Z</time>
      </trkpt>
      <trkpt lat="48.11375" lon="-2.83034">
        <ele>166.626431</ele>
        <time>2023-05-04T12:02:44.097Z</time>
      </trkpt>
      <trkpt lat="48.11366" lon="-2.83024">
        <ele>166.474928</ele>
        <time>2023-05-04T12:02:46.083Z</time>
      </trkpt>
      <trkpt lat="48.11357" lon="-2.83013">
        <ele>166.31661</ele>
        <time>2023-05-04T12:02:49.094Z</time>
      </trkpt>
      <trkpt lat="48.11346" lon="-2.83">
        <ele>166.134779</ele>
        <time>2023-05-04T12:02:52.096Z</time>
      </trkpt>
      <trkpt lat="48.11339" lon="-2.8299">
        <ele>166.004976</ele>
        <time>2023-05-04T12:02:55.094Z</time>
      </trkpt>
      <trkpt lat="48.11329" lon="-2.82978">
        <ele>165.823649</ele>
        <time>2023-05-04T12:02:58.096Z</time>
      </trkpt>
      <trkpt lat="48.11318" lon="-2.82966">
        <ele>165.646183</ele>
        <time>2023-05-04T12:03:00.090Z</time>
      </trkpt>
      <trkpt lat="48.11312" lon="-2.82956">
        <ele>165.522081</ele>
        <time>2023-05-04T12:03:02.094Z</time>
      </trkpt>
      <trkpt lat="48.11307" lon="-2.82945">
        <ele>165.400462</ele>
        <time>2023-05-04T12:03:04.101Z</time>
      </trkpt>
      <trkpt lat="48.113" lon="-2.82932">
        <ele>165.248097</ele>
        <time>2023-05-04T12:03:06.094Z</time>
      </trkpt>
      <trkpt lat="48.11294" lon="-2.8292">
        <ele>165.107542</ele>
        <time>2023-05-04T12:03:08.095Z</time>
      </trkpt>
      <trkpt lat="48.11289" lon="-2.82904">
        <ele>164.95957</ele>
        <time>2023-05-04T12:03:10.099Z</time>
      </trkpt>
      <trkpt lat="48.11285" lon="-2.82893">
        <ele>164.836911</ele>
        <time>2023-05-04T12:03:12.096Z</time>
      </trkpt>
      <trkpt lat="48.1128" lon="-2.82881">
        <ele>164.707024</ele>
        <time>2023-05-04T12:03:14.093Z</time>
      </trkpt>
      <trkpt lat="48.11273" lon="-2.82865">
        <ele>164.537369</ele>
        <time>2023-05-04T12:03:17.096Z</time>
      </trkpt>
      <trkpt lat="48.11268" lon="-2.82849">
        <ele>164.378672</ele>
        <time>2023-05-04T12:03:20.087Z</time>
      </trkpt>
      <trkpt lat="48.11263" lon="-2.82833">
        <ele>164.050207</ele>
        <time>2023-05-04T12:03:23.095Z</time>
      </trkpt>
      <trkpt lat="48.11253" lon="-2.82803">
        <ele>163.397063</ele>
        <time>2023-05-04T12:03:58.100Z</time>
      </trkpt>
      <trkpt lat="48.11249" lon="-2.82787">
        <ele>163.05526</ele>
        <time>2023-05-04T12:04:01.102Z</time>
      </trkpt>
      <trkpt lat="48.11245" lon="-2.82774">
        <ele>162.770999</ele>
        <time>2023-05-04T12:04:03.094Z</time>
      </trkpt>
      <trkpt lat="48.11241" lon="-2.82759">
        <ele>162.453644</ele>
        <time>2023-05-04T12:04:05.092Z</time>
      </trkpt>
      <trkpt lat="48.11237" lon="-2.82746">
        <ele>162.163979</ele>
        <time>2023-05-04T12:04:07.094Z</time>
      </trkpt>
      <trkpt lat="48.11233" lon="-2.82732">
        <ele>161.873936</ele>
        <time>2023-05-04T12:04:09.094Z</time>
      </trkpt>
      <trkpt lat="48.1123" lon="-2.82717">
        <ele>161.572921</ele>
        <time>2023-05-04T12:04:11.095Z</time>
      </trkpt>
      <trkpt lat="48.1123" lon="-2.82704">
        <ele>161.303746</ele>
        <time>2023-05-04T12:04:13.094Z</time>
      </trkpt>
      <trkpt lat="48.1123" lon="-2.82689">
        <ele>161.008793</ele>
        <time>2023-05-04T12:04:15.092Z</time>
      </trkpt>
      <trkpt lat="48.1123" lon="-2.82673">
        <ele>160.699971</ele>
        <time>2023-05-04T12:04:17.103Z</time>
      </trkpt>
      <trkpt lat="48.11231" lon="-2.82656">
        <ele>160.36005</ele>
        <time>2023-05-04T12:04:20.096Z</time>
      </trkpt>
      <trkpt lat="48.11228" lon="-2.82638">
        <ele>160.010351</ele>
        <time>2023-05-04T12:04:23.095Z</time>
      </trkpt>
      <trkpt lat="48.11226" lon="-2.82621">
        <ele>159.675324</ele>
        <time>2023-05-04T12:04:26.096Z</time>
      </trkpt>
      <trkpt lat="48.11222" lon="-2.82605">
        <ele>159.335019</ele>
        <time>2023-05-04T12:04:29.095Z</time>
      </trkpt>
      <trkpt lat="48.11218" lon="-2.82588">
        <ele>159.041025</ele>
        <time>2023-05-04T12:04:32.091Z</time>
      </trkpt>
      <trkpt lat="48.11216" lon="-2.82571">
        <ele>158.909598</ele>
        <time>2023-05-04T12:04:35.091Z</time>
      </trkpt>
      <trkpt lat="48.11213" lon="-2.82552">
        <ele>158.765776</ele>
        <time>2023-05-04T12:04:38.092Z</time>
      </trkpt>
      <trkpt lat="48.11211" lon="-2.82533">
        <ele>158.618526</ele>
        <time>2023-05-04T12:04:41.100Z</time>
      </trkpt>
      <trkpt lat="48.11209" lon="-2.82519">
        <ele>158.512268</ele>
        <time>2023-05-04T12:04:43.096Z</time>
      </trkpt>
      <trkpt lat="48.11207" lon="-2.82505">
        <ele>158.404333</ele>
        <time>2023-05-04T12:04:45.104Z</time>
      </trkpt>
      <trkpt lat="48.11204" lon="-2.8249">
        <ele>158.286418</ele>
        <time>2023-05-04T12:04:47.105Z</time>
      </trkpt>
      <trkpt lat="48.11203" lon="-2.82474">
        <ele>158.167584</ele>
        <time>2023-05-04T12:04:49.095Z</time>
      </trkpt>
      <trkpt lat="48.11201" lon="-2.82461">
        <ele>158.064755</ele>
        <time>2023-05-04T12:04:51.096Z</time>
      </trkpt>
      <trkpt lat="48.11198" lon="-2.82448">
        <ele>157.963316</ele>
        <time>2023-05-04T12:04:53.100Z</time>
      </trkpt>
      <trkpt lat="48.11195" lon="-2.82434">
        <ele>157.855397</ele>
        <time>2023-05-04T12:04:55.092Z</time>
      </trkpt>
      <trkpt lat="48.11194" lon="-2.82416">
        <ele>157.717287</ele>
        <time>2023-05-04T12:04:58.098Z</time>
      </trkpt>
      <trkpt lat="48.11195" lon="-2.824">
        <ele>157.598283</ele>
        <time>2023-05-04T12:05:00.088Z</time>
      </trkpt>
      <trkpt lat="48.11194" lon="-2.82383">
        <ele>157.467007</ele>
        <time>2023-05-04T12:05:03.106Z</time>
      </trkpt>
      <trkpt lat="48.11192" lon="-2.82368">
        <ele>157.350955</ele>
        <time>2023-05-04T12:05:06.101Z</time>
      </trkpt>
      <trkpt lat="48.1119" lon="-2.82354">
        <ele>157.248797</ele>
        <time>2023-05-04T12:05:09.096Z</time>
      </trkpt>
      <trkpt lat="48.11187" lon="-2.82338">
        <ele>157.12449</ele>
        <time>2023-05-04T12:05:14.091Z</time>
      </trkpt>
      <trkpt lat="48.11187" lon="-2.82323">
        <ele>156.955996</ele>
        <time>2023-05-04T12:05:28.091Z</time>
      </trkpt>
      <trkpt lat="48.11187" lon="-2.82309">
        <ele>156.725516</ele>
        <time>2023-05-04T12:05:47.094Z</time>
      </trkpt>
      <trkpt lat="48.11186" lon="-2.82295">
        <ele>156.487101</ele>
        <time>2023-05-04T12:06:10.096Z</time>
      </trkpt>
      <trkpt lat="48.11183" lon="-2.82279">
        <ele>156.201184</ele>
        <time>2023-05-04T12:06:14.090Z</time>
      </trkpt>
      <trkpt lat="48.1118" lon="-2.82263">
        <ele>155.927283</ele>
        <time>2023-05-04T12:06:17.094Z</time>
      </trkpt>
      <trkpt lat="48.11177" lon="-2.82246">
        <ele>155.630627</ele>
        <time>2023-05-04T12:06:20.091Z</time>
      </trkpt>
      <trkpt lat="48.11172" lon="-2.82231">
        <ele>155.344949</ele>
        <time>2023-05-04T12:06:22.091Z</time>
      </trkpt>
      <trkpt lat="48.11168" lon="-2.82217">
        <ele>155.091123</ele>
        <time>2023-05-04T12:06:24.099Z</time>
      </trkpt>
      <trkpt lat="48.11162" lon="-2.82204">
        <ele>154.830975</ele>
        <time>2023-05-04T12:06:26.096Z</time>
      </trkpt>
      <trkpt lat="48.11157" lon="-2.82191">
        <ele>154.576388</ele>
        <time>2023-05-04T12:06:28.096Z</time>
      </trkpt>
      <trkpt lat="48.11152" lon="-2.82174">
        <ele>154.259944</ele>
        <time>2023-05-04T12:06:31.096Z</time>
      </trkpt>
      <trkpt lat="48.11146" lon="-2.82163">
        <ele>154.028689</ele>
        <time>2023-05-04T12:06:33.097Z</time>
      </trkpt>
      <trkpt lat="48.11138" lon="-2.82147">
        <ele>153.692734</ele>
        <time>2023-05-04T12:06:36.089Z</time>
      </trkpt>
      <trkpt lat="48.11133" lon="-2.82135">
        <ele>153.447937</ele>
        <time>2023-05-04T12:06:38.095Z</time>
      </trkpt>
      <trkpt lat="48.11127" lon="-2.82124">
        <ele>153.208279</ele>
        <time>2023-05-04T12:06:40.094Z</time>
      </trkpt>
      <trkpt lat="48.11121" lon="-2.82111">
        <ele>152.939777</ele>
        <time>2023-05-04T12:06:42.095Z</time>
      </trkpt>
      <trkpt lat="48.11118" lon="-2.82096">
        <ele>152.676267</ele>
        <time>2023-05-04T12:06:44.097Z</time>
      </trkpt>
      <trkpt lat="48.11112" lon="-2.82081">
        <ele>152.465695</ele>
        <time>2023-05-04T12:06:46.097Z</time>
      </trkpt>
      <trkpt lat="48.11107" lon="-2.82069">
        <ele>152.360893</ele>
        <time>2023-05-04T12:06:48.096Z</time>
      </trkpt>
      <trkpt lat="48.111" lon="-2.82057">
        <ele>152.253177</ele>
        <time>2023-05-04T12:06:50.093Z</time>
      </trkpt>
      <trkpt lat="48.11095" lon="-2.82046">
        <ele>152.150154</ele>
        <time>2023-05-04T12:06:52.097Z</time>
      </trkpt>
      <trkpt lat="48.11088" lon="-2.82029">
        <ele>152.011494</ele>
        <time>2023-05-04T12:06:55.090Z</time>
      </trkpt>
      <trkpt lat="48.11082" lon="-2.82014">
        <ele>151.882514</ele>
        <time>2023-05-04T12:06:58.097Z</time>
      </trkpt>
      <trkpt lat="48.11076" lon="-2.82">
        <ele>151.761459</ele>
        <time>2023-05-04T12:07:01.090Z</time>
      </trkpt>
      <trkpt lat="48.1107" lon="-2.81987">
        <ele>151.643381</ele>
        <time>2023-05-04T12:07:04.093Z</time>
      </trkpt>
      <trkpt lat="48.11064" lon="-2.81974">
        <ele>151.529556</ele>
        <time>2023-05-04T12:07:07.095Z</time>
      </trkpt>
      <trkpt lat="48.11058" lon="-2.81959">
        <ele>151.4061</ele>
        <time>2023-05-04T12:07:10.094Z</time>
      </trkpt>
      <trkpt lat="48.1105" lon="-2.81943">
        <ele>151.26335</ele>
        <time>2023-05-04T12:07:13.098Z</time>
      </trkpt>
      <trkpt lat="48.11044" lon="-2.81931">
        <ele>151.151001</ele>
        <time>2023-05-04T12:07:15.090Z</time>
      </trkpt>
      <trkpt lat="48.11037" lon="-2.81917">
        <ele>151.030517</ele>
        <time>2023-05-04T12:07:17.093Z</time>
      </trkpt>
      <trkpt lat="48.11029" lon="-2.81904">
        <ele>150.900891</ele>
        <time>2023-05-04T12:07:19.091Z</time>
      </trkpt>
      <trkpt lat="48.11023" lon="-2.8189">
        <ele>150.77382</ele>
        <time>2023-05-04T12:07:21.094Z</time>
      </trkpt>
      <trkpt lat="48.11016" lon="-2.81875">
        <ele>150.643737</ele>
        <time>2023-05-04T12:07:23.093Z</time>
      </trkpt>
      <trkpt lat="48.11011" lon="-2.81862">
        <ele>150.571473</ele>
        <time>2023-05-04T12:07:25.091Z</time>
      </trkpt>
      <trkpt lat="48.11007" lon="-2.81847">
        <ele>150.564102</ele>
        <time>2023-05-04T12:07:27.091Z</time>
      </trkpt>
      <trkpt lat="48.11002" lon="-2.81831">
        <ele>150.555697</ele>
        <time>2023-05-04T12:07:30.092Z</time>
      </trkpt>
      <trkpt lat="48.10996" lon="-2.81817">
        <ele>150.548152</ele>
        <time>2023-05-04T12:07:32.087Z</time>
      </trkpt>
      <trkpt lat="48.10991" lon="-2.81806">
        <ele>150.54179</ele>
        <time>2023-05-04T12:07:34.090Z</time>
      </trkpt>
      <trkpt lat="48.10985" lon="-2.81792">
        <ele>150.534136</ele>
        <time>2023-05-04T12:07:37.080Z</time>
      </trkpt>
      <trkpt lat="48.10977" lon="-2.8178">
        <ele>150.526081</ele>
        <time>2023-05-04T12:07:39.087Z</time>
      </trkpt>
      <trkpt lat="48.1097" lon="-2.81763">
        <ele>150.516774</ele>
        <time>2023-05-04T12:07:42.088Z</time>
      </trkpt>
      <trkpt lat="48.10963" lon="-2.81752">
        <ele>150.509728</ele>
        <time>2023-05-04T12:07:44.095Z</time>
      </trkpt>
      <trkpt lat="48.10958" lon="-2.81739">
        <ele>150.502618</ele>
        <time>2023-05-04T12:07:46.096Z</time>
      </trkpt>
      <trkpt lat="48.10952" lon="-2.81726">
        <ele>150.495556</ele>
        <time>2023-05-04T12:07:48.094Z</time>
      </trkpt>
      <trkpt lat="48.10945" lon="-2.81711">
        <ele>150.486946</ele>
        <time>2023-05-04T12:07:50.096Z</time>
      </trkpt>
      <trkpt lat="48.1094" lon="-2.81695">
        <ele>150.478565</ele>
        <time>2023-05-04T12:07:52.095Z</time>
      </trkpt>
      <trkpt lat="48.10931" lon="-2.81675">
        <ele>150.467701</ele>
        <time>2023-05-04T12:07:54.092Z</time>
      </trkpt>
      <trkpt lat="48.10925" lon="-2.81659">
        <ele>150.458889</ele>
        <time>2023-05-04T12:07:56.086Z</time>
      </trkpt>
      <trkpt lat="48.10918" lon="-2.81647">
        <ele>150.451425</ele>
        <time>2023-05-04T12:07:59.093Z</time>
      </trkpt>
      <trkpt lat="48.10909" lon="-2.8163">
        <ele>150.095441</ele>
        <time>2023-05-04T12:08:02.097Z</time>
      </trkpt>
      <trkpt lat="48.10904" lon="-2.81618">
        <ele>149.746001</ele>
        <time>2023-05-04T12:08:04.093Z</time>
      </trkpt>
      <trkpt lat="48.10901" lon="-2.81601">
        <ele>149.320419</ele>
        <time>2023-05-04T12:08:08.093Z</time>
      </trkpt>
      <trkpt lat="48.10894" lon="-2.81589">
        <ele>148.941886</ele>
        <time>2023-05-04T12:08:10.094Z</time>
      </trkpt>
      <trkpt lat="48.10888" lon="-2.81576">
        <ele>148.584424</ele>
        <time>2023-05-04T12:08:12.095Z</time>
      </trkpt>
      <trkpt lat="48.10881" lon="-2.81562">
        <ele>148.138786</ele>
        <time>2023-05-04T12:08:14.089Z</time>
      </trkpt>
      <trkpt lat="48.10874" lon="-2.81548">
        <ele>147.723637</ele>
        <time>2023-05-04T12:08:16.087Z</time>
      </trkpt>
      <trkpt lat="48.10868" lon="-2.81533">
        <ele>147.314718</ele>
        <time>2023-05-04T12:08:18.091Z</time>
      </trkpt>
      <trkpt lat="48.10861" lon="-2.81516">
        <ele>146.838828</ele>
        <time>2023-05-04T12:08:20.098Z</time>
      </trkpt>
      <trkpt lat="48.10854" lon="-2.81504">
        <ele>146.449981</ele>
        <time>2023-05-04T12:08:22.095Z</time>
      </trkpt>
      <trkpt lat="48.10846" lon="-2.81486">
        <ele>145.943752</ele>
        <time>2023-05-04T12:08:24.097Z</time>
      </trkpt>
      <trkpt lat="48.1084" lon="-2.81471">
        <ele>145.510191</ele>
        <time>2023-05-04T12:08:26.091Z</time>
      </trkpt>
      <trkpt lat="48.10835" lon="-2.81458">
        <ele>145.152363</ele>
        <time>2023-05-04T12:08:28.097Z</time>
      </trkpt>
      <trkpt lat="48.10832" lon="-2.81443">
        <ele>144.782133</ele>
        <time>2023-05-04T12:08:29.099Z</time>
      </trkpt>
      <trkpt lat="48.10826" lon="-2.81432">
        <ele>144.447588</ele>
        <time>2023-05-04T12:08:31.094Z</time>
      </trkpt>
      <trkpt lat="48.10818" lon="-2.81418">
        <ele>144.018945</ele>
        <time>2023-05-04T12:08:34.094Z</time>
      </trkpt>
      <trkpt lat="48.10813" lon="-2.81402">
        <ele>144.04864</ele>
        <time>2023-05-04T12:08:37.105Z</time>
      </trkpt>
      <trkpt lat="48.10806" lon="-2.81388">
        <ele>144.076603</ele>
        <time>2023-05-04T12:08:40.095Z</time>
      </trkpt>
      <trkpt lat="48.10799" lon="-2.81374">
        <ele>144.10474</ele>
        <time>2023-05-04T12:08:43.099Z</time>
      </trkpt>
      <trkpt lat="48.10793" lon="-2.8136">
        <ele>144.130549</ele>
        <time>2023-05-04T12:08:46.089Z</time>
      </trkpt>
      <trkpt lat="48.10787" lon="-2.81349">
        <ele>144.153044</ele>
        <time>2023-05-04T12:08:49.092Z</time>
      </trkpt>
      <trkpt lat="48.1078" lon="-2.81337">
        <ele>144.179464</ele>
        <time>2023-05-04T12:08:53.096Z</time>
      </trkpt>
      <trkpt lat="48.10774" lon="-2.81325">
        <ele>144.202461</ele>
        <time>2023-05-04T12:08:57.081Z</time>
      </trkpt>
      <trkpt lat="48.1077" lon="-2.81312">
        <ele>144.226013</ele>
        <time>2023-05-04T12:09:01.094Z</time>
      </trkpt>
      <trkpt lat="48.10764" lon="-2.81301">
        <ele>144.249157</ele>
        <time>2023-05-04T12:09:04.093Z</time>
      </trkpt>
      <trkpt lat="48.10756" lon="-2.81285">
        <ele>144.280735</ele>
        <time>2023-05-04T12:09:07.095Z</time>
      </trkpt>
      <trkpt lat="48.10751" lon="-2.81272">
        <ele>144.305204</ele>
        <time>2023-05-04T12:09:09.095Z</time>
      </trkpt>
      <trkpt lat="48.10745" lon="-2.81261">
        <ele>144.328394</ele>
        <time>2023-05-04T12:09:11.096Z</time>
      </trkpt>
      <trkpt lat="48.10738" lon="-2.81249">
        <ele>144.354051</ele>
        <time>2023-05-04T12:09:13.098Z</time>
      </trkpt>
      <trkpt lat="48.10732" lon="-2.81234">
        <ele>144.381877</ele>
        <time>2023-05-04T12:09:15.091Z</time>
      </trkpt>
      <trkpt lat="48.10725" lon="-2.81221">
        <ele>144.408246</ele>
        <time>2023-05-04T12:09:17.089Z</time>
      </trkpt>
      <trkpt lat="48.10716" lon="-2.81204">
        <ele>144.443066</ele>
        <time>2023-05-04T12:09:20.082Z</time>
      </trkpt>
      <trkpt lat="48.1071" lon="-2.81189">
        <ele>144.551724</ele>
        <time>2023-05-04T12:09:22.092Z</time>
      </trkpt>
      <trkpt lat="48.10701" lon="-2.81176">
        <ele>144.704497</ele>
        <time>2023-05-04T12:09:24.089Z</time>
      </trkpt>
      <trkpt lat="48.10694" lon="-2.81163">
        <ele>144.840937</ele>
        <time>2023-05-04T12:09:26.095Z</time>
      </trkpt>
      <trkpt lat="48.10687" lon="-2.81147">
        <ele>144.99518</ele>
        <time>2023-05-04T12:09:29.091Z</time>
      </trkpt>
      <trkpt lat="48.1068" lon="-2.81135">
        <ele>145.11823</ele>
        <time>2023-05-04T12:09:31.085Z</time>
      </trkpt>
      <trkpt lat="48.10675" lon="-2.81122">
        <ele>145.242116</ele>
        <time>2023-05-04T12:09:33.090Z</time>
      </trkpt>
      <trkpt lat="48.10669" lon="-2.81111">
        <ele>145.35684</ele>
        <time>2023-05-04T12:09:35.082Z</time>
      </trkpt>
      <trkpt lat="48.10663" lon="-2.81097">
        <ele>145.489492</ele>
        <time>2023-05-04T12:09:37.091Z</time>
      </trkpt>
      <trkpt lat="48.10658" lon="-2.81086">
        <ele>145.600013</ele>
        <time>2023-05-04T12:09:39.097Z</time>
      </trkpt>
      <trkpt lat="48.10651" lon="-2.81072">
        <ele>145.741706</ele>
        <time>2023-05-04T12:09:41.094Z</time>
      </trkpt>
      <trkpt lat="48.10644" lon="-2.81056">
        <ele>145.893859</ele>
        <time>2023-05-04T12:09:43.090Z</time>
      </trkpt>
      <trkpt lat="48.10638" lon="-2.81043">
        <ele>146.021129</ele>
        <time>2023-05-04T12:09:45.097Z</time>
      </trkpt>
      <trkpt lat="48.10635" lon="-2.8103">
        <ele>146.132634</ele>
        <time>2023-05-04T12:09:47.094Z</time>
      </trkpt>
      <trkpt lat="48.10631" lon="-2.81017">
        <ele>146.253004</ele>
        <time>2023-05-04T12:09:49.095Z</time>
      </trkpt>
      <trkpt lat="48.10626" lon="-2.80999">
        <ele>146.404369</ele>
        <time>2023-05-04T12:09:52.094Z</time>
      </trkpt>
      <trkpt lat="48.10621" lon="-2.80983">
        <ele>146.545857</ele>
        <time>2023-05-04T12:09:56.088Z</time>
      </trkpt>
      <trkpt lat="48.10617" lon="-2.80968">
        <ele>146.522815</ele>
        <time>2023-05-04T12:09:59.094Z</time>
      </trkpt>
      <trkpt lat="48.10614" lon="-2.80951">
        <ele>146.186725</ele>
        <time>2023-05-04T12:10:02.094Z</time>
      </trkpt>
      <trkpt lat="48.10611" lon="-2.80935">
        <ele>145.869512</ele>
        <time>2023-05-04T12:10:04.090Z</time>
      </trkpt>
      <trkpt lat="48.10608" lon="-2.8092">
        <ele>145.565142</ele>
        <time>2023-05-04T12:10:06.094Z</time>
      </trkpt>
      <trkpt lat="48.10603" lon="-2.80904">
        <ele>145.231322</ele>
        <time>2023-05-04T12:10:08.094Z</time>
      </trkpt>
      <trkpt lat="48.106" lon="-2.80886">
        <ele>144.880549</ele>
        <time>2023-05-04T12:10:10.093Z</time>
      </trkpt>
      <trkpt lat="48.10598" lon="-2.80868">
        <ele>144.518398</ele>
        <time>2023-05-04T12:10:12.096Z</time>
      </trkpt>
      <trkpt lat="48.10596" lon="-2.8085">
        <ele>144.176651</ele>
        <time>2023-05-04T12:10:14.091Z</time>
      </trkpt>
      <trkpt lat="48.10595" lon="-2.80832">
        <ele>143.829736</ele>
        <time>2023-05-04T12:10:16.088Z</time>
      </trkpt>
      <trkpt lat="48.10595" lon="-2.80814">
        <ele>143.485576</ele>
        <time>2023-05-04T12:10:18.090Z</time>
      </trkpt>
      <trkpt lat="48.10596" lon="-2.80796">
        <ele>143.146517</ele>
        <time>2023-05-04T12:10:20.097Z</time>
      </trkpt>
      <trkpt lat="48.10597" lon="-2.80779">
        <ele>142.823316</ele>
        <time>2023-05-04T12:10:22.092Z</time>
      </trkpt>
      <trkpt lat="48.10597" lon="-2.80765">
        <ele>142.556074</ele>
        <time>2023-05-04T12:10:24.094Z</time>
      </trkpt>
      <trkpt lat="48.10597" lon="-2.80752">
        <ele>142.298327</ele>
        <time>2023-05-04T12:10:26.093Z</time>
      </trkpt>
      <trkpt lat="48.10597" lon="-2.80736">
        <ele>142.000066</ele>
        <time>2023-05-04T12:10:28.097Z</time>
      </trkpt>
      <trkpt lat="48.10598" lon="-2.8072">
        <ele>141.690846</ele>
        <time>2023-05-04T12:10:30.096Z</time>
      </trkpt>
      <trkpt lat="48.10598" lon="-2.80704">
        <ele>141.411964</ele>
        <time>2023-05-04T12:10:32.090Z</time>
      </trkpt>
      <trkpt lat="48.10597" lon="-2.80687">
        <ele>141.157298</ele>
        <time>2023-05-04T12:10:34.088Z</time>
      </trkpt>
      <trkpt lat="48.10599" lon="-2.80668">
        <ele>140.879928</ele>
        <time>2023-05-04T12:10:36.089Z</time>
      </trkpt>
      <trkpt lat="48.106" lon="-2.8065">
        <ele>140.618684</ele>
        <time>2023-05-04T12:10:38.093Z</time>
      </trkpt>
      <trkpt lat="48.106" lon="-2.80633">
        <ele>140.378671</ele>
        <time>2023-05-04T12:10:40.094Z</time>
      </trkpt>
      <trkpt lat="48.10601" lon="-2.80616">
        <ele>140.122914</ele>
        <time>2023-05-04T12:10:42.095Z</time>
      </trkpt>
      <trkpt lat="48.10603" lon="-2.80599">
        <ele>139.878126</ele>
        <time>2023-05-04T12:10:44.094Z</time>
      </trkpt>
      <trkpt lat="48.10603" lon="-2.80579">
        <ele>139.591579</ele>
        <time>2023-05-04T12:10:46.097Z</time>
      </trkpt>
      <trkpt lat="48.10605" lon="-2.80562">
        <ele>139.336459</ele>
        <time>2023-05-04T12:10:48.097Z</time>
      </trkpt>
      <trkpt lat="48.10608" lon="-2.80544">
        <ele>139.065223</ele>
        <time>2023-05-04T12:10:51.093Z</time>
      </trkpt>
      <trkpt lat="48.1061" lon="-2.80526">
        <ele>138.80162</ele>
        <time>2023-05-04T12:10:54.090Z</time>
      </trkpt>
      <trkpt lat="48.10611" lon="-2.80507">
        <ele>138.51877</ele>
        <time>2023-05-04T12:10:57.093Z</time>
      </trkpt>
      <trkpt lat="48.1061" lon="-2.8049">
        <ele>138.277133</ele>
        <time>2023-05-04T12:11:01.098Z</time>
      </trkpt>
      <trkpt lat="48.10611" lon="-2.80473">
        <ele>138.033277</ele>
        <time>2023-05-04T12:11:04.097Z</time>
      </trkpt>
      <trkpt lat="48.1061" lon="-2.80456">
        <ele>137.77998</ele>
        <time>2023-05-04T12:11:07.092Z</time>
      </trkpt>
      <trkpt lat="48.10611" lon="-2.80441">
        <ele>137.550376</ele>
        <time>2023-05-04T12:11:10.091Z</time>
      </trkpt>
      <trkpt lat="48.10611" lon="-2.80426">
        <ele>137.274783</ele>
        <time>2023-05-04T12:11:14.089Z</time>
      </trkpt>
      <trkpt lat="48.1061" lon="-2.80411">
        <ele>136.985453</ele>
        <time>2023-05-04T12:11:18.097Z</time>
      </trkpt>
      <trkpt lat="48.10611" lon="-2.80395">
        <ele>136.67495</ele>
        <time>2023-05-04T12:11:22.099Z</time>
      </trkpt>
      <trkpt lat="48.10612" lon="-2.80376">
        <ele>136.304256</ele>
        <time>2023-05-04T12:11:26.095Z</time>
      </trkpt>
      <trkpt lat="48.10614" lon="-2.80357">
        <ele>135.945359</ele>
        <time>2023-05-04T12:11:29.093Z</time>
      </trkpt>
      <trkpt lat="48.10612" lon="-2.80341">
        <ele>135.633431</ele>
        <time>2023-05-04T12:11:31.091Z</time>
      </trkpt>
      <trkpt lat="48.10613" lon="-2.80325">
        <ele>135.334393</ele>
        <time>2023-05-04T12:11:33.093Z</time>
      </trkpt>
      <trkpt lat="48.10612" lon="-2.80308">
        <ele>134.998008</ele>
        <time>2023-05-04T12:11:35.093Z</time>
      </trkpt>
      <trkpt lat="48.10612" lon="-2.80292">
        <ele>134.699121</ele>
        <time>2023-05-04T12:11:37.094Z</time>
      </trkpt>
      <trkpt lat="48.10617" lon="-2.80277">
        <ele>134.384698</ele>
        <time>2023-05-04T12:11:39.094Z</time>
      </trkpt>
      <trkpt lat="48.10619" lon="-2.80259">
        <ele>134.030895</ele>
        <time>2023-05-04T12:11:42.093Z</time>
      </trkpt>
      <trkpt lat="48.10617" lon="-2.8024">
        <ele>133.656063</ele>
        <time>2023-05-04T12:11:45.096Z</time>
      </trkpt>
      <trkpt lat="48.10613" lon="-2.80222">
        <ele>133.310945</ele>
        <time>2023-05-04T12:11:48.084Z</time>
      </trkpt>
      <trkpt lat="48.10611" lon="-2.80209">
        <ele>133.043808</ele>
        <time>2023-05-04T12:11:51.097Z</time>
      </trkpt>
      <trkpt lat="48.10611" lon="-2.80191">
        <ele>132.699287</ele>
        <time>2023-05-04T12:11:54.089Z</time>
      </trkpt>
      <trkpt lat="48.10609" lon="-2.80173">
        <ele>132.329958</ele>
        <time>2023-05-04T12:11:57.095Z</time>
      </trkpt>
      <trkpt lat="48.10607" lon="-2.80154">
        <ele>131.797068</ele>
        <time>2023-05-04T12:12:00.094Z</time>
      </trkpt>
      <trkpt lat="48.10605" lon="-2.80137">
        <ele>131.323106</ele>
        <time>2023-05-04T12:12:03.091Z</time>
      </trkpt>
      <trkpt lat="48.10602" lon="-2.8012">
        <ele>130.838485</ele>
        <time>2023-05-04T12:12:06.092Z</time>
      </trkpt>
      <trkpt lat="48.10602" lon="-2.80106">
        <ele>130.454982</ele>
        <time>2023-05-04T12:12:08.082Z</time>
      </trkpt>
      <trkpt lat="48.106" lon="-2.80089">
        <ele>129.992471</ele>
        <time>2023-05-04T12:12:11.092Z</time>
      </trkpt>
      <trkpt lat="48.10597" lon="-2.80072">
        <ele>129.511523</ele>
        <time>2023-05-04T12:12:14.080Z</time>
      </trkpt>
      <trkpt lat="48.10596" lon="-2.80052">
        <ele>128.971381</ele>
        <time>2023-05-04T12:12:17.100Z</time>
      </trkpt>
      <trkpt lat="48.10596" lon="-2.80033">
        <ele>128.440212</ele>
        <time>2023-05-04T12:12:20.096Z</time>
      </trkpt>
      <trkpt lat="48.10594" lon="-2.80014">
        <ele>127.923735</ele>
        <time>2023-05-04T12:12:23.098Z</time>
      </trkpt>
      <trkpt lat="48.1059" lon="-2.79997">
        <ele>127.428998</ele>
        <time>2023-05-04T12:12:26.095Z</time>
      </trkpt>
      <trkpt lat="48.10589" lon="-2.79979">
        <ele>126.926604</ele>
        <time>2023-05-04T12:12:29.096Z</time>
      </trkpt>
      <trkpt lat="48.10588" lon="-2.79962">
        <ele>126.474385</ele>
        <time>2023-05-04T12:12:31.096Z</time>
      </trkpt>
      <trkpt lat="48.10587" lon="-2.79947">
        <ele>126.06123</ele>
        <time>2023-05-04T12:12:33.096Z</time>
      </trkpt>
      <trkpt lat="48.10582" lon="-2.79932">
        <ele>125.589224</ele>
        <time>2023-05-04T12:12:35.096Z</time>
      </trkpt>
      <trkpt lat="48.10582" lon="-2.79911">
        <ele>125.075086</ele>
        <time>2023-05-04T12:12:37.097Z</time>
      </trkpt>
      <trkpt lat="48.1058" lon="-2.79894">
        <ele>125.439197</ele>
        <time>2023-05-04T12:12:39.078Z</time>
      </trkpt>
      <trkpt lat="48.10579" lon="-2.79879">
        <ele>125.790532</ele>
        <time>2023-05-04T12:12:41.096Z</time>
      </trkpt>
      <trkpt lat="48.10578" lon="-2.79863">
        <ele>126.146598</ele>
        <time>2023-05-04T12:12:43.096Z</time>
      </trkpt>
      <trkpt lat="48.10573" lon="-2.7985">
        <ele>126.460065</ele>
        <time>2023-05-04T12:12:45.097Z</time>
      </trkpt>
      <trkpt lat="48.10571" lon="-2.79833">
        <ele>126.85284</ele>
        <time>2023-05-04T12:12:47.106Z</time>
      </trkpt>
      <trkpt lat="48.10568" lon="-2.79819">
        <ele>127.165706</ele>
        <time>2023-05-04T12:12:49.090Z</time>
      </trkpt>
      <trkpt lat="48.10567" lon="-2.79805">
        <ele>127.485067</ele>
        <time>2023-05-04T12:12:51.095Z</time>
      </trkpt>
      <trkpt lat="48.10564" lon="-2.79787">
        <ele>127.908122</ele>
        <time>2023-05-04T12:12:54.098Z</time>
      </trkpt>
      <trkpt lat="48.10558" lon="-2.79771">
        <ele>128.284696</ele>
        <time>2023-05-04T12:12:57.097Z</time>
      </trkpt>
      <trkpt lat="48.10556" lon="-2.79756">
        <ele>128.634192</ele>
        <time>2023-05-04T12:13:00.096Z</time>
      </trkpt>
      <trkpt lat="48.10554" lon="-2.79742">
        <ele>128.944841</ele>
        <time>2023-05-04T12:13:03.097Z</time>
      </trkpt>
      <trkpt lat="48.10551" lon="-2.79729">
        <ele>129.253634</ele>
        <time>2023-05-04T12:13:06.099Z</time>
      </trkpt>
      <trkpt lat="48.10548" lon="-2.79716">
        <ele>129.553938</ele>
        <time>2023-05-04T12:13:09.099Z</time>
      </trkpt>
      <trkpt lat="48.10545" lon="-2.79703">
        <ele>129.865784</ele>
        <time>2023-05-04T12:13:12.096Z</time>
      </trkpt>
      <trkpt lat="48.1054" lon="-2.79688">
        <ele>130.23994</ele>
        <time>2023-05-04T12:13:15.093Z</time>
      </trkpt>
      <trkpt lat="48.10537" lon="-2.79672">
        <ele>130.604333</ele>
        <time>2023-05-04T12:13:18.096Z</time>
      </trkpt>
      <trkpt lat="48.10533" lon="-2.79656">
        <ele>130.977157</ele>
        <time>2023-05-04T12:13:21.099Z</time>
      </trkpt>
      <trkpt lat="48.10529" lon="-2.79639">
        <ele>131.479042</ele>
        <time>2023-05-04T12:13:24.103Z</time>
      </trkpt>
      <trkpt lat="48.10525" lon="-2.79624">
        <ele>131.942418</ele>
        <time>2023-05-04T12:13:27.099Z</time>
      </trkpt>
      <trkpt lat="48.1052" lon="-2.79608">
        <ele>132.429428</ele>
        <time>2023-05-04T12:13:30.098Z</time>
      </trkpt>
      <trkpt lat="48.10517" lon="-2.79591">
        <ele>132.937569</ele>
        <time>2023-05-04T12:13:33.095Z</time>
      </trkpt>
      <trkpt lat="48.10514" lon="-2.79575">
        <ele>133.405065</ele>
        <time>2023-05-04T12:13:36.097Z</time>
      </trkpt>
      <trkpt lat="48.10512" lon="-2.79562">
        <ele>133.794709</ele>
        <time>2023-05-04T12:13:38.097Z</time>
      </trkpt>
      <trkpt lat="48.1047" lon="-2.79023">
        <ele>135.921482</ele>
        <time>2023-05-04T12:16:50.085Z</time>
      </trkpt>
      <trkpt lat="48.10478" lon="-2.79015">
        <ele>134.943562</ele>
        <time>2023-05-04T12:17:02.091Z</time>
      </trkpt>
      <trkpt lat="48.10467" lon="-2.79027">
        <ele>133.573652</ele>
        <time>2023-05-04T13:09:30.095Z</time>
      </trkpt>
      <trkpt lat="48.10459" lon="-2.79038">
        <ele>132.423587</ele>
        <time>2023-05-04T13:11:19.103Z</time>
      </trkpt>
      <trkpt lat="48.10452" lon="-2.79028">
        <ele>131.448975</ele>
        <time>2023-05-04T13:11:34.092Z</time>
      </trkpt>
      <trkpt lat="48.10452" lon="-2.79013">
        <ele>130.358712</ele>
        <time>2023-05-04T13:12:18.098Z</time>
      </trkpt>
      <trkpt lat="48.10454" lon="-2.78999">
        <ele>129.400931</ele>
        <time>2023-05-04T13:12:21.104Z</time>
      </trkpt>
      <trkpt lat="48.10455" lon="-2.78981">
        <ele>128.116664</ele>
        <time>2023-05-04T13:12:24.104Z</time>
      </trkpt>
      <trkpt lat="48.10454" lon="-2.78965">
        <ele>127.024114</ele>
        <time>2023-05-04T13:12:26.105Z</time>
      </trkpt>
      <trkpt lat="48.10454" lon="-2.78949">
        <ele>125.862534</ele>
        <time>2023-05-04T13:12:28.105Z</time>
      </trkpt>
      <trkpt lat="48.10455" lon="-2.78933">
        <ele>124.735539</ele>
        <time>2023-05-04T13:12:30.099Z</time>
      </trkpt>
      <trkpt lat="48.10455" lon="-2.78918">
        <ele>124.109669</ele>
        <time>2023-05-04T13:12:32.099Z</time>
      </trkpt>
      <trkpt lat="48.10454" lon="-2.78904">
        <ele>124.042723</ele>
        <time>2023-05-04T13:12:34.107Z</time>
      </trkpt>
      <trkpt lat="48.10454" lon="-2.78888">
        <ele>123.974172</ele>
        <time>2023-05-04T13:12:36.100Z</time>
      </trkpt>
      <trkpt lat="48.10453" lon="-2.78875">
        <ele>123.91353</ele>
        <time>2023-05-04T13:12:38.103Z</time>
      </trkpt>
      <trkpt lat="48.10453" lon="-2.78855">
        <ele>123.826622</ele>
        <time>2023-05-04T13:12:41.090Z</time>
      </trkpt>
      <trkpt lat="48.10454" lon="-2.78842">
        <ele>123.766158</ele>
        <time>2023-05-04T13:12:43.090Z</time>
      </trkpt>
      <trkpt lat="48.10454" lon="-2.78824">
        <ele>123.688185</ele>
        <time>2023-05-04T13:12:46.090Z</time>
      </trkpt>
      <trkpt lat="48.10454" lon="-2.78807">
        <ele>123.611599</ele>
        <time>2023-05-04T13:12:49.099Z</time>
      </trkpt>
      <trkpt lat="48.10455" lon="-2.78792">
        <ele>123.5409</ele>
        <time>2023-05-04T13:12:52.099Z</time>
      </trkpt>
      <trkpt lat="48.10455" lon="-2.78778">
        <ele>123.477663</ele>
        <time>2023-05-04T13:12:55.102Z</time>
      </trkpt>
      <trkpt lat="48.10455" lon="-2.78761">
        <ele>123.403292</ele>
        <time>2023-05-04T13:13:00.098Z</time>
      </trkpt>
      <trkpt lat="48.10457" lon="-2.78742">
        <ele>123.319747</ele>
        <time>2023-05-04T13:13:04.105Z</time>
      </trkpt>
      <trkpt lat="48.10458" lon="-2.78726">
        <ele>123.244146</ele>
        <time>2023-05-04T13:13:07.108Z</time>
      </trkpt>
      <trkpt lat="48.10459" lon="-2.78708">
        <ele>123.166545</ele>
        <time>2023-05-04T13:13:10.104Z</time>
      </trkpt>
      <trkpt lat="48.10462" lon="-2.78691">
        <ele>123.087097</ele>
        <time>2023-05-04T13:13:13.110Z</time>
      </trkpt>
      <trkpt lat="48.10464" lon="-2.78671">
        <ele>122.996084</ele>
        <time>2023-05-04T13:13:16.107Z</time>
      </trkpt>
      <trkpt lat="48.10466" lon="-2.78655">
        <ele>122.946082</ele>
        <time>2023-05-04T13:13:18.104Z</time>
      </trkpt>
      <trkpt lat="48.10467" lon="-2.78639">
        <ele>123.09725</ele>
        <time>2023-05-04T13:13:20.098Z</time>
      </trkpt>
      <trkpt lat="48.10468" lon="-2.78623">
        <ele>123.238913</ele>
        <time>2023-05-04T13:13:22.096Z</time>
      </trkpt>
      <trkpt lat="48.10468" lon="-2.78609">
        <ele>123.377684</ele>
        <time>2023-05-04T13:13:24.095Z</time>
      </trkpt>
      <trkpt lat="48.10471" lon="-2.78592">
        <ele>123.537529</ele>
        <time>2023-05-04T13:13:26.096Z</time>
      </trkpt>
      <trkpt lat="48.10475" lon="-2.78575">
        <ele>123.702989</ele>
        <time>2023-05-04T13:13:28.106Z</time>
      </trkpt>
      <trkpt lat="48.10478" lon="-2.78562">
        <ele>123.830681</ele>
        <time>2023-05-04T13:13:30.098Z</time>
      </trkpt>
      <trkpt lat="48.10482" lon="-2.78547">
        <ele>123.976662</ele>
        <time>2023-05-04T13:13:32.106Z</time>
      </trkpt>
      <trkpt lat="48.10486" lon="-2.78533">
        <ele>124.122254</ele>
        <time>2023-05-04T13:13:34.103Z</time>
      </trkpt>
      <trkpt lat="48.10491" lon="-2.78515">
        <ele>124.304429</ele>
        <time>2023-05-04T13:13:37.102Z</time>
      </trkpt>
      <trkpt lat="48.10495" lon="-2.78501">
        <ele>124.442148</ele>
        <time>2023-05-04T13:13:39.096Z</time>
      </trkpt>
      <trkpt lat="48.105" lon="-2.78484">
        <ele>124.61435</ele>
        <time>2023-05-04T13:13:42.107Z</time>
      </trkpt>
      <trkpt lat="48.10504" lon="-2.78468">
        <ele>124.775522</ele>
        <time>2023-05-04T13:13:45.100Z</time>
      </trkpt>
      <trkpt lat="48.10508" lon="-2.78455">
        <ele>124.909522</ele>
        <time>2023-05-04T13:13:48.095Z</time>
      </trkpt>
      <trkpt lat="48.10513" lon="-2.78442">
        <ele>125.043506</ele>
        <time>2023-05-04T13:13:50.103Z</time>
      </trkpt>
      <trkpt lat="48.10517" lon="-2.78431">
        <ele>125.170351</ele>
        <time>2023-05-04T13:13:52.104Z</time>
      </trkpt>
      <trkpt lat="48.10523" lon="-2.78413">
        <ele>125.353857</ele>
        <time>2023-05-04T13:13:55.097Z</time>
      </trkpt>
      <trkpt lat="48.10528" lon="-2.78395">
        <ele>125.141682</ele>
        <time>2023-05-04T13:13:58.104Z</time>
      </trkpt>
      <trkpt lat="48.10532" lon="-2.78381">
        <ele>124.738623</ele>
        <time>2023-05-04T13:14:01.101Z</time>
      </trkpt>
      <trkpt lat="48.10537" lon="-2.78364">
        <ele>124.230756</ele>
        <time>2023-05-04T13:14:04.096Z</time>
      </trkpt>
      <trkpt lat="48.10542" lon="-2.78349">
        <ele>123.784924</ele>
        <time>2023-05-04T13:14:07.096Z</time>
      </trkpt>
      <trkpt lat="48.10547" lon="-2.78336">
        <ele>123.381001</ele>
        <time>2023-05-04T13:14:10.100Z</time>
      </trkpt>
      <trkpt lat="48.10553" lon="-2.78319">
        <ele>122.877055</ele>
        <time>2023-05-04T13:14:13.112Z</time>
      </trkpt>
      <trkpt lat="48.10557" lon="-2.78307">
        <ele>122.503583</ele>
        <time>2023-05-04T13:14:15.088Z</time>
      </trkpt>
      <trkpt lat="48.10561" lon="-2.78292">
        <ele>122.084526</ele>
        <time>2023-05-04T13:14:18.096Z</time>
      </trkpt>
      <trkpt lat="48.10567" lon="-2.78277">
        <ele>121.61981</ele>
        <time>2023-05-04T13:14:20.101Z</time>
      </trkpt>
      <trkpt lat="48.10572" lon="-2.78263">
        <ele>121.176859</ele>
        <time>2023-05-04T13:14:22.105Z</time>
      </trkpt>
      <trkpt lat="48.10578" lon="-2.78246">
        <ele>120.667299</ele>
        <time>2023-05-04T13:14:24.101Z</time>
      </trkpt>
      <trkpt lat="48.10583" lon="-2.78225">
        <ele>120.081909</ele>
        <time>2023-05-04T13:14:27.086Z</time>
      </trkpt>
      <trkpt lat="48.10584" lon="-2.78212">
        <ele>119.711486</ele>
        <time>2023-05-04T13:14:29.099Z</time>
      </trkpt>
      <trkpt lat="48.10585" lon="-2.78198">
        <ele>119.333507</ele>
        <time>2023-05-04T13:14:31.097Z</time>
      </trkpt>
      <trkpt lat="48.1058" lon="-2.78181">
        <ele>118.861346</ele>
        <time>2023-05-04T13:14:34.103Z</time>
      </trkpt>
      <trkpt lat="48.10576" lon="-2.78165">
        <ele>118.389056</ele>
        <time>2023-05-04T13:14:37.101Z</time>
      </trkpt>
      <trkpt lat="48.10574" lon="-2.78152">
        <ele>118.199983</ele>
        <time>2023-05-04T13:14:40.101Z</time>
      </trkpt>
      <trkpt lat="48.10569" lon="-2.78138">
        <ele>118.156653</ele>
        <time>2023-05-04T13:14:43.101Z</time>
      </trkpt>
      <trkpt lat="48.10564" lon="-2.78124">
        <ele>118.108948</ele>
        <time>2023-05-04T13:14:46.102Z</time>
      </trkpt>
      <trkpt lat="48.10555" lon="-2.78111">
        <ele>118.059218</ele>
        <time>2023-05-04T13:14:50.099Z</time>
      </trkpt>
      <trkpt lat="48.10547" lon="-2.78099">
        <ele>118.010292</ele>
        <time>2023-05-04T13:14:53.104Z</time>
      </trkpt>
      <trkpt lat="48.10537" lon="-2.7809">
        <ele>117.961217</ele>
        <time>2023-05-04T13:14:56.102Z</time>
      </trkpt>
      <trkpt lat="48.10526" lon="-2.78081">
        <ele>117.908269</ele>
        <time>2023-05-04T13:14:59.101Z</time>
      </trkpt>
      <trkpt lat="48.10517" lon="-2.78075">
        <ele>117.866455</ele>
        <time>2023-05-04T13:15:01.102Z</time>
      </trkpt>
      <trkpt lat="48.10506" lon="-2.78069">
        <ele>117.814412</ele>
        <time>2023-05-04T13:15:04.100Z</time>
      </trkpt>
      <trkpt lat="48.10494" lon="-2.78064">
        <ele>117.76124</ele>
        <time>2023-05-04T13:15:07.103Z</time>
      </trkpt>
      <trkpt lat="48.10484" lon="-2.7806">
        <ele>117.716532</ele>
        <time>2023-05-04T13:15:10.102Z</time>
      </trkpt>
      <trkpt lat="48.10474" lon="-2.78058">
        <ele>117.676936</ele>
        <time>2023-05-04T13:15:13.104Z</time>
      </trkpt>
      <trkpt lat="48.10466" lon="-2.78053">
        <ele>117.63793</ele>
        <time>2023-05-04T13:15:16.106Z</time>
      </trkpt>
      <trkpt lat="48.10454" lon="-2.78048">
        <ele>117.585896</ele>
        <time>2023-05-04T13:15:20.106Z</time>
      </trkpt>
      <trkpt lat="48.10444" lon="-2.78047">
        <ele>117.542029</ele>
        <time>2023-05-04T13:15:23.099Z</time>
      </trkpt>
      <trkpt lat="48.1043" lon="-2.78044">
        <ele>117.484486</ele>
        <time>2023-05-04T13:15:26.106Z</time>
      </trkpt>
      <trkpt lat="48.10418" lon="-2.7804">
        <ele>117.16914</ele>
        <time>2023-05-04T13:15:29.106Z</time>
      </trkpt>
      <trkpt lat="48.10407" lon="-2.78036">
        <ele>116.66133</ele>
        <time>2023-05-04T13:15:32.105Z</time>
      </trkpt>
      <trkpt lat="48.10397" lon="-2.78033">
        <ele>116.216111</ele>
        <time>2023-05-04T13:15:35.106Z</time>
      </trkpt>
      <trkpt lat="48.10388" lon="-2.7803">
        <ele>115.781883</ele>
        <time>2023-05-04T13:15:39.099Z</time>
      </trkpt>
      <trkpt lat="48.10378" lon="-2.78026">
        <ele>115.297267</ele>
        <time>2023-05-04T13:15:43.101Z</time>
      </trkpt>
      <trkpt lat="48.10368" lon="-2.78027">
        <ele>114.84986</ele>
        <time>2023-05-04T13:15:47.095Z</time>
      </trkpt>
      <trkpt lat="48.10358" lon="-2.78029">
        <ele>114.401595</ele>
        <time>2023-05-04T13:15:51.103Z</time>
      </trkpt>
      <trkpt lat="48.10346" lon="-2.78026">
        <ele>113.860292</ele>
        <time>2023-05-04T13:15:55.099Z</time>
      </trkpt>
      <trkpt lat="48.10337" lon="-2.78021">
        <ele>113.38625</ele>
        <time>2023-05-04T13:15:58.097Z</time>
      </trkpt>
      <trkpt lat="48.10324" lon="-2.78018">
        <ele>112.798918</ele>
        <time>2023-05-04T13:16:01.097Z</time>
      </trkpt>
      <trkpt lat="48.10315" lon="-2.78016">
        <ele>112.370072</ele>
        <time>2023-05-04T13:16:03.104Z</time>
      </trkpt>
      <trkpt lat="48.10305" lon="-2.78016">
        <ele>111.945307</ele>
        <time>2023-05-04T13:16:05.096Z</time>
      </trkpt>
      <trkpt lat="48.10295" lon="-2.78014">
        <ele>111.492995</ele>
        <time>2023-05-04T13:16:07.102Z</time>
      </trkpt>
      <trkpt lat="48.10283" lon="-2.78012">
        <ele>110.919811</ele>
        <time>2023-05-04T13:16:10.104Z</time>
      </trkpt>
      <trkpt lat="48.1027" lon="-2.78011">
        <ele>110.317115</ele>
        <time>2023-05-04T13:16:13.099Z</time>
      </trkpt>
      <trkpt lat="48.1026" lon="-2.78008">
        <ele>109.865628</ele>
        <time>2023-05-04T13:16:16.103Z</time>
      </trkpt>
      <trkpt lat="48.10248" lon="-2.78005">
        <ele>109.324904</ele>
        <time>2023-05-04T13:16:19.096Z</time>
      </trkpt>
      <trkpt lat="48.10239" lon="-2.78003">
        <ele>109.360432</ele>
        <time>2023-05-04T13:16:21.099Z</time>
      </trkpt>
      <trkpt lat="48.10229" lon="-2.78">
        <ele>109.519145</ele>
        <time>2023-05-04T13:16:24.103Z</time>
      </trkpt>
      <trkpt lat="48.10219" lon="-2.77996">
        <ele>109.669457</ele>
        <time>2023-05-04T13:16:27.107Z</time>
      </trkpt>
      <trkpt lat="48.10207" lon="-2.77994">
        <ele>109.851712</ele>
        <time>2023-05-04T13:16:30.102Z</time>
      </trkpt>
      <trkpt lat="48.10197" lon="-2.77991">
        <ele>110.00779</ele>
        <time>2023-05-04T13:16:33.100Z</time>
      </trkpt>
      <trkpt lat="48.10183" lon="-2.77991">
        <ele>110.205031</ele>
        <time>2023-05-04T13:16:36.102Z</time>
      </trkpt>
      <trkpt lat="48.10174" lon="-2.77992">
        <ele>110.346</ele>
        <time>2023-05-04T13:16:38.107Z</time>
      </trkpt>
      <trkpt lat="48.10161" lon="-2.77992">
        <ele>110.534317</ele>
        <time>2023-05-04T13:16:41.103Z</time>
      </trkpt>
      <trkpt lat="48.10148" lon="-2.7799">
        <ele>110.736524</ele>
        <time>2023-05-04T13:16:44.100Z</time>
      </trkpt>
      <trkpt lat="48.10139" lon="-2.77988">
        <ele>110.871478</ele>
        <time>2023-05-04T13:16:46.109Z</time>
      </trkpt>
      <trkpt lat="48.10128" lon="-2.77987">
        <ele>111.030182</ele>
        <time>2023-05-04T13:16:49.104Z</time>
      </trkpt>
      <trkpt lat="48.10117" lon="-2.77982">
        <ele>111.213125</ele>
        <time>2023-05-04T13:16:53.106Z</time>
      </trkpt>
      <trkpt lat="48.10104" lon="-2.77979">
        <ele>111.407244</ele>
        <time>2023-05-04T13:16:56.095Z</time>
      </trkpt>
      <trkpt lat="48.10093" lon="-2.77977">
        <ele>111.570695</ele>
        <time>2023-05-04T13:16:58.098Z</time>
      </trkpt>
      <trkpt lat="48.10083" lon="-2.77974">
        <ele>111.724363</ele>
        <time>2023-05-04T13:17:00.096Z</time>
      </trkpt>
      <trkpt lat="48.10072" lon="-2.7797">
        <ele>111.889912</ele>
        <time>2023-05-04T13:17:03.103Z</time>
      </trkpt>
      <trkpt lat="48.10058" lon="-2.77967">
        <ele>112.498395</ele>
        <time>2023-05-04T13:17:06.103Z</time>
      </trkpt>
      <trkpt lat="48.10048" lon="-2.77967">
        <ele>113.053412</ele>
        <time>2023-05-04T13:17:08.107Z</time>
      </trkpt>
      <trkpt lat="48.10038" lon="-2.77965">
        <ele>113.570489</ele>
        <time>2023-05-04T13:17:10.101Z</time>
      </trkpt>
      <trkpt lat="48.10025" lon="-2.77964">
        <ele>114.234699</ele>
        <time>2023-05-04T13:17:13.099Z</time>
      </trkpt>
      <trkpt lat="48.10013" lon="-2.77964">
        <ele>114.836138</ele>
        <time>2023-05-04T13:17:16.103Z</time>
      </trkpt>
      <trkpt lat="48.10001" lon="-2.77962">
        <ele>115.488586</ele>
        <time>2023-05-04T13:17:19.102Z</time>
      </trkpt>
      <trkpt lat="48.0999" lon="-2.77958">
        <ele>116.061642</ele>
        <time>2023-05-04T13:17:21.088Z</time>
      </trkpt>
      <trkpt lat="48.09978" lon="-2.77948">
        <ele>116.778632</ele>
        <time>2023-05-04T13:17:24.100Z</time>
      </trkpt>
      <trkpt lat="48.09968" lon="-2.77948">
        <ele>117.302286</ele>
        <time>2023-05-04T13:17:27.104Z</time>
      </trkpt>
      <trkpt lat="48.09958" lon="-2.77947">
        <ele>117.799818</ele>
        <time>2023-05-04T13:17:30.102Z</time>
      </trkpt>
      <trkpt lat="48.09947" lon="-2.77946">
        <ele>118.386249</ele>
        <time>2023-05-04T13:17:34.102Z</time>
      </trkpt>
      <trkpt lat="48.09938" lon="-2.77945">
        <ele>118.87563</ele>
        <time>2023-05-04T13:17:37.102Z</time>
      </trkpt>
      <trkpt lat="48.09927" lon="-2.77942">
        <ele>119.437772</ele>
        <time>2023-05-04T13:17:40.098Z</time>
      </trkpt>
      <trkpt lat="48.09916" lon="-2.77939">
        <ele>120.018295</ele>
        <time>2023-05-04T13:17:43.095Z</time>
      </trkpt>
      <trkpt lat="48.09906" lon="-2.77936">
        <ele>120.544712</ele>
        <time>2023-05-04T13:17:46.091Z</time>
      </trkpt>
      <trkpt lat="48.09894" lon="-2.77933">
        <ele>121.171689</ele>
        <time>2023-05-04T13:17:49.106Z</time>
      </trkpt>
      <trkpt lat="48.09885" lon="-2.77928">
        <ele>121.334088</ele>
        <time>2023-05-04T13:17:51.104Z</time>
      </trkpt>
      <trkpt lat="48.09877" lon="-2.77924">
        <ele>121.436557</ele>
        <time>2023-05-04T13:17:53.103Z</time>
      </trkpt>
      <trkpt lat="48.09866" lon="-2.77921">
        <ele>121.551388</ele>
        <time>2023-05-04T13:17:55.100Z</time>
      </trkpt>
      <trkpt lat="48.09854" lon="-2.77916">
        <ele>121.693818</ele>
        <time>2023-05-04T13:17:57.102Z</time>
      </trkpt>
      <trkpt lat="48.09845" lon="-2.77905">
        <ele>121.817685</ele>
        <time>2023-05-04T13:18:00.095Z</time>
      </trkpt>
      <trkpt lat="48.09836" lon="-2.77892">
        <ele>121.957484</ele>
        <time>2023-05-04T13:18:03.097Z</time>
      </trkpt>
      <trkpt lat="48.09829" lon="-2.77882">
        <ele>122.063331</ele>
        <time>2023-05-04T13:18:06.102Z</time>
      </trkpt>
      <trkpt lat="48.09819" lon="-2.77871">
        <ele>122.199773</ele>
        <time>2023-05-04T13:18:09.104Z</time>
      </trkpt>
      <trkpt lat="48.09809" lon="-2.77861">
        <ele>122.328717</ele>
        <time>2023-05-04T13:18:12.099Z</time>
      </trkpt>
      <trkpt lat="48.09802" lon="-2.7785">
        <ele>122.449059</ele>
        <time>2023-05-04T13:18:16.106Z</time>
      </trkpt>
      <trkpt lat="48.09794" lon="-2.7784">
        <ele>122.563626</ele>
        <time>2023-05-04T13:18:19.101Z</time>
      </trkpt>
      <trkpt lat="48.09784" lon="-2.7783">
        <ele>122.688302</ele>
        <time>2023-05-04T13:18:22.105Z</time>
      </trkpt>
      <trkpt lat="48.09775" lon="-2.77821">
        <ele>122.815725</ele>
        <time>2023-05-04T13:18:25.101Z</time>
      </trkpt>
      <trkpt lat="48.09766" lon="-2.77812">
        <ele>122.925744</ele>
        <time>2023-05-04T13:18:28.102Z</time>
      </trkpt>
      <trkpt lat="48.09757" lon="-2.77803">
        <ele>123.045132</ele>
        <time>2023-05-04T13:18:31.104Z</time>
      </trkpt>
      <trkpt lat="48.09749" lon="-2.77794">
        <ele>123.159646</ele>
        <time>2023-05-04T13:18:34.103Z</time>
      </trkpt>
      <trkpt lat="48.09741" lon="-2.77785">
        <ele>123.009105</ele>
        <time>2023-05-04T13:18:37.103Z</time>
      </trkpt>
      <trkpt lat="48.09732" lon="-2.77775">
        <ele>122.36291</ele>
        <time>2023-05-04T13:18:40.106Z</time>
      </trkpt>
      <trkpt lat="48.09721" lon="-2.77763">
        <ele>121.544235</ele>
        <time>2023-05-04T13:18:43.098Z</time>
      </trkpt>
      <trkpt lat="48.09712" lon="-2.77756">
        <ele>120.993333</ele>
        <time>2023-05-04T13:18:45.104Z</time>
      </trkpt>
      <trkpt lat="48.09703" lon="-2.77749">
        <ele>120.416045</ele>
        <time>2023-05-04T13:18:48.102Z</time>
      </trkpt>
      <trkpt lat="48.09695" lon="-2.77738">
        <ele>119.771019</ele>
        <time>2023-05-04T13:18:51.088Z</time>
      </trkpt>
      <trkpt lat="48.09686" lon="-2.77729">
        <ele>119.13496</ele>
        <time>2023-05-04T13:18:54.105Z</time>
      </trkpt>
      <trkpt lat="48.09678" lon="-2.77719">
        <ele>118.534746</ele>
        <time>2023-05-04T13:18:57.100Z</time>
      </trkpt>
      <trkpt lat="48.09668" lon="-2.77708">
        <ele>117.827896</ele>
        <time>2023-05-04T13:19:00.095Z</time>
      </trkpt>
      <trkpt lat="48.09658" lon="-2.77699">
        <ele>117.109872</ele>
        <time>2023-05-04T13:19:03.100Z</time>
      </trkpt>
      <trkpt lat="48.09647" lon="-2.77693">
        <ele>116.44397</ele>
        <time>2023-05-04T13:19:07.102Z</time>
      </trkpt>
      <trkpt lat="48.09636" lon="-2.77688">
        <ele>115.751445</ele>
        <time>2023-05-04T13:19:10.101Z</time>
      </trkpt>
      <trkpt lat="48.09624" lon="-2.77681">
        <ele>115.01444</ele>
        <time>2023-05-04T13:19:13.103Z</time>
      </trkpt>
      <trkpt lat="48.09614" lon="-2.77676">
        <ele>114.38477</ele>
        <time>2023-05-04T13:19:16.118Z</time>
      </trkpt>
      <trkpt lat="48.09603" lon="-2.77674">
        <ele>113.744955</ele>
        <time>2023-05-04T13:19:19.105Z</time>
      </trkpt>
      <trkpt lat="48.09593" lon="-2.77674">
        <ele>113.173648</ele>
        <time>2023-05-04T13:19:21.102Z</time>
      </trkpt>
      <trkpt lat="48.09584" lon="-2.77674">
        <ele>112.751261</ele>
        <time>2023-05-04T13:19:23.098Z</time>
      </trkpt>
      <trkpt lat="48.09575" lon="-2.77668">
        <ele>112.759436</ele>
        <time>2023-05-04T13:19:28.104Z</time>
      </trkpt>
      <trkpt lat="48.09563" lon="-2.77666">
        <ele>112.770047</ele>
        <time>2023-05-04T13:19:36.102Z</time>
      </trkpt>
      <trkpt lat="48.09552" lon="-2.77666">
        <ele>112.779995</ele>
        <time>2023-05-04T13:19:39.097Z</time>
      </trkpt>
      <trkpt lat="48.09542" lon="-2.77667">
        <ele>112.789159</ele>
        <time>2023-05-04T13:19:42.104Z</time>
      </trkpt>
      <trkpt lat="48.09531" lon="-2.77668">
        <ele>112.798445</ele>
        <time>2023-05-04T13:19:45.099Z</time>
      </trkpt>
      <trkpt lat="48.09521" lon="-2.77669">
        <ele>112.807782</ele>
        <time>2023-05-04T13:19:48.096Z</time>
      </trkpt>
      <trkpt lat="48.0951" lon="-2.77669">
        <ele>112.817026</ele>
        <time>2023-05-04T13:19:51.100Z</time>
      </trkpt>
      <trkpt lat="48.09498" lon="-2.7767">
        <ele>112.827507</ele>
        <time>2023-05-04T13:19:55.098Z</time>
      </trkpt>
      <trkpt lat="48.09488" lon="-2.77675">
        <ele>112.836723</ele>
        <time>2023-05-04T13:19:59.098Z</time>
      </trkpt>
      <trkpt lat="48.09485" lon="-2.77687">
        <ele>112.844781</ele>
        <time>2023-05-04T13:20:04.095Z</time>
      </trkpt>
      <trkpt lat="48.09481" lon="-2.77702">
        <ele>112.853983</ele>
        <time>2023-05-04T13:20:09.105Z</time>
      </trkpt>
      <trkpt lat="48.09472" lon="-2.77707">
        <ele>112.862838</ele>
        <time>2023-05-04T13:20:13.098Z</time>
      </trkpt>
      <trkpt lat="48.09459" lon="-2.77707">
        <ele>112.873848</ele>
        <time>2023-05-04T13:20:17.103Z</time>
      </trkpt>
      <trkpt lat="48.0945" lon="-2.77711">
        <ele>112.882197</ele>
        <time>2023-05-04T13:20:19.097Z</time>
      </trkpt>
      <trkpt lat="48.09441" lon="-2.77716">
        <ele>112.890895</ele>
        <time>2023-05-04T13:20:21.102Z</time>
      </trkpt>
      <trkpt lat="48.09432" lon="-2.7772">
        <ele>112.899228</ele>
        <time>2023-05-04T13:20:23.100Z</time>
      </trkpt>
      <trkpt lat="48.09422" lon="-2.77724">
        <ele>112.907939</ele>
        <time>2023-05-04T13:20:25.105Z</time>
      </trkpt>
      <trkpt lat="48.0941" lon="-2.77729">
        <ele>112.733792</ele>
        <time>2023-05-04T13:20:28.095Z</time>
      </trkpt>
      <trkpt lat="48.09398" lon="-2.77736">
        <ele>112.5563</ele>
        <time>2023-05-04T13:20:31.108Z</time>
      </trkpt>
      <trkpt lat="48.09388" lon="-2.77742">
        <ele>112.401644</ele>
        <time>2023-05-04T13:20:34.098Z</time>
      </trkpt>
      <trkpt lat="48.09378" lon="-2.77746">
        <ele>112.260698</ele>
        <time>2023-05-04T13:20:37.106Z</time>
      </trkpt>
      <trkpt lat="48.09369" lon="-2.77749">
        <ele>112.127662</ele>
        <time>2023-05-04T13:20:40.106Z</time>
      </trkpt>
      <trkpt lat="48.09359" lon="-2.77751">
        <ele>111.992367</ele>
        <time>2023-05-04T13:20:43.101Z</time>
      </trkpt>
      <trkpt lat="48.0935" lon="-2.77752">
        <ele>111.857728</ele>
        <time>2023-05-04T13:20:47.098Z</time>
      </trkpt>
      <trkpt lat="48.0934" lon="-2.77751">
        <ele>111.71786</ele>
        <time>2023-05-04T13:20:50.105Z</time>
      </trkpt>
      <trkpt lat="48.09329" lon="-2.77752">
        <ele>111.56822</ele>
        <time>2023-05-04T13:20:53.092Z</time>
      </trkpt>
      <trkpt lat="48.0932" lon="-2.77753">
        <ele>111.437417</ele>
        <time>2023-05-04T13:20:56.102Z</time>
      </trkpt>
      <trkpt lat="48.0931" lon="-2.77754">
        <ele>111.296967</ele>
        <time>2023-05-04T13:20:59.102Z</time>
      </trkpt>
      <trkpt lat="48.09299" lon="-2.77754">
        <ele>111.152856</ele>
        <time>2023-05-04T13:21:02.098Z</time>
      </trkpt>
      <trkpt lat="48.09289" lon="-2.77754">
        <ele>111.013003</ele>
        <time>2023-05-04T13:21:05.104Z</time>
      </trkpt>
      <trkpt lat="48.0928" lon="-2.77754">
        <ele>110.882939</ele>
        <time>2023-05-04T13:21:08.101Z</time>
      </trkpt>
      <trkpt lat="48.09268" lon="-2.77752">
        <ele>110.711597</ele>
        <time>2023-05-04T13:21:12.104Z</time>
      </trkpt>
      <trkpt lat="48.09256" lon="-2.77753">
        <ele>110.542079</ele>
        <time>2023-05-04T13:21:15.098Z</time>
      </trkpt>
      <trkpt lat="48.09244" lon="-2.77754">
        <ele>110.393729</ele>
        <time>2023-05-04T13:21:18.100Z</time>
      </trkpt>
      <trkpt lat="48.09233" lon="-2.77753">
        <ele>110.402237</ele>
        <time>2023-05-04T13:21:21.103Z</time>
      </trkpt>
      <trkpt lat="48.09221" lon="-2.7775">
        <ele>110.411416</ele>
        <time>2023-05-04T13:21:25.104Z</time>
      </trkpt>
      <trkpt lat="48.09211" lon="-2.77751">
        <ele>110.419504</ele>
        <time>2023-05-04T13:21:28.104Z</time>
      </trkpt>
      <trkpt lat="48.092" lon="-2.77752">
        <ele>110.427707</ele>
        <time>2023-05-04T13:21:31.103Z</time>
      </trkpt>
      <trkpt lat="48.0919" lon="-2.77755">
        <ele>110.436102</ele>
        <time>2023-05-04T13:21:34.099Z</time>
      </trkpt>
      <trkpt lat="48.09179" lon="-2.77756">
        <ele>110.444735</ele>
        <time>2023-05-04T13:21:37.106Z</time>
      </trkpt>
      <trkpt lat="48.09167" lon="-2.77757">
        <ele>110.454072</ele>
        <time>2023-05-04T13:21:40.099Z</time>
      </trkpt>
      <trkpt lat="48.09156" lon="-2.77759">
        <ele>110.462281</ele>
        <time>2023-05-04T13:21:43.096Z</time>
      </trkpt>
      <trkpt lat="48.09146" lon="-2.7776">
        <ele>110.470087</ele>
        <time>2023-05-04T13:21:46.103Z</time>
      </trkpt>
      <trkpt lat="48.09137" lon="-2.7776">
        <ele>110.477551</ele>
        <time>2023-05-04T13:21:49.101Z</time>
      </trkpt>
      <trkpt lat="48.09127" lon="-2.77763">
        <ele>110.485363</ele>
        <time>2023-05-04T13:21:52.102Z</time>
      </trkpt>
      <trkpt lat="48.09117" lon="-2.77764">
        <ele>110.492716</ele>
        <time>2023-05-04T13:21:55.100Z</time>
      </trkpt>
      <trkpt lat="48.09107" lon="-2.77767">
        <ele>110.500844</ele>
        <time>2023-05-04T13:21:58.100Z</time>
      </trkpt>
      <trkpt lat="48.09096" lon="-2.77772">
        <ele>110.509394</ele>
        <time>2023-05-04T13:22:01.101Z</time>
      </trkpt>
      <trkpt lat="48.09085" lon="-2.77774">
        <ele>110.518238</ele>
        <time>2023-05-04T13:22:04.098Z</time>
      </trkpt>
      <trkpt lat="48.09076" lon="-2.77774">
        <ele>110.525627</ele>
        <time>2023-05-04T13:22:07.099Z</time>
      </trkpt>
      <trkpt lat="48.09066" lon="-2.77772">
        <ele>110.53529</ele>
        <time>2023-05-04T13:22:10.096Z</time>
      </trkpt>
      <trkpt lat="48.09056" lon="-2.7777">
        <ele>110.580233</ele>
        <time>2023-05-04T13:22:13.101Z</time>
      </trkpt>
      <trkpt lat="48.09045" lon="-2.77769">
        <ele>110.635262</ele>
        <time>2023-05-04T13:22:17.103Z</time>
      </trkpt>
      <trkpt lat="48.09034" lon="-2.77765">
        <ele>110.686051</ele>
        <time>2023-05-04T13:22:20.104Z</time>
      </trkpt>
      <trkpt lat="48.09024" lon="-2.77763">
        <ele>110.732354</ele>
        <time>2023-05-04T13:22:23.100Z</time>
      </trkpt>
      <trkpt lat="48.09014" lon="-2.77757">
        <ele>110.780642</ele>
        <time>2023-05-04T13:22:26.099Z</time>
      </trkpt>
      <trkpt lat="48.09006" lon="-2.77748">
        <ele>110.82551</ele>
        <time>2023-05-04T13:22:29.097Z</time>
      </trkpt>
      <trkpt lat="48.08995" lon="-2.77744">
        <ele>110.879655</ele>
        <time>2023-05-04T13:22:32.100Z</time>
      </trkpt>
      <trkpt lat="48.08985" lon="-2.77739">
        <ele>110.928785</ele>
        <time>2023-05-04T13:22:36.098Z</time>
      </trkpt>
      <trkpt lat="48.08976" lon="-2.77736">
        <ele>110.970859</ele>
        <time>2023-05-04T13:22:39.109Z</time>
      </trkpt>
      <trkpt lat="48.08966" lon="-2.77732">
        <ele>111.019547</ele>
        <time>2023-05-04T13:22:42.089Z</time>
      </trkpt>
      <trkpt lat="48.08955" lon="-2.77727">
        <ele>111.070651</ele>
        <time>2023-05-04T13:22:45.090Z</time>
      </trkpt>
      <trkpt lat="48.08946" lon="-2.77721">
        <ele>111.114751</ele>
        <time>2023-05-04T13:22:48.101Z</time>
      </trkpt>
      <trkpt lat="48.08938" lon="-2.77711">
        <ele>111.162936</ele>
        <time>2023-05-04T13:22:52.097Z</time>
      </trkpt>
      <trkpt lat="48.08931" lon="-2.77699">
        <ele>111.213703</ele>
        <time>2023-05-04T13:22:56.098Z</time>
      </trkpt>
      <trkpt lat="48.08921" lon="-2.77691">
        <ele>111.263879</ele>
        <time>2023-05-04T13:22:59.097Z</time>
      </trkpt>
      <trkpt lat="48.08911" lon="-2.77685">
        <ele>111.315855</ele>
        <time>2023-05-04T13:23:02.084Z</time>
      </trkpt>
      <trkpt lat="48.08899" lon="-2.77678">
        <ele>111.360116</ele>
        <time>2023-05-04T13:23:05.102Z</time>
      </trkpt>
      <trkpt lat="48.08887" lon="-2.7767">
        <ele>111.349392</ele>
        <time>2023-05-04T13:23:08.099Z</time>
      </trkpt>
      <trkpt lat="48.08876" lon="-2.77663">
        <ele>111.339025</ele>
        <time>2023-05-04T13:23:11.103Z</time>
      </trkpt>
      <trkpt lat="48.08865" lon="-2.77654">
        <ele>111.328974</ele>
        <time>2023-05-04T13:23:14.098Z</time>
      </trkpt>
      <trkpt lat="48.08856" lon="-2.77643">
        <ele>111.319338</ele>
        <time>2023-05-04T13:23:16.095Z</time>
      </trkpt>
      <trkpt lat="48.08846" lon="-2.7764">
        <ele>111.310774</ele>
        <time>2023-05-04T13:23:19.102Z</time>
      </trkpt>
      <trkpt lat="48.08838" lon="-2.77633">
        <ele>111.303084</ele>
        <time>2023-05-04T13:23:22.097Z</time>
      </trkpt>
      <trkpt lat="48.08829" lon="-2.77625">
        <ele>111.294404</ele>
        <time>2023-05-04T13:23:25.098Z</time>
      </trkpt>
      <trkpt lat="48.08818" lon="-2.77619">
        <ele>111.285278</ele>
        <time>2023-05-04T13:23:28.096Z</time>
      </trkpt>
      <trkpt lat="48.08807" lon="-2.77613">
        <ele>111.275652</ele>
        <time>2023-05-04T13:23:31.096Z</time>
      </trkpt>
      <trkpt lat="48.08797" lon="-2.77606">
        <ele>111.266083</ele>
        <time>2023-05-04T13:23:34.100Z</time>
      </trkpt>
      <trkpt lat="48.08786" lon="-2.77599">
        <ele>111.256354</ele>
        <time>2023-05-04T13:23:37.099Z</time>
      </trkpt>
      <trkpt lat="48.08775" lon="-2.77592">
        <ele>111.246711</ele>
        <time>2023-05-04T13:23:40.104Z</time>
      </trkpt>
      <trkpt lat="48.08764" lon="-2.77585">
        <ele>111.236593</ele>
        <time>2023-05-04T13:23:43.098Z</time>
      </trkpt>
      <trkpt lat="48.08753" lon="-2.77576">
        <ele>111.226581</ele>
        <time>2023-05-04T13:23:46.098Z</time>
      </trkpt>
      <trkpt lat="48.08742" lon="-2.77568">
        <ele>111.21626</ele>
        <time>2023-05-04T13:23:49.102Z</time>
      </trkpt>
      <trkpt lat="48.08735" lon="-2.77557">
        <ele>111.40507</ele>
        <time>2023-05-04T13:23:53.099Z</time>
      </trkpt>
      <trkpt lat="48.08729" lon="-2.77543">
        <ele>111.7026</ele>
        <time>2023-05-04T13:23:58.099Z</time>
      </trkpt>
      <trkpt lat="48.08725" lon="-2.7753">
        <ele>111.954393</ele>
        <time>2023-05-04T13:24:01.096Z</time>
      </trkpt>
      <trkpt lat="48.0872" lon="-2.77518">
        <ele>112.190954</ele>
        <time>2023-05-04T13:24:04.101Z</time>
      </trkpt>
      <trkpt lat="48.08713" lon="-2.77506">
        <ele>112.464398</ele>
        <time>2023-05-04T13:24:08.095Z</time>
      </trkpt>
      <trkpt lat="48.08707" lon="-2.77491">
        <ele>112.761229</ele>
        <time>2023-05-04T13:24:12.105Z</time>
      </trkpt>
      <trkpt lat="48.08702" lon="-2.77476">
        <ele>113.070343</ele>
        <time>2023-05-04T13:24:16.096Z</time>
      </trkpt>
      <trkpt lat="48.08698" lon="-2.77463">
        <ele>113.320164</ele>
        <time>2023-05-04T13:24:19.103Z</time>
      </trkpt>
      <trkpt lat="48.08694" lon="-2.77449">
        <ele>113.577157</ele>
        <time>2023-05-04T13:24:22.104Z</time>
      </trkpt>
      <trkpt lat="48.0869" lon="-2.77436">
        <ele>113.825288</ele>
        <time>2023-05-04T13:24:28.096Z</time>
      </trkpt>
      <trkpt lat="48.08688" lon="-2.77421">
        <ele>114.088072</ele>
        <time>2023-05-04T13:24:36.095Z</time>
      </trkpt>
      <trkpt lat="48.08684" lon="-2.77406">
        <ele>114.37745</ele>
        <time>2023-05-04T13:24:41.094Z</time>
      </trkpt>
      <trkpt lat="48.08681" lon="-2.7739">
        <ele>114.671895</ele>
        <time>2023-05-04T13:24:45.099Z</time>
      </trkpt>
      <trkpt lat="48.08677" lon="-2.77376">
        <ele>114.937399</ele>
        <time>2023-05-04T13:24:48.097Z</time>
      </trkpt>
      <trkpt lat="48.08671" lon="-2.77362">
        <ele>115.227384</ele>
        <time>2023-05-04T13:24:51.097Z</time>
      </trkpt>
      <trkpt lat="48.08668" lon="-2.77348">
        <ele>115.488768</ele>
        <time>2023-05-04T13:24:54.097Z</time>
      </trkpt>
      <trkpt lat="48.08664" lon="-2.77335">
        <ele>115.743707</ele>
        <time>2023-05-04T13:24:57.108Z</time>
      </trkpt>
      <trkpt lat="48.0866" lon="-2.77322">
        <ele>115.883503</ele>
        <time>2023-05-04T13:25:00.095Z</time>
      </trkpt>
      <trkpt lat="48.08655" lon="-2.77308">
        <ele>115.785279</ele>
        <time>2023-05-04T13:25:03.095Z</time>
      </trkpt>
      <trkpt lat="48.08649" lon="-2.77294">
        <ele>115.682484</ele>
        <time>2023-05-04T13:25:06.097Z</time>
      </trkpt>
      <trkpt lat="48.0865" lon="-2.77278">
        <ele>115.585144</ele>
        <time>2023-05-04T13:25:09.100Z</time>
      </trkpt>
      <trkpt lat="48.08652" lon="-2.77262">
        <ele>115.485484</ele>
        <time>2023-05-04T13:25:12.099Z</time>
      </trkpt>
      <trkpt lat="48.08655" lon="-2.77243">
        <ele>115.366207</ele>
        <time>2023-05-04T13:25:15.102Z</time>
      </trkpt>
      <trkpt lat="48.08658" lon="-2.77225">
        <ele>115.250141</ele>
        <time>2023-05-04T13:25:18.098Z</time>
      </trkpt>
      <trkpt lat="48.0866" lon="-2.77208">
        <ele>115.141666</ele>
        <time>2023-05-04T13:25:21.103Z</time>
      </trkpt>
      <trkpt lat="48.08662" lon="-2.7719">
        <ele>115.032458</ele>
        <time>2023-05-04T13:25:24.099Z</time>
      </trkpt>
      <trkpt lat="48.08666" lon="-2.77178">
        <ele>114.947679</ele>
        <time>2023-05-04T13:25:26.098Z</time>
      </trkpt>
      <trkpt lat="48.08672" lon="-2.77165">
        <ele>114.854437</ele>
        <time>2023-05-04T13:25:28.107Z</time>
      </trkpt>
      <trkpt lat="48.08676" lon="-2.77147">
        <ele>114.73642</ele>
        <time>2023-05-04T13:25:31.097Z</time>
      </trkpt>
      <trkpt lat="48.08679" lon="-2.77134">
        <ele>114.651334</ele>
        <time>2023-05-04T13:25:33.097Z</time>
      </trkpt>
      <trkpt lat="48.08683" lon="-2.77116">
        <ele>114.53592</ele>
        <time>2023-05-04T13:25:36.100Z</time>
      </trkpt>
      <trkpt lat="48.08688" lon="-2.771">
        <ele>114.426874</ele>
        <time>2023-05-04T13:25:39.098Z</time>
      </trkpt>
      <trkpt lat="48.08691" lon="-2.77087">
        <ele>114.342453</ele>
        <time>2023-05-04T13:25:42.096Z</time>
      </trkpt>
      <trkpt lat="48.08693" lon="-2.77074">
        <ele>114.259126</ele>
        <time>2023-05-04T13:25:45.104Z</time>
      </trkpt>
      <trkpt lat="48.08697" lon="-2.77062">
        <ele>114.214768</ele>
        <time>2023-05-04T13:25:48.100Z</time>
      </trkpt>
      <trkpt lat="48.08703" lon="-2.77047">
        <ele>114.166277</ele>
        <time>2023-05-04T13:25:51.099Z</time>
      </trkpt>
      <trkpt lat="48.0871" lon="-2.77029">
        <ele>114.105605</ele>
        <time>2023-05-04T13:25:54.099Z</time>
      </trkpt>
      <trkpt lat="48.08717" lon="-2.77017">
        <ele>114.058918</ele>
        <time>2023-05-04T13:25:56.098Z</time>
      </trkpt>
      <trkpt lat="48.08723" lon="-2.77006">
        <ele>114.019547</ele>
        <time>2023-05-04T13:25:58.100Z</time>
      </trkpt>
      <trkpt lat="48.08728" lon="-2.76992">
        <ele>113.974595</ele>
        <time>2023-05-04T13:26:01.098Z</time>
      </trkpt>
      <trkpt lat="48.08734" lon="-2.76979">
        <ele>113.927381</ele>
        <time>2023-05-04T13:26:04.100Z</time>
      </trkpt>
      <trkpt lat="48.08741" lon="-2.76963">
        <ele>113.870545</ele>
        <time>2023-05-04T13:26:07.103Z</time>
      </trkpt>
      <trkpt lat="48.08747" lon="-2.76946">
        <ele>113.817409</ele>
        <time>2023-05-04T13:26:10.102Z</time>
      </trkpt>
      <trkpt lat="48.08752" lon="-2.7693">
        <ele>113.765878</ele>
        <time>2023-05-04T13:26:13.100Z</time>
      </trkpt>
      <trkpt lat="48.08755" lon="-2.76913">
        <ele>113.716356</ele>
        <time>2023-05-04T13:26:16.100Z</time>
      </trkpt>
      <trkpt lat="48.08755" lon="-2.76898">
        <ele>113.671674</ele>
        <time>2023-05-04T13:26:19.098Z</time>
      </trkpt>
      <trkpt lat="48.08752" lon="-2.76883">
        <ele>113.626704</ele>
        <time>2023-05-04T13:26:22.097Z</time>
      </trkpt>
      <trkpt lat="48.08746" lon="-2.7687">
        <ele>113.581821</ele>
        <time>2023-05-04T13:26:25.100Z</time>
      </trkpt>
      <trkpt lat="48.08742" lon="-2.76857">
        <ele>113.542319</ele>
        <time>2023-05-04T13:26:28.099Z</time>
      </trkpt>
      <trkpt lat="48.08735" lon="-2.76844">
        <ele>113.491886</ele>
        <time>2023-05-04T13:26:31.101Z</time>
      </trkpt>
      <trkpt lat="48.08726" lon="-2.7683">
        <ele>113.507064</ele>
        <time>2023-05-04T13:26:34.100Z</time>
      </trkpt>
      <trkpt lat="48.08717" lon="-2.7682">
        <ele>113.546471</ele>
        <time>2023-05-04T13:26:37.096Z</time>
      </trkpt>
      <trkpt lat="48.08705" lon="-2.7681">
        <ele>113.595414</ele>
        <time>2023-05-04T13:26:40.100Z</time>
      </trkpt>
      <trkpt lat="48.08694" lon="-2.76801">
        <ele>113.643226</ele>
        <time>2023-05-04T13:26:43.095Z</time>
      </trkpt>
      <trkpt lat="48.08682" lon="-2.76794">
        <ele>113.690234</ele>
        <time>2023-05-04T13:26:46.104Z</time>
      </trkpt>
      <trkpt lat="48.08671" lon="-2.76787">
        <ele>113.734217</ele>
        <time>2023-05-04T13:26:49.097Z</time>
      </trkpt>
      <trkpt lat="48.08659" lon="-2.76779">
        <ele>113.780987</ele>
        <time>2023-05-04T13:26:52.098Z</time>
      </trkpt>
      <trkpt lat="48.08648" lon="-2.76771">
        <ele>113.826069</ele>
        <time>2023-05-04T13:26:55.097Z</time>
      </trkpt>
      <trkpt lat="48.08637" lon="-2.76764">
        <ele>113.870338</ele>
        <time>2023-05-04T13:26:58.093Z</time>
      </trkpt>
      <trkpt lat="48.08625" lon="-2.76752">
        <ele>113.923012</ele>
        <time>2023-05-04T13:27:01.107Z</time>
      </trkpt>
      <trkpt lat="48.08615" lon="-2.76746">
        <ele>113.963458</ele>
        <time>2023-05-04T13:27:04.098Z</time>
      </trkpt>
      <trkpt lat="48.08605" lon="-2.76741">
        <ele>114.002444</ele>
        <time>2023-05-04T13:27:07.096Z</time>
      </trkpt>
      <trkpt lat="48.08595" lon="-2.76734">
        <ele>114.043173</ele>
        <time>2023-05-04T13:27:10.099Z</time>
      </trkpt>
      <trkpt lat="48.08586" lon="-2.76724">
        <ele>114.08322</ele>
        <time>2023-05-04T13:27:13.099Z</time>
      </trkpt>
      <trkpt lat="48.08577" lon="-2.76716">
        <ele>114.121722</ele>
        <time>2023-05-04T13:27:16.100Z</time>
      </trkpt>
      <trkpt lat="48.08567" lon="-2.76706">
        <ele>114.179782</ele>
        <time>2023-05-04T13:27:19.106Z</time>
      </trkpt>
      <trkpt lat="48.08557" lon="-2.76699">
        <ele>114.233653</ele>
        <time>2023-05-04T13:27:22.102Z</time>
      </trkpt>
      <trkpt lat="48.08548" lon="-2.76692">
        <ele>114.29017</ele>
        <time>2023-05-04T13:27:25.099Z</time>
      </trkpt>
      <trkpt lat="48.08537" lon="-2.76687">
        <ele>114.348355</ele>
        <time>2023-05-04T13:27:28.098Z</time>
      </trkpt>
      <trkpt lat="48.08527" lon="-2.76681">
        <ele>114.40531</ele>
        <time>2023-05-04T13:27:31.103Z</time>
      </trkpt>
      <trkpt lat="48.08519" lon="-2.76675">
        <ele>114.453453</ele>
        <time>2023-05-04T13:27:34.100Z</time>
      </trkpt>
      <trkpt lat="48.08509" lon="-2.76669">
        <ele>114.509953</ele>
        <time>2023-05-04T13:27:38.101Z</time>
      </trkpt>
      <trkpt lat="48.08499" lon="-2.76662">
        <ele>114.564003</ele>
        <time>2023-05-04T13:27:41.103Z</time>
      </trkpt>
      <trkpt lat="48.0849" lon="-2.76654">
        <ele>114.620523</ele>
        <time>2023-05-04T13:27:44.100Z</time>
      </trkpt>
      <trkpt lat="48.0848" lon="-2.76647">
        <ele>114.68001</ele>
        <time>2023-05-04T13:27:47.103Z</time>
      </trkpt>
      <trkpt lat="48.08469" lon="-2.76638">
        <ele>114.742918</ele>
        <time>2023-05-04T13:27:50.100Z</time>
      </trkpt>
      <trkpt lat="48.08458" lon="-2.76629">
        <ele>114.810365</ele>
        <time>2023-05-04T13:27:53.102Z</time>
      </trkpt>
      <trkpt lat="48.08446" lon="-2.7662">
        <ele>114.875916</ele>
        <time>2023-05-04T13:27:56.088Z</time>
      </trkpt>
      <trkpt lat="48.08436" lon="-2.76613">
        <ele>114.936646</ele>
        <time>2023-05-04T13:27:59.102Z</time>
      </trkpt>
      <trkpt lat="48.08424" lon="-2.76605">
        <ele>115.002696</ele>
        <time>2023-05-04T13:28:02.098Z</time>
      </trkpt>
      <trkpt lat="48.08415" lon="-2.76597">
        <ele>115.061095</ele>
        <time>2023-05-04T13:28:05.107Z</time>
      </trkpt>
      <trkpt lat="48.08406" lon="-2.7659">
        <ele>114.950447</ele>
        <time>2023-05-04T13:28:08.094Z</time>
      </trkpt>
      <trkpt lat="48.08398" lon="-2.76584">
        <ele>114.812485</ele>
        <time>2023-05-04T13:28:11.098Z</time>
      </trkpt>
      <trkpt lat="48.08388" lon="-2.76577">
        <ele>114.657884</ele>
        <time>2023-05-04T13:28:14.100Z</time>
      </trkpt>
      <trkpt lat="48.08378" lon="-2.7657">
        <ele>114.484014</ele>
        <time>2023-05-04T13:28:17.094Z</time>
      </trkpt>
      <trkpt lat="48.08369" lon="-2.76562">
        <ele>114.3285</ele>
        <time>2023-05-04T13:28:20.102Z</time>
      </trkpt>
      <trkpt lat="48.08359" lon="-2.76556">
        <ele>114.164071</ele>
        <time>2023-05-04T13:28:23.102Z</time>
      </trkpt>
      <trkpt lat="48.08348" lon="-2.76548">
        <ele>113.980768</ele>
        <time>2023-05-04T13:28:26.093Z</time>
      </trkpt>
      <trkpt lat="48.08337" lon="-2.7654">
        <ele>113.792522</ele>
        <time>2023-05-04T13:28:29.097Z</time>
      </trkpt>
      <trkpt lat="48.08325" lon="-2.76531">
        <ele>113.597537</ele>
        <time>2023-05-04T13:28:32.096Z</time>
      </trkpt>
      <trkpt lat="48.08313" lon="-2.76521">
        <ele>113.391976</ele>
        <time>2023-05-04T13:28:35.099Z</time>
      </trkpt>
      <trkpt lat="48.08304" lon="-2.7651">
        <ele>113.221204</ele>
        <time>2023-05-04T13:28:38.086Z</time>
      </trkpt>
      <trkpt lat="48.08292" lon="-2.76505">
        <ele>113.03095</ele>
        <time>2023-05-04T13:28:41.100Z</time>
      </trkpt>
      <trkpt lat="48.08281" lon="-2.76496">
        <ele>112.839111</ele>
        <time>2023-05-04T13:28:44.098Z</time>
      </trkpt>
      <trkpt lat="48.08271" lon="-2.76488">
        <ele>112.667488</ele>
        <time>2023-05-04T13:28:47.097Z</time>
      </trkpt>
      <trkpt lat="48.08261" lon="-2.76483">
        <ele>112.514722</ele>
        <time>2023-05-04T13:28:50.099Z</time>
      </trkpt>
      <trkpt lat="48.08253" lon="-2.76476">
        <ele>112.378934</ele>
        <time>2023-05-04T13:28:53.101Z</time>
      </trkpt>
      <trkpt lat="48.08244" lon="-2.76469">
        <ele>111.933093</ele>
        <time>2023-05-04T13:28:57.100Z</time>
      </trkpt>
      <trkpt lat="48.08235" lon="-2.76463">
        <ele>111.476705</ele>
        <time>2023-05-04T13:29:01.098Z</time>
      </trkpt>
      <trkpt lat="48.08226" lon="-2.76455">
        <ele>110.992579</ele>
        <time>2023-05-04T13:29:05.096Z</time>
      </trkpt>
      <trkpt lat="48.08217" lon="-2.76447">
        <ele>110.490123</ele>
        <time>2023-05-04T13:29:09.103Z</time>
      </trkpt>
      <trkpt lat="48.08208" lon="-2.76441">
        <ele>110.063961</ele>
        <time>2023-05-04T13:29:12.098Z</time>
      </trkpt>
      <trkpt lat="48.08199" lon="-2.76433">
        <ele>109.564175</ele>
        <time>2023-05-04T13:29:17.090Z</time>
      </trkpt>
      <trkpt lat="48.08191" lon="-2.76427">
        <ele>109.139262</ele>
        <time>2023-05-04T13:29:21.098Z</time>
      </trkpt>
      <trkpt lat="48.08183" lon="-2.76418">
        <ele>108.689716</ele>
        <time>2023-05-04T13:29:26.091Z</time>
      </trkpt>
      <trkpt lat="48.08175" lon="-2.76412">
        <ele>108.275127</ele>
        <time>2023-05-04T13:29:29.100Z</time>
      </trkpt>
      <trkpt lat="48.08167" lon="-2.76405">
        <ele>107.844691</ele>
        <time>2023-05-04T13:29:32.101Z</time>
      </trkpt>
      <trkpt lat="48.08157" lon="-2.76397">
        <ele>107.325826</ele>
        <time>2023-05-04T13:29:36.102Z</time>
      </trkpt>
      <trkpt lat="48.08147" lon="-2.76386">
        <ele>106.787528</ele>
        <time>2023-05-04T13:29:40.099Z</time>
      </trkpt>
      <trkpt lat="48.08137" lon="-2.76379">
        <ele>106.247121</ele>
        <time>2023-05-04T13:29:44.099Z</time>
      </trkpt>
      <trkpt lat="48.08128" lon="-2.76373">
        <ele>105.79535</ele>
        <time>2023-05-04T13:29:47.107Z</time>
      </trkpt>
      <trkpt lat="48.08119" lon="-2.76367">
        <ele>105.338107</ele>
        <time>2023-05-04T13:29:50.097Z</time>
      </trkpt>
      <trkpt lat="48.08108" lon="-2.76358">
        <ele>104.782154</ele>
        <time>2023-05-04T13:29:54.098Z</time>
      </trkpt>
      <trkpt lat="48.081" lon="-2.76348">
        <ele>104.271819</ele>
        <time>2023-05-04T13:29:57.098Z</time>
      </trkpt>
      <trkpt lat="48.08092" lon="-2.76337">
        <ele>103.593118</ele>
        <time>2023-05-04T13:30:00.098Z</time>
      </trkpt>
      <trkpt lat="48.08086" lon="-2.76322">
        <ele>102.661356</ele>
        <time>2023-05-04T13:30:03.099Z</time>
      </trkpt>
      <trkpt lat="48.08079" lon="-2.7631">
        <ele>101.816545</ele>
        <time>2023-05-04T13:30:06.099Z</time>
      </trkpt>
      <trkpt lat="48.08073" lon="-2.763">
        <ele>101.099514</ele>
        <time>2023-05-04T13:30:08.093Z</time>
      </trkpt>
      <trkpt lat="48.08066" lon="-2.76286">
        <ele>100.207298</ele>
        <time>2023-05-04T13:30:11.096Z</time>
      </trkpt>
      <trkpt lat="48.08062" lon="-2.76274">
        <ele>99.476824</ele>
        <time>2023-05-04T13:30:14.102Z</time>
      </trkpt>
      <trkpt lat="48.08055" lon="-2.76261">
        <ele>98.640447</ele>
        <time>2023-05-04T13:30:18.099Z</time>
      </trkpt>
      <trkpt lat="48.08048" lon="-2.7625">
        <ele>97.826156</ele>
        <time>2023-05-04T13:30:21.097Z</time>
      </trkpt>
      <trkpt lat="48.0804" lon="-2.76239">
        <ele>96.905654</ele>
        <time>2023-05-04T13:30:27.095Z</time>
      </trkpt>
      <trkpt lat="48.08032" lon="-2.76229">
        <ele>96.110292</ele>
        <time>2023-05-04T13:30:30.096Z</time>
      </trkpt>
      <trkpt lat="48.08024" lon="-2.76219">
        <ele>95.288551</ele>
        <time>2023-05-04T13:30:33.100Z</time>
      </trkpt>
      <trkpt lat="48.08014" lon="-2.76208">
        <ele>94.284861</ele>
        <time>2023-05-04T13:30:36.099Z</time>
      </trkpt>
      <trkpt lat="48.08006" lon="-2.76199">
        <ele>93.532663</ele>
        <time>2023-05-04T13:30:38.101Z</time>
      </trkpt>
      <trkpt lat="48.07998" lon="-2.76185">
        <ele>92.543152</ele>
        <time>2023-05-04T13:30:41.097Z</time>
      </trkpt>
      <trkpt lat="48.07991" lon="-2.76176">
        <ele>91.82958</ele>
        <time>2023-05-04T13:30:43.103Z</time>
      </trkpt>
      <trkpt lat="48.07981" lon="-2.76165">
        <ele>90.819437</ele>
        <time>2023-05-04T13:30:46.099Z</time>
      </trkpt>
      <trkpt lat="48.07973" lon="-2.76155">
        <ele>90.007138</ele>
        <time>2023-05-04T13:30:49.094Z</time>
      </trkpt>
      <trkpt lat="48.07963" lon="-2.76144">
        <ele>90.441121</ele>
        <time>2023-05-04T13:30:52.101Z</time>
      </trkpt>
      <trkpt lat="48.07958" lon="-2.76131">
        <ele>91.038964</ele>
        <time>2023-05-04T13:30:56.081Z</time>
      </trkpt>
      <trkpt lat="48.07951" lon="-2.76117">
        <ele>91.672238</ele>
        <time>2023-05-04T13:31:00.084Z</time>
      </trkpt>
      <trkpt lat="48.07942" lon="-2.76105">
        <ele>92.369151</ele>
        <time>2023-05-04T13:31:03.099Z</time>
      </trkpt>
      <trkpt lat="48.07931" lon="-2.76095">
        <ele>93.119604</ele>
        <time>2023-05-04T13:31:06.101Z</time>
      </trkpt>
      <trkpt lat="48.07924" lon="-2.76087">
        <ele>93.658764</ele>
        <time>2023-05-04T13:31:08.099Z</time>
      </trkpt>
      <trkpt lat="48.07914" lon="-2.76074">
        <ele>94.410656</ele>
        <time>2023-05-04T13:31:11.098Z</time>
      </trkpt>
      <trkpt lat="48.07903" lon="-2.76062">
        <ele>95.168945</ele>
        <time>2023-05-04T13:31:14.101Z</time>
      </trkpt>
      <trkpt lat="48.07893" lon="-2.76051">
        <ele>95.896613</ele>
        <time>2023-05-04T13:31:17.095Z</time>
      </trkpt>
      <trkpt lat="48.07883" lon="-2.76039">
        <ele>96.638265</ele>
        <time>2023-05-04T13:31:20.095Z</time>
      </trkpt>
      <trkpt lat="48.07875" lon="-2.76026">
        <ele>97.302123</ele>
        <time>2023-05-04T13:31:23.097Z</time>
      </trkpt>
      <trkpt lat="48.07867" lon="-2.76019">
        <ele>97.825752</ele>
        <time>2023-05-04T13:31:26.086Z</time>
      </trkpt>
      <trkpt lat="48.07857" lon="-2.76009">
        <ele>98.521678</ele>
        <time>2023-05-04T13:31:29.099Z</time>
      </trkpt>
      <trkpt lat="48.07847" lon="-2.76">
        <ele>99.230387</ele>
        <time>2023-05-04T13:31:32.095Z</time>
      </trkpt>
      <trkpt lat="48.07837" lon="-2.75987">
        <ele>99.999883</ele>
        <time>2023-05-04T13:31:35.095Z</time>
      </trkpt>
      <trkpt lat="48.07827" lon="-2.75975">
        <ele>100.483088</ele>
        <time>2023-05-04T13:31:38.097Z</time>
      </trkpt>
      <trkpt lat="48.07816" lon="-2.75966">
        <ele>100.884382</ele>
        <time>2023-05-04T13:31:41.097Z</time>
      </trkpt>
      <trkpt lat="48.07805" lon="-2.75957">
        <ele>101.269451</ele>
        <time>2023-05-04T13:31:44.096Z</time>
      </trkpt>
      <trkpt lat="48.07795" lon="-2.75951">
        <ele>101.605611</ele>
        <time>2023-05-04T13:31:47.085Z</time>
      </trkpt>
      <trkpt lat="48.07783" lon="-2.75943">
        <ele>102.006053</ele>
        <time>2023-05-04T13:31:50.098Z</time>
      </trkpt>
      <trkpt lat="48.07774" lon="-2.75935">
        <ele>102.333982</ele>
        <time>2023-05-04T13:31:52.097Z</time>
      </trkpt>
      <trkpt lat="48.07763" lon="-2.75926">
        <ele>102.724564</ele>
        <time>2023-05-04T13:31:55.099Z</time>
      </trkpt>
      <trkpt lat="48.07755" lon="-2.75912">
        <ele>103.114233</ele>
        <time>2023-05-04T13:31:58.099Z</time>
      </trkpt>
      <trkpt lat="48.07745" lon="-2.75903">
        <ele>103.468356</ele>
        <time>2023-05-04T13:32:01.101Z</time>
      </trkpt>
      <trkpt lat="48.07735" lon="-2.75896">
        <ele>103.804964</ele>
        <time>2023-05-04T13:32:04.099Z</time>
      </trkpt>
      <trkpt lat="48.07726" lon="-2.75889">
        <ele>104.145388</ele>
        <time>2023-05-04T13:32:07.103Z</time>
      </trkpt>
      <trkpt lat="48.07715" lon="-2.75881">
        <ele>104.512786</ele>
        <time>2023-05-04T13:32:10.098Z</time>
      </trkpt>
      <trkpt lat="48.07705" lon="-2.75872">
        <ele>104.86212</ele>
        <time>2023-05-04T13:32:13.099Z</time>
      </trkpt>
      <trkpt lat="48.07697" lon="-2.75864">
        <ele>105.192348</ele>
        <time>2023-05-04T13:32:16.102Z</time>
      </trkpt>
      <trkpt lat="48.07689" lon="-2.75855">
        <ele>105.493311</ele>
        <time>2023-05-04T13:32:19.097Z</time>
      </trkpt>
      <trkpt lat="48.07679" lon="-2.75846">
        <ele>105.840456</ele>
        <time>2023-05-04T13:32:23.098Z</time>
      </trkpt>
      <trkpt lat="48.0767" lon="-2.75838">
        <ele>106.101726</ele>
        <time>2023-05-04T13:32:26.097Z</time>
      </trkpt>
      <trkpt lat="48.07661" lon="-2.75828">
        <ele>106.349698</ele>
        <time>2023-05-04T13:32:29.097Z</time>
      </trkpt>
      <trkpt lat="48.07653" lon="-2.7582">
        <ele>106.581092</ele>
        <time>2023-05-04T13:32:32.098Z</time>
      </trkpt>
      <trkpt lat="48.07644" lon="-2.75813">
        <ele>106.820254</ele>
        <time>2023-05-04T13:32:35.098Z</time>
      </trkpt>
      <trkpt lat="48.07635" lon="-2.75806">
        <ele>107.070574</ele>
        <time>2023-05-04T13:32:38.104Z</time>
      </trkpt>
      <trkpt lat="48.07625" lon="-2.75797">
        <ele>107.337903</ele>
        <time>2023-05-04T13:32:41.100Z</time>
      </trkpt>
      <trkpt lat="48.07616" lon="-2.7579">
        <ele>107.579769</ele>
        <time>2023-05-04T13:32:44.080Z</time>
      </trkpt>
      <trkpt lat="48.07608" lon="-2.75779">
        <ele>107.846983</ele>
        <time>2023-05-04T13:32:47.097Z</time>
      </trkpt>
      <trkpt lat="48.07603" lon="-2.75766">
        <ele>108.069248</ele>
        <time>2023-05-04T13:32:49.102Z</time>
      </trkpt>
      <trkpt lat="48.07596" lon="-2.75753">
        <ele>108.335212</ele>
        <time>2023-05-04T13:32:52.096Z</time>
      </trkpt>
      <trkpt lat="48.07588" lon="-2.75741">
        <ele>108.605834</ele>
        <time>2023-05-04T13:32:55.093Z</time>
      </trkpt>
      <trkpt lat="48.07579" lon="-2.75731">
        <ele>108.871223</ele>
        <time>2023-05-04T13:32:58.097Z</time>
      </trkpt>
      <trkpt lat="48.07572" lon="-2.75721">
        <ele>109.094001</ele>
        <time>2023-05-04T13:33:01.104Z</time>
      </trkpt>
      <trkpt lat="48.07563" lon="-2.75712">
        <ele>109.360948</ele>
        <time>2023-05-04T13:33:05.099Z</time>
      </trkpt>
      <trkpt lat="48.07554" lon="-2.757">
        <ele>109.642377</ele>
        <time>2023-05-04T13:33:09.102Z</time>
      </trkpt>
      <trkpt lat="48.07546" lon="-2.75691">
        <ele>109.879236</ele>
        <time>2023-05-04T13:33:12.098Z</time>
      </trkpt>
      <trkpt lat="48.07536" lon="-2.75685">
        <ele>110.094644</ele>
        <time>2023-05-04T13:33:15.098Z</time>
      </trkpt>
      <trkpt lat="48.07525" lon="-2.75682">
        <ele>110.252193</ele>
        <time>2023-05-04T13:33:18.098Z</time>
      </trkpt>
      <trkpt lat="48.07512" lon="-2.75681">
        <ele>110.415898</ele>
        <time>2023-05-04T13:33:21.097Z</time>
      </trkpt>
      <trkpt lat="48.075" lon="-2.75681">
        <ele>110.575469</ele>
        <time>2023-05-04T13:33:24.102Z</time>
      </trkpt>
      <trkpt lat="48.07489" lon="-2.75681">
        <ele>110.729752</ele>
        <time>2023-05-04T13:33:27.103Z</time>
      </trkpt>
      <trkpt lat="48.07477" lon="-2.75681">
        <ele>110.881336</ele>
        <time>2023-05-04T13:33:30.103Z</time>
      </trkpt>
      <trkpt lat="48.07467" lon="-2.75681">
        <ele>111.019668</ele>
        <time>2023-05-04T13:33:33.102Z</time>
      </trkpt>
      <trkpt lat="48.07457" lon="-2.75679">
        <ele>111.154914</ele>
        <time>2023-05-04T13:33:36.100Z</time>
      </trkpt>
      <trkpt lat="48.07448" lon="-2.75678">
        <ele>111.27873</ele>
        <time>2023-05-04T13:33:39.100Z</time>
      </trkpt>
      <trkpt lat="48.07437" lon="-2.75675">
        <ele>111.426095</ele>
        <time>2023-05-04T13:33:43.096Z</time>
      </trkpt>
      <trkpt lat="48.06811" lon="-2.75007">
        <ele>121.865769</ele>
        <time>2023-05-04T13:39:26.695Z</time>
      </trkpt>
      <trkpt lat="48.0682" lon="-2.74987">
        <ele>121.473382</ele>
        <time>2023-05-04T13:39:28.090Z</time>
      </trkpt>
      <trkpt lat="48.06815" lon="-2.74974">
        <ele>121.234426</ele>
        <time>2023-05-04T13:39:32.096Z</time>
      </trkpt>
      <trkpt lat="48.06815" lon="-2.74959">
        <ele>120.830459</ele>
        <time>2023-05-04T13:39:37.098Z</time>
      </trkpt>
      <trkpt lat="48.06807" lon="-2.7495">
        <ele>120.427756</ele>
        <time>2023-05-04T13:39:42.101Z</time>
      </trkpt>
      <trkpt lat="48.06798" lon="-2.74948">
        <ele>120.017689</ele>
        <time>2023-05-04T13:39:46.100Z</time>
      </trkpt>
      <trkpt lat="48.06786" lon="-2.74947">
        <ele>119.51833</ele>
        <time>2023-05-04T13:39:50.096Z</time>
      </trkpt>
      <trkpt lat="48.06777" lon="-2.74948">
        <ele>119.124567</ele>
        <time>2023-05-04T13:39:53.095Z</time>
      </trkpt>
      <trkpt lat="48.06765" lon="-2.74951">
        <ele>118.626327</ele>
        <time>2023-05-04T13:39:56.100Z</time>
      </trkpt>
      <trkpt lat="48.06755" lon="-2.74957">
        <ele>118.164829</ele>
        <time>2023-05-04T13:39:59.098Z</time>
      </trkpt>
      <trkpt lat="48.06745" lon="-2.74963">
        <ele>117.677788</ele>
        <time>2023-05-04T13:40:02.098Z</time>
      </trkpt>
      <trkpt lat="48.06736" lon="-2.74973">
        <ele>117.213231</ele>
        <time>2023-05-04T13:40:06.095Z</time>
      </trkpt>
      <trkpt lat="48.06726" lon="-2.74983">
        <ele>116.723879</ele>
        <time>2023-05-04T13:40:10.098Z</time>
      </trkpt>
      <trkpt lat="48.06716" lon="-2.74985">
        <ele>116.269908</ele>
        <time>2023-05-04T13:40:14.094Z</time>
      </trkpt>
      <trkpt lat="48.06706" lon="-2.74983">
        <ele>115.85228</ele>
        <time>2023-05-04T13:40:18.098Z</time>
      </trkpt>
      <trkpt lat="48.06697" lon="-2.74974">
        <ele>115.389446</ele>
        <time>2023-05-04T13:40:23.096Z</time>
      </trkpt>
      <trkpt lat="48.06688" lon="-2.74966">
        <ele>114.930929</ele>
        <time>2023-05-04T13:40:28.096Z</time>
      </trkpt>
      <trkpt lat="48.0668" lon="-2.74961">
        <ele>114.545278</ele>
        <time>2023-05-04T13:40:32.096Z</time>
      </trkpt>
      <trkpt lat="48.06667" lon="-2.74942">
        <ele>113.797148</ele>
        <time>2023-05-04T13:41:18.102Z</time>
      </trkpt>
      <trkpt lat="48.06662" lon="-2.74926">
        <ele>113.514695</ele>
        <time>2023-05-04T13:41:22.098Z</time>
      </trkpt>
      <trkpt lat="48.0666" lon="-2.74911">
        <ele>113.510334</ele>
        <time>2023-05-04T13:41:25.098Z</time>
      </trkpt>
      <trkpt lat="48.0666" lon="-2.74898">
        <ele>113.506485</ele>
        <time>2023-05-04T13:41:28.094Z</time>
      </trkpt>
      <trkpt lat="48.06661" lon="-2.74884">
        <ele>113.50245</ele>
        <time>2023-05-04T13:41:31.095Z</time>
      </trkpt>
      <trkpt lat="48.06661" lon="-2.7487">
        <ele>113.498428</ele>
        <time>2023-05-04T13:41:34.100Z</time>
      </trkpt>
      <trkpt lat="48.06659" lon="-2.74856">
        <ele>113.494561</ele>
        <time>2023-05-04T13:41:37.088Z</time>
      </trkpt>
      <trkpt lat="48.06657" lon="-2.74842">
        <ele>113.490311</ele>
        <time>2023-05-04T13:41:40.094Z</time>
      </trkpt>
      <trkpt lat="48.06653" lon="-2.74828">
        <ele>113.4861</ele>
        <time>2023-05-04T13:41:43.094Z</time>
      </trkpt>
      <trkpt lat="48.06649" lon="-2.74816">
        <ele>113.482089</ele>
        <time>2023-05-04T13:41:46.098Z</time>
      </trkpt>
      <trkpt lat="48.06645" lon="-2.74801">
        <ele>113.477599</ele>
        <time>2023-05-04T13:41:49.098Z</time>
      </trkpt>
      <trkpt lat="48.06641" lon="-2.74787">
        <ele>113.473375</ele>
        <time>2023-05-04T13:41:52.099Z</time>
      </trkpt>
      <trkpt lat="48.06637" lon="-2.74775">
        <ele>113.469331</ele>
        <time>2023-05-04T13:41:55.093Z</time>
      </trkpt>
      <trkpt lat="48.06632" lon="-2.74762">
        <ele>113.465025</ele>
        <time>2023-05-04T13:41:58.105Z</time>
      </trkpt>
      <trkpt lat="48.06627" lon="-2.74748">
        <ele>113.460665</ele>
        <time>2023-05-04T13:42:01.096Z</time>
      </trkpt>
      <trkpt lat="48.06622" lon="-2.74735">
        <ele>113.456409</ele>
        <time>2023-05-04T13:42:04.093Z</time>
      </trkpt>
      <trkpt lat="48.06616" lon="-2.74723">
        <ele>113.452229</ele>
        <time>2023-05-04T13:42:07.080Z</time>
      </trkpt>
      <trkpt lat="48.0661" lon="-2.74709">
        <ele>113.447459</ele>
        <time>2023-05-04T13:42:11.100Z</time>
      </trkpt>
      <trkpt lat="48.06603" lon="-2.74695">
        <ele>113.442489</ele>
        <time>2023-05-04T13:42:15.097Z</time>
      </trkpt>
      <trkpt lat="48.06596" lon="-2.74685">
        <ele>113.413225</ele>
        <time>2023-05-04T13:42:18.097Z</time>
      </trkpt>
      <trkpt lat="48.06588" lon="-2.74672">
        <ele>113.342244</ele>
        <time>2023-05-04T13:42:21.098Z</time>
      </trkpt>
      <trkpt lat="48.06582" lon="-2.74657">
        <ele>113.269267</ele>
        <time>2023-05-04T13:42:24.101Z</time>
      </trkpt>
      <trkpt lat="48.06575" lon="-2.7464">
        <ele>113.191477</ele>
        <time>2023-05-04T13:42:27.099Z</time>
      </trkpt>
      <trkpt lat="48.06567" lon="-2.74624">
        <ele>113.112458</ele>
        <time>2023-05-04T13:42:30.104Z</time>
      </trkpt>
      <trkpt lat="48.06559" lon="-2.74611">
        <ele>113.040548</ele>
        <time>2023-05-04T13:42:33.096Z</time>
      </trkpt>
      <trkpt lat="48.0655" lon="-2.74598">
        <ele>112.966798</ele>
        <time>2023-05-04T13:42:36.098Z</time>
      </trkpt>
      <trkpt lat="48.06541" lon="-2.74585">
        <ele>112.887659</ele>
        <time>2023-05-04T13:42:39.095Z</time>
      </trkpt>
      <trkpt lat="48.06533" lon="-2.74571">
        <ele>112.816873</ele>
        <time>2023-05-04T13:42:42.095Z</time>
      </trkpt>
      <trkpt lat="48.06526" lon="-2.74559">
        <ele>112.74978</ele>
        <time>2023-05-04T13:42:45.094Z</time>
      </trkpt>
      <trkpt lat="48.06518" lon="-2.74549">
        <ele>112.688144</ele>
        <time>2023-05-04T13:42:48.096Z</time>
      </trkpt>
      <trkpt lat="48.06509" lon="-2.74537">
        <ele>112.61818</ele>
        <time>2023-05-04T13:42:51.090Z</time>
      </trkpt>
      <trkpt lat="48.06501" lon="-2.74525">
        <ele>112.54997</ele>
        <time>2023-05-04T13:42:54.090Z</time>
      </trkpt>
      <trkpt lat="48.06493" lon="-2.74512">
        <ele>112.477936</ele>
        <time>2023-05-04T13:42:57.091Z</time>
      </trkpt>
      <trkpt lat="48.06485" lon="-2.74497">
        <ele>112.400289</ele>
        <time>2023-05-04T13:43:00.091Z</time>
      </trkpt>
      <trkpt lat="48.06478" lon="-2.74481">
        <ele>112.223364</ele>
        <time>2023-05-04T13:43:03.094Z</time>
      </trkpt>
      <trkpt lat="48.06471" lon="-2.74467">
        <ele>111.973215</ele>
        <time>2023-05-04T13:43:06.090Z</time>
      </trkpt>
      <trkpt lat="48.06465" lon="-2.74453">
        <ele>111.725542</ele>
        <time>2023-05-04T13:43:10.100Z</time>
      </trkpt>
      <trkpt lat="48.06458" lon="-2.74441">
        <ele>111.488371</ele>
        <time>2023-05-04T13:43:13.104Z</time>
      </trkpt>
      <trkpt lat="48.06451" lon="-2.74427">
        <ele>111.224771</ele>
        <time>2023-05-04T13:43:16.096Z</time>
      </trkpt>
      <trkpt lat="48.06444" lon="-2.74411">
        <ele>110.947461</ele>
        <time>2023-05-04T13:43:19.096Z</time>
      </trkpt>
      <trkpt lat="48.06439" lon="-2.744">
        <ele>110.735532</ele>
        <time>2023-05-04T13:43:21.100Z</time>
      </trkpt>
      <trkpt lat="48.06432" lon="-2.74384">
        <ele>110.453365</ele>
        <time>2023-05-04T13:43:24.094Z</time>
      </trkpt>
      <trkpt lat="48.06426" lon="-2.74369">
        <ele>110.20646</ele>
        <time>2023-05-04T13:43:27.097Z</time>
      </trkpt>
      <trkpt lat="48.06419" lon="-2.74356">
        <ele>109.956938</ele>
        <time>2023-05-04T13:43:30.096Z</time>
      </trkpt>
      <trkpt lat="48.06413" lon="-2.74342">
        <ele>109.710356</ele>
        <time>2023-05-04T13:43:33.098Z</time>
      </trkpt>
      <trkpt lat="48.06405" lon="-2.74328">
        <ele>109.448722</ele>
        <time>2023-05-04T13:43:36.098Z</time>
      </trkpt>
      <trkpt lat="48.06398" lon="-2.74315">
        <ele>109.180873</ele>
        <time>2023-05-04T13:43:39.096Z</time>
      </trkpt>
      <trkpt lat="48.06389" lon="-2.74301">
        <ele>108.899328</ele>
        <time>2023-05-04T13:43:42.098Z</time>
      </trkpt>
      <trkpt lat="48.0638" lon="-2.74289">
        <ele>108.6412</ele>
        <time>2023-05-04T13:43:45.095Z</time>
      </trkpt>
      <trkpt lat="48.06371" lon="-2.74275">
        <ele>108.37811</ele>
        <time>2023-05-04T13:43:48.092Z</time>
      </trkpt>
      <trkpt lat="48.06361" lon="-2.74261">
        <ele>108.507522</ele>
        <time>2023-05-04T13:43:51.098Z</time>
      </trkpt>
      <trkpt lat="48.06354" lon="-2.74251">
        <ele>108.605723</ele>
        <time>2023-05-04T13:43:53.104Z</time>
      </trkpt>
      <trkpt lat="48.06346" lon="-2.74237">
        <ele>108.723446</ele>
        <time>2023-05-04T13:43:56.096Z</time>
      </trkpt>
      <trkpt lat="48.06338" lon="-2.74223">
        <ele>108.840053</ele>
        <time>2023-05-04T13:43:59.097Z</time>
      </trkpt>
      <trkpt lat="48.06331" lon="-2.7421">
        <ele>108.949736</ele>
        <time>2023-05-04T13:44:02.097Z</time>
      </trkpt>
      <trkpt lat="48.06325" lon="-2.74196">
        <ele>109.055974</ele>
        <time>2023-05-04T13:44:05.096Z</time>
      </trkpt>
      <trkpt lat="48.0632" lon="-2.74183">
        <ele>109.151628</ele>
        <time>2023-05-04T13:44:08.096Z</time>
      </trkpt>
      <trkpt lat="48.06316" lon="-2.74167">
        <ele>109.262658</ele>
        <time>2023-05-04T13:44:12.094Z</time>
      </trkpt>
      <trkpt lat="48.06312" lon="-2.74153">
        <ele>109.359037</ele>
        <time>2023-05-04T13:44:15.093Z</time>
      </trkpt>
      <trkpt lat="48.0631" lon="-2.74136">
        <ele>109.473485</ele>
        <time>2023-05-04T13:44:18.095Z</time>
      </trkpt>
      <trkpt lat="48.06306" lon="-2.74119">
        <ele>109.589043</ele>
        <time>2023-05-04T13:44:21.098Z</time>
      </trkpt>
      <trkpt lat="48.06303" lon="-2.74101">
        <ele>109.704766</ele>
        <time>2023-05-04T13:44:24.097Z</time>
      </trkpt>
      <trkpt lat="48.063" lon="-2.74085">
        <ele>109.81198</ele>
        <time>2023-05-04T13:44:27.097Z</time>
      </trkpt>
      <trkpt lat="48.06298" lon="-2.7407">
        <ele>109.912121</ele>
        <time>2023-05-04T13:44:30.104Z</time>
      </trkpt>
      <trkpt lat="48.06295" lon="-2.74053">
        <ele>110.026112</ele>
        <time>2023-05-04T13:44:33.099Z</time>
      </trkpt>
      <trkpt lat="48.06292" lon="-2.74037">
        <ele>110.044776</ele>
        <time>2023-05-04T13:44:36.099Z</time>
      </trkpt>
      <trkpt lat="48.06289" lon="-2.74021">
        <ele>109.845941</ele>
        <time>2023-05-04T13:44:39.103Z</time>
      </trkpt>
      <trkpt lat="48.06285" lon="-2.74005">
        <ele>109.632583</ele>
        <time>2023-05-04T13:44:42.101Z</time>
      </trkpt>
      <trkpt lat="48.06282" lon="-2.73989">
        <ele>109.414426</ele>
        <time>2023-05-04T13:44:45.101Z</time>
      </trkpt>
      <trkpt lat="48.06278" lon="-2.73971">
        <ele>109.177856</ele>
        <time>2023-05-04T13:44:48.100Z</time>
      </trkpt>
      <trkpt lat="48.06274" lon="-2.73952">
        <ele>108.929369</ele>
        <time>2023-05-04T13:44:51.099Z</time>
      </trkpt>
      <trkpt lat="48.0627" lon="-2.73934">
        <ele>108.69449</ele>
        <time>2023-05-04T13:44:54.098Z</time>
      </trkpt>
      <trkpt lat="48.06268" lon="-2.73918">
        <ele>108.481084</ele>
        <time>2023-05-04T13:44:57.098Z</time>
      </trkpt>
      <trkpt lat="48.06266" lon="-2.73902">
        <ele>108.283406</ele>
        <time>2023-05-04T13:45:00.093Z</time>
      </trkpt>
      <trkpt lat="48.06263" lon="-2.73889">
        <ele>108.105915</ele>
        <time>2023-05-04T13:45:02.098Z</time>
      </trkpt>
      <trkpt lat="48.0626" lon="-2.73871">
        <ele>107.87502</ele>
        <time>2023-05-04T13:45:05.098Z</time>
      </trkpt>
      <trkpt lat="48.06257" lon="-2.73855">
        <ele>107.666715</ele>
        <time>2023-05-04T13:45:08.099Z</time>
      </trkpt>
      <trkpt lat="48.06254" lon="-2.7384">
        <ele>107.465899</ele>
        <time>2023-05-04T13:45:11.095Z</time>
      </trkpt>
      <trkpt lat="48.0625" lon="-2.73824">
        <ele>107.24921</ele>
        <time>2023-05-04T13:45:14.088Z</time>
      </trkpt>
      <trkpt lat="48.06246" lon="-2.73809">
        <ele>107.056145</ele>
        <time>2023-05-04T13:45:17.098Z</time>
      </trkpt>
      <trkpt lat="48.06242" lon="-2.73794">
        <ele>106.852952</ele>
        <time>2023-05-04T13:45:21.095Z</time>
      </trkpt>
      <trkpt lat="48.06238" lon="-2.73782">
        <ele>106.699914</ele>
        <time>2023-05-04T13:45:25.094Z</time>
      </trkpt>
      <trkpt lat="48.06234" lon="-2.73769">
        <ele>106.611491</ele>
        <time>2023-05-04T13:45:28.096Z</time>
      </trkpt>
      <trkpt lat="48.06227" lon="-2.73754">
        <ele>106.496851</ele>
        <time>2023-05-04T13:45:31.097Z</time>
      </trkpt>
      <trkpt lat="48.06218" lon="-2.73744">
        <ele>106.389032</ele>
        <time>2023-05-04T13:45:34.096Z</time>
      </trkpt>
      <trkpt lat="48.06208" lon="-2.73734">
        <ele>106.273575</ele>
        <time>2023-05-04T13:45:37.089Z</time>
      </trkpt>
      <trkpt lat="48.06199" lon="-2.73722">
        <ele>106.167691</ele>
        <time>2023-05-04T13:45:40.095Z</time>
      </trkpt>
      <trkpt lat="48.06191" lon="-2.73711">
        <ele>106.061386</ele>
        <time>2023-05-04T13:45:43.093Z</time>
      </trkpt>
      <trkpt lat="48.06181" lon="-2.737">
        <ele>105.948353</ele>
        <time>2023-05-04T13:45:46.091Z</time>
      </trkpt>
      <trkpt lat="48.06173" lon="-2.73689">
        <ele>105.840344</ele>
        <time>2023-05-04T13:45:49.094Z</time>
      </trkpt>
      <trkpt lat="48.06162" lon="-2.73678">
        <ele>105.719755</ele>
        <time>2023-05-04T13:45:52.087Z</time>
      </trkpt>
      <trkpt lat="48.06155" lon="-2.73665">
        <ele>105.610969</ele>
        <time>2023-05-04T13:45:55.096Z</time>
      </trkpt>
      <trkpt lat="48.06146" lon="-2.73652">
        <ele>105.492808</ele>
        <time>2023-05-04T13:45:58.096Z</time>
      </trkpt>
      <trkpt lat="48.06136" lon="-2.73639">
        <ele>105.371617</ele>
        <time>2023-05-04T13:46:01.098Z</time>
      </trkpt>
      <trkpt lat="48.06126" lon="-2.73629">
        <ele>105.25891</ele>
        <time>2023-05-04T13:46:04.085Z</time>
      </trkpt>
      <trkpt lat="48.06116" lon="-2.73617">
        <ele>105.136058</ele>
        <time>2023-05-04T13:46:07.094Z</time>
      </trkpt>
      <trkpt lat="48.06109" lon="-2.73608">
        <ele>105.048661</ele>
        <time>2023-05-04T13:46:09.089Z</time>
      </trkpt>
      <trkpt lat="48.06101" lon="-2.73598">
        <ele>104.938454</ele>
        <time>2023-05-04T13:46:11.098Z</time>
      </trkpt>
      <trkpt lat="48.06092" lon="-2.73587">
        <ele>104.794331</ele>
        <time>2023-05-04T13:46:14.095Z</time>
      </trkpt>
      <trkpt lat="48.06083" lon="-2.73575">
        <ele>104.659076</ele>
        <time>2023-05-04T13:46:17.097Z</time>
      </trkpt>
      <trkpt lat="48.06072" lon="-2.73562">
        <ele>104.499575</ele>
        <time>2023-05-04T13:46:20.097Z</time>
      </trkpt>
      <trkpt lat="48.06063" lon="-2.7355">
        <ele>104.348174</ele>
        <time>2023-05-04T13:46:23.096Z</time>
      </trkpt>
      <trkpt lat="48.06056" lon="-2.73541">
        <ele>104.242666</ele>
        <time>2023-05-04T13:46:25.099Z</time>
      </trkpt>
      <trkpt lat="48.06048" lon="-2.73533">
        <ele>104.135748</ele>
        <time>2023-05-04T13:46:27.093Z</time>
      </trkpt>
      <trkpt lat="48.0604" lon="-2.73522">
        <ele>104.005138</ele>
        <time>2023-05-04T13:46:30.096Z</time>
      </trkpt>
      <trkpt lat="48.06033" lon="-2.73511">
        <ele>103.887196</ele>
        <time>2023-05-04T13:46:33.099Z</time>
      </trkpt>
      <trkpt lat="48.06023" lon="-2.735">
        <ele>103.74447</ele>
        <time>2023-05-04T13:46:37.098Z</time>
      </trkpt>
      <trkpt lat="48.06015" lon="-2.73491">
        <ele>103.626465</ele>
        <time>2023-05-04T13:46:39.094Z</time>
      </trkpt>
      <trkpt lat="48.06005" lon="-2.73482">
        <ele>103.495483</ele>
        <time>2023-05-04T13:46:42.093Z</time>
      </trkpt>
      <trkpt lat="48.05994" lon="-2.73472">
        <ele>103.345723</ele>
        <time>2023-05-04T13:46:45.091Z</time>
      </trkpt>
      <trkpt lat="48.05985" lon="-2.73464">
        <ele>103.216323</ele>
        <time>2023-05-04T13:46:48.097Z</time>
      </trkpt>
      <trkpt lat="48.05976" lon="-2.73456">
        <ele>103.097439</ele>
        <time>2023-05-04T13:46:51.096Z</time>
      </trkpt>
      <trkpt lat="48.05967" lon="-2.73449">
        <ele>102.97426</ele>
        <time>2023-05-04T13:46:54.101Z</time>
      </trkpt>
      <trkpt lat="48.05956" lon="-2.73438">
        <ele>103.401264</ele>
        <time>2023-05-04T13:46:57.100Z</time>
      </trkpt>
      <trkpt lat="48.05945" lon="-2.7343">
        <ele>104.00218</ele>
        <time>2023-05-04T13:47:00.094Z</time>
      </trkpt>
      <trkpt lat="48.05935" lon="-2.73423">
        <ele>104.529883</ele>
        <time>2023-05-04T13:47:02.096Z</time>
      </trkpt>
      <trkpt lat="48.05925" lon="-2.73415">
        <ele>105.10995</ele>
        <time>2023-05-04T13:47:05.095Z</time>
      </trkpt>
      <trkpt lat="48.05914" lon="-2.73406">
        <ele>105.722965</ele>
        <time>2023-05-04T13:47:08.097Z</time>
      </trkpt>
      <trkpt lat="48.05902" lon="-2.73398">
        <ele>106.371143</ele>
        <time>2023-05-04T13:47:11.096Z</time>
      </trkpt>
      <trkpt lat="48.05891" lon="-2.73389">
        <ele>106.979163</ele>
        <time>2023-05-04T13:47:14.097Z</time>
      </trkpt>
      <trkpt lat="48.05883" lon="-2.73381">
        <ele>107.483142</ele>
        <time>2023-05-04T13:47:17.096Z</time>
      </trkpt>
      <trkpt lat="48.05874" lon="-2.73373">
        <ele>107.985838</ele>
        <time>2023-05-04T13:47:20.088Z</time>
      </trkpt>
      <trkpt lat="48.05864" lon="-2.73364">
        <ele>108.582013</ele>
        <time>2023-05-04T13:47:24.097Z</time>
      </trkpt>
      <trkpt lat="48.05855" lon="-2.73355">
        <ele>109.088328</ele>
        <time>2023-05-04T13:47:27.097Z</time>
      </trkpt>
      <trkpt lat="48.05847" lon="-2.73348">
        <ele>109.569954</ele>
        <time>2023-05-04T13:47:30.097Z</time>
      </trkpt>
      <trkpt lat="48.05839" lon="-2.7334">
        <ele>110.053306</ele>
        <time>2023-05-04T13:47:33.100Z</time>
      </trkpt>
      <trkpt lat="48.0583" lon="-2.73332">
        <ele>110.579756</ele>
        <time>2023-05-04T13:47:36.099Z</time>
      </trkpt>
      <trkpt lat="48.0582" lon="-2.73326">
        <ele>111.099948</ele>
        <time>2023-05-04T13:47:39.096Z</time>
      </trkpt>
      <trkpt lat="48.05811" lon="-2.73322">
        <ele>111.588229</ele>
        <time>2023-05-04T13:47:42.100Z</time>
      </trkpt>
      <trkpt lat="48.05799" lon="-2.73318">
        <ele>111.940866</ele>
        <time>2023-05-04T13:47:45.097Z</time>
      </trkpt>
      <trkpt lat="48.05786" lon="-2.73316">
        <ele>112.139906</ele>
        <time>2023-05-04T13:47:48.094Z</time>
      </trkpt>
      <trkpt lat="48.05773" lon="-2.73316">
        <ele>112.344005</ele>
        <time>2023-05-04T13:47:51.095Z</time>
      </trkpt>
      <trkpt lat="48.05761" lon="-2.7332">
        <ele>112.543053</ele>
        <time>2023-05-04T13:47:54.092Z</time>
      </trkpt>
      <trkpt lat="48.05751" lon="-2.73326">
        <ele>112.711797</ele>
        <time>2023-05-04T13:47:57.095Z</time>
      </trkpt>
      <trkpt lat="48.05739" lon="-2.73334">
        <ele>112.915186</ele>
        <time>2023-05-04T13:48:00.092Z</time>
      </trkpt>
      <trkpt lat="48.05731" lon="-2.73341">
        <ele>113.069289</ele>
        <time>2023-05-04T13:48:02.095Z</time>
      </trkpt>
      <trkpt lat="48.0572" lon="-2.73348">
        <ele>113.25721</ele>
        <time>2023-05-04T13:48:05.097Z</time>
      </trkpt>
      <trkpt lat="48.05711" lon="-2.73353">
        <ele>113.406142</ele>
        <time>2023-05-04T13:48:08.100Z</time>
      </trkpt>
      <trkpt lat="48.05702" lon="-2.7336">
        <ele>113.560273</ele>
        <time>2023-05-04T13:48:11.094Z</time>
      </trkpt>
      <trkpt lat="48.05693" lon="-2.73364">
        <ele>113.702543</ele>
        <time>2023-05-04T13:48:14.091Z</time>
      </trkpt>
      <trkpt lat="48.05682" lon="-2.73371">
        <ele>113.898122</ele>
        <time>2023-05-04T13:48:17.096Z</time>
      </trkpt>
      <trkpt lat="48.05673" lon="-2.73377">
        <ele>114.043769</ele>
        <time>2023-05-04T13:48:19.093Z</time>
      </trkpt>
      <trkpt lat="48.05661" lon="-2.73384">
        <ele>114.248919</ele>
        <time>2023-05-04T13:48:22.090Z</time>
      </trkpt>
      <trkpt lat="48.05649" lon="-2.73388">
        <ele>114.444207</ele>
        <time>2023-05-04T13:48:25.094Z</time>
      </trkpt>
      <trkpt lat="48.05639" lon="-2.73393">
        <ele>114.606957</ele>
        <time>2023-05-04T13:48:28.098Z</time>
      </trkpt>
      <trkpt lat="48.05628" lon="-2.73395">
        <ele>114.342703</ele>
        <time>2023-05-04T13:48:31.094Z</time>
      </trkpt>
      <trkpt lat="48.05618" lon="-2.73397">
        <ele>113.954449</ele>
        <time>2023-05-04T13:48:34.093Z</time>
      </trkpt>
      <trkpt lat="48.05606" lon="-2.73399">
        <ele>113.509755</ele>
        <time>2023-05-04T13:48:38.097Z</time>
      </trkpt>
      <trkpt lat="48.05593" lon="-2.734">
        <ele>113.039131</ele>
        <time>2023-05-04T13:48:43.090Z</time>
      </trkpt>
      <trkpt lat="48.05583" lon="-2.734">
        <ele>112.649407</ele>
        <time>2023-05-04T13:48:46.086Z</time>
      </trkpt>
      <trkpt lat="48.05572" lon="-2.73403">
        <ele>112.210149</ele>
        <time>2023-05-04T13:48:50.095Z</time>
      </trkpt>
      <trkpt lat="48.05561" lon="-2.73404">
        <ele>111.818404</ele>
        <time>2023-05-04T13:48:53.096Z</time>
      </trkpt>
      <trkpt lat="48.0555" lon="-2.73406">
        <ele>111.381481</ele>
        <time>2023-05-04T13:48:56.100Z</time>
      </trkpt>
      <trkpt lat="48.0554" lon="-2.73408">
        <ele>111.002854</ele>
        <time>2023-05-04T13:48:59.098Z</time>
      </trkpt>
      <trkpt lat="48.05528" lon="-2.73411">
        <ele>110.553355</ele>
        <time>2023-05-04T13:49:02.098Z</time>
      </trkpt>
      <trkpt lat="48.05517" lon="-2.73417">
        <ele>110.087867</ele>
        <time>2023-05-04T13:49:05.094Z</time>
      </trkpt>
      <trkpt lat="48.05505" lon="-2.73423">
        <ele>109.63078</ele>
        <time>2023-05-04T13:49:08.098Z</time>
      </trkpt>
      <trkpt lat="48.05493" lon="-2.73429">
        <ele>109.164701</ele>
        <time>2023-05-04T13:49:11.096Z</time>
      </trkpt>
      <trkpt lat="48.05482" lon="-2.73435">
        <ele>108.694036</ele>
        <time>2023-05-04T13:49:14.095Z</time>
      </trkpt>
      <trkpt lat="48.0547" lon="-2.73439">
        <ele>108.240053</ele>
        <time>2023-05-04T13:49:17.095Z</time>
      </trkpt>
      <trkpt lat="48.0546" lon="-2.73444">
        <ele>107.85398</ele>
        <time>2023-05-04T13:49:20.099Z</time>
      </trkpt>
      <trkpt lat="48.05451" lon="-2.73447">
        <ele>107.931516</ele>
        <time>2023-05-04T13:49:23.095Z</time>
      </trkpt>
      <trkpt lat="48.0544" lon="-2.73453">
        <ele>108.021998</ele>
        <time>2023-05-04T13:49:26.082Z</time>
      </trkpt>
      <trkpt lat="48.05431" lon="-2.73457">
        <ele>108.101228</ele>
        <time>2023-05-04T13:49:29.090Z</time>
      </trkpt>
      <trkpt lat="48.0542" lon="-2.73463">
        <ele>108.196333</ele>
        <time>2023-05-04T13:49:33.103Z</time>
      </trkpt>
      <trkpt lat="48.05409" lon="-2.73466">
        <ele>108.28105</ele>
        <time>2023-05-04T13:49:36.097Z</time>
      </trkpt>
      <trkpt lat="48.05399" lon="-2.7347">
        <ele>108.370019</ele>
        <time>2023-05-04T13:49:39.098Z</time>
      </trkpt>
      <trkpt lat="48.0539" lon="-2.73472">
        <ele>108.443844</ele>
        <time>2023-05-04T13:49:42.100Z</time>
      </trkpt>
      <trkpt lat="48.0538" lon="-2.73475">
        <ele>108.519246</ele>
        <time>2023-05-04T13:49:45.106Z</time>
      </trkpt>
      <trkpt lat="48.05368" lon="-2.73478">
        <ele>108.617889</ele>
        <time>2023-05-04T13:49:48.102Z</time>
      </trkpt>
      <trkpt lat="48.05359" lon="-2.73479">
        <ele>108.695518</ele>
        <time>2023-05-04T13:49:51.103Z</time>
      </trkpt>
      <trkpt lat="48.05346" lon="-2.73482">
        <ele>108.795135</ele>
        <time>2023-05-04T13:49:55.096Z</time>
      </trkpt>
      <trkpt lat="48.05336" lon="-2.73485">
        <ele>108.880028</ele>
        <time>2023-05-04T13:49:58.102Z</time>
      </trkpt>
      <trkpt lat="48.05324" lon="-2.73488">
        <ele>108.975159</ele>
        <time>2023-05-04T13:50:01.097Z</time>
      </trkpt>
      <trkpt lat="48.05313" lon="-2.7349">
        <ele>109.069342</ele>
        <time>2023-05-04T13:50:04.097Z</time>
      </trkpt>
      <trkpt lat="48.05301" lon="-2.73488">
        <ele>109.166511</ele>
        <time>2023-05-04T13:50:07.097Z</time>
      </trkpt>
      <trkpt lat="48.05288" lon="-2.73483">
        <ele>109.26926</ele>
        <time>2023-05-04T13:50:10.100Z</time>
      </trkpt>
      <trkpt lat="48.05278" lon="-2.73477">
        <ele>109.295527</ele>
        <time>2023-05-04T13:50:13.099Z</time>
      </trkpt>
      <trkpt lat="48.0527" lon="-2.73469">
        <ele>109.288261</ele>
        <time>2023-05-04T13:50:16.098Z</time>
      </trkpt>
      <trkpt lat="48.05261" lon="-2.73459">
        <ele>109.280422</ele>
        <time>2023-05-04T13:50:19.099Z</time>
      </trkpt>
      <trkpt lat="48.05252" lon="-2.73448">
        <ele>109.272985</ele>
        <time>2023-05-04T13:50:23.096Z</time>
      </trkpt>
      <trkpt lat="48.05246" lon="-2.73439">
        <ele>109.266604</ele>
        <time>2023-05-04T13:50:26.106Z</time>
      </trkpt>
      <trkpt lat="48.04378" lon="-2.71864">
        <ele>107.789365</ele>
        <time>2023-05-04T13:57:50.090Z</time>
      </trkpt>
      <trkpt lat="48.04367" lon="-2.71854">
        <ele>107.737709</ele>
        <time>2023-05-04T13:58:46.084Z</time>
      </trkpt>
      <trkpt lat="48.04361" lon="-2.71843">
        <ele>107.698244</ele>
        <time>2023-05-04T13:58:50.097Z</time>
      </trkpt>
      <trkpt lat="48.04354" lon="-2.71828">
        <ele>107.717846</ele>
        <time>2023-05-04T13:58:54.095Z</time>
      </trkpt>
      <trkpt lat="48.04348" lon="-2.71817">
        <ele>107.759063</ele>
        <time>2023-05-04T13:58:57.094Z</time>
      </trkpt>
      <trkpt lat="48.04342" lon="-2.71802">
        <ele>107.810454</ele>
        <time>2023-05-04T13:59:01.101Z</time>
      </trkpt>
      <trkpt lat="48.04335" lon="-2.71791">
        <ele>107.851567</ele>
        <time>2023-05-04T13:59:04.097Z</time>
      </trkpt>
      <trkpt lat="48.04329" lon="-2.7178">
        <ele>107.894003</ele>
        <time>2023-05-04T13:59:07.095Z</time>
      </trkpt>
      <trkpt lat="48.04323" lon="-2.71769">
        <ele>107.934869</ele>
        <time>2023-05-04T13:59:10.094Z</time>
      </trkpt>
      <trkpt lat="48.04316" lon="-2.71759">
        <ele>107.975524</ele>
        <time>2023-05-04T13:59:14.095Z</time>
      </trkpt>
      <trkpt lat="48.04309" lon="-2.71746">
        <ele>108.023062</ele>
        <time>2023-05-04T13:59:18.098Z</time>
      </trkpt>
      <trkpt lat="48.043" lon="-2.71735">
        <ele>108.073271</ele>
        <time>2023-05-04T13:59:22.095Z</time>
      </trkpt>
      <trkpt lat="48.04292" lon="-2.71724">
        <ele>108.120221</ele>
        <time>2023-05-04T13:59:25.098Z</time>
      </trkpt>
      <trkpt lat="48.04285" lon="-2.71714">
        <ele>108.160246</ele>
        <time>2023-05-04T13:59:28.098Z</time>
      </trkpt>
      <trkpt lat="48.0428" lon="-2.71699">
        <ele>108.208407</ele>
        <time>2023-05-04T13:59:32.095Z</time>
      </trkpt>
      <trkpt lat="48.04274" lon="-2.71688">
        <ele>108.249812</ele>
        <time>2023-05-04T13:59:35.097Z</time>
      </trkpt>
      <trkpt lat="48.04267" lon="-2.71674">
        <ele>108.298778</ele>
        <time>2023-05-04T13:59:38.097Z</time>
      </trkpt>
      <trkpt lat="48.04261" lon="-2.71661">
        <ele>108.344686</ele>
        <time>2023-05-04T13:59:41.099Z</time>
      </trkpt>
      <trkpt lat="48.04255" lon="-2.71647">
        <ele>108.391074</ele>
        <time>2023-05-04T13:59:44.089Z</time>
      </trkpt>
      <trkpt lat="48.04247" lon="-2.71634">
        <ele>108.442624</ele>
        <time>2023-05-04T13:59:47.096Z</time>
      </trkpt>
      <trkpt lat="48.0424" lon="-2.71619">
        <ele>108.647618</ele>
        <time>2023-05-04T13:59:50.098Z</time>
      </trkpt>
      <trkpt lat="48.04232" lon="-2.71607">
        <ele>108.859189</ele>
        <time>2023-05-04T13:59:53.099Z</time>
      </trkpt>
      <trkpt lat="48.04226" lon="-2.71595">
        <ele>109.068331</ele>
        <time>2023-05-04T13:59:56.096Z</time>
      </trkpt>
      <trkpt lat="48.0422" lon="-2.71583">
        <ele>109.256716</ele>
        <time>2023-05-04T13:59:59.095Z</time>
      </trkpt>
      <trkpt lat="48.04214" lon="-2.71571">
        <ele>109.456327</ele>
        <time>2023-05-04T14:00:02.098Z</time>
      </trkpt>
      <trkpt lat="48.04207" lon="-2.71559">
        <ele>109.660983</ele>
        <time>2023-05-04T14:00:05.097Z</time>
      </trkpt>
      <trkpt lat="48.04201" lon="-2.71546">
        <ele>109.8663</ele>
        <time>2023-05-04T14:00:08.098Z</time>
      </trkpt>
      <trkpt lat="48.04193" lon="-2.71534">
        <ele>110.083053</ele>
        <time>2023-05-04T14:00:11.096Z</time>
      </trkpt>
      <trkpt lat="48.04188" lon="-2.71523">
        <ele>110.263225</ele>
        <time>2023-05-04T14:00:14.097Z</time>
      </trkpt>
      <trkpt lat="48.0418" lon="-2.71509">
        <ele>110.500642</ele>
        <time>2023-05-04T14:00:18.086Z</time>
      </trkpt>
      <trkpt lat="48.04174" lon="-2.71498">
        <ele>110.684018</ele>
        <time>2023-05-04T14:00:21.087Z</time>
      </trkpt>
      <trkpt lat="48.04166" lon="-2.71485">
        <ele>110.909675</ele>
        <time>2023-05-04T14:00:25.098Z</time>
      </trkpt>
      <trkpt lat="48.04159" lon="-2.71474">
        <ele>111.106375</ele>
        <time>2023-05-04T14:00:28.095Z</time>
      </trkpt>
      <trkpt lat="48.04152" lon="-2.71465">
        <ele>111.290562</ele>
        <time>2023-05-04T14:00:31.099Z</time>
      </trkpt>
      <trkpt lat="48.04145" lon="-2.71455">
        <ele>111.473486</ele>
        <time>2023-05-04T14:00:34.097Z</time>
      </trkpt>
      <trkpt lat="48.04139" lon="-2.71445">
        <ele>111.654225</ele>
        <time>2023-05-04T14:00:37.100Z</time>
      </trkpt>
      <trkpt lat="48.04131" lon="-2.71435">
        <ele>111.859772</ele>
        <time>2023-05-04T14:00:40.100Z</time>
      </trkpt>
      <trkpt lat="48.04123" lon="-2.71426">
        <ele>111.90953</ele>
        <time>2023-05-04T14:00:43.101Z</time>
      </trkpt>
      <trkpt lat="48.04114" lon="-2.71416">
        <ele>111.775957</ele>
        <time>2023-05-04T14:00:46.098Z</time>
      </trkpt>
      <trkpt lat="48.04106" lon="-2.71409">
        <ele>111.670742</ele>
        <time>2023-05-04T14:00:50.095Z</time>
      </trkpt>
      <trkpt lat="48.04097" lon="-2.71399">
        <ele>111.539755</ele>
        <time>2023-05-04T14:03:52.092Z</time>
      </trkpt>
      <trkpt lat="48.04088" lon="-2.71393">
        <ele>111.425649</ele>
        <time>2023-05-04T14:03:57.097Z</time>
      </trkpt>
      <trkpt lat="48.04079" lon="-2.71388">
        <ele>111.308339</ele>
        <time>2023-05-04T14:04:02.098Z</time>
      </trkpt>
      <trkpt lat="48.04071" lon="-2.71379">
        <ele>111.191065</ele>
        <time>2023-05-04T14:04:06.099Z</time>
      </trkpt>
      <trkpt lat="48.04061" lon="-2.71369">
        <ele>111.056497</ele>
        <time>2023-05-04T14:04:10.095Z</time>
      </trkpt>
      <trkpt lat="48.04053" lon="-2.71361">
        <ele>110.943555</ele>
        <time>2023-05-04T14:04:13.090Z</time>
      </trkpt>
      <trkpt lat="48.04045" lon="-2.71352">
        <ele>110.831866</ele>
        <time>2023-05-04T14:04:16.094Z</time>
      </trkpt>
      <trkpt lat="48.04036" lon="-2.71343">
        <ele>110.702568</ele>
        <time>2023-05-04T14:04:19.093Z</time>
      </trkpt>
      <trkpt lat="48.04027" lon="-2.71335">
        <ele>110.579095</ele>
        <time>2023-05-04T14:04:22.099Z</time>
      </trkpt>
      <trkpt lat="48.04018" lon="-2.71328">
        <ele>110.45769</ele>
        <time>2023-05-04T14:04:25.097Z</time>
      </trkpt>
      <trkpt lat="48.04008" lon="-2.71319">
        <ele>110.323215</ele>
        <time>2023-05-04T14:04:28.102Z</time>
      </trkpt>
      <trkpt lat="48.03998" lon="-2.7131">
        <ele>110.194343</ele>
        <time>2023-05-04T14:04:31.097Z</time>
      </trkpt>
      <trkpt lat="48.03987" lon="-2.71302">
        <ele>110.051476</ele>
        <time>2023-05-04T14:04:34.098Z</time>
      </trkpt>
      <trkpt lat="48.03978" lon="-2.71292">
        <ele>109.923489</ele>
        <time>2023-05-04T14:04:37.096Z</time>
      </trkpt>
      <trkpt lat="48.03969" lon="-2.71281">
        <ele>109.87521</ele>
        <time>2023-05-04T14:04:40.087Z</time>
      </trkpt>
      <trkpt lat="48.03961" lon="-2.71271">
        <ele>109.882977</ele>
        <time>2023-05-04T14:04:43.094Z</time>
      </trkpt>
      <trkpt lat="48.03952" lon="-2.71262">
        <ele>109.890686</ele>
        <time>2023-05-04T14:04:46.094Z</time>
      </trkpt>
      <trkpt lat="48.03942" lon="-2.71253">
        <ele>109.898581</ele>
        <time>2023-05-04T14:04:49.099Z</time>
      </trkpt>
      <trkpt lat="48.03933" lon="-2.71245">
        <ele>109.90656</ele>
        <time>2023-05-04T14:04:52.088Z</time>
      </trkpt>
      <trkpt lat="48.03925" lon="-2.71237">
        <ele>109.913304</ele>
        <time>2023-05-04T14:04:55.105Z</time>
      </trkpt>
      <trkpt lat="48.03916" lon="-2.71229">
        <ele>109.920637</ele>
        <time>2023-05-04T14:04:58.097Z</time>
      </trkpt>
      <trkpt lat="48.03906" lon="-2.71221">
        <ele>109.928617</ele>
        <time>2023-05-04T14:05:01.094Z</time>
      </trkpt>
      <trkpt lat="48.03899" lon="-2.71213">
        <ele>109.935179</ele>
        <time>2023-05-04T14:05:03.091Z</time>
      </trkpt>
      <trkpt lat="48.0389" lon="-2.71206">
        <ele>109.942207</ele>
        <time>2023-05-04T14:05:06.098Z</time>
      </trkpt>
      <trkpt lat="48.03883" lon="-2.71197">
        <ele>109.948948</ele>
        <time>2023-05-04T14:05:09.097Z</time>
      </trkpt>
      <trkpt lat="48.03874" lon="-2.71189">
        <ele>109.95599</ele>
        <time>2023-05-04T14:05:12.097Z</time>
      </trkpt>
      <trkpt lat="48.03864" lon="-2.7118">
        <ele>109.964515</ele>
        <time>2023-05-04T14:05:16.094Z</time>
      </trkpt>
      <trkpt lat="48.03853" lon="-2.71171">
        <ele>109.973535</ele>
        <time>2023-05-04T14:05:20.095Z</time>
      </trkpt>
      <trkpt lat="48.03844" lon="-2.71166">
        <ele>109.980402</ele>
        <time>2023-05-04T14:05:23.100Z</time>
      </trkpt>
      <trkpt lat="48.03836" lon="-2.71157">
        <ele>109.987544</ele>
        <time>2023-05-04T14:05:26.101Z</time>
      </trkpt>
      <trkpt lat="48.03827" lon="-2.71146">
        <ele>109.99591</ele>
        <time>2023-05-04T14:05:29.085Z</time>
      </trkpt>
      <trkpt lat="48.03816" lon="-2.71137">
        <ele>110.056773</ele>
        <time>2023-05-04T14:05:32.096Z</time>
      </trkpt>
      <trkpt lat="48.03808" lon="-2.71129">
        <ele>110.124025</ele>
        <time>2023-05-04T14:05:35.101Z</time>
      </trkpt>
      <trkpt lat="48.03801" lon="-2.71122">
        <ele>110.186692</ele>
        <time>2023-05-04T14:05:37.100Z</time>
      </trkpt>
      <trkpt lat="48.03792" lon="-2.71113">
        <ele>110.260383</ele>
        <time>2023-05-04T14:05:40.092Z</time>
      </trkpt>
      <trkpt lat="48.03784" lon="-2.71105">
        <ele>110.329725</ele>
        <time>2023-05-04T14:05:43.094Z</time>
      </trkpt>
      <trkpt lat="48.03774" lon="-2.71095">
        <ele>110.411781</ele>
        <time>2023-05-04T14:05:47.097Z</time>
      </trkpt>
      <trkpt lat="48.03765" lon="-2.71086">
        <ele>110.4853</ele>
        <time>2023-05-04T14:05:50.085Z</time>
      </trkpt>
      <trkpt lat="48.03757" lon="-2.71077">
        <ele>110.555491</ele>
        <time>2023-05-04T14:05:53.095Z</time>
      </trkpt>
      <trkpt lat="48.03747" lon="-2.71066">
        <ele>110.638495</ele>
        <time>2023-05-04T14:05:56.094Z</time>
      </trkpt>
      <trkpt lat="48.03738" lon="-2.71058">
        <ele>110.714783</ele>
        <time>2023-05-04T14:05:59.096Z</time>
      </trkpt>
      <trkpt lat="48.03729" lon="-2.71049">
        <ele>110.792074</ele>
        <time>2023-05-04T14:06:02.100Z</time>
      </trkpt>
      <trkpt lat="48.03719" lon="-2.71039">
        <ele>110.870137</ele>
        <time>2023-05-04T14:06:05.101Z</time>
      </trkpt>
      <trkpt lat="48.0371" lon="-2.7103">
        <ele>110.950469</ele>
        <time>2023-05-04T14:06:08.095Z</time>
      </trkpt>
      <trkpt lat="48.037" lon="-2.71021">
        <ele>111.033362</ele>
        <time>2023-05-04T14:06:11.091Z</time>
      </trkpt>
      <trkpt lat="48.0369" lon="-2.71011">
        <ele>111.114255</ele>
        <time>2023-05-04T14:06:14.097Z</time>
      </trkpt>
      <trkpt lat="48.0368" lon="-2.71001">
        <ele>111.195475</ele>
        <time>2023-05-04T14:06:17.095Z</time>
      </trkpt>
      <trkpt lat="48.0367" lon="-2.70992">
        <ele>111.207703</ele>
        <time>2023-05-04T14:06:20.126Z</time>
      </trkpt>
      <trkpt lat="48.0366" lon="-2.70981">
        <ele>111.089782</ele>
        <time>2023-05-04T14:06:23.085Z</time>
      </trkpt>
      <trkpt lat="48.03651" lon="-2.70973">
        <ele>110.985541</ele>
        <time>2023-05-04T14:06:26.096Z</time>
      </trkpt>
      <trkpt lat="48.0364" lon="-2.70965">
        <ele>110.871909</ele>
        <time>2023-05-04T14:06:30.103Z</time>
      </trkpt>
      <trkpt lat="48.0363" lon="-2.70954">
        <ele>110.757606</ele>
        <time>2023-05-04T14:06:33.101Z</time>
      </trkpt>
      <trkpt lat="48.03621" lon="-2.70946">
        <ele>110.653365</ele>
        <time>2023-05-04T14:06:36.097Z</time>
      </trkpt>
      <trkpt lat="48.03612" lon="-2.70936">
        <ele>110.542401</ele>
        <time>2023-05-04T14:06:39.100Z</time>
      </trkpt>
      <trkpt lat="48.03602" lon="-2.70927">
        <ele>110.433757</ele>
        <time>2023-05-04T14:06:42.098Z</time>
      </trkpt>
      <trkpt lat="48.03592" lon="-2.70917">
        <ele>110.314676</ele>
        <time>2023-05-04T14:06:45.102Z</time>
      </trkpt>
      <trkpt lat="48.03584" lon="-2.70911">
        <ele>110.227543</ele>
        <time>2023-05-04T14:06:47.096Z</time>
      </trkpt>
      <trkpt lat="48.03572" lon="-2.70902">
        <ele>110.102452</ele>
        <time>2023-05-04T14:06:50.104Z</time>
      </trkpt>
      <trkpt lat="48.03563" lon="-2.70894">
        <ele>109.995739</ele>
        <time>2023-05-04T14:06:53.096Z</time>
      </trkpt>
      <trkpt lat="48.03555" lon="-2.70884">
        <ele>109.898065</ele>
        <time>2023-05-04T14:06:57.096Z</time>
      </trkpt>
      <trkpt lat="48.03547" lon="-2.70874">
        <ele>109.796471</ele>
        <time>2023-05-04T14:07:02.100Z</time>
      </trkpt>
      <trkpt lat="48.03539" lon="-2.70867">
        <ele>109.704299</ele>
        <time>2023-05-04T14:07:07.095Z</time>
      </trkpt>
      <trkpt lat="48.0353" lon="-2.70858">
        <ele>109.603487</ele>
        <time>2023-05-04T14:07:12.093Z</time>
      </trkpt>
      <trkpt lat="48.03522" lon="-2.70851">
        <ele>109.510763</ele>
        <time>2023-05-04T14:07:15.094Z</time>
      </trkpt>
      <trkpt lat="48.03512" lon="-2.70841">
        <ele>109.429747</ele>
        <time>2023-05-04T14:07:18.096Z</time>
      </trkpt>
      <trkpt lat="48.03501" lon="-2.70832">
        <ele>109.342683</ele>
        <time>2023-05-04T14:07:21.096Z</time>
      </trkpt>
      <trkpt lat="48.03491" lon="-2.70823">
        <ele>109.256761</ele>
        <time>2023-05-04T14:07:24.095Z</time>
      </trkpt>
      <trkpt lat="48.0348" lon="-2.70813">
        <ele>109.170906</ele>
        <time>2023-05-04T14:07:27.097Z</time>
      </trkpt>
      <trkpt lat="48.03472" lon="-2.70806">
        <ele>109.104134</ele>
        <time>2023-05-04T14:07:29.097Z</time>
      </trkpt>
      <trkpt lat="48.03465" lon="-2.70798">
        <ele>109.039903</ele>
        <time>2023-05-04T14:07:31.095Z</time>
      </trkpt>
      <trkpt lat="48.03456" lon="-2.70788">
        <ele>108.958753</ele>
        <time>2023-05-04T14:07:34.099Z</time>
      </trkpt>
      <trkpt lat="48.03448" lon="-2.7078">
        <ele>108.891324</ele>
        <time>2023-05-04T14:07:37.095Z</time>
      </trkpt>
      <trkpt lat="48.03439" lon="-2.70772">
        <ele>108.817614</ele>
        <time>2023-05-04T14:07:40.096Z</time>
      </trkpt>
      <trkpt lat="48.03431" lon="-2.70763">
        <ele>108.750608</ele>
        <time>2023-05-04T14:07:43.089Z</time>
      </trkpt>
      <trkpt lat="48.03422" lon="-2.70755">
        <ele>108.674382</ele>
        <time>2023-05-04T14:07:46.096Z</time>
      </trkpt>
      <trkpt lat="48.03414" lon="-2.70748">
        <ele>108.610264</ele>
        <time>2023-05-04T14:07:49.088Z</time>
      </trkpt>
      <trkpt lat="48.03405" lon="-2.7074">
        <ele>108.532899</ele>
        <time>2023-05-04T14:07:52.101Z</time>
      </trkpt>
      <trkpt lat="48.03394" lon="-2.7073">
        <ele>108.441763</ele>
        <time>2023-05-04T14:07:55.100Z</time>
      </trkpt>
      <trkpt lat="48.03383" lon="-2.7072">
        <ele>108.353616</ele>
        <time>2023-05-04T14:07:58.097Z</time>
      </trkpt>
      <trkpt lat="48.03373" lon="-2.70708">
        <ele>108.263988</ele>
        <time>2023-05-04T14:08:01.101Z</time>
      </trkpt>
      <trkpt lat="48.03362" lon="-2.70697">
        <ele>108.301023</ele>
        <time>2023-05-04T14:08:04.098Z</time>
      </trkpt>
      <trkpt lat="48.03351" lon="-2.70688">
        <ele>108.368834</ele>
        <time>2023-05-04T14:08:07.098Z</time>
      </trkpt>
      <trkpt lat="48.0334" lon="-2.70678">
        <ele>108.436826</ele>
        <time>2023-05-04T14:08:11.099Z</time>
      </trkpt>
      <trkpt lat="48.0333" lon="-2.70668">
        <ele>108.499429</ele>
        <time>2023-05-04T14:08:14.106Z</time>
      </trkpt>
      <trkpt lat="48.03321" lon="-2.70659">
        <ele>108.558002</ele>
        <time>2023-05-04T14:08:17.107Z</time>
      </trkpt>
      <trkpt lat="48.03312" lon="-2.70649">
        <ele>108.616935</ele>
        <time>2023-05-04T14:08:20.106Z</time>
      </trkpt>
      <trkpt lat="48.03303" lon="-2.70641">
        <ele>108.672709</ele>
        <time>2023-05-04T14:08:23.105Z</time>
      </trkpt>
      <trkpt lat="48.03294" lon="-2.70629">
        <ele>108.738629</ele>
        <time>2023-05-04T14:08:26.108Z</time>
      </trkpt>
      <trkpt lat="48.03284" lon="-2.7062">
        <ele>108.801162</ele>
        <time>2023-05-04T14:08:29.103Z</time>
      </trkpt>
      <trkpt lat="48.03272" lon="-2.7061">
        <ele>108.869611</ele>
        <time>2023-05-04T14:08:32.111Z</time>
      </trkpt>
      <trkpt lat="48.03262" lon="-2.70601">
        <ele>108.93232</ele>
        <time>2023-05-04T14:08:35.103Z</time>
      </trkpt>
      <trkpt lat="48.03252" lon="-2.70591">
        <ele>108.996771</ele>
        <time>2023-05-04T14:08:38.103Z</time>
      </trkpt>
      <trkpt lat="48.03243" lon="-2.70581">
        <ele>109.05463</ele>
        <time>2023-05-04T14:08:41.104Z</time>
      </trkpt>
      <trkpt lat="48.03234" lon="-2.70571">
        <ele>109.11694</ele>
        <time>2023-05-04T14:08:45.096Z</time>
      </trkpt>
      <trkpt lat="48.03223" lon="-2.70561">
        <ele>109.185219</ele>
        <time>2023-05-04T14:08:48.099Z</time>
      </trkpt>
      <trkpt lat="48.02879" lon="-2.70228">
        <ele>117.116059</ele>
        <time>2023-05-04T14:11:21.584Z</time>
      </trkpt>
      <trkpt lat="48.0287" lon="-2.70219">
        <ele>115.902224</ele>
        <time>2023-05-04T14:11:23.089Z</time>
      </trkpt>
      <trkpt lat="48.02863" lon="-2.70208">
        <ele>114.750812</ele>
        <time>2023-05-04T14:11:28.093Z</time>
      </trkpt>
      <trkpt lat="48.02854" lon="-2.70198">
        <ele>113.484447</ele>
        <time>2023-05-04T14:11:31.098Z</time>
      </trkpt>
      <trkpt lat="48.02843" lon="-2.7019">
        <ele>112.119144</ele>
        <time>2023-05-04T14:11:34.095Z</time>
      </trkpt>
      <trkpt lat="48.02832" lon="-2.70181">
        <ele>110.773596</ele>
        <time>2023-05-04T14:11:37.096Z</time>
      </trkpt>
      <trkpt lat="48.02822" lon="-2.70173">
        <ele>109.428047</ele>
        <time>2023-05-04T14:11:40.095Z</time>
      </trkpt>
      <trkpt lat="48.02811" lon="-2.70164">
        <ele>108.045291</ele>
        <time>2023-05-04T14:11:43.095Z</time>
      </trkpt>
      <trkpt lat="48.02801" lon="-2.70157">
        <ele>106.86937</ele>
        <time>2023-05-04T14:11:46.095Z</time>
      </trkpt>
      <trkpt lat="48.02792" lon="-2.7015">
        <ele>105.709242</ele>
        <time>2023-05-04T14:11:49.094Z</time>
      </trkpt>
      <trkpt lat="48.02784" lon="-2.7014">
        <ele>104.490234</ele>
        <time>2023-05-04T14:11:53.092Z</time>
      </trkpt>
      <trkpt lat="48.02776" lon="-2.70134">
        <ele>103.483534</ele>
        <time>2023-05-04T14:11:57.081Z</time>
      </trkpt>
      <trkpt lat="48.02766" lon="-2.70127">
        <ele>102.367009</ele>
        <time>2023-05-04T14:12:03.086Z</time>
      </trkpt>
      <trkpt lat="48.02758" lon="-2.70123">
        <ele>102.347963</ele>
        <time>2023-05-04T14:12:12.094Z</time>
      </trkpt>
      <trkpt lat="48.02749" lon="-2.70114">
        <ele>102.428002</ele>
        <time>2023-05-04T14:12:16.093Z</time>
      </trkpt>
      <trkpt lat="48.02738" lon="-2.70107">
        <ele>102.511427</ele>
        <time>2023-05-04T14:12:19.095Z</time>
      </trkpt>
      <trkpt lat="48.02731" lon="-2.70096">
        <ele>102.592587</ele>
        <time>2023-05-04T14:12:21.093Z</time>
      </trkpt>
      <trkpt lat="48.02724" lon="-2.70087">
        <ele>102.659493</ele>
        <time>2023-05-04T14:12:23.089Z</time>
      </trkpt>
      <trkpt lat="48.02714" lon="-2.70078">
        <ele>102.741145</ele>
        <time>2023-05-04T14:12:26.085Z</time>
      </trkpt>
      <trkpt lat="48.02703" lon="-2.70069">
        <ele>102.832951</ele>
        <time>2023-05-04T14:12:29.093Z</time>
      </trkpt>
      <trkpt lat="48.02694" lon="-2.7006">
        <ele>102.91441</ele>
        <time>2023-05-04T14:12:32.089Z</time>
      </trkpt>
      <trkpt lat="48.02686" lon="-2.70051">
        <ele>102.990633</ele>
        <time>2023-05-04T14:12:36.097Z</time>
      </trkpt>
      <trkpt lat="48.02679" lon="-2.70041">
        <ele>103.064006</ele>
        <time>2023-05-04T14:12:54.087Z</time>
      </trkpt>
      <trkpt lat="48.0267" lon="-2.70033">
        <ele>103.136858</ele>
        <time>2023-05-04T14:12:58.097Z</time>
      </trkpt>
      <trkpt lat="48.02663" lon="-2.70024">
        <ele>103.205401</ele>
        <time>2023-05-04T14:13:02.093Z</time>
      </trkpt>
      <trkpt lat="48.02654" lon="-2.70015">
        <ele>103.285279</ele>
        <time>2023-05-04T14:13:06.099Z</time>
      </trkpt>
      <trkpt lat="48.02646" lon="-2.70007">
        <ele>103.355947</ele>
        <time>2023-05-04T14:13:09.095Z</time>
      </trkpt>
      <trkpt lat="48.02637" lon="-2.69999">
        <ele>103.432001</ele>
        <time>2023-05-04T14:13:12.094Z</time>
      </trkpt>
      <trkpt lat="48.02628" lon="-2.6999">
        <ele>103.512766</ele>
        <time>2023-05-04T14:13:15.095Z</time>
      </trkpt>
      <trkpt lat="48.02618" lon="-2.6998">
        <ele>103.59913</ele>
        <time>2023-05-04T14:13:18.095Z</time>
      </trkpt>
      <trkpt lat="48.02609" lon="-2.69972">
        <ele>103.445637</ele>
        <time>2023-05-04T14:13:21.097Z</time>
      </trkpt>
      <trkpt lat="48.026" lon="-2.69962">
        <ele>103.212705</ele>
        <time>2023-05-04T14:13:25.095Z</time>
      </trkpt>
      <trkpt lat="48.02591" lon="-2.69955">
        <ele>103.012752</ele>
        <time>2023-05-04T14:13:28.099Z</time>
      </trkpt>
      <trkpt lat="48.02582" lon="-2.69947">
        <ele>102.801782</ele>
        <time>2023-05-04T14:13:31.097Z</time>
      </trkpt>
      <trkpt lat="48.02573" lon="-2.69938">
        <ele>102.574306</ele>
        <time>2023-05-04T14:13:34.094Z</time>
      </trkpt>
      <trkpt lat="48.02563" lon="-2.69928">
        <ele>102.338459</ele>
        <time>2023-05-04T14:13:37.096Z</time>
      </trkpt>
      <trkpt lat="48.02553" lon="-2.69918">
        <ele>102.104815</ele>
        <time>2023-05-04T14:13:40.090Z</time>
      </trkpt>
      <trkpt lat="48.02543" lon="-2.69909">
        <ele>101.867994</ele>
        <time>2023-05-04T14:13:43.091Z</time>
      </trkpt>
      <trkpt lat="48.02536" lon="-2.69901">
        <ele>101.682065</ele>
        <time>2023-05-04T14:13:45.079Z</time>
      </trkpt>
      <trkpt lat="48.02527" lon="-2.69894">
        <ele>101.485535</ele>
        <time>2023-05-04T14:13:47.095Z</time>
      </trkpt>
      <trkpt lat="48.02518" lon="-2.69887">
        <ele>101.283288</ele>
        <time>2023-05-04T14:13:49.091Z</time>
      </trkpt>
      <trkpt lat="48.0251" lon="-2.6988">
        <ele>101.088079</ele>
        <time>2023-05-04T14:13:51.096Z</time>
      </trkpt>
      <trkpt lat="48.02499" lon="-2.69869">
        <ele>100.83535</ele>
        <time>2023-05-04T14:13:54.095Z</time>
      </trkpt>
      <trkpt lat="48.02488" lon="-2.6986">
        <ele>100.575174</ele>
        <time>2023-05-04T14:13:57.094Z</time>
      </trkpt>
      <trkpt lat="48.0248" lon="-2.69851">
        <ele>100.379222</ele>
        <time>2023-05-04T14:14:00.089Z</time>
      </trkpt>
      <trkpt lat="48.02472" lon="-2.69842">
        <ele>100.176614</ele>
        <time>2023-05-04T14:14:03.095Z</time>
      </trkpt>
      <trkpt lat="48.02462" lon="-2.69833">
        <ele>100.013527</ele>
        <time>2023-05-04T14:14:07.089Z</time>
      </trkpt>
      <trkpt lat="48.02452" lon="-2.69824">
        <ele>100.036814</ele>
        <time>2023-05-04T14:14:11.100Z</time>
      </trkpt>
      <trkpt lat="48.02444" lon="-2.69817">
        <ele>100.055037</ele>
        <time>2023-05-04T14:14:14.096Z</time>
      </trkpt>
      <trkpt lat="48.02436" lon="-2.6981">
        <ele>100.073843</ele>
        <time>2023-05-04T14:14:17.094Z</time>
      </trkpt>
      <trkpt lat="48.02425" lon="-2.69799">
        <ele>100.099454</ele>
        <time>2023-05-04T14:14:21.099Z</time>
      </trkpt>
      <trkpt lat="48.02416" lon="-2.6979">
        <ele>100.121499</ele>
        <time>2023-05-04T14:14:24.094Z</time>
      </trkpt>
      <trkpt lat="48.02406" lon="-2.69781">
        <ele>100.144546</ele>
        <time>2023-05-04T14:14:27.094Z</time>
      </trkpt>
      <trkpt lat="48.02398" lon="-2.69769">
        <ele>100.167739</ele>
        <time>2023-05-04T14:14:30.098Z</time>
      </trkpt>
      <trkpt lat="48.0239" lon="-2.69757">
        <ele>100.18952</ele>
        <time>2023-05-04T14:14:33.099Z</time>
      </trkpt>
      <trkpt lat="48.02384" lon="-2.69745">
        <ele>100.209453</ele>
        <time>2023-05-04T14:14:36.096Z</time>
      </trkpt>
      <trkpt lat="48.0238" lon="-2.69733">
        <ele>100.227647</ele>
        <time>2023-05-04T14:14:39.094Z</time>
      </trkpt>
      <trkpt lat="48.02374" lon="-2.69721">
        <ele>100.247246</ele>
        <time>2023-05-04T14:14:42.096Z</time>
      </trkpt>
      <trkpt lat="48.02369" lon="-2.69706">
        <ele>100.269375</ele>
        <time>2023-05-04T14:14:45.093Z</time>
      </trkpt>
      <trkpt lat="48.02364" lon="-2.6969">
        <ele>100.293221</ele>
        <time>2023-05-04T14:14:48.098Z</time>
      </trkpt>
      <trkpt lat="48.0236" lon="-2.69674">
        <ele>100.316214</ele>
        <time>2023-05-04T14:14:51.095Z</time>
      </trkpt>
      <trkpt lat="48.02356" lon="-2.69657">
        <ele>100.340663</ele>
        <time>2023-05-04T14:14:54.094Z</time>
      </trkpt>
      <trkpt lat="48.02353" lon="-2.69639">
        <ele>100.364728</ele>
        <time>2023-05-04T14:14:57.096Z</time>
      </trkpt>
      <trkpt lat="48.0235" lon="-2.69624">
        <ele>100.274829</ele>
        <time>2023-05-04T14:15:00.090Z</time>
      </trkpt>
      <trkpt lat="48.02348" lon="-2.69608">
        <ele>100.182523</ele>
        <time>2023-05-04T14:15:03.097Z</time>
      </trkpt>
      <trkpt lat="48.02345" lon="-2.69593">
        <ele>100.085947</ele>
        <time>2023-05-04T14:15:06.093Z</time>
      </trkpt>
      <trkpt lat="48.02343" lon="-2.69577">
        <ele>99.988461</ele>
        <time>2023-05-04T14:15:09.090Z</time>
      </trkpt>
      <trkpt lat="48.02339" lon="-2.6956">
        <ele>99.887762</ele>
        <time>2023-05-04T14:15:12.093Z</time>
      </trkpt>
      <trkpt lat="48.02337" lon="-2.69545">
        <ele>99.797336</ele>
        <time>2023-05-04T14:15:15.095Z</time>
      </trkpt>
      <trkpt lat="48.02335" lon="-2.69532">
        <ele>99.715941</ele>
        <time>2023-05-04T14:15:18.094Z</time>
      </trkpt>
      <trkpt lat="48.02332" lon="-2.69516">
        <ele>99.618796</ele>
        <time>2023-05-04T14:15:22.096Z</time>
      </trkpt>
      <trkpt lat="48.0233" lon="-2.69501">
        <ele>99.526316</ele>
        <time>2023-05-04T14:15:25.086Z</time>
      </trkpt>
      <trkpt lat="48.02327" lon="-2.69485">
        <ele>99.432332</ele>
        <time>2023-05-04T14:15:28.094Z</time>
      </trkpt>
      <trkpt lat="48.02324" lon="-2.69468">
        <ele>99.327414</ele>
        <time>2023-05-04T14:15:31.098Z</time>
      </trkpt>
      <trkpt lat="48.02322" lon="-2.6945">
        <ele>99.222322</ele>
        <time>2023-05-04T14:15:34.097Z</time>
      </trkpt>
      <trkpt lat="48.02319" lon="-2.69433">
        <ele>99.115611</ele>
        <time>2023-05-04T14:15:37.093Z</time>
      </trkpt>
      <trkpt lat="48.02316" lon="-2.69415">
        <ele>99.009174</ele>
        <time>2023-05-04T14:15:40.089Z</time>
      </trkpt>
      <trkpt lat="48.02313" lon="-2.69399">
        <ele>98.907342</ele>
        <time>2023-05-04T14:15:43.095Z</time>
      </trkpt>
      <trkpt lat="48.0231" lon="-2.69383">
        <ele>98.812028</ele>
        <time>2023-05-04T14:15:46.096Z</time>
      </trkpt>
      <trkpt lat="48.02308" lon="-2.69368">
        <ele>98.753132</ele>
        <time>2023-05-04T14:15:49.096Z</time>
      </trkpt>
      <trkpt lat="48.02306" lon="-2.69354">
        <ele>98.713676</ele>
        <time>2023-05-04T14:15:52.096Z</time>
      </trkpt>
      <trkpt lat="48.02304" lon="-2.69339">
        <ele>98.668682</ele>
        <time>2023-05-04T14:15:55.096Z</time>
      </trkpt>
      <trkpt lat="48.02301" lon="-2.69322">
        <ele>98.620851</ele>
        <time>2023-05-04T14:15:58.095Z</time>
      </trkpt>
      <trkpt lat="48.02297" lon="-2.69304">
        <ele>98.56951</ele>
        <time>2023-05-04T14:16:01.099Z</time>
      </trkpt>
      <trkpt lat="48.02295" lon="-2.69286">
        <ele>98.516972</ele>
        <time>2023-05-04T14:16:04.097Z</time>
      </trkpt>
      <trkpt lat="48.02292" lon="-2.69267">
        <ele>98.46264</ele>
        <time>2023-05-04T14:16:07.099Z</time>
      </trkpt>
      <trkpt lat="48.02289" lon="-2.69248">
        <ele>98.409488</ele>
        <time>2023-05-04T14:16:10.098Z</time>
      </trkpt>
      <trkpt lat="48.02287" lon="-2.69231">
        <ele>98.360417</ele>
        <time>2023-05-04T14:16:13.096Z</time>
      </trkpt>
      <trkpt lat="48.02284" lon="-2.69215">
        <ele>98.315325</ele>
        <time>2023-05-04T14:16:16.097Z</time>
      </trkpt>
      <trkpt lat="48.02281" lon="-2.692">
        <ele>98.270607</ele>
        <time>2023-05-04T14:16:19.101Z</time>
      </trkpt>
      <trkpt lat="48.02279" lon="-2.69186">
        <ele>98.230045</ele>
        <time>2023-05-04T14:16:22.102Z</time>
      </trkpt>
      <trkpt lat="48.02276" lon="-2.69172">
        <ele>98.188798</ele>
        <time>2023-05-04T14:16:25.098Z</time>
      </trkpt>
      <trkpt lat="48.02272" lon="-2.69153">
        <ele>98.13535</ele>
        <time>2023-05-04T14:16:28.092Z</time>
      </trkpt>
      <trkpt lat="48.02268" lon="-2.69135">
        <ele>98.0811</ele>
        <time>2023-05-04T14:16:31.099Z</time>
      </trkpt>
      <trkpt lat="48.02266" lon="-2.69116">
        <ele>98.032725</ele>
        <time>2023-05-04T14:16:34.096Z</time>
      </trkpt>
      <trkpt lat="48.02264" lon="-2.69103">
        <ele>98.060688</ele>
        <time>2023-05-04T14:16:36.094Z</time>
      </trkpt>
      <trkpt lat="48.02261" lon="-2.69084">
        <ele>98.099646</ele>
        <time>2023-05-04T14:16:39.094Z</time>
      </trkpt>
      <trkpt lat="48.02258" lon="-2.69068">
        <ele>98.134181</ele>
        <time>2023-05-04T14:16:42.094Z</time>
      </trkpt>
      <trkpt lat="48.02255" lon="-2.69052">
        <ele>98.168588</ele>
        <time>2023-05-04T14:16:45.097Z</time>
      </trkpt>
      <trkpt lat="48.02253" lon="-2.69037">
        <ele>98.201122</ele>
        <time>2023-05-04T14:16:48.094Z</time>
      </trkpt>
      <trkpt lat="48.0225" lon="-2.69019">
        <ele>98.238114</ele>
        <time>2023-05-04T14:16:51.097Z</time>
      </trkpt>
      <trkpt lat="48.02248" lon="-2.69006">
        <ele>98.266409</ele>
        <time>2023-05-04T14:16:53.098Z</time>
      </trkpt>
      <trkpt lat="48.02244" lon="-2.68992">
        <ele>98.296801</ele>
        <time>2023-05-04T14:16:55.096Z</time>
      </trkpt>
      <trkpt lat="48.02243" lon="-2.68979">
        <ele>98.324752</ele>
        <time>2023-05-04T14:16:57.082Z</time>
      </trkpt>
      <trkpt lat="48.0224" lon="-2.68966">
        <ele>98.352806</ele>
        <time>2023-05-04T14:16:59.096Z</time>
      </trkpt>
      <trkpt lat="48.02237" lon="-2.68949">
        <ele>98.388841</ele>
        <time>2023-05-04T14:17:02.096Z</time>
      </trkpt>
      <trkpt lat="48.02235" lon="-2.68932">
        <ele>98.424109</ele>
        <time>2023-05-04T14:17:05.086Z</time>
      </trkpt>
      <trkpt lat="48.02232" lon="-2.68917">
        <ele>98.455327</ele>
        <time>2023-05-04T14:17:08.096Z</time>
      </trkpt>
      <trkpt lat="48.0223" lon="-2.68902">
        <ele>98.488063</ele>
        <time>2023-05-04T14:17:11.094Z</time>
      </trkpt>
      <trkpt lat="48.02227" lon="-2.68886">
        <ele>98.52163</ele>
        <time>2023-05-04T14:17:14.098Z</time>
      </trkpt>
      <trkpt lat="48.02225" lon="-2.68871">
        <ele>98.553213</ele>
        <time>2023-05-04T14:17:17.096Z</time>
      </trkpt>
      <trkpt lat="48.02223" lon="-2.68857">
        <ele>98.5824</ele>
        <time>2023-05-04T14:17:20.102Z</time>
      </trkpt>
      <trkpt lat="48.02222" lon="-2.68844">
        <ele>98.715973</ele>
        <time>2023-05-04T14:17:23.101Z</time>
      </trkpt>
      <trkpt lat="48.02219" lon="-2.68828">
        <ele>98.886992</ele>
        <time>2023-05-04T14:17:27.095Z</time>
      </trkpt>
      <trkpt lat="48.02216" lon="-2.68814">
        <ele>99.035573</ele>
        <time>2023-05-04T14:17:31.097Z</time>
      </trkpt>
      <trkpt lat="48.02215" lon="-2.688">
        <ele>99.187537</ele>
        <time>2023-05-04T14:17:35.095Z</time>
      </trkpt>
      <trkpt lat="48.02215" lon="-2.68786">
        <ele>99.33719</ele>
        <time>2023-05-04T14:17:41.095Z</time>
      </trkpt>
      <trkpt lat="48.02212" lon="-2.6877">
        <ele>99.510123</ele>
        <time>2023-05-04T14:17:45.097Z</time>
      </trkpt>
      <trkpt lat="48.0221" lon="-2.68753">
        <ele>99.685452</ele>
        <time>2023-05-04T14:17:48.099Z</time>
      </trkpt>
      <trkpt lat="48.02209" lon="-2.68736">
        <ele>99.870554</ele>
        <time>2023-05-04T14:17:51.100Z</time>
      </trkpt>
      <trkpt lat="48.0221" lon="-2.68721">
        <ele>100.022002</ele>
        <time>2023-05-04T14:17:54.099Z</time>
      </trkpt>
      <trkpt lat="48.02211" lon="-2.68706">
        <ele>100.179445</ele>
        <time>2023-05-04T14:17:59.103Z</time>
      </trkpt>
      <trkpt lat="48.02212" lon="-2.68692">
        <ele>100.328421</ele>
        <time>2023-05-04T14:18:03.097Z</time>
      </trkpt>
      <trkpt lat="48.02215" lon="-2.68678">
        <ele>100.485704</ele>
        <time>2023-05-04T14:18:07.099Z</time>
      </trkpt>
      <trkpt lat="48.02216" lon="-2.68661">
        <ele>100.667855</ele>
        <time>2023-05-04T14:18:11.096Z</time>
      </trkpt>
      <trkpt lat="48.02218" lon="-2.68644">
        <ele>100.845672</ele>
        <time>2023-05-04T14:18:15.095Z</time>
      </trkpt>
      <trkpt lat="48.02221" lon="-2.68627">
        <ele>101.030778</ele>
        <time>2023-05-04T14:18:19.098Z</time>
      </trkpt>
      <trkpt lat="48.02225" lon="-2.68609">
        <ele>101.221812</ele>
        <time>2023-05-04T14:18:23.089Z</time>
      </trkpt>
      <trkpt lat="48.02227" lon="-2.68592">
        <ele>101.397073</ele>
        <time>2023-05-04T14:18:27.095Z</time>
      </trkpt>
      <trkpt lat="48.02229" lon="-2.68579">
        <ele>101.370687</ele>
        <time>2023-05-04T14:18:30.096Z</time>
      </trkpt>
      <trkpt lat="48.02229" lon="-2.68562">
        <ele>101.337659</ele>
        <time>2023-05-04T14:18:34.095Z</time>
      </trkpt>
      <trkpt lat="48.02229" lon="-2.68548">
        <ele>101.311026</ele>
        <time>2023-05-04T14:18:37.098Z</time>
      </trkpt>
      <trkpt lat="48.02228" lon="-2.6853">
        <ele>101.276436</ele>
        <time>2023-05-04T14:18:42.098Z</time>
      </trkpt>
      <trkpt lat="48.02226" lon="-2.68517">
        <ele>101.248884</ele>
        <time>2023-05-04T14:18:45.091Z</time>
      </trkpt>
      <trkpt lat="48.02223" lon="-2.68501">
        <ele>101.217515</ele>
        <time>2023-05-04T14:18:48.096Z</time>
      </trkpt>
      <trkpt lat="48.02221" lon="-2.68486">
        <ele>101.187044</ele>
        <time>2023-05-04T14:18:51.090Z</time>
      </trkpt>
      <trkpt lat="48.02217" lon="-2.6847">
        <ele>101.15481</ele>
        <time>2023-05-04T14:18:54.097Z</time>
      </trkpt>
      <trkpt lat="48.02214" lon="-2.68454">
        <ele>101.121649</ele>
        <time>2023-05-04T14:18:57.089Z</time>
      </trkpt>
      <trkpt lat="48.02211" lon="-2.6844">
        <ele>101.093098</ele>
        <time>2023-05-04T14:19:00.089Z</time>
      </trkpt>
      <trkpt lat="48.02209" lon="-2.68425">
        <ele>101.064218</ele>
        <time>2023-05-04T14:19:04.094Z</time>
      </trkpt>
      <trkpt lat="48.02206" lon="-2.68411">
        <ele>101.034258</ele>
        <time>2023-05-04T14:19:08.094Z</time>
      </trkpt>
      <trkpt lat="48.02202" lon="-2.68398">
        <ele>101.008119</ele>
        <time>2023-05-04T14:19:12.096Z</time>
      </trkpt>
      <trkpt lat="48.02196" lon="-2.68384">
        <ele>100.976437</ele>
        <time>2023-05-04T14:19:17.089Z</time>
      </trkpt>
      <trkpt lat="48.02191" lon="-2.68372">
        <ele>100.946731</ele>
        <time>2023-05-04T14:19:20.087Z</time>
      </trkpt>
      <trkpt lat="48.02183" lon="-2.68361">
        <ele>100.915087</ele>
        <time>2023-05-04T14:19:23.098Z</time>
      </trkpt>
      <trkpt lat="48.02174" lon="-2.68349">
        <ele>100.882785</ele>
        <time>2023-05-04T14:19:26.090Z</time>
      </trkpt>
      <trkpt lat="48.02168" lon="-2.68338">
        <ele>100.799859</ele>
        <time>2023-05-04T14:19:29.097Z</time>
      </trkpt>
      <trkpt lat="48.02162" lon="-2.68328">
        <ele>100.71049</ele>
        <time>2023-05-04T14:19:32.098Z</time>
      </trkpt>
      <trkpt lat="48.02154" lon="-2.68318">
        <ele>100.610691</ele>
        <time>2023-05-04T14:19:36.096Z</time>
      </trkpt>
      <trkpt lat="48.02149" lon="-2.68306">
        <ele>100.514196</ele>
        <time>2023-05-04T14:19:40.093Z</time>
      </trkpt>
      <trkpt lat="48.02141" lon="-2.68293">
        <ele>100.400421</ele>
        <time>2023-05-04T14:19:44.099Z</time>
      </trkpt>
      <trkpt lat="48.02134" lon="-2.68282">
        <ele>100.299411</ele>
        <time>2023-05-04T14:19:48.091Z</time>
      </trkpt>
      <trkpt lat="48.02127" lon="-2.68268">
        <ele>100.188495</ele>
        <time>2023-05-04T14:19:52.085Z</time>
      </trkpt>
      <trkpt lat="48.02121" lon="-2.68259">
        <ele>100.098234</ele>
        <time>2023-05-04T14:19:55.096Z</time>
      </trkpt>
      <trkpt lat="48.02114" lon="-2.68248">
        <ele>100.005284</ele>
        <time>2023-05-04T14:19:58.095Z</time>
      </trkpt>
      <trkpt lat="48.02108" lon="-2.68238">
        <ele>99.911969</ele>
        <time>2023-05-04T14:20:01.098Z</time>
      </trkpt>
      <trkpt lat="48.02102" lon="-2.68227">
        <ele>99.817681</ele>
        <time>2023-05-04T14:20:04.098Z</time>
      </trkpt>
      <trkpt lat="48.02095" lon="-2.68213">
        <ele>99.708129</ele>
        <time>2023-05-04T14:20:08.090Z</time>
      </trkpt>
      <trkpt lat="48.02091" lon="-2.68198">
        <ele>99.599899</ele>
        <time>2023-05-04T14:20:12.103Z</time>
      </trkpt>
      <trkpt lat="48.02085" lon="-2.68185">
        <ele>99.499446</ele>
        <time>2023-05-04T14:20:15.099Z</time>
      </trkpt>
      <trkpt lat="48.02081" lon="-2.68172">
        <ele>99.402849</ele>
        <time>2023-05-04T14:20:18.099Z</time>
      </trkpt>
      <trkpt lat="48.02076" lon="-2.68159">
        <ele>99.305091</ele>
        <time>2023-05-04T14:20:21.100Z</time>
      </trkpt>
      <trkpt lat="48.02071" lon="-2.68146">
        <ele>99.204709</ele>
        <time>2023-05-04T14:20:24.097Z</time>
      </trkpt>
      <trkpt lat="48.02065" lon="-2.68131">
        <ele>99.103278</ele>
        <time>2023-05-04T14:20:28.094Z</time>
      </trkpt>
      <trkpt lat="48.02062" lon="-2.68116">
        <ele>99.09803</ele>
        <time>2023-05-04T14:20:31.096Z</time>
      </trkpt>
      <trkpt lat="48.02058" lon="-2.68101">
        <ele>99.092358</ele>
        <time>2023-05-04T14:20:35.097Z</time>
      </trkpt>
      <trkpt lat="48.02053" lon="-2.68086">
        <ele>99.086445</ele>
        <time>2023-05-04T14:20:39.097Z</time>
      </trkpt>
      <trkpt lat="48.02048" lon="-2.68073">
        <ele>99.081464</ele>
        <time>2023-05-04T14:20:42.096Z</time>
      </trkpt>
      <trkpt lat="48.02043" lon="-2.68062">
        <ele>99.076521</ele>
        <time>2023-05-04T14:20:45.097Z</time>
      </trkpt>
      <trkpt lat="48.02035" lon="-2.68048">
        <ele>99.070365</ele>
        <time>2023-05-04T14:20:49.096Z</time>
      </trkpt>
      <trkpt lat="48.02029" lon="-2.68038">
        <ele>99.065603</ele>
        <time>2023-05-04T14:20:52.094Z</time>
      </trkpt>
      <trkpt lat="48.02023" lon="-2.68027">
        <ele>99.060473</ele>
        <time>2023-05-04T14:20:55.098Z</time>
      </trkpt>
      <trkpt lat="48.02016" lon="-2.68017">
        <ele>99.055552</ele>
        <time>2023-05-04T14:20:58.095Z</time>
      </trkpt>
      <trkpt lat="48.02009" lon="-2.68008">
        <ele>99.050737</ele>
        <time>2023-05-04T14:21:01.100Z</time>
      </trkpt>
      <trkpt lat="48.02002" lon="-2.67999">
        <ele>99.045987</ele>
        <time>2023-05-04T14:21:04.097Z</time>
      </trkpt>
      <trkpt lat="48.01994" lon="-2.67991">
        <ele>99.041135</ele>
        <time>2023-05-04T14:21:07.097Z</time>
      </trkpt>
      <trkpt lat="48.01986" lon="-2.67982">
        <ele>99.035707</ele>
        <time>2023-05-04T14:21:10.094Z</time>
      </trkpt>
      <trkpt lat="48.01977" lon="-2.67975">
        <ele>99.030844</ele>
        <time>2023-05-04T14:21:13.098Z</time>
      </trkpt>
      <trkpt lat="48.01968" lon="-2.67966">
        <ele>99.024945</ele>
        <time>2023-05-04T14:21:17.093Z</time>
      </trkpt>
      <trkpt lat="48.01961" lon="-2.67957">
        <ele>99.020257</ele>
        <time>2023-05-04T14:21:21.097Z</time>
      </trkpt>
      <trkpt lat="48.01951" lon="-2.67947">
        <ele>99.014052</ele>
        <time>2023-05-04T14:21:24.092Z</time>
      </trkpt>
      <trkpt lat="48.01945" lon="-2.67938">
        <ele>98.99248</ele>
        <time>2023-05-04T14:21:28.099Z</time>
      </trkpt>
      <trkpt lat="48.01937" lon="-2.6793">
        <ele>98.92717</ele>
        <time>2023-05-04T14:21:31.092Z</time>
      </trkpt>
      <trkpt lat="48.01927" lon="-2.6792">
        <ele>98.848363</ele>
        <time>2023-05-04T14:21:34.097Z</time>
      </trkpt>
      <trkpt lat="48.01917" lon="-2.6791">
        <ele>98.769902</ele>
        <time>2023-05-04T14:21:37.094Z</time>
      </trkpt>
      <trkpt lat="48.01907" lon="-2.679">
        <ele>98.688406</ele>
        <time>2023-05-04T14:21:41.094Z</time>
      </trkpt>
      <trkpt lat="48.01899" lon="-2.67891">
        <ele>98.621876</ele>
        <time>2023-05-04T14:21:44.087Z</time>
      </trkpt>
      <trkpt lat="48.01892" lon="-2.67883">
        <ele>98.558253</ele>
        <time>2023-05-04T14:21:47.085Z</time>
      </trkpt>
      <trkpt lat="48.01883" lon="-2.67875">
        <ele>98.49138</ele>
        <time>2023-05-04T14:21:50.086Z</time>
      </trkpt>
      <trkpt lat="48.01873" lon="-2.67864">
        <ele>98.405917</ele>
        <time>2023-05-04T14:21:53.096Z</time>
      </trkpt>
      <trkpt lat="48.01865" lon="-2.67853">
        <ele>98.332312</ele>
        <time>2023-05-04T14:21:56.091Z</time>
      </trkpt>
      <trkpt lat="48.01857" lon="-2.67845">
        <ele>98.265482</ele>
        <time>2023-05-04T14:21:59.092Z</time>
      </trkpt>
      <trkpt lat="48.01847" lon="-2.67835">
        <ele>98.186361</ele>
        <time>2023-05-04T14:22:03.097Z</time>
      </trkpt>
      <trkpt lat="48.01839" lon="-2.67828">
        <ele>98.122369</ele>
        <time>2023-05-04T14:22:06.096Z</time>
      </trkpt>
      <trkpt lat="48.01831" lon="-2.67819">
        <ele>98.054485</ele>
        <time>2023-05-04T14:22:09.093Z</time>
      </trkpt>
      <trkpt lat="48.01821" lon="-2.67808">
        <ele>97.975213</ele>
        <time>2023-05-04T14:22:12.094Z</time>
      </trkpt>
      <trkpt lat="48.0181" lon="-2.67797">
        <ele>97.884014</ele>
        <time>2023-05-04T14:22:14.094Z</time>
      </trkpt>
      <trkpt lat="48.01802" lon="-2.67788">
        <ele>97.814641</ele>
        <time>2023-05-04T14:22:16.095Z</time>
      </trkpt>
      <trkpt lat="48.01794" lon="-2.67779">
        <ele>97.970376</ele>
        <time>2023-05-04T14:22:18.091Z</time>
      </trkpt>
      <trkpt lat="48.01784" lon="-2.67771">
        <ele>98.248031</ele>
        <time>2023-05-04T14:22:21.090Z</time>
      </trkpt>
      <trkpt lat="48.01774" lon="-2.67758">
        <ele>98.571071</ele>
        <time>2023-05-04T14:22:24.096Z</time>
      </trkpt>
      <trkpt lat="48.01763" lon="-2.67749">
        <ele>98.873286</ele>
        <time>2023-05-04T14:22:27.096Z</time>
      </trkpt>
      <trkpt lat="48.01753" lon="-2.6774">
        <ele>99.153073</ele>
        <time>2023-05-04T14:22:30.095Z</time>
      </trkpt>
      <trkpt lat="48.01744" lon="-2.67733">
        <ele>99.407884</ele>
        <time>2023-05-04T14:22:33.099Z</time>
      </trkpt>
      <trkpt lat="48.01735" lon="-2.67723">
        <ele>99.683507</ele>
        <time>2023-05-04T14:22:36.096Z</time>
      </trkpt>
      <trkpt lat="48.01726" lon="-2.67714">
        <ele>99.945433</ele>
        <time>2023-05-04T14:22:39.098Z</time>
      </trkpt>
      <trkpt lat="48.01716" lon="-2.67704">
        <ele>100.223979</ele>
        <time>2023-05-04T14:22:42.085Z</time>
      </trkpt>
      <trkpt lat="48.01707" lon="-2.67695">
        <ele>100.488688</ele>
        <time>2023-05-04T14:22:45.097Z</time>
      </trkpt>
      <trkpt lat="48.01696" lon="-2.67685">
        <ele>100.802271</ele>
        <time>2023-05-04T14:22:48.096Z</time>
      </trkpt>
      <trkpt lat="48.01686" lon="-2.67675">
        <ele>101.11346</ele>
        <time>2023-05-04T14:22:51.098Z</time>
      </trkpt>
      <trkpt lat="48.01675" lon="-2.67667">
        <ele>101.393204</ele>
        <time>2023-05-04T14:22:54.101Z</time>
      </trkpt>
      <trkpt lat="48.01666" lon="-2.6766">
        <ele>101.649064</ele>
        <time>2023-05-04T14:22:57.096Z</time>
      </trkpt>
      <trkpt lat="48.01656" lon="-2.67653">
        <ele>101.914318</ele>
        <time>2023-05-04T14:23:00.084Z</time>
      </trkpt>
      <trkpt lat="48.01647" lon="-2.67646">
        <ele>102.16292</ele>
        <time>2023-05-04T14:23:03.098Z</time>
      </trkpt>
      <trkpt lat="48.01638" lon="-2.67639">
        <ele>102.055233</ele>
        <time>2023-05-04T14:23:06.094Z</time>
      </trkpt>
      <trkpt lat="48.01628" lon="-2.67631">
        <ele>101.931653</ele>
        <time>2023-05-04T14:23:09.096Z</time>
      </trkpt>
      <trkpt lat="48.01619" lon="-2.67624">
        <ele>101.812596</ele>
        <time>2023-05-04T14:23:12.094Z</time>
      </trkpt>
      <trkpt lat="48.01608" lon="-2.67616">
        <ele>101.675427</ele>
        <time>2023-05-04T14:23:15.096Z</time>
      </trkpt>
      <trkpt lat="48.01598" lon="-2.6761">
        <ele>101.559266</ele>
        <time>2023-05-04T14:23:18.094Z</time>
      </trkpt>
      <trkpt lat="48.01588" lon="-2.67604">
        <ele>101.436196</ele>
        <time>2023-05-04T14:23:21.096Z</time>
      </trkpt>
      <trkpt lat="48.01577" lon="-2.67598">
        <ele>101.305493</ele>
        <time>2023-05-04T14:23:24.097Z</time>
      </trkpt>
      <trkpt lat="48.01566" lon="-2.67593">
        <ele>101.179343</ele>
        <time>2023-05-04T14:23:27.095Z</time>
      </trkpt>
      <trkpt lat="48.01556" lon="-2.67589">
        <ele>101.059192</ele>
        <time>2023-05-04T14:23:30.096Z</time>
      </trkpt>
      <trkpt lat="48.01545" lon="-2.67584">
        <ele>100.933042</ele>
        <time>2023-05-04T14:23:33.104Z</time>
      </trkpt>
      <trkpt lat="48.01534" lon="-2.67579">
        <ele>100.809674</ele>
        <time>2023-05-04T14:23:36.101Z</time>
      </trkpt>
      <trkpt lat="48.01525" lon="-2.67576">
        <ele>100.702109</ele>
        <time>2023-05-04T14:23:39.097Z</time>
      </trkpt>
      <trkpt lat="48.01516" lon="-2.67571">
        <ele>100.590947</ele>
        <time>2023-05-04T14:23:42.092Z</time>
      </trkpt>
      <trkpt lat="48.00722" lon="-2.65925">
        <ele>90.249859</ele>
        <time>2023-05-04T14:32:51.084Z</time>
      </trkpt>
      <trkpt lat="48.00726" lon="-2.65938">
        <ele>90.9126</ele>
        <time>2023-05-04T14:33:14.088Z</time>
      </trkpt>
      <trkpt lat="48.00718" lon="-2.65943">
        <ele>91.549983</ele>
        <time>2023-05-04T14:36:01.087Z</time>
      </trkpt>
      <trkpt lat="48.00709" lon="-2.65942">
        <ele>92.231478</ele>
        <time>2023-05-04T14:36:10.093Z</time>
      </trkpt>
      <trkpt lat="48.00691" lon="-2.65941">
        <ele>93.492204</ele>
        <time>2023-05-04T14:37:41.093Z</time>
      </trkpt>
      <trkpt lat="48.00681" lon="-2.65936">
        <ele>94.221083</ele>
        <time>2023-05-04T14:37:45.092Z</time>
      </trkpt>
      <trkpt lat="48.00671" lon="-2.65933">
        <ele>94.921396</ele>
        <time>2023-05-04T14:37:49.081Z</time>
      </trkpt>
      <trkpt lat="48.00662" lon="-2.65931">
        <ele>95.598132</ele>
        <time>2023-05-04T14:37:52.091Z</time>
      </trkpt>
      <trkpt lat="48.00651" lon="-2.65927">
        <ele>96.370553</ele>
        <time>2023-05-04T14:37:55.093Z</time>
      </trkpt>
      <trkpt lat="48.00642" lon="-2.65925">
        <ele>97.043227</ele>
        <time>2023-05-04T14:37:57.094Z</time>
      </trkpt>
      <trkpt lat="48.00631" lon="-2.65923">
        <ele>97.835497</ele>
        <time>2023-05-04T14:38:00.085Z</time>
      </trkpt>
      <trkpt lat="48.00619" lon="-2.6592">
        <ele>98.636114</ele>
        <time>2023-05-04T14:38:04.092Z</time>
      </trkpt>
      <trkpt lat="48.00608" lon="-2.65917">
        <ele>98.592364</ele>
        <time>2023-05-04T14:38:08.089Z</time>
      </trkpt>
      <trkpt lat="48.00599" lon="-2.65915">
        <ele>98.391064</ele>
        <time>2023-05-04T14:38:11.088Z</time>
      </trkpt>
      <trkpt lat="48.0059" lon="-2.65913">
        <ele>98.192091</ele>
        <time>2023-05-04T14:38:14.092Z</time>
      </trkpt>
      <trkpt lat="48.00578" lon="-2.65909">
        <ele>97.936977</ele>
        <time>2023-05-04T14:38:18.095Z</time>
      </trkpt>
      <trkpt lat="48.00569" lon="-2.65903">
        <ele>97.728468</ele>
        <time>2023-05-04T14:38:21.092Z</time>
      </trkpt>
      <trkpt lat="48.00558" lon="-2.65896">
        <ele>97.481022</ele>
        <time>2023-05-04T14:38:25.093Z</time>
      </trkpt>
      <trkpt lat="48.00549" lon="-2.65888">
        <ele>97.252861</ele>
        <time>2023-05-04T14:38:29.093Z</time>
      </trkpt>
      <trkpt lat="48.0054" lon="-2.65881">
        <ele>97.03828</ele>
        <time>2023-05-04T14:38:33.093Z</time>
      </trkpt>
      <trkpt lat="48.00532" lon="-2.65871">
        <ele>96.816902</ele>
        <time>2023-05-04T14:38:37.099Z</time>
      </trkpt>
      <trkpt lat="48.00525" lon="-2.65863">
        <ele>96.619643</ele>
        <time>2023-05-04T14:38:40.091Z</time>
      </trkpt>
      <trkpt lat="48.00518" lon="-2.65851">
        <ele>96.384638</ele>
        <time>2023-05-04T14:38:43.092Z</time>
      </trkpt>
      <trkpt lat="48.0051" lon="-2.65838">
        <ele>96.143228</ele>
        <time>2023-05-04T14:38:46.097Z</time>
      </trkpt>
      <trkpt lat="48.00505" lon="-2.65822">
        <ele>95.887194</ele>
        <time>2023-05-04T14:38:49.097Z</time>
      </trkpt>
      <trkpt lat="48.005" lon="-2.65807">
        <ele>95.642206</ele>
        <time>2023-05-04T14:38:52.090Z</time>
      </trkpt>
      <trkpt lat="48.00496" lon="-2.65791">
        <ele>95.408509</ele>
        <time>2023-05-04T14:38:55.092Z</time>
      </trkpt>
      <trkpt lat="48.00493" lon="-2.65776">
        <ele>95.175548</ele>
        <time>2023-05-04T14:38:58.092Z</time>
      </trkpt>
      <trkpt lat="48.00488" lon="-2.65762">
        <ele>94.957938</ele>
        <time>2023-05-04T14:39:01.090Z</time>
      </trkpt>
      <trkpt lat="48.00484" lon="-2.65749">
        <ele>94.872558</ele>
        <time>2023-05-04T14:39:04.089Z</time>
      </trkpt>
      <trkpt lat="48.0048" lon="-2.65735">
        <ele>94.802846</ele>
        <time>2023-05-04T14:39:07.082Z</time>
      </trkpt>
      <trkpt lat="48.00478" lon="-2.65722">
        <ele>94.735592</ele>
        <time>2023-05-04T14:39:10.088Z</time>
      </trkpt>
      <trkpt lat="48.00475" lon="-2.65708">
        <ele>94.667022</ele>
        <time>2023-05-04T14:39:13.085Z</time>
      </trkpt>
      <trkpt lat="48.00471" lon="-2.65693">
        <ele>94.586747</ele>
        <time>2023-05-04T14:39:16.092Z</time>
      </trkpt>
      <trkpt lat="48.00466" lon="-2.65676">
        <ele>94.501574</ele>
        <time>2023-05-04T14:39:19.084Z</time>
      </trkpt>
      <trkpt lat="48.00463" lon="-2.6566">
        <ele>94.420888</ele>
        <time>2023-05-04T14:39:22.097Z</time>
      </trkpt>
      <trkpt lat="48.00459" lon="-2.65645">
        <ele>94.342782</ele>
        <time>2023-05-04T14:39:25.088Z</time>
      </trkpt>
      <trkpt lat="48.00456" lon="-2.65631">
        <ele>94.269405</ele>
        <time>2023-05-04T14:39:28.087Z</time>
      </trkpt>
      <trkpt lat="48.00452" lon="-2.65614">
        <ele>94.18526</ele>
        <time>2023-05-04T14:39:31.087Z</time>
      </trkpt>
      <trkpt lat="48.00448" lon="-2.65602">
        <ele>94.11945</ele>
        <time>2023-05-04T14:39:33.093Z</time>
      </trkpt>
      <trkpt lat="48.00444" lon="-2.65589">
        <ele>94.049893</ele>
        <time>2023-05-04T14:39:35.091Z</time>
      </trkpt>
      <trkpt lat="48.0044" lon="-2.65576">
        <ele>93.982095</ele>
        <time>2023-05-04T14:39:37.086Z</time>
      </trkpt>
      <trkpt lat="48.00437" lon="-2.65559">
        <ele>93.895179</ele>
        <time>2023-05-04T14:39:40.086Z</time>
      </trkpt>
      <trkpt lat="48.00434" lon="-2.65542">
        <ele>93.810017</ele>
        <time>2023-05-04T14:39:43.090Z</time>
      </trkpt>
      <trkpt lat="48.00431" lon="-2.65527">
        <ele>93.737523</ele>
        <time>2023-05-04T14:39:46.088Z</time>
      </trkpt>
      <trkpt lat="48.00426" lon="-2.65509">
        <ele>93.642395</ele>
        <time>2023-05-04T14:39:49.086Z</time>
      </trkpt>
      <trkpt lat="48.00421" lon="-2.65493">
        <ele>93.557463</ele>
        <time>2023-05-04T14:39:52.083Z</time>
      </trkpt>
      <trkpt lat="48.00415" lon="-2.65478">
        <ele>93.471158</ele>
        <time>2023-05-04T14:39:55.083Z</time>
      </trkpt>
      <trkpt lat="48.00409" lon="-2.65464">
        <ele>93.396674</ele>
        <time>2023-05-04T14:39:58.091Z</time>
      </trkpt>
      <trkpt lat="48.00405" lon="-2.65449">
        <ele>93.315101</ele>
        <time>2023-05-04T14:40:01.094Z</time>
      </trkpt>
      <trkpt lat="48.00399" lon="-2.65433">
        <ele>93.228866</ele>
        <time>2023-05-04T14:40:04.085Z</time>
      </trkpt>
      <trkpt lat="48.00393" lon="-2.65417">
        <ele>93.14204</ele>
        <time>2023-05-04T14:40:07.095Z</time>
      </trkpt>
      <trkpt lat="48.00387" lon="-2.65399">
        <ele>93.046559</ele>
        <time>2023-05-04T14:40:10.089Z</time>
      </trkpt>
      <trkpt lat="48.00381" lon="-2.65382">
        <ele>92.954406</ele>
        <time>2023-05-04T14:40:13.091Z</time>
      </trkpt>
      <trkpt lat="48.00375" lon="-2.65366">
        <ele>92.867172</ele>
        <time>2023-05-04T14:40:16.093Z</time>
      </trkpt>
      <trkpt lat="48.00368" lon="-2.65352">
        <ele>92.778805</ele>
        <time>2023-05-04T14:40:19.084Z</time>
      </trkpt>
      <trkpt lat="48.0036" lon="-2.65336">
        <ele>92.686707</ele>
        <time>2023-05-04T14:40:22.094Z</time>
      </trkpt>
      <trkpt lat="48.00354" lon="-2.65321">
        <ele>92.603447</ele>
        <time>2023-05-04T14:40:25.092Z</time>
      </trkpt>
      <trkpt lat="48.00348" lon="-2.65307">
        <ele>92.523388</ele>
        <time>2023-05-04T14:40:28.093Z</time>
      </trkpt>
      <trkpt lat="48.00343" lon="-2.65295">
        <ele>92.458124</ele>
        <time>2023-05-04T14:40:31.094Z</time>
      </trkpt>
      <trkpt lat="48.00338" lon="-2.65284">
        <ele>92.393297</ele>
        <time>2023-05-04T14:40:34.094Z</time>
      </trkpt>
      <trkpt lat="48.00333" lon="-2.65271">
        <ele>92.338671</ele>
        <time>2023-05-04T14:40:37.093Z</time>
      </trkpt>
      <trkpt lat="48.00327" lon="-2.65255">
        <ele>92.297795</ele>
        <time>2023-05-04T14:40:40.086Z</time>
      </trkpt>
      <trkpt lat="48.00321" lon="-2.65242">
        <ele>92.258129</ele>
        <time>2023-05-04T14:40:43.090Z</time>
      </trkpt>
      <trkpt lat="48.00315" lon="-2.65231">
        <ele>92.226382</ele>
        <time>2023-05-04T14:40:45.092Z</time>
      </trkpt>
      <trkpt lat="48.00309" lon="-2.6522">
        <ele>92.19374</ele>
        <time>2023-05-04T14:40:47.091Z</time>
      </trkpt>
      <trkpt lat="48.003" lon="-2.65209">
        <ele>92.150674</ele>
        <time>2023-05-04T14:40:50.093Z</time>
      </trkpt>
      <trkpt lat="48.00291" lon="-2.65198">
        <ele>92.112986</ele>
        <time>2023-05-04T14:40:53.091Z</time>
      </trkpt>
      <trkpt lat="48.00282" lon="-2.65191">
        <ele>92.076572</ele>
        <time>2023-05-04T14:40:56.093Z</time>
      </trkpt>
      <trkpt lat="48.00274" lon="-2.65186">
        <ele>92.044417</ele>
        <time>2023-05-04T14:40:59.091Z</time>
      </trkpt>
      <trkpt lat="48.00262" lon="-2.65182">
        <ele>92.001926</ele>
        <time>2023-05-04T14:41:03.081Z</time>
      </trkpt>
      <trkpt lat="48.0025" lon="-2.65177">
        <ele>91.959785</ele>
        <time>2023-05-04T14:41:06.081Z</time>
      </trkpt>
      <trkpt lat="48.00238" lon="-2.65172">
        <ele>91.916643</ele>
        <time>2023-05-04T14:41:09.081Z</time>
      </trkpt>
      <trkpt lat="48.00226" lon="-2.65169">
        <ele>91.872456</ele>
        <time>2023-05-04T14:41:12.084Z</time>
      </trkpt>
      <trkpt lat="48.00213" lon="-2.65168">
        <ele>91.828667</ele>
        <time>2023-05-04T14:41:15.093Z</time>
      </trkpt>
      <trkpt lat="48.00201" lon="-2.65168">
        <ele>91.784969</ele>
        <time>2023-05-04T14:41:18.079Z</time>
      </trkpt>
      <trkpt lat="48.00188" lon="-2.6517">
        <ele>91.741258</ele>
        <time>2023-05-04T14:41:21.084Z</time>
      </trkpt>
      <trkpt lat="48.00176" lon="-2.65173">
        <ele>91.741923</ele>
        <time>2023-05-04T14:41:24.091Z</time>
      </trkpt>
      <trkpt lat="48.00164" lon="-2.65177">
        <ele>91.760429</ele>
        <time>2023-05-04T14:41:27.093Z</time>
      </trkpt>
      <trkpt lat="48.00153" lon="-2.65182">
        <ele>91.777048</ele>
        <time>2023-05-04T14:41:30.091Z</time>
      </trkpt>
      <trkpt lat="48.00144" lon="-2.65186">
        <ele>91.792277</ele>
        <time>2023-05-04T14:41:33.085Z</time>
      </trkpt>
      <trkpt lat="48.00134" lon="-2.65191">
        <ele>91.808149</ele>
        <time>2023-05-04T14:41:36.090Z</time>
      </trkpt>
      <trkpt lat="48.00124" lon="-2.65197">
        <ele>91.824435</ele>
        <time>2023-05-04T14:41:39.091Z</time>
      </trkpt>
      <trkpt lat="48.00113" lon="-2.65201">
        <ele>91.841655</ele>
        <time>2023-05-04T14:41:42.092Z</time>
      </trkpt>
      <trkpt lat="48.00102" lon="-2.65206">
        <ele>91.858703</ele>
        <time>2023-05-04T14:41:45.094Z</time>
      </trkpt>
      <trkpt lat="48.00092" lon="-2.65211">
        <ele>91.874893</ele>
        <time>2023-05-04T14:41:48.094Z</time>
      </trkpt>
      <trkpt lat="48.00083" lon="-2.65217">
        <ele>91.889315</ele>
        <time>2023-05-04T14:41:51.091Z</time>
      </trkpt>
      <trkpt lat="48.00073" lon="-2.65222">
        <ele>91.904442</ele>
        <time>2023-05-04T14:41:54.089Z</time>
      </trkpt>
      <trkpt lat="48.00064" lon="-2.65225">
        <ele>91.919585</ele>
        <time>2023-05-04T14:41:57.090Z</time>
      </trkpt>
      <trkpt lat="48.00054" lon="-2.65228">
        <ele>91.933864</ele>
        <time>2023-05-04T14:42:00.107Z</time>
      </trkpt>
      <trkpt lat="48.00043" lon="-2.65232">
        <ele>91.950929</ele>
        <time>2023-05-04T14:42:04.093Z</time>
      </trkpt>
      <trkpt lat="48.00031" lon="-2.65235">
        <ele>91.969016</ele>
        <time>2023-05-04T14:42:08.091Z</time>
      </trkpt>
      <trkpt lat="48.00021" lon="-2.65239">
        <ele>91.984941</ele>
        <time>2023-05-04T14:42:11.093Z</time>
      </trkpt>
      <trkpt lat="48.00011" lon="-2.65244">
        <ele>92.008627</ele>
        <time>2023-05-04T14:42:14.085Z</time>
      </trkpt>
      <trkpt lat="47.99999" lon="-2.65248">
        <ele>92.077951</ele>
        <time>2023-05-04T14:42:17.090Z</time>
      </trkpt>
      <trkpt lat="47.99988" lon="-2.65253">
        <ele>92.148204</ele>
        <time>2023-05-04T14:42:20.091Z</time>
      </trkpt>
      <trkpt lat="47.99977" lon="-2.65259">
        <ele>92.220177</ele>
        <time>2023-05-04T14:42:23.090Z</time>
      </trkpt>
      <trkpt lat="47.99966" lon="-2.65263">
        <ele>92.291943</ele>
        <time>2023-05-04T14:42:26.093Z</time>
      </trkpt>
      <trkpt lat="47.99955" lon="-2.65268">
        <ele>92.357399</ele>
        <time>2023-05-04T14:42:29.098Z</time>
      </trkpt>
      <trkpt lat="47.99946" lon="-2.65271">
        <ele>92.414694</ele>
        <time>2023-05-04T14:42:32.092Z</time>
      </trkpt>
      <trkpt lat="47.99936" lon="-2.65277">
        <ele>92.478689</ele>
        <time>2023-05-04T14:42:36.117Z</time>
      </trkpt>
      <trkpt lat="47.99925" lon="-2.65283">
        <ele>92.549645</ele>
        <time>2023-05-04T14:42:40.098Z</time>
      </trkpt>
      <trkpt lat="47.99915" lon="-2.65288">
        <ele>92.612511</ele>
        <time>2023-05-04T14:42:44.090Z</time>
      </trkpt>
      <trkpt lat="47.99906" lon="-2.65292">
        <ele>92.670109</ele>
        <time>2023-05-04T14:42:50.090Z</time>
      </trkpt>
      <trkpt lat="47.99897" lon="-2.65298">
        <ele>92.730318</ele>
        <time>2023-05-04T14:42:56.097Z</time>
      </trkpt>
      <trkpt lat="47.99886" lon="-2.65297">
        <ele>92.797467</ele>
        <time>2023-05-04T14:43:01.092Z</time>
      </trkpt>
      <trkpt lat="47.99876" lon="-2.65301">
        <ele>92.859909</ele>
        <time>2023-05-04T14:43:04.090Z</time>
      </trkpt>
      <trkpt lat="47.99864" lon="-2.65306">
        <ele>92.934532</ele>
        <time>2023-05-04T14:43:07.091Z</time>
      </trkpt>
      <trkpt lat="47.99853" lon="-2.65312">
        <ele>93.004281</ele>
        <time>2023-05-04T14:43:10.093Z</time>
      </trkpt>
      <trkpt lat="47.99844" lon="-2.65317">
        <ele>93.065361</ele>
        <time>2023-05-04T14:43:13.098Z</time>
      </trkpt>
      <trkpt lat="47.99834" lon="-2.65322">
        <ele>93.187935</ele>
        <time>2023-05-04T14:43:16.098Z</time>
      </trkpt>
      <trkpt lat="47.99824" lon="-2.65326">
        <ele>93.337367</ele>
        <time>2023-05-04T14:43:19.096Z</time>
      </trkpt>
      <trkpt lat="47.99814" lon="-2.65331">
        <ele>93.489648</ele>
        <time>2023-05-04T14:43:22.088Z</time>
      </trkpt>
      <trkpt lat="47.99804" lon="-2.65336">
        <ele>93.644373</ele>
        <time>2023-05-04T14:43:25.091Z</time>
      </trkpt>
      <trkpt lat="47.99795" lon="-2.65344">
        <ele>93.799261</ele>
        <time>2023-05-04T14:43:28.091Z</time>
      </trkpt>
      <trkpt lat="47.99785" lon="-2.6535">
        <ele>93.958382</ele>
        <time>2023-05-04T14:43:31.092Z</time>
      </trkpt>
      <trkpt lat="47.99773" lon="-2.65352">
        <ele>94.124895</ele>
        <time>2023-05-04T14:43:34.092Z</time>
      </trkpt>
      <trkpt lat="47.99763" lon="-2.65356">
        <ele>94.280629</ele>
        <time>2023-05-04T14:43:37.094Z</time>
      </trkpt>
      <trkpt lat="47.99753" lon="-2.65361">
        <ele>94.445088</ele>
        <time>2023-05-04T14:43:40.087Z</time>
      </trkpt>
      <trkpt lat="47.99741" lon="-2.65364">
        <ele>94.609767</ele>
        <time>2023-05-04T14:43:43.088Z</time>
      </trkpt>
      <trkpt lat="47.9973" lon="-2.65368">
        <ele>94.784887</ele>
        <time>2023-05-04T14:43:46.092Z</time>
      </trkpt>
      <trkpt lat="47.99719" lon="-2.65372">
        <ele>94.954715</ele>
        <time>2023-05-04T14:43:49.095Z</time>
      </trkpt>
      <trkpt lat="47.99707" lon="-2.65376">
        <ele>95.124109</ele>
        <time>2023-05-04T14:43:52.091Z</time>
      </trkpt>
      <trkpt lat="47.99698" lon="-2.6538">
        <ele>95.271721</ele>
        <time>2023-05-04T14:43:55.089Z</time>
      </trkpt>
      <trkpt lat="47.99688" lon="-2.65385">
        <ele>95.418257</ele>
        <time>2023-05-04T14:43:58.087Z</time>
      </trkpt>
      <trkpt lat="47.99679" lon="-2.65391">
        <ele>95.57085</ele>
        <time>2023-05-04T14:44:01.093Z</time>
      </trkpt>
      <trkpt lat="47.99669" lon="-2.65397">
        <ele>95.722891</ele>
        <time>2023-05-04T14:44:04.091Z</time>
      </trkpt>
      <trkpt lat="47.99659" lon="-2.65403">
        <ele>95.823748</ele>
        <time>2023-05-04T14:44:07.093Z</time>
      </trkpt>
      <trkpt lat="47.99649" lon="-2.6541">
        <ele>95.934739</ele>
        <time>2023-05-04T14:44:10.091Z</time>
      </trkpt>
      <trkpt lat="47.99637" lon="-2.65416">
        <ele>96.052074</ele>
        <time>2023-05-04T14:44:13.089Z</time>
      </trkpt>
      <trkpt lat="47.99626" lon="-2.65422">
        <ele>96.170158</ele>
        <time>2023-05-04T14:44:16.087Z</time>
      </trkpt>
      <trkpt lat="47.99614" lon="-2.65428">
        <ele>96.288037</ele>
        <time>2023-05-04T14:44:19.093Z</time>
      </trkpt>
      <trkpt lat="47.99604" lon="-2.65433">
        <ele>96.388918</ele>
        <time>2023-05-04T14:44:22.094Z</time>
      </trkpt>
      <trkpt lat="47.99596" lon="-2.65438">
        <ele>96.476052</ele>
        <time>2023-05-04T14:44:25.091Z</time>
      </trkpt>
      <trkpt lat="47.99588" lon="-2.65443">
        <ele>96.563964</ele>
        <time>2023-05-04T14:44:28.095Z</time>
      </trkpt>
      <trkpt lat="47.99577" lon="-2.65449">
        <ele>96.669773</ele>
        <time>2023-05-04T14:44:32.092Z</time>
      </trkpt>
      <trkpt lat="47.99569" lon="-2.65456">
        <ele>96.764621</ele>
        <time>2023-05-04T14:44:36.088Z</time>
      </trkpt>
      <trkpt lat="47.99558" lon="-2.65465">
        <ele>96.88331</ele>
        <time>2023-05-04T14:44:40.089Z</time>
      </trkpt>
      <trkpt lat="47.99548" lon="-2.65472">
        <ele>96.987018</ele>
        <time>2023-05-04T14:44:43.091Z</time>
      </trkpt>
      <trkpt lat="47.99538" lon="-2.65479">
        <ele>97.098274</ele>
        <time>2023-05-04T14:44:46.090Z</time>
      </trkpt>
      <trkpt lat="47.99528" lon="-2.65486">
        <ele>97.197375</ele>
        <time>2023-05-04T14:44:49.089Z</time>
      </trkpt>
      <trkpt lat="47.9952" lon="-2.65492">
        <ele>97.293004</ele>
        <time>2023-05-04T14:44:52.086Z</time>
      </trkpt>
      <trkpt lat="47.99511" lon="-2.655">
        <ele>97.386638</ele>
        <time>2023-05-04T14:44:55.086Z</time>
      </trkpt>
      <trkpt lat="47.99504" lon="-2.65509">
        <ele>97.422181</ele>
        <time>2023-05-04T14:44:58.095Z</time>
      </trkpt>
      <trkpt lat="47.99494" lon="-2.6552">
        <ele>97.252115</ele>
        <time>2023-05-04T14:45:02.090Z</time>
      </trkpt>
      <trkpt lat="47.99487" lon="-2.65529">
        <ele>97.110771</ele>
        <time>2023-05-04T14:45:05.092Z</time>
      </trkpt>
      <trkpt lat="47.99478" lon="-2.65535">
        <ele>96.971666</ele>
        <time>2023-05-04T14:45:08.093Z</time>
      </trkpt>
      <trkpt lat="47.99469" lon="-2.65544">
        <ele>96.822053</ele>
        <time>2023-05-04T14:45:11.090Z</time>
      </trkpt>
      <trkpt lat="47.9946" lon="-2.65553">
        <ele>96.663465</ele>
        <time>2023-05-04T14:45:14.091Z</time>
      </trkpt>
      <trkpt lat="47.99451" lon="-2.65561">
        <ele>96.516949</ele>
        <time>2023-05-04T14:45:17.090Z</time>
      </trkpt>
      <trkpt lat="47.99441" lon="-2.65568">
        <ele>96.359463</ele>
        <time>2023-05-04T14:45:20.089Z</time>
      </trkpt>
      <trkpt lat="47.99431" lon="-2.65573">
        <ele>96.206369</ele>
        <time>2023-05-04T14:45:23.090Z</time>
      </trkpt>
      <trkpt lat="47.99421" lon="-2.65575">
        <ele>96.055579</ele>
        <time>2023-05-04T14:45:26.092Z</time>
      </trkpt>
      <trkpt lat="47.9941" lon="-2.65576">
        <ele>95.906041</ele>
        <time>2023-05-04T14:45:29.093Z</time>
      </trkpt>
      <trkpt lat="47.994" lon="-2.65576">
        <ele>95.75257</ele>
        <time>2023-05-04T14:45:32.088Z</time>
      </trkpt>
      <trkpt lat="47.99389" lon="-2.65576">
        <ele>95.601921</ele>
        <time>2023-05-04T14:45:35.090Z</time>
      </trkpt>
      <trkpt lat="47.99378" lon="-2.65575">
        <ele>95.446873</ele>
        <time>2023-05-04T14:45:39.090Z</time>
      </trkpt>
      <trkpt lat="47.99367" lon="-2.65575">
        <ele>95.277617</ele>
        <time>2023-05-04T14:45:43.093Z</time>
      </trkpt>
      <trkpt lat="47.99357" lon="-2.65572">
        <ele>95.140676</ele>
        <time>2023-05-04T14:45:46.093Z</time>
      </trkpt>
      <trkpt lat="47.99348" lon="-2.6557">
        <ele>95.005913</ele>
        <time>2023-05-04T14:45:49.097Z</time>
      </trkpt>
      <trkpt lat="47.99338" lon="-2.65568">
        <ele>94.806992</ele>
        <time>2023-05-04T14:45:52.090Z</time>
      </trkpt>
      <trkpt lat="47.99329" lon="-2.65566">
        <ele>94.377806</ele>
        <time>2023-05-04T14:45:54.096Z</time>
      </trkpt>
      <trkpt lat="47.99317" lon="-2.65565">
        <ele>93.820985</ele>
        <time>2023-05-04T14:45:57.094Z</time>
      </trkpt>
      <trkpt lat="47.99306" lon="-2.65564">
        <ele>93.327837</ele>
        <time>2023-05-04T14:46:00.086Z</time>
      </trkpt>
      <trkpt lat="47.99297" lon="-2.65564">
        <ele>92.882236</ele>
        <time>2023-05-04T14:46:03.086Z</time>
      </trkpt>
      <trkpt lat="47.99288" lon="-2.65563">
        <ele>92.441294</ele>
        <time>2023-05-04T14:46:06.086Z</time>
      </trkpt>
      <trkpt lat="47.99277" lon="-2.65561">
        <ele>91.94772</ele>
        <time>2023-05-04T14:46:10.086Z</time>
      </trkpt>
      <trkpt lat="47.99267" lon="-2.65559">
        <ele>91.469128</ele>
        <time>2023-05-04T14:46:14.087Z</time>
      </trkpt>
      <trkpt lat="47.99256" lon="-2.65555">
        <ele>90.936111</ele>
        <time>2023-05-04T14:46:18.095Z</time>
      </trkpt>
      <trkpt lat="47.99246" lon="-2.65553">
        <ele>90.445714</ele>
        <time>2023-05-04T14:46:21.090Z</time>
      </trkpt>
      <trkpt lat="47.99236" lon="-2.65548">
        <ele>89.938894</ele>
        <time>2023-05-04T14:46:24.086Z</time>
      </trkpt>
      <trkpt lat="47.99225" lon="-2.65541">
        <ele>89.386576</ele>
        <time>2023-05-04T14:46:27.094Z</time>
      </trkpt>
      <trkpt lat="47.99215" lon="-2.65534">
        <ele>88.852052</ele>
        <time>2023-05-04T14:46:30.090Z</time>
      </trkpt>
      <trkpt lat="47.99205" lon="-2.65529">
        <ele>88.342292</ele>
        <time>2023-05-04T14:46:33.088Z</time>
      </trkpt>
      <trkpt lat="47.99196" lon="-2.65522">
        <ele>87.875554</ele>
        <time>2023-05-04T14:46:36.090Z</time>
      </trkpt>
      <trkpt lat="47.99188" lon="-2.65515">
        <ele>87.422779</ele>
        <time>2023-05-04T14:46:40.092Z</time>
      </trkpt>
      <trkpt lat="47.99179" lon="-2.65508">
        <ele>86.929095</ele>
        <time>2023-05-04T14:46:47.091Z</time>
      </trkpt>
      <trkpt lat="47.9917" lon="-2.65503">
        <ele>86.475786</ele>
        <time>2023-05-04T14:46:50.091Z</time>
      </trkpt>
      <trkpt lat="47.99159" lon="-2.65497">
        <ele>86.319604</ele>
        <time>2023-05-04T14:46:55.088Z</time>
      </trkpt>
      <trkpt lat="47.99149" lon="-2.65491">
        <ele>86.276351</ele>
        <time>2023-05-04T14:46:58.094Z</time>
      </trkpt>
      <trkpt lat="47.99139" lon="-2.65486">
        <ele>86.233086</ele>
        <time>2023-05-04T14:47:01.090Z</time>
      </trkpt>
      <trkpt lat="47.99129" lon="-2.65477">
        <ele>86.186002</ele>
        <time>2023-05-04T14:47:04.093Z</time>
      </trkpt>
      <trkpt lat="47.99119" lon="-2.65468">
        <ele>86.141909</ele>
        <time>2023-05-04T14:47:07.093Z</time>
      </trkpt>
      <trkpt lat="47.99112" lon="-2.65459">
        <ele>86.102676</ele>
        <time>2023-05-04T14:47:10.092Z</time>
      </trkpt>
      <trkpt lat="47.99103" lon="-2.65451">
        <ele>86.0626</ele>
        <time>2023-05-04T14:47:13.097Z</time>
      </trkpt>
      <trkpt lat="47.99093" lon="-2.65442">
        <ele>86.015939</ele>
        <time>2023-05-04T14:47:17.094Z</time>
      </trkpt>
      <trkpt lat="47.99085" lon="-2.65434">
        <ele>85.976104</ele>
        <time>2023-05-04T14:47:21.094Z</time>
      </trkpt>
      <trkpt lat="47.99075" lon="-2.65424">
        <ele>85.929029</ele>
        <time>2023-05-04T14:47:24.080Z</time>
      </trkpt>
      <trkpt lat="47.99067" lon="-2.65416">
        <ele>85.89153</ele>
        <time>2023-05-04T14:47:26.085Z</time>
      </trkpt>
      <trkpt lat="47.99056" lon="-2.65406">
        <ele>85.837477</ele>
        <time>2023-05-04T14:47:29.097Z</time>
      </trkpt>
      <trkpt lat="47.99045" lon="-2.65396">
        <ele>85.786513</ele>
        <time>2023-05-04T14:47:32.089Z</time>
      </trkpt>
      <trkpt lat="47.99036" lon="-2.65389">
        <ele>85.747322</ele>
        <time>2023-05-04T14:47:34.087Z</time>
      </trkpt>
      <trkpt lat="47.99025" lon="-2.6538">
        <ele>85.697857</ele>
        <time>2023-05-04T14:47:37.092Z</time>
      </trkpt>
      <trkpt lat="47.99015" lon="-2.6537">
        <ele>85.649163</ele>
        <time>2023-05-04T14:47:40.090Z</time>
      </trkpt>
      <trkpt lat="47.99006" lon="-2.65359">
        <ele>85.99799</ele>
        <time>2023-05-04T14:47:43.095Z</time>
      </trkpt>
      <trkpt lat="47.98999" lon="-2.65349">
        <ele>86.407419</ele>
        <time>2023-05-04T14:47:47.097Z</time>
      </trkpt>
      <trkpt lat="47.98992" lon="-2.65338">
        <ele>86.822012</ele>
        <time>2023-05-04T14:47:51.096Z</time>
      </trkpt>
      <trkpt lat="47.98988" lon="-2.65323">
        <ele>87.285397</ele>
        <time>2023-05-04T14:47:55.100Z</time>
      </trkpt>
      <trkpt lat="47.98983" lon="-2.65307">
        <ele>87.767727</ele>
        <time>2023-05-04T14:47:58.099Z</time>
      </trkpt>
      <trkpt lat="47.98979" lon="-2.65291">
        <ele>88.268724</ele>
        <time>2023-05-04T14:48:01.085Z</time>
      </trkpt>
      <trkpt lat="47.98974" lon="-2.65278">
        <ele>88.683866</ele>
        <time>2023-05-04T14:48:04.097Z</time>
      </trkpt>
      <trkpt lat="47.9897" lon="-2.65264">
        <ele>89.115018</ele>
        <time>2023-05-04T14:48:07.095Z</time>
      </trkpt>
      <trkpt lat="47.98967" lon="-2.65251">
        <ele>89.513804</ele>
        <time>2023-05-04T14:48:10.098Z</time>
      </trkpt>
      <trkpt lat="47.98961" lon="-2.65237">
        <ele>89.968014</ele>
        <time>2023-05-04T14:48:13.094Z</time>
      </trkpt>
      <trkpt lat="47.98956" lon="-2.65223">
        <ele>90.425578</ele>
        <time>2023-05-04T14:48:16.096Z</time>
      </trkpt>
      <trkpt lat="47.98951" lon="-2.65208">
        <ele>90.916814</ele>
        <time>2023-05-04T14:48:19.093Z</time>
      </trkpt>
      <trkpt lat="47.98945" lon="-2.65191">
        <ele>91.423359</ele>
        <time>2023-05-04T14:48:22.097Z</time>
      </trkpt>
      <trkpt lat="47.98407" lon="-2.64732">
        <ele>102.258918</ele>
        <time>2023-05-04T14:51:47.085Z</time>
      </trkpt>
      <trkpt lat="47.98404" lon="-2.64719">
        <ele>101.837697</ele>
        <time>2023-05-04T14:51:52.086Z</time>
      </trkpt>
      <trkpt lat="47.984" lon="-2.64704">
        <ele>101.356808</ele>
        <time>2023-05-04T14:51:57.087Z</time>
      </trkpt>
      <trkpt lat="47.98396" lon="-2.6469">
        <ele>100.893184</ele>
        <time>2023-05-04T14:52:01.084Z</time>
      </trkpt>
      <trkpt lat="47.98393" lon="-2.64677">
        <ele>100.480682</ele>
        <time>2023-05-04T14:52:18.096Z</time>
      </trkpt>
      <trkpt lat="47.9839" lon="-2.64662">
        <ele>100.023157</ele>
        <time>2023-05-04T14:52:22.085Z</time>
      </trkpt>
      <trkpt lat="47.98385" lon="-2.64647">
        <ele>99.493311</ele>
        <time>2023-05-04T14:52:26.090Z</time>
      </trkpt>
      <trkpt lat="47.98383" lon="-2.6463">
        <ele>98.993091</ele>
        <time>2023-05-04T14:52:30.085Z</time>
      </trkpt>
      <trkpt lat="47.9838" lon="-2.64615">
        <ele>98.508564</ele>
        <time>2023-05-04T14:52:33.087Z</time>
      </trkpt>
      <trkpt lat="47.98377" lon="-2.646">
        <ele>98.028737</ele>
        <time>2023-05-04T14:52:36.088Z</time>
      </trkpt>
      <trkpt lat="47.98373" lon="-2.64585">
        <ele>97.556715</ele>
        <time>2023-05-04T14:52:39.087Z</time>
      </trkpt>
      <trkpt lat="47.98371" lon="-2.6457">
        <ele>97.104573</ele>
        <time>2023-05-04T14:52:43.087Z</time>
      </trkpt>
      <trkpt lat="47.98371" lon="-2.64553">
        <ele>96.587877</ele>
        <time>2023-05-04T14:52:47.085Z</time>
      </trkpt>
      <trkpt lat="47.98371" lon="-2.64539">
        <ele>96.146665</ele>
        <time>2023-05-04T14:52:50.085Z</time>
      </trkpt>
      <trkpt lat="47.98369" lon="-2.64523">
        <ele>95.82922</ele>
        <time>2023-05-04T14:52:53.085Z</time>
      </trkpt>
      <trkpt lat="47.9837" lon="-2.64507">
        <ele>95.85499</ele>
        <time>2023-05-04T14:52:56.087Z</time>
      </trkpt>
      <trkpt lat="47.98372" lon="-2.6449">
        <ele>95.882142</ele>
        <time>2023-05-04T14:52:59.083Z</time>
      </trkpt>
      <trkpt lat="47.98376" lon="-2.64475">
        <ele>95.907546</ele>
        <time>2023-05-04T14:53:02.086Z</time>
      </trkpt>
      <trkpt lat="47.98379" lon="-2.6446">
        <ele>95.932829</ele>
        <time>2023-05-04T14:53:05.087Z</time>
      </trkpt>
      <trkpt lat="47.9838" lon="-2.64444">
        <ele>95.958518</ele>
        <time>2023-05-04T14:53:08.088Z</time>
      </trkpt>
      <trkpt lat="47.98382" lon="-2.64428">
        <ele>95.984086</ele>
        <time>2023-05-04T14:53:11.088Z</time>
      </trkpt>
      <trkpt lat="47.98384" lon="-2.64413">
        <ele>96.007329</ele>
        <time>2023-05-04T14:53:14.085Z</time>
      </trkpt>
      <trkpt lat="47.98386" lon="-2.644">
        <ele>96.029464</ele>
        <time>2023-05-04T14:53:17.093Z</time>
      </trkpt>
      <trkpt lat="47.98388" lon="-2.64383">
        <ele>96.056828</ele>
        <time>2023-05-04T14:53:21.092Z</time>
      </trkpt>
      <trkpt lat="47.98391" lon="-2.64367">
        <ele>96.081919</ele>
        <time>2023-05-04T14:53:25.088Z</time>
      </trkpt>
      <trkpt lat="47.98393" lon="-2.64351">
        <ele>96.108507</ele>
        <time>2023-05-04T14:53:29.095Z</time>
      </trkpt>
      <trkpt lat="47.98394" lon="-2.64336">
        <ele>96.131732</ele>
        <time>2023-05-04T14:53:32.090Z</time>
      </trkpt>
      <trkpt lat="47.98397" lon="-2.64322">
        <ele>96.154846</ele>
        <time>2023-05-04T14:53:35.087Z</time>
      </trkpt>
      <trkpt lat="47.98399" lon="-2.64308">
        <ele>96.177745</ele>
        <time>2023-05-04T14:53:38.092Z</time>
      </trkpt>
      <trkpt lat="47.98402" lon="-2.64295">
        <ele>96.199362</ele>
        <time>2023-05-04T14:53:41.096Z</time>
      </trkpt>
      <trkpt lat="47.98404" lon="-2.64279">
        <ele>96.225021</ele>
        <time>2023-05-04T14:53:45.094Z</time>
      </trkpt>
      <trkpt lat="47.98406" lon="-2.64265">
        <ele>96.232257</ele>
        <time>2023-05-04T14:53:48.099Z</time>
      </trkpt>
      <trkpt lat="47.9841" lon="-2.64249">
        <ele>95.98878</ele>
        <time>2023-05-04T14:53:52.097Z</time>
      </trkpt>
      <trkpt lat="47.98412" lon="-2.64233">
        <ele>95.748489</ele>
        <time>2023-05-04T14:53:56.086Z</time>
      </trkpt>
      <trkpt lat="47.98413" lon="-2.64218">
        <ele>95.528811</ele>
        <time>2023-05-04T14:54:00.085Z</time>
      </trkpt>
      <trkpt lat="47.98413" lon="-2.64201">
        <ele>95.284862</ele>
        <time>2023-05-04T14:54:04.086Z</time>
      </trkpt>
      <trkpt lat="47.98412" lon="-2.64187">
        <ele>95.076939</ele>
        <time>2023-05-04T14:54:07.093Z</time>
      </trkpt>
      <trkpt lat="47.9841" lon="-2.64173">
        <ele>94.865752</ele>
        <time>2023-05-04T14:54:10.085Z</time>
      </trkpt>
      <trkpt lat="47.98404" lon="-2.64161">
        <ele>94.648562</ele>
        <time>2023-05-04T14:54:13.086Z</time>
      </trkpt>
      <trkpt lat="47.98398" lon="-2.64149">
        <ele>94.43034</ele>
        <time>2023-05-04T14:54:16.085Z</time>
      </trkpt>
      <trkpt lat="47.98392" lon="-2.64137">
        <ele>94.217824</ele>
        <time>2023-05-04T14:54:19.083Z</time>
      </trkpt>
      <trkpt lat="47.98386" lon="-2.64126">
        <ele>94.00895</ele>
        <time>2023-05-04T14:54:22.085Z</time>
      </trkpt>
      <trkpt lat="47.98378" lon="-2.64112">
        <ele>93.734538</ele>
        <time>2023-05-04T14:54:25.086Z</time>
      </trkpt>
      <trkpt lat="47.98373" lon="-2.64101">
        <ele>93.536846</ele>
        <time>2023-05-04T14:54:28.085Z</time>
      </trkpt>
      <trkpt lat="47.98367" lon="-2.64089">
        <ele>93.323951</ele>
        <time>2023-05-04T14:54:31.085Z</time>
      </trkpt>
      <trkpt lat="47.98361" lon="-2.64077">
        <ele>93.112865</ele>
        <time>2023-05-04T14:54:35.092Z</time>
      </trkpt>
      <trkpt lat="47.98352" lon="-2.64069">
        <ele>92.878652</ele>
        <time>2023-05-04T14:54:39.087Z</time>
      </trkpt>
      <trkpt lat="47.98346" lon="-2.64057">
        <ele>92.659103</ele>
        <time>2023-05-04T14:54:44.084Z</time>
      </trkpt>
      <trkpt lat="47.98341" lon="-2.64044">
        <ele>92.43765</ele>
        <time>2023-05-04T14:54:50.086Z</time>
      </trkpt>
      <trkpt lat="47.98336" lon="-2.64032">
        <ele>92.345063</ele>
        <time>2023-05-04T14:54:53.087Z</time>
      </trkpt>
      <trkpt lat="47.98328" lon="-2.64018">
        <ele>92.39705</ele>
        <time>2023-05-04T14:54:56.087Z</time>
      </trkpt>
      <trkpt lat="47.98321" lon="-2.64005">
        <ele>92.441389</ele>
        <time>2023-05-04T14:54:58.092Z</time>
      </trkpt>
      <trkpt lat="47.98315" lon="-2.63993">
        <ele>92.481893</ele>
        <time>2023-05-04T14:55:00.086Z</time>
      </trkpt>
      <trkpt lat="47.98309" lon="-2.63982">
        <ele>92.523612</ele>
        <time>2023-05-04T14:55:02.086Z</time>
      </trkpt>
      <trkpt lat="47.98303" lon="-2.63971">
        <ele>92.561677</ele>
        <time>2023-05-04T14:55:04.090Z</time>
      </trkpt>
      <trkpt lat="47.98296" lon="-2.63955">
        <ele>92.615051</ele>
        <time>2023-05-04T14:55:07.086Z</time>
      </trkpt>
      <trkpt lat="47.98288" lon="-2.6394">
        <ele>92.66806</ele>
        <time>2023-05-04T14:55:10.090Z</time>
      </trkpt>
      <trkpt lat="47.9828" lon="-2.63927">
        <ele>92.718454</ele>
        <time>2023-05-04T14:55:13.096Z</time>
      </trkpt>
      <trkpt lat="47.98273" lon="-2.63914">
        <ele>92.764326</ele>
        <time>2023-05-04T14:55:16.088Z</time>
      </trkpt>
      <trkpt lat="47.98266" lon="-2.63902">
        <ele>92.805567</ele>
        <time>2023-05-04T14:55:19.090Z</time>
      </trkpt>
      <trkpt lat="47.9826" lon="-2.63892">
        <ele>92.844572</ele>
        <time>2023-05-04T14:55:22.091Z</time>
      </trkpt>
      <trkpt lat="47.98254" lon="-2.63879">
        <ele>92.888153</ele>
        <time>2023-05-04T14:55:26.089Z</time>
      </trkpt>
      <trkpt lat="47.98248" lon="-2.63869">
        <ele>92.925721</ele>
        <time>2023-05-04T14:55:30.085Z</time>
      </trkpt>
      <trkpt lat="47.98241" lon="-2.63858">
        <ele>92.967226</ele>
        <time>2023-05-04T14:55:35.095Z</time>
      </trkpt>
      <trkpt lat="47.98235" lon="-2.63845">
        <ele>93.011542</ele>
        <time>2023-05-04T14:55:39.088Z</time>
      </trkpt>
      <trkpt lat="47.98229" lon="-2.63816">
        <ele>93.129603</ele>
        <time>2023-05-04T15:01:41.092Z</time>
      </trkpt>
      <trkpt lat="47.98223" lon="-2.63804">
        <ele>93.230583</ele>
        <time>2023-05-04T15:01:45.085Z</time>
      </trkpt>
      <trkpt lat="47.98216" lon="-2.63794">
        <ele>93.325664</ele>
        <time>2023-05-04T15:01:49.084Z</time>
      </trkpt>
      <trkpt lat="47.98209" lon="-2.63784">
        <ele>93.426503</ele>
        <time>2023-05-04T15:01:53.091Z</time>
      </trkpt>
      <trkpt lat="47.982" lon="-2.63774">
        <ele>93.54375</ele>
        <time>2023-05-04T15:01:56.093Z</time>
      </trkpt>
      <trkpt lat="47.98192" lon="-2.63763">
        <ele>93.654902</ele>
        <time>2023-05-04T15:01:59.090Z</time>
      </trkpt>
      <trkpt lat="47.98186" lon="-2.63751">
        <ele>93.757579</ele>
        <time>2023-05-04T15:02:02.088Z</time>
      </trkpt>
      <trkpt lat="47.98178" lon="-2.63739">
        <ele>93.8642</ele>
        <time>2023-05-04T15:02:05.088Z</time>
      </trkpt>
      <trkpt lat="47.98173" lon="-2.63729">
        <ele>93.957759</ele>
        <time>2023-05-04T15:02:08.094Z</time>
      </trkpt>
      <trkpt lat="47.98167" lon="-2.63718">
        <ele>94.054931</ele>
        <time>2023-05-04T15:02:11.089Z</time>
      </trkpt>
      <trkpt lat="47.98159" lon="-2.63704">
        <ele>94.176246</ele>
        <time>2023-05-04T15:02:14.090Z</time>
      </trkpt>
      <trkpt lat="47.98153" lon="-2.63693">
        <ele>94.269042</ele>
        <time>2023-05-04T15:02:17.089Z</time>
      </trkpt>
      <trkpt lat="47.98147" lon="-2.6368">
        <ele>94.377041</ele>
        <time>2023-05-04T15:02:21.089Z</time>
      </trkpt>
      <trkpt lat="47.9814" lon="-2.63665">
        <ele>94.501501</ele>
        <time>2023-05-04T15:02:25.086Z</time>
      </trkpt>
      <trkpt lat="47.98134" lon="-2.63654">
        <ele>94.595693</ele>
        <time>2023-05-04T15:02:28.087Z</time>
      </trkpt>
      <trkpt lat="47.98128" lon="-2.63644">
        <ele>94.690127</ele>
        <time>2023-05-04T15:02:31.091Z</time>
      </trkpt>
      <trkpt lat="47.98122" lon="-2.63632">
        <ele>94.790476</ele>
        <time>2023-05-04T15:02:34.089Z</time>
      </trkpt>
      <trkpt lat="47.98116" lon="-2.6362">
        <ele>94.889467</ele>
        <time>2023-05-04T15:02:37.093Z</time>
      </trkpt>
      <trkpt lat="47.98109" lon="-2.63607">
        <ele>95.018244</ele>
        <time>2023-05-04T15:02:41.094Z</time>
      </trkpt>
      <trkpt lat="47.98104" lon="-2.63596">
        <ele>95.119101</ele>
        <time>2023-05-04T15:02:45.087Z</time>
      </trkpt>
      <trkpt lat="47.98098" lon="-2.63585">
        <ele>95.225215</ele>
        <time>2023-05-04T15:02:48.090Z</time>
      </trkpt>
      <trkpt lat="47.98092" lon="-2.63573">
        <ele>95.33493</ele>
        <time>2023-05-04T15:02:51.088Z</time>
      </trkpt>
      <trkpt lat="47.98085" lon="-2.63562">
        <ele>95.444619</ele>
        <time>2023-05-04T15:02:54.093Z</time>
      </trkpt>
      <trkpt lat="47.98078" lon="-2.6355">
        <ele>95.564303</ele>
        <time>2023-05-04T15:02:57.089Z</time>
      </trkpt>
      <trkpt lat="47.98073" lon="-2.63538">
        <ele>95.673742</ele>
        <time>2023-05-04T15:03:00.087Z</time>
      </trkpt>
      <trkpt lat="47.98066" lon="-2.63525">
        <ele>95.793166</ele>
        <time>2023-05-04T15:03:03.094Z</time>
      </trkpt>
      <trkpt lat="47.9806" lon="-2.63512">
        <ele>95.913851</ele>
        <time>2023-05-04T15:03:06.095Z</time>
      </trkpt>
      <trkpt lat="47.98053" lon="-2.63499">
        <ele>96.035798</ele>
        <time>2023-05-04T15:03:09.093Z</time>
      </trkpt>
      <trkpt lat="47.98046" lon="-2.63485">
        <ele>96.165842</ele>
        <time>2023-05-04T15:03:12.090Z</time>
      </trkpt>
      <trkpt lat="47.98038" lon="-2.63471">
        <ele>96.300746</ele>
        <time>2023-05-04T15:03:15.090Z</time>
      </trkpt>
      <trkpt lat="47.9803" lon="-2.63457">
        <ele>96.434847</ele>
        <time>2023-05-04T15:03:18.085Z</time>
      </trkpt>
      <trkpt lat="47.98023" lon="-2.63444">
        <ele>96.562197</ele>
        <time>2023-05-04T15:03:21.087Z</time>
      </trkpt>
      <trkpt lat="47.98016" lon="-2.63432">
        <ele>96.683561</ele>
        <time>2023-05-04T15:03:24.089Z</time>
      </trkpt>
      <trkpt lat="47.98008" lon="-2.63418">
        <ele>96.818094</ele>
        <time>2023-05-04T15:03:27.087Z</time>
      </trkpt>
      <trkpt lat="47.98001" lon="-2.63404">
        <ele>96.868057</ele>
        <time>2023-05-04T15:03:31.086Z</time>
      </trkpt>
      <trkpt lat="47.97995" lon="-2.63393">
        <ele>96.804875</ele>
        <time>2023-05-04T15:03:34.088Z</time>
      </trkpt>
      <trkpt lat="47.97989" lon="-2.63379">
        <ele>96.726775</ele>
        <time>2023-05-04T15:03:37.085Z</time>
      </trkpt>
      <trkpt lat="47.97984" lon="-2.63366">
        <ele>96.660515</ele>
        <time>2023-05-04T15:03:40.079Z</time>
      </trkpt>
      <trkpt lat="47.9798" lon="-2.63351">
        <ele>96.582144</ele>
        <time>2023-05-04T15:03:45.091Z</time>
      </trkpt>
      <trkpt lat="47.97972" lon="-2.63337">
        <ele>96.500297</ele>
        <time>2023-05-04T15:03:48.093Z</time>
      </trkpt>
      <trkpt lat="47.97967" lon="-2.63323">
        <ele>96.424122</ele>
        <time>2023-05-04T15:03:51.087Z</time>
      </trkpt>
      <trkpt lat="47.97959" lon="-2.63308">
        <ele>96.337545</ele>
        <time>2023-05-04T15:03:54.091Z</time>
      </trkpt>
      <trkpt lat="47.97949" lon="-2.63294">
        <ele>96.244769</ele>
        <time>2023-05-04T15:03:57.076Z</time>
      </trkpt>
      <trkpt lat="47.97943" lon="-2.63283">
        <ele>96.180498</ele>
        <time>2023-05-04T15:03:59.081Z</time>
      </trkpt>
      <trkpt lat="47.97936" lon="-2.6327">
        <ele>96.101808</ele>
        <time>2023-05-04T15:04:02.085Z</time>
      </trkpt>
      <trkpt lat="47.97929" lon="-2.63256">
        <ele>96.019784</ele>
        <time>2023-05-04T15:04:05.085Z</time>
      </trkpt>
      <trkpt lat="47.97922" lon="-2.63244">
        <ele>95.949476</ele>
        <time>2023-05-04T15:04:08.085Z</time>
      </trkpt>
      <trkpt lat="47.97915" lon="-2.63233">
        <ele>95.878115</ele>
        <time>2023-05-04T15:04:11.083Z</time>
      </trkpt>
      <trkpt lat="47.97909" lon="-2.63221">
        <ele>95.807467</ele>
        <time>2023-05-04T15:04:14.095Z</time>
      </trkpt>
      <trkpt lat="47.97902" lon="-2.63208">
        <ele>95.731278</ele>
        <time>2023-05-04T15:04:17.090Z</time>
      </trkpt>
      <trkpt lat="47.97894" lon="-2.63197">
        <ele>95.653312</ele>
        <time>2023-05-04T15:04:20.083Z</time>
      </trkpt>
      <trkpt lat="47.97887" lon="-2.63188">
        <ele>95.455526</ele>
        <time>2023-05-04T15:04:23.090Z</time>
      </trkpt>
      <trkpt lat="47.9788" lon="-2.63176">
        <ele>95.255274</ele>
        <time>2023-05-04T15:04:26.089Z</time>
      </trkpt>
      <trkpt lat="47.97872" lon="-2.63163">
        <ele>95.019526</ele>
        <time>2023-05-04T15:04:29.090Z</time>
      </trkpt>
      <trkpt lat="47.97865" lon="-2.6315">
        <ele>94.789219</ele>
        <time>2023-05-04T15:04:32.088Z</time>
      </trkpt>
      <trkpt lat="47.97857" lon="-2.63136">
        <ele>94.556095</ele>
        <time>2023-05-04T15:04:35.087Z</time>
      </trkpt>
      <trkpt lat="47.9785" lon="-2.63121">
        <ele>94.306219</ele>
        <time>2023-05-04T15:04:38.084Z</time>
      </trkpt>
      <trkpt lat="47.97844" lon="-2.63108">
        <ele>94.085199</ele>
        <time>2023-05-04T15:04:41.084Z</time>
      </trkpt>
      <trkpt lat="47.97838" lon="-2.63095">
        <ele>93.885245</ele>
        <time>2023-05-04T15:04:44.083Z</time>
      </trkpt>
      <trkpt lat="47.97831" lon="-2.63081">
        <ele>93.651877</ele>
        <time>2023-05-04T15:04:48.087Z</time>
      </trkpt>
      <trkpt lat="47.97824" lon="-2.63068">
        <ele>93.422861</ele>
        <time>2023-05-04T15:04:52.088Z</time>
      </trkpt>
      <trkpt lat="47.97816" lon="-2.63057">
        <ele>93.20456</ele>
        <time>2023-05-04T15:04:55.090Z</time>
      </trkpt>
      <trkpt lat="47.97808" lon="-2.63044">
        <ele>92.982202</ele>
        <time>2023-05-04T15:04:58.094Z</time>
      </trkpt>
      <trkpt lat="47.97802" lon="-2.63034">
        <ele>92.783699</ele>
        <time>2023-05-04T15:05:01.093Z</time>
      </trkpt>
      <trkpt lat="47.97794" lon="-2.63022">
        <ele>92.558827</ele>
        <time>2023-05-04T15:05:04.087Z</time>
      </trkpt>
      <trkpt lat="47.97786" lon="-2.6301">
        <ele>92.340836</ele>
        <time>2023-05-04T15:05:07.085Z</time>
      </trkpt>
      <trkpt lat="47.97779" lon="-2.62997">
        <ele>92.113102</ele>
        <time>2023-05-04T15:05:10.093Z</time>
      </trkpt>
      <trkpt lat="47.97772" lon="-2.62983">
        <ele>92.041249</ele>
        <time>2023-05-04T15:05:13.088Z</time>
      </trkpt>
      <trkpt lat="47.97765" lon="-2.6297">
        <ele>92.005836</ele>
        <time>2023-05-04T15:05:16.090Z</time>
      </trkpt>
      <trkpt lat="47.97759" lon="-2.62959">
        <ele>91.975957</ele>
        <time>2023-05-04T15:05:19.091Z</time>
      </trkpt>
      <trkpt lat="47.97753" lon="-2.62949">
        <ele>91.946215</ele>
        <time>2023-05-04T15:05:23.086Z</time>
      </trkpt>
      <trkpt lat="47.97747" lon="-2.62935">
        <ele>91.909928</ele>
        <time>2023-05-04T15:05:27.088Z</time>
      </trkpt>
      <trkpt lat="47.9774" lon="-2.62925">
        <ele>91.877991</ele>
        <time>2023-05-04T15:05:30.089Z</time>
      </trkpt>
      <trkpt lat="47.97733" lon="-2.62913">
        <ele>91.844307</ele>
        <time>2023-05-04T15:05:33.090Z</time>
      </trkpt>
      <trkpt lat="47.97725" lon="-2.62899">
        <ele>91.804334</ele>
        <time>2023-05-04T15:05:37.091Z</time>
      </trkpt>
      <trkpt lat="47.97718" lon="-2.62887">
        <ele>91.770706</ele>
        <time>2023-05-04T15:05:40.088Z</time>
      </trkpt>
      <trkpt lat="47.97712" lon="-2.62872">
        <ele>91.733173</ele>
        <time>2023-05-04T15:05:43.088Z</time>
      </trkpt>
      <trkpt lat="47.97706" lon="-2.62858">
        <ele>91.69636</ele>
        <time>2023-05-04T15:05:46.089Z</time>
      </trkpt>
      <trkpt lat="47.97701" lon="-2.62844">
        <ele>91.663597</ele>
        <time>2023-05-04T15:05:49.088Z</time>
      </trkpt>
      <trkpt lat="47.97696" lon="-2.62831">
        <ele>91.630726</ele>
        <time>2023-05-04T15:05:53.085Z</time>
      </trkpt>
      <trkpt lat="47.9769" lon="-2.62819">
        <ele>91.597808</ele>
        <time>2023-05-04T15:05:58.090Z</time>
      </trkpt>
      <trkpt lat="47.97685" lon="-2.62807">
        <ele>91.567286</ele>
        <time>2023-05-04T15:06:02.088Z</time>
      </trkpt>
      <trkpt lat="47.97678" lon="-2.62797">
        <ele>91.536263</ele>
        <time>2023-05-04T15:06:06.093Z</time>
      </trkpt>
      <trkpt lat="47.97672" lon="-2.62787">
        <ele>91.506855</ele>
        <time>2023-05-04T15:06:09.091Z</time>
      </trkpt>
      <trkpt lat="47.97665" lon="-2.62773">
        <ele>91.613198</ele>
        <time>2023-05-04T15:06:13.084Z</time>
      </trkpt>
      <trkpt lat="47.97659" lon="-2.6276">
        <ele>91.77829</ele>
        <time>2023-05-04T15:06:16.083Z</time>
      </trkpt>
      <trkpt lat="47.97654" lon="-2.62749">
        <ele>91.932009</ele>
        <time>2023-05-04T15:06:19.088Z</time>
      </trkpt>
      <trkpt lat="47.97647" lon="-2.62736">
        <ele>92.127191</ele>
        <time>2023-05-04T15:06:23.090Z</time>
      </trkpt>
      <trkpt lat="47.97641" lon="-2.62726">
        <ele>92.286187</ele>
        <time>2023-05-04T15:06:27.088Z</time>
      </trkpt>
      <trkpt lat="47.97634" lon="-2.62713">
        <ele>92.473415</ele>
        <time>2023-05-04T15:06:32.085Z</time>
      </trkpt>
      <trkpt lat="47.97626" lon="-2.62703">
        <ele>92.64331</ele>
        <time>2023-05-04T15:06:37.088Z</time>
      </trkpt>
      <trkpt lat="47.9762" lon="-2.62691">
        <ele>92.817427</ele>
        <time>2023-05-04T15:06:43.083Z</time>
      </trkpt>
      <trkpt lat="47.97616" lon="-2.62675">
        <ele>93.011181</ele>
        <time>2023-05-04T15:06:48.091Z</time>
      </trkpt>
      <trkpt lat="47.97611" lon="-2.62663">
        <ele>93.178197</ele>
        <time>2023-05-04T15:06:51.091Z</time>
      </trkpt>
      <trkpt lat="47.97605" lon="-2.62652">
        <ele>93.336214</ele>
        <time>2023-05-04T15:06:53.087Z</time>
      </trkpt>
      <trkpt lat="47.97597" lon="-2.62642">
        <ele>93.508761</ele>
        <time>2023-05-04T15:06:55.081Z</time>
      </trkpt>
      <trkpt lat="47.9759" lon="-2.6263">
        <ele>93.69025</ele>
        <time>2023-05-04T15:06:57.089Z</time>
      </trkpt>
      <trkpt lat="47.97583" lon="-2.62617">
        <ele>93.878527</ele>
        <time>2023-05-04T15:06:59.085Z</time>
      </trkpt>
      <trkpt lat="47.97577" lon="-2.62606">
        <ele>94.046983</ele>
        <time>2023-05-04T15:07:01.087Z</time>
      </trkpt>
      <trkpt lat="47.97571" lon="-2.62595">
        <ele>94.213494</ele>
        <time>2023-05-04T15:07:03.090Z</time>
      </trkpt>
      <trkpt lat="47.97562" lon="-2.6258">
        <ele>94.433343</ele>
        <time>2023-05-04T15:07:06.094Z</time>
      </trkpt>
      <trkpt lat="47.97555" lon="-2.62566">
        <ele>94.547723</ele>
        <time>2023-05-04T15:07:09.093Z</time>
      </trkpt>
      <trkpt lat="47.97546" lon="-2.62552">
        <ele>94.563296</ele>
        <time>2023-05-04T15:07:12.088Z</time>
      </trkpt>
      <trkpt lat="47.9754" lon="-2.62539">
        <ele>94.577006</ele>
        <time>2023-05-04T15:07:15.091Z</time>
      </trkpt>
      <trkpt lat="47.97534" lon="-2.62527">
        <ele>94.58945</ele>
        <time>2023-05-04T15:07:18.087Z</time>
      </trkpt>
      <trkpt lat="47.97528" lon="-2.62516">
        <ele>94.600983</ele>
        <time>2023-05-04T15:07:21.088Z</time>
      </trkpt>
      <trkpt lat="47.97522" lon="-2.62505">
        <ele>94.613513</ele>
        <time>2023-05-04T15:07:24.091Z</time>
      </trkpt>
      <trkpt lat="47.97516" lon="-2.62495">
        <ele>94.625029</ele>
        <time>2023-05-04T15:07:27.094Z</time>
      </trkpt>
      <trkpt lat="47.97509" lon="-2.62485">
        <ele>94.636988</ele>
        <time>2023-05-04T15:07:30.093Z</time>
      </trkpt>
      <trkpt lat="47.97501" lon="-2.62474">
        <ele>94.650147</ele>
        <time>2023-05-04T15:07:33.098Z</time>
      </trkpt>
      <trkpt lat="47.97494" lon="-2.62464">
        <ele>94.663081</ele>
        <time>2023-05-04T15:07:36.096Z</time>
      </trkpt>
      <trkpt lat="47.97487" lon="-2.62456">
        <ele>94.67452</ele>
        <time>2023-05-04T15:07:39.090Z</time>
      </trkpt>
      <trkpt lat="47.97479" lon="-2.62449">
        <ele>94.685919</ele>
        <time>2023-05-04T15:07:42.095Z</time>
      </trkpt>
      <trkpt lat="47.97469" lon="-2.62442">
        <ele>94.700201</ele>
        <time>2023-05-04T15:07:46.090Z</time>
      </trkpt>
      <trkpt lat="47.9746" lon="-2.62437">
        <ele>94.712144</ele>
        <time>2023-05-04T15:07:49.095Z</time>
      </trkpt>
      <trkpt lat="47.97449" lon="-2.62431">
        <ele>94.726277</ele>
        <time>2023-05-04T15:07:52.086Z</time>
      </trkpt>
      <trkpt lat="47.97439" lon="-2.62426">
        <ele>94.7398</ele>
        <time>2023-05-04T15:07:55.090Z</time>
      </trkpt>
      <trkpt lat="47.97429" lon="-2.62423">
        <ele>94.752744</ele>
        <time>2023-05-04T15:07:58.093Z</time>
      </trkpt>
      <trkpt lat="47.97419" lon="-2.62419">
        <ele>94.765529</ele>
        <time>2023-05-04T15:08:01.092Z</time>
      </trkpt>
      <trkpt lat="47.9741" lon="-2.62418">
        <ele>94.622582</ele>
        <time>2023-05-04T15:08:04.093Z</time>
      </trkpt>
      <trkpt lat="47.97401" lon="-2.62415">
        <ele>94.445235</ele>
        <time>2023-05-04T15:08:07.090Z</time>
      </trkpt>
      <trkpt lat="47.97391" lon="-2.62412">
        <ele>94.26851</ele>
        <time>2023-05-04T15:08:10.086Z</time>
      </trkpt>
      <trkpt lat="47.97382" lon="-2.62408">
        <ele>94.095449</ele>
        <time>2023-05-04T15:08:13.089Z</time>
      </trkpt>
      <trkpt lat="47.97371" lon="-2.62404">
        <ele>93.875107</ele>
        <time>2023-05-04T15:08:17.094Z</time>
      </trkpt>
      <trkpt lat="47.97361" lon="-2.62399">
        <ele>93.679623</ele>
        <time>2023-05-04T15:08:20.088Z</time>
      </trkpt>
      <trkpt lat="47.97349" lon="-2.62394">
        <ele>93.450669</ele>
        <time>2023-05-04T15:08:23.083Z</time>
      </trkpt>
      <trkpt lat="47.97339" lon="-2.6239">
        <ele>93.264863</ele>
        <time>2023-05-04T15:08:25.084Z</time>
      </trkpt>
      <trkpt lat="47.97328" lon="-2.62386">
        <ele>93.041921</ele>
        <time>2023-05-04T15:08:28.090Z</time>
      </trkpt>
      <trkpt lat="47.97316" lon="-2.62382">
        <ele>92.819782</ele>
        <time>2023-05-04T15:08:31.087Z</time>
      </trkpt>
      <trkpt lat="47.97306" lon="-2.62379">
        <ele>92.631027</ele>
        <time>2023-05-04T15:08:34.088Z</time>
      </trkpt>
      <trkpt lat="47.97297" lon="-2.62376">
        <ele>92.45138</ele>
        <time>2023-05-04T15:08:37.095Z</time>
      </trkpt>
      <trkpt lat="47.97286" lon="-2.62372">
        <ele>92.241976</ele>
        <time>2023-05-04T15:08:41.080Z</time>
      </trkpt>
      <trkpt lat="47.97276" lon="-2.6237">
        <ele>92.052023</ele>
        <time>2023-05-04T15:08:45.091Z</time>
      </trkpt>
      <trkpt lat="47.97266" lon="-2.6237">
        <ele>91.882771</ele>
        <time>2023-05-04T15:08:48.090Z</time>
      </trkpt>
      <trkpt lat="47.97257" lon="-2.62367">
        <ele>91.706795</ele>
        <time>2023-05-04T15:08:51.095Z</time>
      </trkpt>
      <trkpt lat="47.97247" lon="-2.62364">
        <ele>91.514383</ele>
        <time>2023-05-04T15:08:54.089Z</time>
      </trkpt>
      <trkpt lat="47.97237" lon="-2.62363">
        <ele>91.432216</ele>
        <time>2023-05-04T15:08:57.092Z</time>
      </trkpt>
      <trkpt lat="47.97227" lon="-2.6236">
        <ele>91.442849</ele>
        <time>2023-05-04T15:09:00.084Z</time>
      </trkpt>
      <trkpt lat="47.97217" lon="-2.62357">
        <ele>91.454849</ele>
        <time>2023-05-04T15:09:03.091Z</time>
      </trkpt>
      <trkpt lat="47.97207" lon="-2.62354">
        <ele>91.465417</ele>
        <time>2023-05-04T15:09:06.087Z</time>
      </trkpt>
      <trkpt lat="47.97198" lon="-2.62351">
        <ele>91.475518</ele>
        <time>2023-05-04T15:09:09.093Z</time>
      </trkpt>
      <trkpt lat="47.97187" lon="-2.62347">
        <ele>91.48837</ele>
        <time>2023-05-04T15:09:13.090Z</time>
      </trkpt>
      <trkpt lat="47.97176" lon="-2.62342">
        <ele>91.499983</ele>
        <time>2023-05-04T15:09:17.091Z</time>
      </trkpt>
      <trkpt lat="47.97167" lon="-2.6234">
        <ele>91.510472</ele>
        <time>2023-05-04T15:09:22.089Z</time>
      </trkpt>
      <trkpt lat="47.97157" lon="-2.62337">
        <ele>91.520961</ele>
        <time>2023-05-04T15:09:28.084Z</time>
      </trkpt>
      <trkpt lat="47.97147" lon="-2.62335">
        <ele>91.532831</ele>
        <time>2023-05-04T15:09:34.091Z</time>
      </trkpt>
      <trkpt lat="47.97136" lon="-2.62332">
        <ele>91.544892</ele>
        <time>2023-05-04T15:09:39.089Z</time>
      </trkpt>
      <trkpt lat="47.97126" lon="-2.62327">
        <ele>91.556052</ele>
        <time>2023-05-04T15:09:43.092Z</time>
      </trkpt>
      <trkpt lat="47.97115" lon="-2.62322">
        <ele>91.568167</ele>
        <time>2023-05-04T15:09:47.088Z</time>
      </trkpt>
      <trkpt lat="47.97104" lon="-2.62318">
        <ele>91.580876</ele>
        <time>2023-05-04T15:09:51.092Z</time>
      </trkpt>
      <trkpt lat="47.97093" lon="-2.62314">
        <ele>91.593517</ele>
        <time>2023-05-04T15:09:55.092Z</time>
      </trkpt>
      <trkpt lat="47.97084" lon="-2.6231">
        <ele>91.603706</ele>
        <time>2023-05-04T15:09:58.090Z</time>
      </trkpt>
      <trkpt lat="47.97072" lon="-2.62306">
        <ele>91.616433</ele>
        <time>2023-05-04T15:10:02.096Z</time>
      </trkpt>
      <trkpt lat="47.97062" lon="-2.62301">
        <ele>91.637755</ele>
        <time>2023-05-04T15:10:06.089Z</time>
      </trkpt>
      <trkpt lat="47.97052" lon="-2.62297">
        <ele>91.665353</ele>
        <time>2023-05-04T15:10:10.081Z</time>
      </trkpt>
      <trkpt lat="47.97043" lon="-2.62291">
        <ele>91.690496</ele>
        <time>2023-05-04T15:10:14.088Z</time>
      </trkpt>
      <trkpt lat="47.97035" lon="-2.62287">
        <ele>91.714689</ele>
        <time>2023-05-04T15:10:18.091Z</time>
      </trkpt>
      <trkpt lat="47.97025" lon="-2.62281">
        <ele>91.742086</ele>
        <time>2023-05-04T15:10:22.088Z</time>
      </trkpt>
      <trkpt lat="47.97016" lon="-2.62274">
        <ele>91.769727</ele>
        <time>2023-05-04T15:10:26.093Z</time>
      </trkpt>
      <trkpt lat="47.97006" lon="-2.62269">
        <ele>91.79706</ele>
        <time>2023-05-04T15:10:30.094Z</time>
      </trkpt>
      <trkpt lat="47.96997" lon="-2.62264">
        <ele>91.824639</ele>
        <time>2023-05-04T15:10:34.097Z</time>
      </trkpt>
      <trkpt lat="47.96987" lon="-2.62255">
        <ele>91.854789</ele>
        <time>2023-05-04T15:10:38.087Z</time>
      </trkpt>
      <trkpt lat="47.96979" lon="-2.62248">
        <ele>91.880938</ele>
        <time>2023-05-04T15:10:41.101Z</time>
      </trkpt>
      <trkpt lat="47.9697" lon="-2.62241">
        <ele>91.906592</ele>
        <time>2023-05-04T15:10:44.092Z</time>
      </trkpt>
      <trkpt lat="47.9696" lon="-2.62232">
        <ele>91.93759</ele>
        <time>2023-05-04T15:10:48.093Z</time>
      </trkpt>
      <trkpt lat="47.96949" lon="-2.62225">
        <ele>91.96953</ele>
        <time>2023-05-04T15:10:52.093Z</time>
      </trkpt>
      <trkpt lat="47.9694" lon="-2.62215">
        <ele>92.000426</ele>
        <time>2023-05-04T15:10:56.077Z</time>
      </trkpt>
      <trkpt lat="47.96929" lon="-2.62207">
        <ele>92.031891</ele>
        <time>2023-05-04T15:11:00.081Z</time>
      </trkpt>
      <trkpt lat="47.9692" lon="-2.622">
        <ele>92.058642</ele>
        <time>2023-05-04T15:11:03.093Z</time>
      </trkpt>
      <trkpt lat="47.96911" lon="-2.62192">
        <ele>92.086947</ele>
        <time>2023-05-04T15:11:06.081Z</time>
      </trkpt>
      <trkpt lat="47.96902" lon="-2.62185">
        <ele>92.146406</ele>
        <time>2023-05-04T15:11:09.089Z</time>
      </trkpt>
      <trkpt lat="47.96894" lon="-2.62177">
        <ele>92.249625</ele>
        <time>2023-05-04T15:11:12.088Z</time>
      </trkpt>
      <trkpt lat="47.96887" lon="-2.62169">
        <ele>92.349472</ele>
        <time>2023-05-04T15:11:15.092Z</time>
      </trkpt>
      <trkpt lat="47.96879" lon="-2.62162">
        <ele>92.446539</ele>
        <time>2023-05-04T15:11:19.087Z</time>
      </trkpt>
      <trkpt lat="47.96869" lon="-2.62156">
        <ele>92.563064</ele>
        <time>2023-05-04T15:11:24.087Z</time>
      </trkpt>
      <trkpt lat="47.96859" lon="-2.62149">
        <ele>92.674451</ele>
        <time>2023-05-04T15:11:28.087Z</time>
      </trkpt>
      <trkpt lat="47.9685" lon="-2.62141">
        <ele>92.791982</ele>
        <time>2023-05-04T15:11:32.084Z</time>
      </trkpt>
      <trkpt lat="47.96842" lon="-2.62133">
        <ele>92.890142</ele>
        <time>2023-05-04T15:11:35.092Z</time>
      </trkpt>
      <trkpt lat="47.96835" lon="-2.62126">
        <ele>92.986555</ele>
        <time>2023-05-04T15:11:38.095Z</time>
      </trkpt>
      <trkpt lat="47.96827" lon="-2.62119">
        <ele>93.084629</ele>
        <time>2023-05-04T15:11:41.093Z</time>
      </trkpt>
      <trkpt lat="47.96818" lon="-2.62112">
        <ele>93.189146</ele>
        <time>2023-05-04T15:11:44.088Z</time>
      </trkpt>
      <trkpt lat="47.96809" lon="-2.62105">
        <ele>93.305397</ele>
        <time>2023-05-04T15:11:48.090Z</time>
      </trkpt>
      <trkpt lat="47.968" lon="-2.62098">
        <ele>93.412717</ele>
        <time>2023-05-04T15:11:53.087Z</time>
      </trkpt>
      <trkpt lat="47.96791" lon="-2.62093">
        <ele>93.512988</ele>
        <time>2023-05-04T15:11:57.084Z</time>
      </trkpt>
      <trkpt lat="47.9678" lon="-2.6209">
        <ele>93.62838</ele>
        <time>2023-05-04T15:12:01.088Z</time>
      </trkpt>
      <trkpt lat="47.96771" lon="-2.62086">
        <ele>93.736204</ele>
        <time>2023-05-04T15:12:05.091Z</time>
      </trkpt>
      <trkpt lat="47.96762" lon="-2.62083">
        <ele>93.834825</ele>
        <time>2023-05-04T15:12:09.086Z</time>
      </trkpt>
      <trkpt lat="47.96751" lon="-2.62081">
        <ele>93.950075</ele>
        <time>2023-05-04T15:12:13.089Z</time>
      </trkpt>
      <trkpt lat="47.9674" lon="-2.62076">
        <ele>94.056097</ele>
        <time>2023-05-04T15:12:17.086Z</time>
      </trkpt>
      <trkpt lat="47.9673" lon="-2.62072">
        <ele>94.12978</ele>
        <time>2023-05-04T15:12:21.095Z</time>
      </trkpt>
      <trkpt lat="47.9672" lon="-2.62067">
        <ele>94.204178</ele>
        <time>2023-05-04T15:12:25.096Z</time>
      </trkpt>
      <trkpt lat="47.96711" lon="-2.62063">
        <ele>94.270425</ele>
        <time>2023-05-04T15:12:29.092Z</time>
      </trkpt>
      <trkpt lat="47.96702" lon="-2.62057">
        <ele>94.336426</ele>
        <time>2023-05-04T15:12:33.087Z</time>
      </trkpt>
      <trkpt lat="47.96693" lon="-2.62054">
        <ele>94.407789</ele>
        <time>2023-05-04T15:12:38.090Z</time>
      </trkpt>
      <trkpt lat="47.96684" lon="-2.62052">
        <ele>94.471512</ele>
        <time>2023-05-04T15:12:42.097Z</time>
      </trkpt>
      <trkpt lat="47.96673" lon="-2.62047">
        <ele>94.550197</ele>
        <time>2023-05-04T15:12:46.091Z</time>
      </trkpt>
      <trkpt lat="47.96664" lon="-2.62044">
        <ele>94.615249</ele>
        <time>2023-05-04T15:12:50.090Z</time>
      </trkpt>
      <trkpt lat="47.96654" lon="-2.62039">
        <ele>94.686234</ele>
        <time>2023-05-04T15:12:55.089Z</time>
      </trkpt>
      <trkpt lat="47.96645" lon="-2.62032">
        <ele>94.758654</ele>
        <time>2023-05-04T15:12:59.085Z</time>
      </trkpt>
      <trkpt lat="47.96635" lon="-2.62028">
        <ele>94.83653</ele>
        <time>2023-05-04T15:13:04.092Z</time>
      </trkpt>
      <trkpt lat="47.96624" lon="-2.62025">
        <ele>94.91595</ele>
        <time>2023-05-04T15:13:09.089Z</time>
      </trkpt>
      <trkpt lat="47.96614" lon="-2.62021">
        <ele>94.984981</ele>
        <time>2023-05-04T15:13:13.087Z</time>
      </trkpt>
      <trkpt lat="47.96606" lon="-2.62013">
        <ele>95.053099</ele>
        <time>2023-05-04T15:13:17.088Z</time>
      </trkpt>
      <trkpt lat="47.96603" lon="-2.61998">
        <ele>95.124549</ele>
        <time>2023-05-04T15:13:22.093Z</time>
      </trkpt>
      <trkpt lat="47.96602" lon="-2.61985">
        <ele>95.188041</ele>
        <time>2023-05-04T15:13:26.084Z</time>
      </trkpt>
      <trkpt lat="47.96601" lon="-2.61971">
        <ele>95.253871</ele>
        <time>2023-05-04T15:13:30.085Z</time>
      </trkpt>
      <trkpt lat="47.96602" lon="-2.61957">
        <ele>95.288999</ele>
        <time>2023-05-04T15:13:34.082Z</time>
      </trkpt>
      <trkpt lat="47.96603" lon="-2.61944">
        <ele>95.268528</ele>
        <time>2023-05-04T15:13:38.083Z</time>
      </trkpt>
      <trkpt lat="47.96598" lon="-2.61928">
        <ele>95.241889</ele>
        <time>2023-05-04T15:13:42.087Z</time>
      </trkpt>
      <trkpt lat="47.96587" lon="-2.61928">
        <ele>95.217625</ele>
        <time>2023-05-04T15:13:45.087Z</time>
      </trkpt>
      <trkpt lat="47.96577" lon="-2.61935">
        <ele>95.193169</ele>
        <time>2023-05-04T15:13:48.092Z</time>
      </trkpt>
      <trkpt lat="47.96566" lon="-2.61939">
        <ele>95.167021</ele>
        <time>2023-05-04T15:13:51.093Z</time>
      </trkpt>
      <trkpt lat="47.96556" lon="-2.61941">
        <ele>95.144652</ele>
        <time>2023-05-04T15:13:53.084Z</time>
      </trkpt>
      <trkpt lat="47.96547" lon="-2.6194">
        <ele>95.124776</ele>
        <time>2023-05-04T15:13:55.085Z</time>
      </trkpt>
      <trkpt lat="47.96538" lon="-2.61939">
        <ele>95.104208</ele>
        <time>2023-05-04T15:13:59.085Z</time>
      </trkpt>
      <trkpt lat="47.96527" lon="-2.6194">
        <ele>95.079388</ele>
        <time>2023-05-04T15:14:04.084Z</time>
      </trkpt>
      <trkpt lat="47.96517" lon="-2.61942">
        <ele>95.057771</ele>
        <time>2023-05-04T15:14:07.086Z</time>
      </trkpt>
      <trkpt lat="47.96506" lon="-2.61946">
        <ele>95.033184</ele>
        <time>2023-05-04T15:14:11.082Z</time>
      </trkpt>
      <trkpt lat="47.96495" lon="-2.6195">
        <ele>95.007063</ele>
        <time>2023-05-04T15:14:15.089Z</time>
      </trkpt>
      <trkpt lat="47.96485" lon="-2.61955">
        <ele>94.982864</ele>
        <time>2023-05-04T15:14:19.087Z</time>
      </trkpt>
      <trkpt lat="47.96474" lon="-2.61963">
        <ele>94.955747</ele>
        <time>2023-05-04T15:14:23.092Z</time>
      </trkpt>
      <trkpt lat="47.96464" lon="-2.61968">
        <ele>94.933726</ele>
        <time>2023-05-04T15:14:26.085Z</time>
      </trkpt>
      <trkpt lat="47.96455" lon="-2.61975">
        <ele>94.911604</ele>
        <time>2023-05-04T15:14:29.085Z</time>
      </trkpt>
      <trkpt lat="47.96447" lon="-2.6198">
        <ele>94.878228</ele>
        <time>2023-05-04T15:14:32.089Z</time>
      </trkpt>
      <trkpt lat="47.96437" lon="-2.61986">
        <ele>94.802987</ele>
        <time>2023-05-04T15:14:35.087Z</time>
      </trkpt>
      <trkpt lat="47.96428" lon="-2.61993">
        <ele>94.731705</ele>
        <time>2023-05-04T15:14:39.090Z</time>
      </trkpt>
      <trkpt lat="47.96419" lon="-2.61997">
        <ele>94.660058</ele>
        <time>2023-05-04T15:14:45.087Z</time>
      </trkpt>
      <trkpt lat="47.96412" lon="-2.62005">
        <ele>94.594791</ele>
        <time>2023-05-04T15:14:50.089Z</time>
      </trkpt>
      <trkpt lat="47.96403" lon="-2.6201">
        <ele>94.527071</ele>
        <time>2023-05-04T15:14:53.095Z</time>
      </trkpt>
      <trkpt lat="47.96393" lon="-2.62015">
        <ele>94.453547</ele>
        <time>2023-05-04T15:14:56.089Z</time>
      </trkpt>
      <trkpt lat="47.96384" lon="-2.6202">
        <ele>94.381636</ele>
        <time>2023-05-04T15:14:59.090Z</time>
      </trkpt>
      <trkpt lat="47.96373" lon="-2.62027">
        <ele>94.297271</ele>
        <time>2023-05-04T15:15:03.089Z</time>
      </trkpt>
      <trkpt lat="47.96365" lon="-2.62033">
        <ele>94.227247</ele>
        <time>2023-05-04T15:15:06.093Z</time>
      </trkpt>
      <trkpt lat="47.96355" lon="-2.6204">
        <ele>94.149264</ele>
        <time>2023-05-04T15:15:09.090Z</time>
      </trkpt>
      <trkpt lat="47.96345" lon="-2.62047">
        <ele>94.071503</ele>
        <time>2023-05-04T15:15:12.087Z</time>
      </trkpt>
      <trkpt lat="47.96337" lon="-2.62056">
        <ele>93.999293</ele>
        <time>2023-05-04T15:15:15.093Z</time>
      </trkpt>
      <trkpt lat="47.96329" lon="-2.62064">
        <ele>93.926565</ele>
        <time>2023-05-04T15:15:19.096Z</time>
      </trkpt>
      <trkpt lat="47.9632" lon="-2.62072">
        <ele>93.848961</ele>
        <time>2023-05-04T15:15:23.090Z</time>
      </trkpt>
      <trkpt lat="47.96312" lon="-2.62085">
        <ele>93.765175</ele>
        <time>2023-05-04T15:15:27.091Z</time>
      </trkpt>
      <trkpt lat="47.96303" lon="-2.62095">
        <ele>93.683338</ele>
        <time>2023-05-04T15:15:31.094Z</time>
      </trkpt>
      <trkpt lat="47.96296" lon="-2.62105">
        <ele>93.614075</ele>
        <time>2023-05-04T15:15:34.093Z</time>
      </trkpt>
      <trkpt lat="47.96286" lon="-2.62116">
        <ele>93.586888</ele>
        <time>2023-05-04T15:15:37.093Z</time>
      </trkpt>
      <trkpt lat="47.96279" lon="-2.62126">
        <ele>93.579456</ele>
        <time>2023-05-04T15:15:40.093Z</time>
      </trkpt>
      <trkpt lat="47.96271" lon="-2.62136">
        <ele>93.571534</ele>
        <time>2023-05-04T15:15:43.095Z</time>
      </trkpt>
      <trkpt lat="47.96262" lon="-2.62146">
        <ele>93.563152</ele>
        <time>2023-05-04T15:15:46.088Z</time>
      </trkpt>
      <trkpt lat="47.96254" lon="-2.62154">
        <ele>93.55571</ele>
        <time>2023-05-04T15:15:49.100Z</time>
      </trkpt>
      <trkpt lat="47.96247" lon="-2.62161">
        <ele>93.548729</ele>
        <time>2023-05-04T15:15:52.092Z</time>
      </trkpt>
      <trkpt lat="47.96239" lon="-2.62169">
        <ele>93.541436</ele>
        <time>2023-05-04T15:15:55.092Z</time>
      </trkpt>
      <trkpt lat="47.96231" lon="-2.62178">
        <ele>93.533938</ele>
        <time>2023-05-04T15:15:58.092Z</time>
      </trkpt>
      <trkpt lat="47.96223" lon="-2.62188">
        <ele>93.525917</ele>
        <time>2023-05-04T15:16:01.095Z</time>
      </trkpt>
      <trkpt lat="47.96214" lon="-2.62198">
        <ele>93.517592</ele>
        <time>2023-05-04T15:16:04.092Z</time>
      </trkpt>
      <trkpt lat="47.96206" lon="-2.62207">
        <ele>93.510035</ele>
        <time>2023-05-04T15:16:07.091Z</time>
      </trkpt>
      <trkpt lat="47.96199" lon="-2.62216">
        <ele>93.50298</ele>
        <time>2023-05-04T15:16:10.089Z</time>
      </trkpt>
      <trkpt lat="47.96192" lon="-2.62224">
        <ele>93.495787</ele>
        <time>2023-05-04T15:16:13.092Z</time>
      </trkpt>
      <trkpt lat="47.96182" lon="-2.62231">
        <ele>93.487325</ele>
        <time>2023-05-04T15:16:16.087Z</time>
      </trkpt>
      <trkpt lat="47.96173" lon="-2.62238">
        <ele>93.479501</ele>
        <time>2023-05-04T15:16:19.094Z</time>
      </trkpt>
      <trkpt lat="47.96164" lon="-2.62244">
        <ele>93.472274</ele>
        <time>2023-05-04T15:16:22.093Z</time>
      </trkpt>
      <trkpt lat="47.96156" lon="-2.62251">
        <ele>93.464979</ele>
        <time>2023-05-04T15:16:25.100Z</time>
      </trkpt>
      <trkpt lat="47.96145" lon="-2.62259">
        <ele>93.457872</ele>
        <time>2023-05-04T15:16:29.093Z</time>
      </trkpt>
      <trkpt lat="47.96136" lon="-2.62263">
        <ele>93.490469</ele>
        <time>2023-05-04T15:16:32.089Z</time>
      </trkpt>
      <trkpt lat="47.96127" lon="-2.62268">
        <ele>93.525223</ele>
        <time>2023-05-04T15:16:35.091Z</time>
      </trkpt>
      <trkpt lat="47.96115" lon="-2.62272">
        <ele>93.56535</ele>
        <time>2023-05-04T15:16:39.090Z</time>
      </trkpt>
      <trkpt lat="47.96106" lon="-2.62276">
        <ele>93.598974</ele>
        <time>2023-05-04T15:16:42.095Z</time>
      </trkpt>
      <trkpt lat="47.96095" lon="-2.62278">
        <ele>93.635029</ele>
        <time>2023-05-04T15:16:45.091Z</time>
      </trkpt>
      <trkpt lat="47.96084" lon="-2.6228">
        <ele>93.672402</ele>
        <time>2023-05-04T15:16:48.094Z</time>
      </trkpt>
      <trkpt lat="47.96074" lon="-2.62281">
        <ele>93.707511</ele>
        <time>2023-05-04T15:16:51.088Z</time>
      </trkpt>
      <trkpt lat="47.96064" lon="-2.62281">
        <ele>93.74058</ele>
        <time>2023-05-04T15:16:54.087Z</time>
      </trkpt>
      <trkpt lat="47.96054" lon="-2.62281">
        <ele>93.775007</ele>
        <time>2023-05-04T15:16:57.089Z</time>
      </trkpt>
      <trkpt lat="47.96044" lon="-2.6228">
        <ele>93.811158</ele>
        <time>2023-05-04T15:17:00.083Z</time>
      </trkpt>
      <trkpt lat="47.96033" lon="-2.62279">
        <ele>93.848021</ele>
        <time>2023-05-04T15:17:03.086Z</time>
      </trkpt>
      <trkpt lat="47.96024" lon="-2.62278">
        <ele>93.879441</ele>
        <time>2023-05-04T15:17:06.091Z</time>
      </trkpt>
      <trkpt lat="47.96014" lon="-2.62278">
        <ele>93.912196</ele>
        <time>2023-05-04T15:17:09.094Z</time>
      </trkpt>
      <trkpt lat="47.96005" lon="-2.62275">
        <ele>93.943612</ele>
        <time>2023-05-04T15:17:12.089Z</time>
      </trkpt>
      <trkpt lat="47.95996" lon="-2.62271">
        <ele>93.976398</ele>
        <time>2023-05-04T15:17:15.092Z</time>
      </trkpt>
      <trkpt lat="47.95986" lon="-2.62264">
        <ele>94.014331</ele>
        <time>2023-05-04T15:17:18.106Z</time>
      </trkpt>
      <trkpt lat="47.95975" lon="-2.62256">
        <ele>94.053384</ele>
        <time>2023-05-04T15:17:21.094Z</time>
      </trkpt>
      <trkpt lat="47.95966" lon="-2.62246">
        <ele>94.01228</ele>
        <time>2023-05-04T15:17:24.092Z</time>
      </trkpt>
      <trkpt lat="47.95957" lon="-2.62236">
        <ele>93.927418</ele>
        <time>2023-05-04T15:17:27.096Z</time>
      </trkpt>
      <trkpt lat="47.95949" lon="-2.62224">
        <ele>93.837309</ele>
        <time>2023-05-04T15:17:30.080Z</time>
      </trkpt>
      <trkpt lat="47.95941" lon="-2.62212">
        <ele>93.748911</ele>
        <time>2023-05-04T15:17:33.094Z</time>
      </trkpt>
      <trkpt lat="47.95933" lon="-2.62199">
        <ele>93.654146</ele>
        <time>2023-05-04T15:17:36.096Z</time>
      </trkpt>
      <trkpt lat="47.95925" lon="-2.62184">
        <ele>93.555858</ele>
        <time>2023-05-04T15:17:39.094Z</time>
      </trkpt>
      <trkpt lat="47.95917" lon="-2.62169">
        <ele>93.454712</ele>
        <time>2023-05-04T15:17:42.087Z</time>
      </trkpt>
      <trkpt lat="47.9591" lon="-2.62154">
        <ele>93.356926</ele>
        <time>2023-05-04T15:17:45.091Z</time>
      </trkpt>
      <trkpt lat="47.95905" lon="-2.62142">
        <ele>93.280103</ele>
        <time>2023-05-04T15:17:48.093Z</time>
      </trkpt>
      <trkpt lat="47.95898" lon="-2.62128">
        <ele>93.191056</ele>
        <time>2023-05-04T15:17:52.093Z</time>
      </trkpt>
      <trkpt lat="47.95893" lon="-2.62115">
        <ele>93.117119</ele>
        <time>2023-05-04T15:17:55.083Z</time>
      </trkpt>
      <trkpt lat="47.95889" lon="-2.62101">
        <ele>93.031329</ele>
        <time>2023-05-04T15:17:58.083Z</time>
      </trkpt>
      <trkpt lat="47.95884" lon="-2.62087">
        <ele>92.949781</ele>
        <time>2023-05-04T15:18:01.086Z</time>
      </trkpt>
      <trkpt lat="47.95881" lon="-2.62074">
        <ele>92.878007</ele>
        <time>2023-05-04T15:18:04.087Z</time>
      </trkpt>
      <trkpt lat="47.95877" lon="-2.62061">
        <ele>92.801235</ele>
        <time>2023-05-04T15:18:07.090Z</time>
      </trkpt>
      <trkpt lat="47.95872" lon="-2.62045">
        <ele>92.709453</ele>
        <time>2023-05-04T15:18:10.088Z</time>
      </trkpt>
      <trkpt lat="47.95869" lon="-2.62031">
        <ele>92.684651</ele>
        <time>2023-05-04T15:18:13.090Z</time>
      </trkpt>
      <trkpt lat="47.95865" lon="-2.62015">
        <ele>92.799172</ele>
        <time>2023-05-04T15:18:17.090Z</time>
      </trkpt>
      <trkpt lat="47.95861" lon="-2.62002">
        <ele>92.896894</ele>
        <time>2023-05-04T15:18:20.089Z</time>
      </trkpt>
      <trkpt lat="47.95856" lon="-2.61989">
        <ele>92.989785</ele>
        <time>2023-05-04T15:18:23.092Z</time>
      </trkpt>
      <trkpt lat="47.95853" lon="-2.61975">
        <ele>93.085743</ele>
        <time>2023-05-04T15:18:27.099Z</time>
      </trkpt>
      <trkpt lat="47.95849" lon="-2.61961">
        <ele>93.18622</ele>
        <time>2023-05-04T15:18:30.090Z</time>
      </trkpt>
      <trkpt lat="47.95846" lon="-2.61945">
        <ele>93.297796</ele>
        <time>2023-05-04T15:18:33.088Z</time>
      </trkpt>
      <trkpt lat="47.95842" lon="-2.61932">
        <ele>93.391209</ele>
        <time>2023-05-04T15:18:36.086Z</time>
      </trkpt>
      <trkpt lat="47.95837" lon="-2.61916">
        <ele>93.504688</ele>
        <time>2023-05-04T15:18:39.091Z</time>
      </trkpt>
      <trkpt lat="47.9583" lon="-2.61902">
        <ele>93.622163</ele>
        <time>2023-05-04T15:18:42.090Z</time>
      </trkpt>
      <trkpt lat="47.95825" lon="-2.61889">
        <ele>93.719596</ele>
        <time>2023-05-04T15:18:45.085Z</time>
      </trkpt>
      <trkpt lat="47.9582" lon="-2.61873">
        <ele>93.829038</ele>
        <time>2023-05-04T15:18:49.086Z</time>
      </trkpt>
      <trkpt lat="47.95817" lon="-2.61857">
        <ele>93.942209</ele>
        <time>2023-05-04T15:18:53.085Z</time>
      </trkpt>
      <trkpt lat="47.95814" lon="-2.61843">
        <ele>94.034887</ele>
        <time>2023-05-04T15:18:56.089Z</time>
      </trkpt>
      <trkpt lat="47.95808" lon="-2.6183">
        <ele>94.139719</ele>
        <time>2023-05-04T15:18:59.087Z</time>
      </trkpt>
      <trkpt lat="47.95804" lon="-2.61816">
        <ele>94.237441</ele>
        <time>2023-05-04T15:19:02.086Z</time>
      </trkpt>
      <trkpt lat="47.95801" lon="-2.61804">
        <ele>94.325274</ele>
        <time>2023-05-04T15:19:05.082Z</time>
      </trkpt>
      <trkpt lat="47.95799" lon="-2.61791">
        <ele>94.413802</ele>
        <time>2023-05-04T15:19:08.087Z</time>
      </trkpt>
      <trkpt lat="47.95796" lon="-2.61775">
        <ele>94.182295</ele>
        <time>2023-05-04T15:19:11.094Z</time>
      </trkpt>
      <trkpt lat="47.95792" lon="-2.61758">
        <ele>93.924833</ele>
        <time>2023-05-04T15:19:14.090Z</time>
      </trkpt>
      <trkpt lat="47.95791" lon="-2.61739">
        <ele>93.648125</ele>
        <time>2023-05-04T15:19:17.094Z</time>
      </trkpt>
      <trkpt lat="47.9579" lon="-2.61724">
        <ele>93.422488</ele>
        <time>2023-05-04T15:19:20.092Z</time>
      </trkpt>
      <trkpt lat="47.9579" lon="-2.61709">
        <ele>93.212539</ele>
        <time>2023-05-04T15:19:22.089Z</time>
      </trkpt>
      <trkpt lat="47.95788" lon="-2.6169">
        <ele>92.933581</ele>
        <time>2023-05-04T15:19:25.089Z</time>
      </trkpt>
      <trkpt lat="47.9579" lon="-2.61673">
        <ele>92.679617</ele>
        <time>2023-05-04T15:19:28.090Z</time>
      </trkpt>
      <trkpt lat="47.95791" lon="-2.61658">
        <ele>92.472922</ele>
        <time>2023-05-04T15:19:30.091Z</time>
      </trkpt>
      <trkpt lat="47.95793" lon="-2.6164">
        <ele>92.203773</ele>
        <time>2023-05-04T15:19:33.093Z</time>
      </trkpt>
      <trkpt lat="47.95794" lon="-2.61625">
        <ele>91.988438</ele>
        <time>2023-05-04T15:19:36.090Z</time>
      </trkpt>
      <trkpt lat="47.95795" lon="-2.6161">
        <ele>91.774016</ele>
        <time>2023-05-04T15:19:39.087Z</time>
      </trkpt>
      <trkpt lat="47.95794" lon="-2.61595">
        <ele>91.546699</ele>
        <time>2023-05-04T15:19:42.092Z</time>
      </trkpt>
      <trkpt lat="47.95793" lon="-2.6158">
        <ele>91.337337</ele>
        <time>2023-05-04T15:19:45.094Z</time>
      </trkpt>
      <trkpt lat="47.95795" lon="-2.61565">
        <ele>91.110924</ele>
        <time>2023-05-04T15:19:48.094Z</time>
      </trkpt>
      <trkpt lat="47.95797" lon="-2.61549">
        <ele>90.878542</ele>
        <time>2023-05-04T15:19:51.089Z</time>
      </trkpt>
      <trkpt lat="47.95799" lon="-2.61532">
        <ele>90.626584</ele>
        <time>2023-05-04T15:19:54.086Z</time>
      </trkpt>
      <trkpt lat="47.95801" lon="-2.61516">
        <ele>90.506676</ele>
        <time>2023-05-04T15:19:57.089Z</time>
      </trkpt>
      <trkpt lat="47.95802" lon="-2.61502">
        <ele>90.476746</ele>
        <time>2023-05-04T15:20:00.083Z</time>
      </trkpt>
      <trkpt lat="47.95803" lon="-2.61488">
        <ele>90.447236</ele>
        <time>2023-05-04T15:20:03.093Z</time>
      </trkpt>
      <trkpt lat="47.95805" lon="-2.61473">
        <ele>90.414536</ele>
        <time>2023-05-04T15:20:06.094Z</time>
      </trkpt>
      <trkpt lat="47.95805" lon="-2.61459">
        <ele>90.384425</ele>
        <time>2023-05-04T15:20:09.079Z</time>
      </trkpt>
      <trkpt lat="47.95804" lon="-2.61444">
        <ele>90.353799</ele>
        <time>2023-05-04T15:20:12.085Z</time>
      </trkpt>
      <trkpt lat="47.95804" lon="-2.61428">
        <ele>90.318625</ele>
        <time>2023-05-04T15:20:15.079Z</time>
      </trkpt>
      <trkpt lat="47.95803" lon="-2.61413">
        <ele>90.286382</ele>
        <time>2023-05-04T15:20:18.081Z</time>
      </trkpt>
      <trkpt lat="47.95803" lon="-2.61398">
        <ele>90.25479</ele>
        <time>2023-05-04T15:20:21.085Z</time>
      </trkpt>
      <trkpt lat="47.95802" lon="-2.6138">
        <ele>90.216907</ele>
        <time>2023-05-04T15:20:25.085Z</time>
      </trkpt>
      <trkpt lat="47.958" lon="-2.61364">
        <ele>90.183325</ele>
        <time>2023-05-04T15:20:28.089Z</time>
      </trkpt>
      <trkpt lat="47.95799" lon="-2.61348">
        <ele>90.148179</ele>
        <time>2023-05-04T15:20:31.083Z</time>
      </trkpt>
      <trkpt lat="47.95798" lon="-2.6133">
        <ele>90.109746</ele>
        <time>2023-05-04T15:20:34.083Z</time>
      </trkpt>
      <trkpt lat="47.95796" lon="-2.61312">
        <ele>90.071042</ele>
        <time>2023-05-04T15:20:37.085Z</time>
      </trkpt>
      <trkpt lat="47.95795" lon="-2.61293">
        <ele>90.032039</ele>
        <time>2023-05-04T15:20:40.086Z</time>
      </trkpt>
      <trkpt lat="47.95794" lon="-2.61276">
        <ele>89.996227</ele>
        <time>2023-05-04T15:20:42.086Z</time>
      </trkpt>
      <trkpt lat="47.95793" lon="-2.61263">
        <ele>89.966777</ele>
        <time>2023-05-04T15:20:44.085Z</time>
      </trkpt>
      <trkpt lat="47.95793" lon="-2.61249">
        <ele>89.910055</ele>
        <time>2023-05-04T15:20:46.085Z</time>
      </trkpt>
      <trkpt lat="47.95791" lon="-2.61235">
        <ele>89.837656</ele>
        <time>2023-05-04T15:20:48.083Z</time>
      </trkpt>
      <trkpt lat="47.95791" lon="-2.61216">
        <ele>89.73558</ele>
        <time>2023-05-04T15:20:51.084Z</time>
      </trkpt>
      <trkpt lat="47.95788" lon="-2.61198">
        <ele>89.64367</ele>
        <time>2023-05-04T15:20:53.088Z</time>
      </trkpt>
      <trkpt lat="47.95789" lon="-2.61183">
        <ele>89.560654</ele>
        <time>2023-05-04T15:20:55.098Z</time>
      </trkpt>
      <trkpt lat="47.9579" lon="-2.61166">
        <ele>89.471935</ele>
        <time>2023-05-04T15:20:57.088Z</time>
      </trkpt>
      <trkpt lat="47.95791" lon="-2.6115">
        <ele>89.388919</ele>
        <time>2023-05-04T15:20:59.079Z</time>
      </trkpt>
      <trkpt lat="47.95793" lon="-2.61134">
        <ele>89.306796</ele>
        <time>2023-05-04T15:21:01.089Z</time>
      </trkpt>
      <trkpt lat="47.95795" lon="-2.6112">
        <ele>89.233499</ele>
        <time>2023-05-04T15:21:03.087Z</time>
      </trkpt>
      <trkpt lat="47.95798" lon="-2.611">
        <ele>89.125954</ele>
        <time>2023-05-04T15:21:06.094Z</time>
      </trkpt>
      <trkpt lat="47.958" lon="-2.61085">
        <ele>89.043171</ele>
        <time>2023-05-04T15:21:08.089Z</time>
      </trkpt>
      <trkpt lat="47.95803" lon="-2.61068">
        <ele>88.954819</ele>
        <time>2023-05-04T15:21:11.077Z</time>
      </trkpt>
      <trkpt lat="47.95804" lon="-2.61051">
        <ele>88.865277</ele>
        <time>2023-05-04T15:21:14.095Z</time>
      </trkpt>
      <trkpt lat="47.95807" lon="-2.61034">
        <ele>88.775713</ele>
        <time>2023-05-04T15:21:17.082Z</time>
      </trkpt>
      <trkpt lat="47.9581" lon="-2.61018">
        <ele>88.684949</ele>
        <time>2023-05-04T15:21:20.086Z</time>
      </trkpt>
      <trkpt lat="47.95812" lon="-2.61003">
        <ele>88.609449</ele>
        <time>2023-05-04T15:21:23.087Z</time>
      </trkpt>
      <trkpt lat="47.95814" lon="-2.6099">
        <ele>88.552043</ele>
        <time>2023-05-04T15:21:26.094Z</time>
      </trkpt>
      <trkpt lat="47.95817" lon="-2.60976">
        <ele>88.525906</ele>
        <time>2023-05-04T15:21:29.094Z</time>
      </trkpt>
      <trkpt lat="47.95819" lon="-2.60961">
        <ele>88.496363</ele>
        <time>2023-05-04T15:21:32.084Z</time>
      </trkpt>
      <trkpt lat="47.9582" lon="-2.60943">
        <ele>88.463969</ele>
        <time>2023-05-04T15:21:35.083Z</time>
      </trkpt>
      <trkpt lat="47.95823" lon="-2.60927">
        <ele>88.432925</ele>
        <time>2023-05-04T15:21:38.089Z</time>
      </trkpt>
      <trkpt lat="47.95825" lon="-2.60912">
        <ele>88.405399</ele>
        <time>2023-05-04T15:21:41.087Z</time>
      </trkpt>
      <trkpt lat="47.95828" lon="-2.60896">
        <ele>88.37491</ele>
        <time>2023-05-04T15:21:44.090Z</time>
      </trkpt>
      <trkpt lat="47.95831" lon="-2.6088">
        <ele>88.34295</ele>
        <time>2023-05-04T15:21:47.080Z</time>
      </trkpt>
      <trkpt lat="47.95835" lon="-2.60862">
        <ele>88.308903</ele>
        <time>2023-05-04T15:21:50.086Z</time>
      </trkpt>
      <trkpt lat="47.95839" lon="-2.60847">
        <ele>88.279062</ele>
        <time>2023-05-04T15:21:53.092Z</time>
      </trkpt>
      <trkpt lat="47.95844" lon="-2.60832">
        <ele>88.248796</ele>
        <time>2023-05-04T15:21:56.087Z</time>
      </trkpt>
      <trkpt lat="47.95849" lon="-2.60817">
        <ele>88.216643</ele>
        <time>2023-05-04T15:21:59.093Z</time>
      </trkpt>
      <trkpt lat="47.95857" lon="-2.60802">
        <ele>88.18228</ele>
        <time>2023-05-04T15:22:02.090Z</time>
      </trkpt>
      <trkpt lat="47.95864" lon="-2.60787">
        <ele>88.147711</ele>
        <time>2023-05-04T15:22:05.093Z</time>
      </trkpt>
      <trkpt lat="47.95873" lon="-2.60775">
        <ele>88.114163</ele>
        <time>2023-05-04T15:22:08.087Z</time>
      </trkpt>
      <trkpt lat="47.95883" lon="-2.60762">
        <ele>88.078998</ele>
        <time>2023-05-04T15:22:11.089Z</time>
      </trkpt>
      <trkpt lat="47.95893" lon="-2.60752">
        <ele>88.200444</ele>
        <time>2023-05-04T15:22:14.088Z</time>
      </trkpt>
      <trkpt lat="47.95902" lon="-2.60744">
        <ele>88.396542</ele>
        <time>2023-05-04T15:22:17.089Z</time>
      </trkpt>
      <trkpt lat="47.95912" lon="-2.60737">
        <ele>88.619922</ele>
        <time>2023-05-04T15:22:20.091Z</time>
      </trkpt>
      <trkpt lat="47.95922" lon="-2.60731">
        <ele>88.82613</ele>
        <time>2023-05-04T15:22:23.086Z</time>
      </trkpt>
      <trkpt lat="47.95932" lon="-2.60725">
        <ele>89.03608</ele>
        <time>2023-05-04T15:22:26.085Z</time>
      </trkpt>
      <trkpt lat="47.95943" lon="-2.60719">
        <ele>89.265875</ele>
        <time>2023-05-04T15:22:29.081Z</time>
      </trkpt>
      <trkpt lat="47.95952" lon="-2.60712">
        <ele>89.45396</ele>
        <time>2023-05-04T15:22:32.084Z</time>
      </trkpt>
      <trkpt lat="47.95962" lon="-2.60706">
        <ele>89.66113</ele>
        <time>2023-05-04T15:22:35.087Z</time>
      </trkpt>
      <trkpt lat="47.95972" lon="-2.60702">
        <ele>89.874458</ele>
        <time>2023-05-04T15:22:38.089Z</time>
      </trkpt>
      <trkpt lat="47.95984" lon="-2.60696">
        <ele>90.122717</ele>
        <time>2023-05-04T15:22:41.094Z</time>
      </trkpt>
      <trkpt lat="47.95996" lon="-2.60691">
        <ele>90.345072</ele>
        <time>2023-05-04T15:22:44.086Z</time>
      </trkpt>
      <trkpt lat="47.96006" lon="-2.60685">
        <ele>90.559601</ele>
        <time>2023-05-04T15:22:47.089Z</time>
      </trkpt>
      <trkpt lat="47.96016" lon="-2.60678">
        <ele>90.771442</ele>
        <time>2023-05-04T15:22:50.092Z</time>
      </trkpt>
      <trkpt lat="47.96026" lon="-2.6067">
        <ele>91.001328</ele>
        <time>2023-05-04T15:22:53.093Z</time>
      </trkpt>
      <trkpt lat="47.96036" lon="-2.6066">
        <ele>91.227425</ele>
        <time>2023-05-04T15:22:56.094Z</time>
      </trkpt>
      <trkpt lat="47.96046" lon="-2.60651">
        <ele>91.459155</ele>
        <time>2023-05-04T15:22:59.094Z</time>
      </trkpt>
      <trkpt lat="47.96056" lon="-2.60643">
        <ele>91.582002</ele>
        <time>2023-05-04T15:23:02.089Z</time>
      </trkpt>
      <trkpt lat="47.96065" lon="-2.60635">
        <ele>91.634457</ele>
        <time>2023-05-04T15:23:05.094Z</time>
      </trkpt>
      <trkpt lat="47.96074" lon="-2.60629">
        <ele>91.680404</ele>
        <time>2023-05-04T15:23:08.091Z</time>
      </trkpt>
      <trkpt lat="47.96083" lon="-2.60622">
        <ele>91.728767</ele>
        <time>2023-05-04T15:23:11.098Z</time>
      </trkpt>
      <trkpt lat="47.96094" lon="-2.60613">
        <ele>91.786261</ele>
        <time>2023-05-04T15:23:14.085Z</time>
      </trkpt>
      <trkpt lat="47.96104" lon="-2.60602">
        <ele>91.848543</ele>
        <time>2023-05-04T15:23:17.083Z</time>
      </trkpt>
      <trkpt lat="47.96115" lon="-2.60592">
        <ele>91.908317</ele>
        <time>2023-05-04T15:23:20.089Z</time>
      </trkpt>
      <trkpt lat="47.96126" lon="-2.60581">
        <ele>91.972051</ele>
        <time>2023-05-04T15:23:23.083Z</time>
      </trkpt>
      <trkpt lat="47.96133" lon="-2.60572">
        <ele>92.015533</ele>
        <time>2023-05-04T15:23:25.083Z</time>
      </trkpt>
      <trkpt lat="47.96141" lon="-2.6056">
        <ele>92.072471</ele>
        <time>2023-05-04T15:23:28.096Z</time>
      </trkpt>
      <trkpt lat="47.96148" lon="-2.60546">
        <ele>92.125979</ele>
        <time>2023-05-04T15:23:31.087Z</time>
      </trkpt>
      <trkpt lat="47.96152" lon="-2.60532">
        <ele>92.177053</ele>
        <time>2023-05-04T15:23:34.094Z</time>
      </trkpt>
      <trkpt lat="47.96155" lon="-2.60515">
        <ele>92.231231</ele>
        <time>2023-05-04T15:23:37.094Z</time>
      </trkpt>
      <trkpt lat="47.96158" lon="-2.60499">
        <ele>92.285595</ele>
        <time>2023-05-04T15:23:40.087Z</time>
      </trkpt>
      <trkpt lat="47.96158" lon="-2.60482">
        <ele>92.339159</ele>
        <time>2023-05-04T15:23:43.094Z</time>
      </trkpt>
      <trkpt lat="47.96157" lon="-2.60466">
        <ele>92.390647</ele>
        <time>2023-05-04T15:23:46.092Z</time>
      </trkpt>
      <trkpt lat="47.96156" lon="-2.60449">
        <ele>92.410667</ele>
        <time>2023-05-04T15:23:49.088Z</time>
      </trkpt>
      <trkpt lat="47.96155" lon="-2.60435">
        <ele>92.409401</ele>
        <time>2023-05-04T15:23:52.086Z</time>
      </trkpt>
      <trkpt lat="47.96153" lon="-2.60421">
        <ele>92.408098</ele>
        <time>2023-05-04T15:23:55.088Z</time>
      </trkpt>
      <trkpt lat="47.96153" lon="-2.60404">
        <ele>92.406614</ele>
        <time>2023-05-04T15:23:58.084Z</time>
      </trkpt>
      <trkpt lat="47.96152" lon="-2.60387">
        <ele>92.405002</ele>
        <time>2023-05-04T15:24:02.084Z</time>
      </trkpt>
      <trkpt lat="47.96151" lon="-2.60372">
        <ele>92.40362</ele>
        <time>2023-05-04T15:24:06.090Z</time>
      </trkpt>
      <trkpt lat="47.96149" lon="-2.60357">
        <ele>92.40231</ele>
        <time>2023-05-04T15:24:09.088Z</time>
      </trkpt>
      <trkpt lat="47.96146" lon="-2.60344">
        <ele>92.401007</ele>
        <time>2023-05-04T15:24:12.089Z</time>
      </trkpt>
      <trkpt lat="47.96143" lon="-2.60328">
        <ele>92.399512</ele>
        <time>2023-05-04T15:24:15.084Z</time>
      </trkpt>
      <trkpt lat="47.9614" lon="-2.60311">
        <ele>92.397881</ele>
        <time>2023-05-04T15:24:18.096Z</time>
      </trkpt>
      <trkpt lat="47.96135" lon="-2.60293">
        <ele>92.396144</ele>
        <time>2023-05-04T15:24:21.093Z</time>
      </trkpt>
      <trkpt lat="47.96131" lon="-2.60275">
        <ele>92.39443</ele>
        <time>2023-05-04T15:24:24.089Z</time>
      </trkpt>
      <trkpt lat="47.96128" lon="-2.60262">
        <ele>92.393196</ele>
        <time>2023-05-04T15:24:26.085Z</time>
      </trkpt>
      <trkpt lat="47.96125" lon="-2.60249">
        <ele>92.391946</ele>
        <time>2023-05-04T15:24:28.085Z</time>
      </trkpt>
      <trkpt lat="47.96122" lon="-2.60232">
        <ele>92.390319</ele>
        <time>2023-05-04T15:24:31.087Z</time>
      </trkpt>
      <trkpt lat="47.9612" lon="-2.60219">
        <ele>92.389091</ele>
        <time>2023-05-04T15:24:33.092Z</time>
      </trkpt>
      <trkpt lat="47.96118" lon="-2.60205">
        <ele>92.387773</ele>
        <time>2023-05-04T15:24:36.084Z</time>
      </trkpt>
      <trkpt lat="47.96115" lon="-2.60189">
        <ele>92.156493</ele>
        <time>2023-05-04T15:24:40.089Z</time>
      </trkpt>
      <trkpt lat="47.96112" lon="-2.60175">
        <ele>91.847578</ele>
        <time>2023-05-04T15:24:43.083Z</time>
      </trkpt>
      <trkpt lat="47.96111" lon="-2.6016">
        <ele>91.522806</ele>
        <time>2023-05-04T15:24:46.083Z</time>
      </trkpt>
      <trkpt lat="47.96107" lon="-2.60143">
        <ele>91.120793</ele>
        <time>2023-05-04T15:24:50.088Z</time>
      </trkpt>
      <trkpt lat="47.96103" lon="-2.60127">
        <ele>90.762672</ele>
        <time>2023-05-04T15:24:53.091Z</time>
      </trkpt>
      <trkpt lat="47.96099" lon="-2.60109">
        <ele>90.357283</ele>
        <time>2023-05-04T15:24:56.094Z</time>
      </trkpt>
      <trkpt lat="47.96097" lon="-2.60096">
        <ele>90.062903</ele>
        <time>2023-05-04T15:24:58.090Z</time>
      </trkpt>
      <trkpt lat="47.96093" lon="-2.60078">
        <ele>89.654706</ele>
        <time>2023-05-04T15:25:01.088Z</time>
      </trkpt>
      <trkpt lat="47.96093" lon="-2.6006">
        <ele>89.261018</ele>
        <time>2023-05-04T15:25:04.090Z</time>
      </trkpt>
      <trkpt lat="47.96091" lon="-2.60046">
        <ele>88.947826</ele>
        <time>2023-05-04T15:25:08.085Z</time>
      </trkpt>
      <trkpt lat="47.96089" lon="-2.60033">
        <ele>88.655721</ele>
        <time>2023-05-04T15:25:11.091Z</time>
      </trkpt>
      <trkpt lat="47.96084" lon="-2.60016">
        <ele>88.278821</ele>
        <time>2023-05-04T15:25:14.091Z</time>
      </trkpt>
      <trkpt lat="47.96081" lon="-2.6">
        <ele>87.916139</ele>
        <time>2023-05-04T15:25:17.090Z</time>
      </trkpt>
      <trkpt lat="47.96079" lon="-2.59983">
        <ele>87.538908</ele>
        <time>2023-05-04T15:25:20.087Z</time>
      </trkpt>
      <trkpt lat="47.96075" lon="-2.59963">
        <ele>87.087632</ele>
        <time>2023-05-04T15:25:23.097Z</time>
      </trkpt>
      <trkpt lat="47.96072" lon="-2.5995">
        <ele>86.78511</ele>
        <time>2023-05-04T15:25:25.090Z</time>
      </trkpt>
      <trkpt lat="47.96069" lon="-2.59934">
        <ele>86.632958</ele>
        <time>2023-05-04T15:25:28.090Z</time>
      </trkpt>
      <trkpt lat="47.96066" lon="-2.59917">
        <ele>86.777911</ele>
        <time>2023-05-04T15:25:31.089Z</time>
      </trkpt>
      <trkpt lat="47.96063" lon="-2.59901">
        <ele>86.91152</ele>
        <time>2023-05-04T15:25:35.090Z</time>
      </trkpt>
      <trkpt lat="47.96061" lon="-2.59886">
        <ele>87.031543</ele>
        <time>2023-05-04T15:25:38.095Z</time>
      </trkpt>
      <trkpt lat="47.96059" lon="-2.59869">
        <ele>87.172014</ele>
        <time>2023-05-04T15:25:41.089Z</time>
      </trkpt>
      <trkpt lat="47.96058" lon="-2.59855">
        <ele>87.27977</ele>
        <time>2023-05-04T15:25:43.090Z</time>
      </trkpt>
      <trkpt lat="47.96057" lon="-2.5984">
        <ele>87.398122</ele>
        <time>2023-05-04T15:25:45.088Z</time>
      </trkpt>
      <trkpt lat="47.96056" lon="-2.59825">
        <ele>87.520688</ele>
        <time>2023-05-04T15:25:47.085Z</time>
      </trkpt>
      <trkpt lat="47.96056" lon="-2.59812">
        <ele>87.628733</ele>
        <time>2023-05-04T15:25:49.090Z</time>
      </trkpt>
      <trkpt lat="47.96056" lon="-2.59798">
        <ele>87.736777</ele>
        <time>2023-05-04T15:25:51.089Z</time>
      </trkpt>
      <trkpt lat="47.96056" lon="-2.59784">
        <ele>87.849596</ele>
        <time>2023-05-04T15:25:53.087Z</time>
      </trkpt>
      <trkpt lat="47.96055" lon="-2.59769">
        <ele>87.967313</ele>
        <time>2023-05-04T15:25:55.088Z</time>
      </trkpt>
      <trkpt lat="47.96056" lon="-2.5975">
        <ele>88.124158</ele>
        <time>2023-05-04T15:25:58.082Z</time>
      </trkpt>
      <trkpt lat="47.96056" lon="-2.59735">
        <ele>88.239433</ele>
        <time>2023-05-04T15:26:00.083Z</time>
      </trkpt>
      <trkpt lat="47.96056" lon="-2.59721">
        <ele>88.352353</ele>
        <time>2023-05-04T15:26:02.085Z</time>
      </trkpt>
      <trkpt lat="47.96057" lon="-2.59704">
        <ele>88.488633</ele>
        <time>2023-05-04T15:26:05.087Z</time>
      </trkpt>
      <trkpt lat="47.96059" lon="-2.59688">
        <ele>88.623382</ele>
        <time>2023-05-04T15:26:09.089Z</time>
      </trkpt>
      <trkpt lat="47.96059" lon="-2.59672">
        <ele>88.748526</ele>
        <time>2023-05-04T15:26:12.088Z</time>
      </trkpt>
      <trkpt lat="47.96058" lon="-2.59655">
        <ele>88.90446</ele>
        <time>2023-05-04T15:26:15.098Z</time>
      </trkpt>
      <trkpt lat="47.96056" lon="-2.59636">
        <ele>89.079908</ele>
        <time>2023-05-04T15:26:18.085Z</time>
      </trkpt>
      <trkpt lat="47.96053" lon="-2.59623">
        <ele>89.20174</ele>
        <time>2023-05-04T15:26:20.085Z</time>
      </trkpt>
      <trkpt lat="47.9605" lon="-2.59609">
        <ele>89.336676</ele>
        <time>2023-05-04T15:26:22.083Z</time>
      </trkpt>
      <trkpt lat="47.96045" lon="-2.59596">
        <ele>89.479363</ele>
        <time>2023-05-04T15:26:24.094Z</time>
      </trkpt>
      <trkpt lat="47.96041" lon="-2.59582">
        <ele>89.60955</ele>
        <time>2023-05-04T15:26:26.090Z</time>
      </trkpt>
      <trkpt lat="47.96035" lon="-2.59568">
        <ele>89.761216</ele>
        <time>2023-05-04T15:26:29.087Z</time>
      </trkpt>
      <trkpt lat="47.96032" lon="-2.5955">
        <ele>89.92757</ele>
        <time>2023-05-04T15:26:32.093Z</time>
      </trkpt>
      <trkpt lat="47.96029" lon="-2.59534">
        <ele>90.074991</ele>
        <time>2023-05-04T15:26:35.092Z</time>
      </trkpt>
      <trkpt lat="47.96026" lon="-2.5952">
        <ele>90.218517</ele>
        <time>2023-05-04T15:26:38.086Z</time>
      </trkpt>
      <trkpt lat="47.96023" lon="-2.59505">
        <ele>90.352094</ele>
        <time>2023-05-04T15:26:41.090Z</time>
      </trkpt>
      <trkpt lat="47.96019" lon="-2.5949">
        <ele>90.502255</ele>
        <time>2023-05-04T15:26:44.087Z</time>
      </trkpt>
      <trkpt lat="47.96015" lon="-2.59474">
        <ele>90.653437</ele>
        <time>2023-05-04T15:26:47.086Z</time>
      </trkpt>
      <trkpt lat="47.96012" lon="-2.59456">
        <ele>90.824442</ele>
        <time>2023-05-04T15:26:50.095Z</time>
      </trkpt>
      <trkpt lat="47.96011" lon="-2.5944">
        <ele>90.971024</ele>
        <time>2023-05-04T15:26:53.083Z</time>
      </trkpt>
      <trkpt lat="47.9601" lon="-2.59425">
        <ele>91.105205</ele>
        <time>2023-05-04T15:26:56.085Z</time>
      </trkpt>
      <trkpt lat="47.96009" lon="-2.59411">
        <ele>91.142436</ele>
        <time>2023-05-04T15:26:59.085Z</time>
      </trkpt>
      <trkpt lat="47.9601" lon="-2.59397">
        <ele>91.110191</ele>
        <time>2023-05-04T15:27:02.093Z</time>
      </trkpt>
      <trkpt lat="47.9601" lon="-2.59383">
        <ele>91.078216</ele>
        <time>2023-05-04T15:27:05.093Z</time>
      </trkpt>
      <trkpt lat="47.96011" lon="-2.59368">
        <ele>91.04426</ele>
        <time>2023-05-04T15:27:09.087Z</time>
      </trkpt>
      <trkpt lat="47.96011" lon="-2.59352">
        <ele>91.009332</ele>
        <time>2023-05-04T15:27:15.082Z</time>
      </trkpt>
      <trkpt lat="47.96011" lon="-2.59325">
        <ele>90.947418</ele>
        <time>2023-05-04T15:28:31.094Z</time>
      </trkpt>
      <trkpt lat="47.96011" lon="-2.5931">
        <ele>90.912943</ele>
        <time>2023-05-04T15:28:34.089Z</time>
      </trkpt>
      <trkpt lat="47.96011" lon="-2.59293">
        <ele>90.874388</ele>
        <time>2023-05-04T15:28:37.093Z</time>
      </trkpt>
      <trkpt lat="47.96011" lon="-2.59274">
        <ele>90.830786</ele>
        <time>2023-05-04T15:28:40.094Z</time>
      </trkpt>
      <trkpt lat="47.96012" lon="-2.59254">
        <ele>90.786329</ele>
        <time>2023-05-04T15:28:43.092Z</time>
      </trkpt>
      <trkpt lat="47.96011" lon="-2.59234">
        <ele>90.741637</ele>
        <time>2023-05-04T15:28:46.091Z</time>
      </trkpt>
      <trkpt lat="47.9601" lon="-2.59214">
        <ele>90.696182</ele>
        <time>2023-05-04T15:28:49.091Z</time>
      </trkpt>
      <trkpt lat="47.96013" lon="-2.59199">
        <ele>90.660031</ele>
        <time>2023-05-04T15:28:52.084Z</time>
      </trkpt>
      <trkpt lat="47.96017" lon="-2.59187">
        <ele>90.629726</ele>
        <time>2023-05-04T15:28:55.090Z</time>
      </trkpt>
      <trkpt lat="47.96018" lon="-2.59169">
        <ele>90.590152</ele>
        <time>2023-05-04T15:28:59.086Z</time>
      </trkpt>
      <trkpt lat="47.96018" lon="-2.59155">
        <ele>90.557038</ele>
        <time>2023-05-04T15:29:02.086Z</time>
      </trkpt>
      <trkpt lat="47.96018" lon="-2.59137">
        <ele>90.563483</ele>
        <time>2023-05-04T15:29:05.087Z</time>
      </trkpt>
      <trkpt lat="47.96017" lon="-2.5912">
        <ele>90.576122</ele>
        <time>2023-05-04T15:29:08.091Z</time>
      </trkpt>
      <trkpt lat="47.96013" lon="-2.59102">
        <ele>90.590525</ele>
        <time>2023-05-04T15:29:11.092Z</time>
      </trkpt>
      <trkpt lat="47.96007" lon="-2.59087">
        <ele>90.603284</ele>
        <time>2023-05-04T15:29:14.083Z</time>
      </trkpt>
      <trkpt lat="47.96" lon="-2.59072">
        <ele>90.617536</ele>
        <time>2023-05-04T15:29:17.084Z</time>
      </trkpt>
      <trkpt lat="47.95993" lon="-2.59058">
        <ele>90.630702</ele>
        <time>2023-05-04T15:29:19.085Z</time>
      </trkpt>
      <trkpt lat="47.95988" lon="-2.59045">
        <ele>90.641916</ele>
        <time>2023-05-04T15:29:22.084Z</time>
      </trkpt>
      <trkpt lat="47.95979" lon="-2.59032">
        <ele>90.656255</ele>
        <time>2023-05-04T15:29:25.084Z</time>
      </trkpt>
      <trkpt lat="47.95973" lon="-2.59021">
        <ele>90.667174</ele>
        <time>2023-05-04T15:29:27.091Z</time>
      </trkpt>
      <trkpt lat="47.95967" lon="-2.59011">
        <ele>90.677443</ele>
        <time>2023-05-04T15:29:29.089Z</time>
      </trkpt>
      <trkpt lat="47.95958" lon="-2.58998">
        <ele>90.691678</ele>
        <time>2023-05-04T15:29:32.083Z</time>
      </trkpt>
      <trkpt lat="47.95949" lon="-2.58986">
        <ele>90.704885</ele>
        <time>2023-05-04T15:29:35.094Z</time>
      </trkpt>
      <trkpt lat="47.95941" lon="-2.58973">
        <ele>90.717921</ele>
        <time>2023-05-04T15:29:38.092Z</time>
      </trkpt>
      <trkpt lat="47.95933" lon="-2.58961">
        <ele>90.730776</ele>
        <time>2023-05-04T15:29:41.093Z</time>
      </trkpt>
      <trkpt lat="47.95926" lon="-2.58949">
        <ele>90.743345</ele>
        <time>2023-05-04T15:29:44.090Z</time>
      </trkpt>
      <trkpt lat="47.95919" lon="-2.58936">
        <ele>90.714273</ele>
        <time>2023-05-04T15:29:47.091Z</time>
      </trkpt>
      <trkpt lat="47.95913" lon="-2.58921">
        <ele>90.308871</ele>
        <time>2023-05-04T15:29:51.089Z</time>
      </trkpt>
      <trkpt lat="47.95907" lon="-2.58907">
        <ele>89.92897</ele>
        <time>2023-05-04T15:29:54.090Z</time>
      </trkpt>
      <trkpt lat="47.95904" lon="-2.58892">
        <ele>89.553088</ele>
        <time>2023-05-04T15:29:57.087Z</time>
      </trkpt>
      <trkpt lat="47.95902" lon="-2.58876">
        <ele>89.179079</ele>
        <time>2023-05-04T15:30:00.083Z</time>
      </trkpt>
      <trkpt lat="47.959" lon="-2.58862">
        <ele>88.856488</ele>
        <time>2023-05-04T15:30:03.085Z</time>
      </trkpt>
      <trkpt lat="47.95897" lon="-2.58845">
        <ele>88.429892</ele>
        <time>2023-05-04T15:30:06.106Z</time>
      </trkpt>
      <trkpt lat="47.95893" lon="-2.58826">
        <ele>87.97132</ele>
        <time>2023-05-04T15:30:09.079Z</time>
      </trkpt>
      <trkpt lat="47.95889" lon="-2.58808">
        <ele>87.522331</ele>
        <time>2023-05-04T15:30:12.084Z</time>
      </trkpt>
      <trkpt lat="47.95883" lon="-2.5879">
        <ele>87.056561</ele>
        <time>2023-05-04T15:30:15.086Z</time>
      </trkpt>
      <trkpt lat="47.95878" lon="-2.58773">
        <ele>86.627753</ele>
        <time>2023-05-04T15:30:18.087Z</time>
      </trkpt>
      <trkpt lat="47.95873" lon="-2.5876">
        <ele>86.280784</ele>
        <time>2023-05-04T15:30:21.089Z</time>
      </trkpt>
      <trkpt lat="47.95867" lon="-2.58744">
        <ele>85.866769</ele>
        <time>2023-05-04T15:30:25.084Z</time>
      </trkpt>
      <trkpt lat="47.95863" lon="-2.58731">
        <ele>85.518192</ele>
        <time>2023-05-04T15:30:29.091Z</time>
      </trkpt>
      <trkpt lat="47.95858" lon="-2.58717">
        <ele>85.156429</ele>
        <time>2023-05-04T15:30:33.085Z</time>
      </trkpt>
      <trkpt lat="47.95853" lon="-2.58705">
        <ele>84.827061</ele>
        <time>2023-05-04T15:30:36.085Z</time>
      </trkpt>
      <trkpt lat="47.95848" lon="-2.5869">
        <ele>84.458137</ele>
        <time>2023-05-04T15:30:39.093Z</time>
      </trkpt>
      <trkpt lat="47.95843" lon="-2.58679">
        <ele>84.259666</ele>
        <time>2023-05-04T15:30:42.090Z</time>
      </trkpt>
      <trkpt lat="47.95836" lon="-2.58661">
        <ele>83.959157</ele>
        <time>2023-05-04T15:30:45.089Z</time>
      </trkpt>
      <trkpt lat="47.9583" lon="-2.58645">
        <ele>83.685692</ele>
        <time>2023-05-04T15:30:47.083Z</time>
      </trkpt>
      <trkpt lat="47.95826" lon="-2.5863">
        <ele>83.45287</ele>
        <time>2023-05-04T15:30:49.085Z</time>
      </trkpt>
      <trkpt lat="47.9582" lon="-2.58611">
        <ele>83.146089</ele>
        <time>2023-05-04T15:30:52.085Z</time>
      </trkpt>
      <trkpt lat="47.95816" lon="-2.58597">
        <ele>82.919105</ele>
        <time>2023-05-04T15:30:55.084Z</time>
      </trkpt>
      <trkpt lat="47.95811" lon="-2.58581">
        <ele>82.666348</ele>
        <time>2023-05-04T15:30:59.087Z</time>
      </trkpt>
      <trkpt lat="47.95805" lon="-2.58566">
        <ele>82.413411</ele>
        <time>2023-05-04T15:31:04.084Z</time>
      </trkpt>
      <trkpt lat="47.958" lon="-2.58553">
        <ele>82.184499</ele>
        <time>2023-05-04T15:31:07.089Z</time>
      </trkpt>
      <trkpt lat="47.95796" lon="-2.58539">
        <ele>81.97523</ele>
        <time>2023-05-04T15:31:10.095Z</time>
      </trkpt>
      <trkpt lat="47.95789" lon="-2.58523">
        <ele>81.693199</ele>
        <time>2023-05-04T15:31:13.084Z</time>
      </trkpt>
      <trkpt lat="47.95782" lon="-2.5851">
        <ele>81.450839</ele>
        <time>2023-05-04T15:31:15.089Z</time>
      </trkpt>
      <trkpt lat="47.95773" lon="-2.58498">
        <ele>81.190266</ele>
        <time>2023-05-04T15:31:18.093Z</time>
      </trkpt>
      <trkpt lat="47.95766" lon="-2.58485">
        <ele>80.951497</ele>
        <time>2023-05-04T15:31:21.088Z</time>
      </trkpt>
      <trkpt lat="47.9576" lon="-2.5847">
        <ele>80.690083</ele>
        <time>2023-05-04T15:31:24.088Z</time>
      </trkpt>
      <trkpt lat="47.95751" lon="-2.58458">
        <ele>80.392125</ele>
        <time>2023-05-04T15:31:27.091Z</time>
      </trkpt>
      <trkpt lat="47.95744" lon="-2.58449">
        <ele>80.135561</ele>
        <time>2023-05-04T15:31:30.089Z</time>
      </trkpt>
      <trkpt lat="47.95736" lon="-2.58436">
        <ele>79.82594</ele>
        <time>2023-05-04T15:31:33.084Z</time>
      </trkpt>
      <trkpt lat="47.95729" lon="-2.58423">
        <ele>79.519832</ele>
        <time>2023-05-04T15:31:36.083Z</time>
      </trkpt>
      <trkpt lat="47.95721" lon="-2.58408">
        <ele>79.172123</ele>
        <time>2023-05-04T15:31:40.088Z</time>
      </trkpt>
      <trkpt lat="47.95712" lon="-2.58395">
        <ele>78.838317</ele>
        <time>2023-05-04T15:31:43.095Z</time>
      </trkpt>
      <trkpt lat="47.95706" lon="-2.58384">
        <ele>78.562745</ele>
        <time>2023-05-04T15:31:45.080Z</time>
      </trkpt>
      <trkpt lat="47.95699" lon="-2.58373">
        <ele>78.292675</ele>
        <time>2023-05-04T15:31:47.084Z</time>
      </trkpt>
      <trkpt lat="47.95691" lon="-2.58362">
        <ele>78.002617</ele>
        <time>2023-05-04T15:31:49.087Z</time>
      </trkpt>
      <trkpt lat="47.95684" lon="-2.58349">
        <ele>77.70167</ele>
        <time>2023-05-04T15:31:51.093Z</time>
      </trkpt>
      <trkpt lat="47.95677" lon="-2.58338">
        <ele>77.420212</ele>
        <time>2023-05-04T15:31:53.087Z</time>
      </trkpt>
      <trkpt lat="47.95669" lon="-2.58326">
        <ele>77.12378</ele>
        <time>2023-05-04T15:31:55.081Z</time>
      </trkpt>
      <trkpt lat="47.95662" lon="-2.58314">
        <ele>76.829152</ele>
        <time>2023-05-04T15:31:57.078Z</time>
      </trkpt>
      <trkpt lat="47.95657" lon="-2.58304">
        <ele>76.581347</ele>
        <time>2023-05-04T15:31:59.089Z</time>
      </trkpt>
      <trkpt lat="47.9565" lon="-2.5829">
        <ele>76.268445</ele>
        <time>2023-05-04T15:32:02.089Z</time>
      </trkpt>
      <trkpt lat="47.9564" lon="-2.58275">
        <ele>75.901684</ele>
        <time>2023-05-04T15:32:05.091Z</time>
      </trkpt>
      <trkpt lat="47.95633" lon="-2.58264">
        <ele>75.806848</ele>
        <time>2023-05-04T15:32:08.086Z</time>
      </trkpt>
      <trkpt lat="47.95626" lon="-2.58253">
        <ele>76.274645</ele>
        <time>2023-05-04T15:32:11.081Z</time>
      </trkpt>
      <trkpt lat="47.95616" lon="-2.58241">
        <ele>76.844084</ele>
        <time>2023-05-04T15:32:14.087Z</time>
      </trkpt>
      <trkpt lat="47.95609" lon="-2.58228">
        <ele>77.337725</ele>
        <time>2023-05-04T15:32:17.091Z</time>
      </trkpt>
      <trkpt lat="47.95603" lon="-2.58216">
        <ele>77.772778</ele>
        <time>2023-05-04T15:32:19.084Z</time>
      </trkpt>
      <trkpt lat="47.95597" lon="-2.58204">
        <ele>78.234531</ele>
        <time>2023-05-04T15:32:22.089Z</time>
      </trkpt>
      <trkpt lat="47.95589" lon="-2.58191">
        <ele>78.757968</ele>
        <time>2023-05-04T15:32:25.087Z</time>
      </trkpt>
      <trkpt lat="47.95581" lon="-2.58177">
        <ele>79.319538</ele>
        <time>2023-05-04T15:32:28.086Z</time>
      </trkpt>
      <trkpt lat="47.95573" lon="-2.58164">
        <ele>79.84526</ele>
        <time>2023-05-04T15:32:31.077Z</time>
      </trkpt>
      <trkpt lat="47.95566" lon="-2.58153">
        <ele>80.299363</ele>
        <time>2023-05-04T15:32:34.088Z</time>
      </trkpt>
      <trkpt lat="47.95558" lon="-2.58142">
        <ele>80.8044</ele>
        <time>2023-05-04T15:32:37.090Z</time>
      </trkpt>
      <trkpt lat="47.95551" lon="-2.58132">
        <ele>81.240571</ele>
        <time>2023-05-04T15:32:39.090Z</time>
      </trkpt>
      <trkpt lat="47.95544" lon="-2.58122">
        <ele>81.671217</ele>
        <time>2023-05-04T15:32:41.084Z</time>
      </trkpt>
      <trkpt lat="47.95534" lon="-2.58108">
        <ele>82.263317</ele>
        <time>2023-05-04T15:32:44.089Z</time>
      </trkpt>
      <trkpt lat="47.95529" lon="-2.58098">
        <ele>82.668597</ele>
        <time>2023-05-04T15:32:46.093Z</time>
      </trkpt>
      <trkpt lat="47.95519" lon="-2.58085">
        <ele>83.254622</ele>
        <time>2023-05-04T15:32:49.096Z</time>
      </trkpt>
      <trkpt lat="47.9551" lon="-2.58072">
        <ele>83.718845</ele>
        <time>2023-05-04T15:32:52.093Z</time>
      </trkpt>
      <trkpt lat="47.95501" lon="-2.58059">
        <ele>83.28076</ele>
        <time>2023-05-04T15:32:55.087Z</time>
      </trkpt>
      <trkpt lat="47.95494" lon="-2.58049">
        <ele>82.967986</ele>
        <time>2023-05-04T15:32:57.096Z</time>
      </trkpt>
      <trkpt lat="47.95489" lon="-2.58038">
        <ele>82.651409</ele>
        <time>2023-05-04T15:32:59.094Z</time>
      </trkpt>
      <trkpt lat="47.95482" lon="-2.58022">
        <ele>82.212815</ele>
        <time>2023-05-04T15:33:02.093Z</time>
      </trkpt>
      <trkpt lat="47.95475" lon="-2.58009">
        <ele>81.834558</ele>
        <time>2023-05-04T15:33:05.091Z</time>
      </trkpt>
      <trkpt lat="47.95468" lon="-2.57998">
        <ele>81.491575</ele>
        <time>2023-05-04T15:33:08.091Z</time>
      </trkpt>
      <trkpt lat="47.95461" lon="-2.57986">
        <ele>81.110453</ele>
        <time>2023-05-04T15:33:11.092Z</time>
      </trkpt>
      <trkpt lat="47.95454" lon="-2.57974">
        <ele>80.762387</ele>
        <time>2023-05-04T15:33:13.095Z</time>
      </trkpt>
      <trkpt lat="47.95446" lon="-2.57963">
        <ele>80.383151</ele>
        <time>2023-05-04T15:33:16.103Z</time>
      </trkpt>
      <trkpt lat="47.95437" lon="-2.5795">
        <ele>79.950997</ele>
        <time>2023-05-04T15:33:21.093Z</time>
      </trkpt>
      <trkpt lat="47.95428" lon="-2.57938">
        <ele>79.544428</ele>
        <time>2023-05-04T15:33:24.095Z</time>
      </trkpt>
      <trkpt lat="47.95423" lon="-2.57926">
        <ele>79.214919</ele>
        <time>2023-05-04T15:33:28.090Z</time>
      </trkpt>
      <trkpt lat="47.95417" lon="-2.57915">
        <ele>78.889004</ele>
        <time>2023-05-04T15:33:31.089Z</time>
      </trkpt>
      <trkpt lat="47.95282" lon="-2.55174">
        <ele>85.806367</ele>
        <time>2023-05-04T15:47:25.074Z</time>
      </trkpt>
      <trkpt lat="47.95286" lon="-2.55162">
        <ele>86.002184</ele>
        <time>2023-05-04T15:49:43.086Z</time>
      </trkpt>
      <trkpt lat="47.95285" lon="-2.55147">
        <ele>86.215783</ele>
        <time>2023-05-04T15:49:48.097Z</time>
      </trkpt>
      <trkpt lat="47.95284" lon="-2.55133">
        <ele>86.422912</ele>
        <time>2023-05-04T15:49:51.093Z</time>
      </trkpt>
      <trkpt lat="47.95284" lon="-2.55117">
        <ele>86.645913</ele>
        <time>2023-05-04T15:49:54.092Z</time>
      </trkpt>
      <trkpt lat="47.95283" lon="-2.55103">
        <ele>86.862001</ele>
        <time>2023-05-04T15:49:57.096Z</time>
      </trkpt>
      <trkpt lat="47.95282" lon="-2.55085">
        <ele>87.111993</ele>
        <time>2023-05-04T15:50:01.092Z</time>
      </trkpt>
      <trkpt lat="47.95281" lon="-2.55068">
        <ele>87.369394</ele>
        <time>2023-05-04T15:50:05.091Z</time>
      </trkpt>
      <trkpt lat="47.95281" lon="-2.55054">
        <ele>87.56466</ele>
        <time>2023-05-04T15:50:08.091Z</time>
      </trkpt>
      <trkpt lat="47.95281" lon="-2.55038">
        <ele>87.80183</ele>
        <time>2023-05-04T15:50:12.078Z</time>
      </trkpt>
      <trkpt lat="47.9528" lon="-2.55023">
        <ele>88.016314</ele>
        <time>2023-05-04T15:50:17.087Z</time>
      </trkpt>
      <trkpt lat="47.95277" lon="-2.54992">
        <ele>88.461868</ele>
        <time>2023-05-04T15:52:51.089Z</time>
      </trkpt>
      <trkpt lat="47.95274" lon="-2.54978">
        <ele>88.671158</ele>
        <time>2023-05-04T15:52:55.096Z</time>
      </trkpt>
      <trkpt lat="47.95275" lon="-2.54962">
        <ele>88.911374</ele>
        <time>2023-05-04T15:52:59.095Z</time>
      </trkpt>
      <trkpt lat="47.95275" lon="-2.54948">
        <ele>89.109471</ele>
        <time>2023-05-04T15:53:03.090Z</time>
      </trkpt>
      <trkpt lat="47.95275" lon="-2.54933">
        <ele>89.3267</ele>
        <time>2023-05-04T15:53:08.093Z</time>
      </trkpt>
      <trkpt lat="47.95274" lon="-2.54919">
        <ele>89.529374</ele>
        <time>2023-05-04T15:53:13.089Z</time>
      </trkpt>
      <trkpt lat="47.95275" lon="-2.54905">
        <ele>89.518607</ele>
        <time>2023-05-04T15:53:17.084Z</time>
      </trkpt>
      <trkpt lat="47.95272" lon="-2.54889">
        <ele>89.382193</ele>
        <time>2023-05-04T15:53:22.096Z</time>
      </trkpt>
      <trkpt lat="47.9527" lon="-2.54873">
        <ele>89.248986</ele>
        <time>2023-05-04T15:53:26.081Z</time>
      </trkpt>
      <trkpt lat="47.95262" lon="-2.54864">
        <ele>89.132171</ele>
        <time>2023-05-04T15:53:30.095Z</time>
      </trkpt>
      <trkpt lat="47.95252" lon="-2.54869">
        <ele>89.010431</ele>
        <time>2023-05-04T15:53:34.094Z</time>
      </trkpt>
      <trkpt lat="47.95242" lon="-2.54873">
        <ele>88.885406</ele>
        <time>2023-05-04T15:53:38.079Z</time>
      </trkpt>
      <trkpt lat="47.95233" lon="-2.54878">
        <ele>88.767151</ele>
        <time>2023-05-04T15:53:43.096Z</time>
      </trkpt>
      <trkpt lat="47.95224" lon="-2.54881">
        <ele>88.654488</ele>
        <time>2023-05-04T15:54:05.089Z</time>
      </trkpt>
      <trkpt lat="47.95224" lon="-2.5488">
        <ele>88.642106</ele>
        <time>2023-05-04T15:55:47.488Z</time>
      </trkpt>
      <trkpt lat="47.95238" lon="-2.54869">
        <ele>88.447095</ele>
        <time>2023-05-04T16:52:29.085Z</time>
      </trkpt>
      <trkpt lat="47.95247" lon="-2.54866">
        <ele>88.331574</ele>
        <time>2023-05-04T16:52:34.080Z</time>
      </trkpt>
      <trkpt lat="47.95257" lon="-2.54859">
        <ele>88.201797</ele>
        <time>2023-05-04T16:52:40.074Z</time>
      </trkpt>
      <trkpt lat="47.9526" lon="-2.54845">
        <ele>88.086051</ele>
        <time>2023-05-04T16:52:45.073Z</time>
      </trkpt>
      <trkpt lat="47.95257" lon="-2.54828">
        <ele>87.947899</ele>
        <time>2023-05-04T16:52:49.082Z</time>
      </trkpt>
      <trkpt lat="47.95254" lon="-2.54816">
        <ele>87.83588</ele>
        <time>2023-05-04T16:52:52.096Z</time>
      </trkpt>
      <trkpt lat="47.95248" lon="-2.54803">
        <ele>87.709477</ele>
        <time>2023-05-04T16:52:55.085Z</time>
      </trkpt>
      <trkpt lat="47.95241" lon="-2.54791">
        <ele>87.58185</ele>
        <time>2023-05-04T16:52:58.085Z</time>
      </trkpt>
      <trkpt lat="47.95234" lon="-2.5478">
        <ele>87.458412</ele>
        <time>2023-05-04T16:53:01.083Z</time>
      </trkpt>
      <trkpt lat="47.95227" lon="-2.5477">
        <ele>87.343884</ele>
        <time>2023-05-04T16:53:04.085Z</time>
      </trkpt>
      <trkpt lat="47.95219" lon="-2.5476">
        <ele>87.228118</ele>
        <time>2023-05-04T16:53:07.080Z</time>
      </trkpt>
      <trkpt lat="47.95212" lon="-2.5475">
        <ele>87.117111</ele>
        <time>2023-05-04T16:53:10.073Z</time>
      </trkpt>
      <trkpt lat="47.95205" lon="-2.5474">
        <ele>87.003032</ele>
        <time>2023-05-04T16:53:13.086Z</time>
      </trkpt>
      <trkpt lat="47.95197" lon="-2.54729">
        <ele>86.882663</ele>
        <time>2023-05-04T16:53:16.082Z</time>
      </trkpt>
      <trkpt lat="47.95189" lon="-2.54719">
        <ele>86.770222</ele>
        <time>2023-05-04T16:53:19.078Z</time>
      </trkpt>
      <trkpt lat="47.95182" lon="-2.54709">
        <ele>86.656649</ele>
        <time>2023-05-04T16:53:22.080Z</time>
      </trkpt>
      <trkpt lat="47.95174" lon="-2.54698">
        <ele>86.535756</ele>
        <time>2023-05-04T16:53:25.080Z</time>
      </trkpt>
      <trkpt lat="47.95164" lon="-2.54686">
        <ele>86.390284</ele>
        <time>2023-05-04T16:53:28.078Z</time>
      </trkpt>
      <trkpt lat="47.95155" lon="-2.54673">
        <ele>86.251129</ele>
        <time>2023-05-04T16:53:31.077Z</time>
      </trkpt>
      <trkpt lat="47.95146" lon="-2.54662">
        <ele>86.116572</ele>
        <time>2023-05-04T16:53:34.087Z</time>
      </trkpt>
      <trkpt lat="47.95137" lon="-2.54649">
        <ele>85.981283</ele>
        <time>2023-05-04T16:53:37.085Z</time>
      </trkpt>
      <trkpt lat="47.95129" lon="-2.54637">
        <ele>85.847328</ele>
        <time>2023-05-04T16:53:40.085Z</time>
      </trkpt>
      <trkpt lat="47.95124" lon="-2.54624">
        <ele>85.731644</ele>
        <time>2023-05-04T16:53:43.077Z</time>
      </trkpt>
      <trkpt lat="47.95118" lon="-2.54612">
        <ele>85.618506</ele>
        <time>2023-05-04T16:53:47.076Z</time>
      </trkpt>
      <trkpt lat="47.95103" lon="-2.54593">
        <ele>85.399514</ele>
        <time>2023-05-04T16:54:59.086Z</time>
      </trkpt>
      <trkpt lat="47.95095" lon="-2.54583">
        <ele>84.819039</ele>
        <time>2023-05-04T16:55:07.070Z</time>
      </trkpt>
      <trkpt lat="47.95087" lon="-2.54575">
        <ele>84.271358</ele>
        <time>2023-05-04T16:55:11.069Z</time>
      </trkpt>
      <trkpt lat="47.95078" lon="-2.54564">
        <ele>83.574609</ele>
        <time>2023-05-04T16:55:15.067Z</time>
      </trkpt>
      <trkpt lat="47.95071" lon="-2.54555">
        <ele>82.995274</ele>
        <time>2023-05-04T16:55:18.074Z</time>
      </trkpt>
      <trkpt lat="47.95063" lon="-2.54545">
        <ele>82.360771</ele>
        <time>2023-05-04T16:55:21.073Z</time>
      </trkpt>
      <trkpt lat="47.95056" lon="-2.54537">
        <ele>81.796033</ele>
        <time>2023-05-04T16:55:24.084Z</time>
      </trkpt>
      <trkpt lat="47.95047" lon="-2.54527">
        <ele>81.116899</ele>
        <time>2023-05-04T16:55:28.069Z</time>
      </trkpt>
      <trkpt lat="47.95038" lon="-2.54519">
        <ele>80.523249</ele>
        <time>2023-05-04T16:55:32.070Z</time>
      </trkpt>
      <trkpt lat="47.9503" lon="-2.5451">
        <ele>79.906774</ele>
        <time>2023-05-04T16:55:36.086Z</time>
      </trkpt>
      <trkpt lat="47.95023" lon="-2.54501">
        <ele>79.34022</ele>
        <time>2023-05-04T16:55:40.079Z</time>
      </trkpt>
      <trkpt lat="47.95014" lon="-2.54492">
        <ele>78.702416</ele>
        <time>2023-05-04T16:55:45.085Z</time>
      </trkpt>
      <trkpt lat="47.95005" lon="-2.54481">
        <ele>77.964121</ele>
        <time>2023-05-04T16:55:49.070Z</time>
      </trkpt>
      <trkpt lat="47.94997" lon="-2.5447">
        <ele>77.318316</ele>
        <time>2023-05-04T16:55:52.080Z</time>
      </trkpt>
      <trkpt lat="47.94987" lon="-2.54461">
        <ele>76.624422</ele>
        <time>2023-05-04T16:55:55.075Z</time>
      </trkpt>
      <trkpt lat="47.94977" lon="-2.5445">
        <ele>75.856668</ele>
        <time>2023-05-04T16:55:58.076Z</time>
      </trkpt>
      <trkpt lat="47.94967" lon="-2.54439">
        <ele>75.121288</ele>
        <time>2023-05-04T16:56:01.074Z</time>
      </trkpt>
      <trkpt lat="47.94959" lon="-2.54429">
        <ele>74.466358</ele>
        <time>2023-05-04T16:56:04.070Z</time>
      </trkpt>
      <trkpt lat="47.94951" lon="-2.54419">
        <ele>74.497675</ele>
        <time>2023-05-04T16:56:07.072Z</time>
      </trkpt>
      <trkpt lat="47.94944" lon="-2.5441">
        <ele>74.538796</ele>
        <time>2023-05-04T16:56:10.069Z</time>
      </trkpt>
      <trkpt lat="47.94937" lon="-2.54401">
        <ele>74.579663</ele>
        <time>2023-05-04T16:56:13.081Z</time>
      </trkpt>
      <trkpt lat="47.94929" lon="-2.54394">
        <ele>74.620741</ele>
        <time>2023-05-04T16:56:16.094Z</time>
      </trkpt>
      <trkpt lat="47.94922" lon="-2.54386">
        <ele>74.663266</ele>
        <time>2023-05-04T16:56:19.069Z</time>
      </trkpt>
      <trkpt lat="47.94912" lon="-2.54378">
        <ele>74.709754</ele>
        <time>2023-05-04T16:56:22.071Z</time>
      </trkpt>
      <trkpt lat="47.94904" lon="-2.54371">
        <ele>74.751612</ele>
        <time>2023-05-04T16:56:25.076Z</time>
      </trkpt>
      <trkpt lat="47.94895" lon="-2.54364">
        <ele>74.799139</ele>
        <time>2023-05-04T16:56:29.086Z</time>
      </trkpt>
      <trkpt lat="47.94886" lon="-2.54358">
        <ele>74.844293</ele>
        <time>2023-05-04T16:56:33.081Z</time>
      </trkpt>
      <trkpt lat="47.94875" lon="-2.54351">
        <ele>74.896131</ele>
        <time>2023-05-04T16:56:37.077Z</time>
      </trkpt>
      <trkpt lat="47.94866" lon="-2.54344">
        <ele>74.941798</ele>
        <time>2023-05-04T16:56:40.073Z</time>
      </trkpt>
      <trkpt lat="47.94857" lon="-2.54338">
        <ele>74.987177</ele>
        <time>2023-05-04T16:56:43.077Z</time>
      </trkpt>
      <trkpt lat="47.94848" lon="-2.54331">
        <ele>75.031488</ele>
        <time>2023-05-04T16:56:46.074Z</time>
      </trkpt>
      <trkpt lat="47.94838" lon="-2.54325">
        <ele>75.079328</ele>
        <time>2023-05-04T16:56:49.080Z</time>
      </trkpt>
      <trkpt lat="47.94829" lon="-2.54319">
        <ele>75.125874</ele>
        <time>2023-05-04T16:56:52.074Z</time>
      </trkpt>
      <trkpt lat="47.94818" lon="-2.54312">
        <ele>75.177472</ele>
        <time>2023-05-04T16:56:56.071Z</time>
      </trkpt>
      <trkpt lat="47.94808" lon="-2.54306">
        <ele>75.225453</ele>
        <time>2023-05-04T16:56:59.082Z</time>
      </trkpt>
      <trkpt lat="47.94799" lon="-2.54301">
        <ele>75.247636</ele>
        <time>2023-05-04T16:57:02.086Z</time>
      </trkpt>
      <trkpt lat="47.9479" lon="-2.54294">
        <ele>75.215453</ele>
        <time>2023-05-04T16:57:05.080Z</time>
      </trkpt>
      <trkpt lat="47.9478" lon="-2.54287">
        <ele>75.18012</ele>
        <time>2023-05-04T16:57:08.084Z</time>
      </trkpt>
      <trkpt lat="47.9477" lon="-2.54279">
        <ele>75.144689</ele>
        <time>2023-05-04T16:57:11.078Z</time>
      </trkpt>
      <trkpt lat="47.94761" lon="-2.54274">
        <ele>75.112893</ele>
        <time>2023-05-04T16:57:14.074Z</time>
      </trkpt>
      <trkpt lat="47.94749" lon="-2.54267">
        <ele>75.071777</ele>
        <time>2023-05-04T16:57:18.079Z</time>
      </trkpt>
      <trkpt lat="47.94739" lon="-2.5426">
        <ele>75.036023</ele>
        <time>2023-05-04T16:57:21.081Z</time>
      </trkpt>
      <trkpt lat="47.9473" lon="-2.54252">
        <ele>75.003619</ele>
        <time>2023-05-04T16:57:24.084Z</time>
      </trkpt>
      <trkpt lat="47.94721" lon="-2.54246">
        <ele>74.971635</ele>
        <time>2023-05-04T16:57:27.083Z</time>
      </trkpt>
      <trkpt lat="47.9471" lon="-2.54239">
        <ele>74.934239</ele>
        <time>2023-05-04T16:57:31.067Z</time>
      </trkpt>
      <trkpt lat="47.947" lon="-2.54231">
        <ele>74.897454</ele>
        <time>2023-05-04T16:57:34.084Z</time>
      </trkpt>
      <trkpt lat="47.94692" lon="-2.54222">
        <ele>74.864653</ele>
        <time>2023-05-04T16:57:37.070Z</time>
      </trkpt>
      <trkpt lat="47.94683" lon="-2.54216">
        <ele>74.83343</ele>
        <time>2023-05-04T16:57:40.079Z</time>
      </trkpt>
      <trkpt lat="47.94675" lon="-2.5421">
        <ele>74.804254</ele>
        <time>2023-05-04T16:57:43.075Z</time>
      </trkpt>
      <trkpt lat="47.94665" lon="-2.54203">
        <ele>74.769006</ele>
        <time>2023-05-04T16:57:46.070Z</time>
      </trkpt>
      <trkpt lat="47.94656" lon="-2.54195">
        <ele>74.737159</ele>
        <time>2023-05-04T16:57:48.084Z</time>
      </trkpt>
      <trkpt lat="47.94648" lon="-2.54189">
        <ele>74.706041</ele>
        <time>2023-05-04T16:57:51.128Z</time>
      </trkpt>
      <trkpt lat="47.94639" lon="-2.54182">
        <ele>74.679119</ele>
        <time>2023-05-04T16:57:54.083Z</time>
      </trkpt>
      <trkpt lat="47.9463" lon="-2.54174">
        <ele>74.674123</ele>
        <time>2023-05-04T16:57:57.081Z</time>
      </trkpt>
      <trkpt lat="47.94621" lon="-2.54168">
        <ele>74.669486</ele>
        <time>2023-05-04T16:58:00.078Z</time>
      </trkpt>
      <trkpt lat="47.94611" lon="-2.54159">
        <ele>74.664183</ele>
        <time>2023-05-04T16:58:04.084Z</time>
      </trkpt>
      <trkpt lat="47.94601" lon="-2.54151">
        <ele>74.658781</ele>
        <time>2023-05-04T16:58:08.084Z</time>
      </trkpt>
      <trkpt lat="47.94593" lon="-2.54143">
        <ele>74.654205</ele>
        <time>2023-05-04T16:58:11.079Z</time>
      </trkpt>
      <trkpt lat="47.94585" lon="-2.54135">
        <ele>74.649576</ele>
        <time>2023-05-04T16:58:14.083Z</time>
      </trkpt>
      <trkpt lat="47.94577" lon="-2.54129">
        <ele>74.64525</ele>
        <time>2023-05-04T16:58:17.085Z</time>
      </trkpt>
      <trkpt lat="47.94569" lon="-2.5412">
        <ele>74.640429</ele>
        <time>2023-05-04T16:58:21.080Z</time>
      </trkpt>
      <trkpt lat="47.9456" lon="-2.54113">
        <ele>74.63566</ele>
        <time>2023-05-04T16:58:24.079Z</time>
      </trkpt>
      <trkpt lat="47.94552" lon="-2.54107">
        <ele>74.631362</ele>
        <time>2023-05-04T16:58:27.070Z</time>
      </trkpt>
      <trkpt lat="47.94542" lon="-2.541">
        <ele>74.626173</ele>
        <time>2023-05-04T16:58:30.070Z</time>
      </trkpt>
      <trkpt lat="47.94532" lon="-2.54093">
        <ele>74.620975</ele>
        <time>2023-05-04T16:58:33.075Z</time>
      </trkpt>
      <trkpt lat="47.94522" lon="-2.54086">
        <ele>74.615813</ele>
        <time>2023-05-04T16:58:36.075Z</time>
      </trkpt>
      <trkpt lat="47.94512" lon="-2.54081">
        <ele>74.610919</ele>
        <time>2023-05-04T16:58:39.083Z</time>
      </trkpt>
      <trkpt lat="47.94504" lon="-2.54074">
        <ele>74.606508</ele>
        <time>2023-05-04T16:58:42.083Z</time>
      </trkpt>
      <trkpt lat="47.94494" lon="-2.54068">
        <ele>74.601327</ele>
        <time>2023-05-04T16:58:45.070Z</time>
      </trkpt>
      <trkpt lat="47.94483" lon="-2.54062">
        <ele>74.595966</ele>
        <time>2023-05-04T16:58:48.083Z</time>
      </trkpt>
      <trkpt lat="47.94473" lon="-2.54056">
        <ele>74.735249</ele>
        <time>2023-05-04T16:58:52.077Z</time>
      </trkpt>
      <trkpt lat="47.94464" lon="-2.54051">
        <ele>74.884737</ele>
        <time>2023-05-04T16:58:55.078Z</time>
      </trkpt>
      <trkpt lat="47.94456" lon="-2.54047">
        <ele>75.034224</ele>
        <time>2023-05-04T16:58:58.083Z</time>
      </trkpt>
      <trkpt lat="47.94444" lon="-2.54042">
        <ele>75.235431</ele>
        <time>2023-05-04T16:59:02.081Z</time>
      </trkpt>
      <trkpt lat="47.94434" lon="-2.54037">
        <ele>75.402936</ele>
        <time>2023-05-04T16:59:05.081Z</time>
      </trkpt>
      <trkpt lat="47.94423" lon="-2.54031">
        <ele>75.591819</ele>
        <time>2023-05-04T16:59:09.083Z</time>
      </trkpt>
      <trkpt lat="47.94413" lon="-2.54026">
        <ele>75.764182</ele>
        <time>2023-05-04T16:59:12.069Z</time>
      </trkpt>
      <trkpt lat="47.94403" lon="-2.5402">
        <ele>75.946522</ele>
        <time>2023-05-04T16:59:15.066Z</time>
      </trkpt>
      <trkpt lat="47.94393" lon="-2.54014">
        <ele>76.118945</ele>
        <time>2023-05-04T16:59:18.067Z</time>
      </trkpt>
      <trkpt lat="47.94383" lon="-2.5401">
        <ele>76.295389</ele>
        <time>2023-05-04T16:59:21.078Z</time>
      </trkpt>
      <trkpt lat="47.94373" lon="-2.54006">
        <ele>76.463384</ele>
        <time>2023-05-04T16:59:24.067Z</time>
      </trkpt>
      <trkpt lat="47.94362" lon="-2.54001">
        <ele>76.64268</ele>
        <time>2023-05-04T16:59:28.074Z</time>
      </trkpt>
      <trkpt lat="47.94353" lon="-2.53999">
        <ele>76.802137</ele>
        <time>2023-05-04T16:59:31.073Z</time>
      </trkpt>
      <trkpt lat="47.94342" lon="-2.53998">
        <ele>76.978762</ele>
        <time>2023-05-04T16:59:34.069Z</time>
      </trkpt>
      <trkpt lat="47.94333" lon="-2.53995">
        <ele>77.12519</ele>
        <time>2023-05-04T16:59:37.077Z</time>
      </trkpt>
      <trkpt lat="47.94324" lon="-2.53991">
        <ele>77.275419</ele>
        <time>2023-05-04T16:59:40.070Z</time>
      </trkpt>
      <trkpt lat="47.94314" lon="-2.53989">
        <ele>77.449718</ele>
        <time>2023-05-04T16:59:43.071Z</time>
      </trkpt>
      <trkpt lat="47.94302" lon="-2.53984">
        <ele>77.24792</ele>
        <time>2023-05-04T16:59:46.083Z</time>
      </trkpt>
      <trkpt lat="47.94292" lon="-2.53979">
        <ele>76.807039</ele>
        <time>2023-05-04T16:59:49.085Z</time>
      </trkpt>
      <trkpt lat="47.94282" lon="-2.53976">
        <ele>76.377649</ele>
        <time>2023-05-04T16:59:52.090Z</time>
      </trkpt>
      <trkpt lat="47.94271" lon="-2.53973">
        <ele>75.899119</ele>
        <time>2023-05-04T16:59:55.080Z</time>
      </trkpt>
      <trkpt lat="47.9426" lon="-2.53969">
        <ele>75.418416</ele>
        <time>2023-05-04T16:59:58.083Z</time>
      </trkpt>
      <trkpt lat="47.9425" lon="-2.53964">
        <ele>74.952705</ele>
        <time>2023-05-04T17:00:01.065Z</time>
      </trkpt>
      <trkpt lat="47.9424" lon="-2.53959">
        <ele>74.53846</ele>
        <time>2023-05-04T17:00:04.085Z</time>
      </trkpt>
      <trkpt lat="47.9423" lon="-2.53955">
        <ele>74.073416</ele>
        <time>2023-05-04T17:00:08.068Z</time>
      </trkpt>
      <trkpt lat="47.94221" lon="-2.53952">
        <ele>73.691091</ele>
        <time>2023-05-04T17:00:11.069Z</time>
      </trkpt>
      <trkpt lat="47.94212" lon="-2.53949">
        <ele>73.298109</ele>
        <time>2023-05-04T17:00:14.077Z</time>
      </trkpt>
      <trkpt lat="47.94202" lon="-2.53945">
        <ele>72.900439</ele>
        <time>2023-05-04T17:00:17.077Z</time>
      </trkpt>
      <trkpt lat="47.94191" lon="-2.5394">
        <ele>72.390567</ele>
        <time>2023-05-04T17:00:21.069Z</time>
      </trkpt>
      <trkpt lat="47.9418" lon="-2.53935">
        <ele>71.919407</ele>
        <time>2023-05-04T17:00:24.074Z</time>
      </trkpt>
      <trkpt lat="47.94168" lon="-2.53929">
        <ele>71.381042</ele>
        <time>2023-05-04T17:00:28.071Z</time>
      </trkpt>
      <trkpt lat="47.94159" lon="-2.53923">
        <ele>70.953105</ele>
        <time>2023-05-04T17:00:31.068Z</time>
      </trkpt>
      <trkpt lat="47.94149" lon="-2.53918">
        <ele>70.5162</ele>
        <time>2023-05-04T17:00:34.073Z</time>
      </trkpt>
      <trkpt lat="47.94139" lon="-2.53909">
        <ele>70.021699</ele>
        <time>2023-05-04T17:00:37.081Z</time>
      </trkpt>
      <trkpt lat="47.94129" lon="-2.53902">
        <ele>70.025951</ele>
        <time>2023-05-04T17:00:40.080Z</time>
      </trkpt>
      <trkpt lat="47.94118" lon="-2.53897">
        <ele>70.117237</ele>
        <time>2023-05-04T17:00:44.080Z</time>
      </trkpt>
      <trkpt lat="47.94108" lon="-2.53892">
        <ele>70.19464</ele>
        <time>2023-05-04T17:00:47.082Z</time>
      </trkpt>
      <trkpt lat="47.94099" lon="-2.53887">
        <ele>70.267871</ele>
        <time>2023-05-04T17:00:50.070Z</time>
      </trkpt>
      <trkpt lat="47.94088" lon="-2.53881">
        <ele>70.348587</ele>
        <time>2023-05-04T17:00:53.084Z</time>
      </trkpt>
      <trkpt lat="47.9408" lon="-2.53876">
        <ele>70.417788</ele>
        <time>2023-05-04T17:00:56.068Z</time>
      </trkpt>
      <trkpt lat="47.9407" lon="-2.53871">
        <ele>70.493961</ele>
        <time>2023-05-04T17:00:59.076Z</time>
      </trkpt>
      <trkpt lat="47.94061" lon="-2.53865">
        <ele>70.568406</ele>
        <time>2023-05-04T17:01:02.070Z</time>
      </trkpt>
      <trkpt lat="47.94052" lon="-2.53861">
        <ele>70.636609</ele>
        <time>2023-05-04T17:01:05.071Z</time>
      </trkpt>
      <trkpt lat="47.94043" lon="-2.53858">
        <ele>70.710036</ele>
        <time>2023-05-04T17:01:08.082Z</time>
      </trkpt>
      <trkpt lat="47.94032" lon="-2.53853">
        <ele>70.792211</ele>
        <time>2023-05-04T17:01:11.078Z</time>
      </trkpt>
      <trkpt lat="47.94021" lon="-2.53849">
        <ele>70.876126</ele>
        <time>2023-05-04T17:01:14.080Z</time>
      </trkpt>
      <trkpt lat="47.9401" lon="-2.53845">
        <ele>70.958703</ele>
        <time>2023-05-04T17:01:17.083Z</time>
      </trkpt>
      <trkpt lat="47.93999" lon="-2.53842">
        <ele>71.04595</ele>
        <time>2023-05-04T17:01:21.081Z</time>
      </trkpt>
      <trkpt lat="47.93988" lon="-2.53841">
        <ele>71.122799</ele>
        <time>2023-05-04T17:01:24.082Z</time>
      </trkpt>
      <trkpt lat="47.93979" lon="-2.53839">
        <ele>71.194935</ele>
        <time>2023-05-04T17:01:27.087Z</time>
      </trkpt>
      <trkpt lat="47.93968" lon="-2.53837">
        <ele>71.276605</ele>
        <time>2023-05-04T17:01:30.078Z</time>
      </trkpt>
      <trkpt lat="47.93957" lon="-2.53836">
        <ele>71.497286</ele>
        <time>2023-05-04T17:01:33.081Z</time>
      </trkpt>
      <trkpt lat="47.93946" lon="-2.53835">
        <ele>71.754427</ele>
        <time>2023-05-04T17:01:36.083Z</time>
      </trkpt>
      <trkpt lat="47.93937" lon="-2.53834">
        <ele>71.98006</ele>
        <time>2023-05-04T17:01:39.074Z</time>
      </trkpt>
      <trkpt lat="47.93926" lon="-2.53835">
        <ele>72.23692</ele>
        <time>2023-05-04T17:01:42.084Z</time>
      </trkpt>
      <trkpt lat="47.93915" lon="-2.53836">
        <ele>72.49406</ele>
        <time>2023-05-04T17:01:45.083Z</time>
      </trkpt>
      <trkpt lat="47.93906" lon="-2.53833">
        <ele>72.733775</ele>
        <time>2023-05-04T17:01:48.078Z</time>
      </trkpt>
      <trkpt lat="47.93897" lon="-2.53831">
        <ele>72.951868</ele>
        <time>2023-05-04T17:01:51.081Z</time>
      </trkpt>
      <trkpt lat="47.93886" lon="-2.53829">
        <ele>73.21557</ele>
        <time>2023-05-04T17:01:54.084Z</time>
      </trkpt>
      <trkpt lat="47.93875" lon="-2.53826">
        <ele>73.480679</ele>
        <time>2023-05-04T17:01:57.071Z</time>
      </trkpt>
      <trkpt lat="47.93865" lon="-2.53823">
        <ele>73.721866</ele>
        <time>2023-05-04T17:02:00.074Z</time>
      </trkpt>
      <trkpt lat="47.93855" lon="-2.53821">
        <ele>73.950163</ele>
        <time>2023-05-04T17:02:03.068Z</time>
      </trkpt>
      <trkpt lat="47.93845" lon="-2.53816">
        <ele>74.207038</ele>
        <time>2023-05-04T17:02:06.079Z</time>
      </trkpt>
      <trkpt lat="47.93836" lon="-2.53808">
        <ele>74.47739</ele>
        <time>2023-05-04T17:02:09.073Z</time>
      </trkpt>
      <trkpt lat="47.93826" lon="-2.538">
        <ele>74.744073</ele>
        <time>2023-05-04T17:02:12.071Z</time>
      </trkpt>
      <trkpt lat="47.93818" lon="-2.53792">
        <ele>74.971935</ele>
        <time>2023-05-04T17:02:15.084Z</time>
      </trkpt>
      <trkpt lat="47.93809" lon="-2.53782">
        <ele>75.226753</ele>
        <time>2023-05-04T17:02:18.084Z</time>
      </trkpt>
      <trkpt lat="47.93801" lon="-2.53773">
        <ele>75.475067</ele>
        <time>2023-05-04T17:02:21.082Z</time>
      </trkpt>
      <trkpt lat="47.93793" lon="-2.53764">
        <ele>75.511604</ele>
        <time>2023-05-04T17:02:24.077Z</time>
      </trkpt>
      <trkpt lat="47.93785" lon="-2.53757">
        <ele>75.290243</ele>
        <time>2023-05-04T17:02:27.079Z</time>
      </trkpt>
      <trkpt lat="47.93777" lon="-2.53748">
        <ele>75.058364</ele>
        <time>2023-05-04T17:02:30.074Z</time>
      </trkpt>
      <trkpt lat="47.93768" lon="-2.53738">
        <ele>74.788781</ele>
        <time>2023-05-04T17:02:33.073Z</time>
      </trkpt>
      <trkpt lat="47.93757" lon="-2.53727">
        <ele>74.484234</ele>
        <time>2023-05-04T17:02:36.083Z</time>
      </trkpt>
      <trkpt lat="47.93747" lon="-2.53716">
        <ele>74.192881</ele>
        <time>2023-05-04T17:02:39.071Z</time>
      </trkpt>
      <trkpt lat="47.93737" lon="-2.53706">
        <ele>73.915406</ele>
        <time>2023-05-04T17:02:42.078Z</time>
      </trkpt>
      <trkpt lat="47.93727" lon="-2.53696">
        <ele>73.621271</ele>
        <time>2023-05-04T17:02:45.072Z</time>
      </trkpt>
      <trkpt lat="47.93718" lon="-2.53685">
        <ele>73.355305</ele>
        <time>2023-05-04T17:02:48.072Z</time>
      </trkpt>
      <trkpt lat="47.9371" lon="-2.53675">
        <ele>73.101724</ele>
        <time>2023-05-04T17:02:51.074Z</time>
      </trkpt>
      <trkpt lat="47.93702" lon="-2.53666">
        <ele>72.867014</ele>
        <time>2023-05-04T17:02:54.074Z</time>
      </trkpt>
      <trkpt lat="47.93692" lon="-2.53656">
        <ele>72.5805</ele>
        <time>2023-05-04T17:02:58.077Z</time>
      </trkpt>
      <trkpt lat="47.93684" lon="-2.53646">
        <ele>72.333573</ele>
        <time>2023-05-04T17:03:01.079Z</time>
      </trkpt>
      <trkpt lat="47.93675" lon="-2.53637">
        <ele>72.093243</ele>
        <time>2023-05-04T17:03:04.084Z</time>
      </trkpt>
      <trkpt lat="47.93667" lon="-2.53627">
        <ele>71.836726</ele>
        <time>2023-05-04T17:03:07.077Z</time>
      </trkpt>
      <trkpt lat="47.93658" lon="-2.53618">
        <ele>71.594442</ele>
        <time>2023-05-04T17:03:10.085Z</time>
      </trkpt>
      <trkpt lat="47.93648" lon="-2.53609">
        <ele>71.426038</ele>
        <time>2023-05-04T17:03:14.087Z</time>
      </trkpt>
      <trkpt lat="47.93641" lon="-2.53601">
        <ele>71.556296</ele>
        <time>2023-05-04T17:03:17.081Z</time>
      </trkpt>
      <trkpt lat="47.93633" lon="-2.53592">
        <ele>71.696855</ele>
        <time>2023-05-04T17:03:20.073Z</time>
      </trkpt>
      <trkpt lat="47.93624" lon="-2.53583">
        <ele>71.846683</ele>
        <time>2023-05-04T17:03:23.075Z</time>
      </trkpt>
      <trkpt lat="47.93615" lon="-2.53575">
        <ele>71.997647</ele>
        <time>2023-05-04T17:03:26.071Z</time>
      </trkpt>
      <trkpt lat="47.93607" lon="-2.53568">
        <ele>72.136332</ele>
        <time>2023-05-04T17:03:29.076Z</time>
      </trkpt>
      <trkpt lat="47.93599" lon="-2.5356">
        <ele>72.271757</ele>
        <time>2023-05-04T17:03:32.083Z</time>
      </trkpt>
      <trkpt lat="47.93591" lon="-2.53552">
        <ele>72.408737</ele>
        <time>2023-05-04T17:03:35.075Z</time>
      </trkpt>
      <trkpt lat="47.93582" lon="-2.53545">
        <ele>72.558821</ele>
        <time>2023-05-04T17:03:39.069Z</time>
      </trkpt>
      <trkpt lat="47.93572" lon="-2.53536">
        <ele>72.718425</ele>
        <time>2023-05-04T17:03:44.069Z</time>
      </trkpt>
      <trkpt lat="47.93563" lon="-2.53527">
        <ele>72.8739</ele>
        <time>2023-05-04T17:03:50.070Z</time>
      </trkpt>
      <trkpt lat="47.93553" lon="-2.5352">
        <ele>73.037772</ele>
        <time>2023-05-04T17:03:54.078Z</time>
      </trkpt>
      <trkpt lat="47.93545" lon="-2.53512">
        <ele>73.171819</ele>
        <time>2023-05-04T17:03:57.075Z</time>
      </trkpt>
      <trkpt lat="47.93535" lon="-2.53501">
        <ele>73.351984</ele>
        <time>2023-05-04T17:04:01.069Z</time>
      </trkpt>
      <trkpt lat="47.93527" lon="-2.53487">
        <ele>73.526828</ele>
        <time>2023-05-04T17:04:04.082Z</time>
      </trkpt>
      <trkpt lat="47.93522" lon="-2.53472">
        <ele>73.687688</ele>
        <time>2023-05-04T17:04:07.082Z</time>
      </trkpt>
      <trkpt lat="47.93519" lon="-2.5346">
        <ele>73.818525</ele>
        <time>2023-05-04T17:04:10.077Z</time>
      </trkpt>
      <trkpt lat="47.93514" lon="-2.53444">
        <ele>73.978679</ele>
        <time>2023-05-04T17:04:13.078Z</time>
      </trkpt>
      <trkpt lat="47.9351" lon="-2.53431">
        <ele>74.131422</ele>
        <time>2023-05-04T17:04:16.076Z</time>
      </trkpt>
      <trkpt lat="47.93508" lon="-2.53415">
        <ele>74.299051</ele>
        <time>2023-05-04T17:04:19.074Z</time>
      </trkpt>
      <trkpt lat="47.93505" lon="-2.53399">
        <ele>74.47007</ele>
        <time>2023-05-04T17:04:22.085Z</time>
      </trkpt>
      <trkpt lat="47.93502" lon="-2.53385">
        <ele>74.621134</ele>
        <time>2023-05-04T17:04:25.079Z</time>
      </trkpt>
      <trkpt lat="47.93498" lon="-2.53368">
        <ele>74.798372</ele>
        <time>2023-05-04T17:04:28.069Z</time>
      </trkpt>
      <trkpt lat="47.93495" lon="-2.53354">
        <ele>74.956304</ele>
        <time>2023-05-04T17:04:31.069Z</time>
      </trkpt>
      <trkpt lat="47.93491" lon="-2.53338">
        <ele>75.131215</ele>
        <time>2023-05-04T17:04:34.081Z</time>
      </trkpt>
      <trkpt lat="47.93488" lon="-2.53322">
        <ele>75.299233</ele>
        <time>2023-05-04T17:04:37.074Z</time>
      </trkpt>
      <trkpt lat="47.93485" lon="-2.53307">
        <ele>75.456621</ele>
        <time>2023-05-04T17:04:40.068Z</time>
      </trkpt>
      <trkpt lat="47.93479" lon="-2.53295">
        <ele>75.606403</ele>
        <time>2023-05-04T17:04:43.069Z</time>
      </trkpt>
      <trkpt lat="47.93472" lon="-2.53286">
        <ele>75.750137</ele>
        <time>2023-05-04T17:04:46.082Z</time>
      </trkpt>
      <trkpt lat="47.93463" lon="-2.53274">
        <ele>75.938741</ele>
        <time>2023-05-04T17:04:50.081Z</time>
      </trkpt>
      <trkpt lat="47.93455" lon="-2.53263">
        <ele>76.099123</ele>
        <time>2023-05-04T17:04:53.079Z</time>
      </trkpt>
      <trkpt lat="47.93447" lon="-2.53252">
        <ele>76.26845</ele>
        <time>2023-05-04T17:04:56.078Z</time>
      </trkpt>
      <trkpt lat="47.93438" lon="-2.53243">
        <ele>76.435079</ele>
        <time>2023-05-04T17:04:59.078Z</time>
      </trkpt>
      <trkpt lat="47.9343" lon="-2.53234">
        <ele>76.592517</ele>
        <time>2023-05-04T17:05:02.068Z</time>
      </trkpt>
      <trkpt lat="47.9342" lon="-2.53224">
        <ele>76.545507</ele>
        <time>2023-05-04T17:05:06.067Z</time>
      </trkpt>
      <trkpt lat="47.93413" lon="-2.53215">
        <ele>76.128411</ele>
        <time>2023-05-04T17:05:09.070Z</time>
      </trkpt>
      <trkpt lat="47.93404" lon="-2.53207">
        <ele>75.717366</ele>
        <time>2023-05-04T17:05:12.066Z</time>
      </trkpt>
      <trkpt lat="47.93395" lon="-2.53198">
        <ele>75.239463</ele>
        <time>2023-05-04T17:05:16.069Z</time>
      </trkpt>
      <trkpt lat="47.93386" lon="-2.53191">
        <ele>74.830621</ele>
        <time>2023-05-04T17:05:19.067Z</time>
      </trkpt>
      <trkpt lat="47.93378" lon="-2.53182">
        <ele>74.399865</ele>
        <time>2023-05-04T17:05:22.075Z</time>
      </trkpt>
      <trkpt lat="47.93369" lon="-2.53171">
        <ele>73.910806</ele>
        <time>2023-05-04T17:05:25.088Z</time>
      </trkpt>
      <trkpt lat="47.9336" lon="-2.5316">
        <ele>73.423101</ele>
        <time>2023-05-04T17:05:28.074Z</time>
      </trkpt>
      <trkpt lat="47.93354" lon="-2.5315">
        <ele>73.02337</ele>
        <time>2023-05-04T17:05:31.069Z</time>
      </trkpt>
      <trkpt lat="47.93348" lon="-2.53138">
        <ele>72.620837</ele>
        <time>2023-05-04T17:05:34.078Z</time>
      </trkpt>
      <trkpt lat="47.93342" lon="-2.53124">
        <ele>72.11711</ele>
        <time>2023-05-04T17:05:38.088Z</time>
      </trkpt>
      <trkpt lat="47.93338" lon="-2.53108">
        <ele>71.656366</ele>
        <time>2023-05-04T17:05:41.079Z</time>
      </trkpt>
      <trkpt lat="47.93332" lon="-2.53091">
        <ele>71.104432</ele>
        <time>2023-05-04T17:05:44.076Z</time>
      </trkpt>
      <trkpt lat="47.93326" lon="-2.53077">
        <ele>70.652153</ele>
        <time>2023-05-04T17:05:47.078Z</time>
      </trkpt>
      <trkpt lat="47.9332" lon="-2.53064">
        <ele>70.202556</ele>
        <time>2023-05-04T17:05:50.081Z</time>
      </trkpt>
      <trkpt lat="47.93315" lon="-2.53051">
        <ele>69.762393</ele>
        <time>2023-05-04T17:05:53.073Z</time>
      </trkpt>
      <trkpt lat="47.9331" lon="-2.5304">
        <ele>69.376346</ele>
        <time>2023-05-04T17:05:56.082Z</time>
      </trkpt>
      <trkpt lat="47.93305" lon="-2.53026">
        <ele>69.126447</ele>
        <time>2023-05-04T17:05:59.077Z</time>
      </trkpt>
      <trkpt lat="47.93299" lon="-2.53012">
        <ele>69.197653</ele>
        <time>2023-05-04T17:06:02.076Z</time>
      </trkpt>
      <trkpt lat="47.93293" lon="-2.52999">
        <ele>69.266039</ele>
        <time>2023-05-04T17:06:05.077Z</time>
      </trkpt>
      <trkpt lat="47.93284" lon="-2.52984">
        <ele>69.349338</ele>
        <time>2023-05-04T17:06:08.082Z</time>
      </trkpt>
      <trkpt lat="47.93278" lon="-2.52971">
        <ele>69.420993</ele>
        <time>2023-05-04T17:06:11.087Z</time>
      </trkpt>
      <trkpt lat="47.93271" lon="-2.52957">
        <ele>69.494029</ele>
        <time>2023-05-04T17:06:14.077Z</time>
      </trkpt>
      <trkpt lat="47.93265" lon="-2.52943">
        <ele>69.566666</ele>
        <time>2023-05-04T17:06:17.071Z</time>
      </trkpt>
      <trkpt lat="47.93258" lon="-2.52928">
        <ele>69.640722</ele>
        <time>2023-05-04T17:06:20.085Z</time>
      </trkpt>
      <trkpt lat="47.9325" lon="-2.52915">
        <ele>69.718928</ele>
        <time>2023-05-04T17:06:23.079Z</time>
      </trkpt>
      <trkpt lat="47.93242" lon="-2.52903">
        <ele>69.790608</ele>
        <time>2023-05-04T17:06:26.080Z</time>
      </trkpt>
      <trkpt lat="47.93234" lon="-2.52891">
        <ele>69.864983</ele>
        <time>2023-05-04T17:06:29.077Z</time>
      </trkpt>
      <trkpt lat="47.93224" lon="-2.52881">
        <ele>69.939838</ele>
        <time>2023-05-04T17:06:32.081Z</time>
      </trkpt>
      <trkpt lat="47.93214" lon="-2.52871">
        <ele>70.015054</ele>
        <time>2023-05-04T17:06:35.080Z</time>
      </trkpt>
      <trkpt lat="47.93205" lon="-2.52861">
        <ele>70.089166</ele>
        <time>2023-05-04T17:06:38.078Z</time>
      </trkpt>
      <trkpt lat="47.93197" lon="-2.52851">
        <ele>70.157894</ele>
        <time>2023-05-04T17:06:41.072Z</time>
      </trkpt>
      <trkpt lat="47.93188" lon="-2.52843">
        <ele>70.22317</ele>
        <time>2023-05-04T17:06:44.069Z</time>
      </trkpt>
      <trkpt lat="47.93177" lon="-2.52835">
        <ele>70.335815</ele>
        <time>2023-05-04T17:06:47.083Z</time>
      </trkpt>
      <trkpt lat="47.93168" lon="-2.5283">
        <ele>70.449905</ele>
        <time>2023-05-04T17:06:50.076Z</time>
      </trkpt>
      <trkpt lat="47.93157" lon="-2.52824">
        <ele>70.576771</ele>
        <time>2023-05-04T17:06:54.073Z</time>
      </trkpt>
      <trkpt lat="47.93146" lon="-2.52817">
        <ele>70.705508</ele>
        <time>2023-05-04T17:06:58.073Z</time>
      </trkpt>
      <trkpt lat="47.93137" lon="-2.52811">
        <ele>70.820371</ele>
        <time>2023-05-04T17:07:01.083Z</time>
      </trkpt>
      <trkpt lat="47.93128" lon="-2.52803">
        <ele>70.931694</ele>
        <time>2023-05-04T17:07:04.080Z</time>
      </trkpt>
      <trkpt lat="47.9312" lon="-2.52792">
        <ele>71.049797</ele>
        <time>2023-05-04T17:07:07.077Z</time>
      </trkpt>
      <trkpt lat="47.93114" lon="-2.52781">
        <ele>71.158472</ele>
        <time>2023-05-04T17:07:10.077Z</time>
      </trkpt>
      <trkpt lat="47.93109" lon="-2.52767">
        <ele>71.276311</ele>
        <time>2023-05-04T17:07:14.073Z</time>
      </trkpt>
      <trkpt lat="47.93104" lon="-2.52753">
        <ele>71.396785</ele>
        <time>2023-05-04T17:07:17.075Z</time>
      </trkpt>
      <trkpt lat="47.93102" lon="-2.52739">
        <ele>71.505152</ele>
        <time>2023-05-04T17:07:20.075Z</time>
      </trkpt>
      <trkpt lat="47.93099" lon="-2.52725">
        <ele>71.609709</ele>
        <time>2023-05-04T17:07:23.074Z</time>
      </trkpt>
      <trkpt lat="47.93098" lon="-2.5271">
        <ele>71.72607</ele>
        <time>2023-05-04T17:07:26.074Z</time>
      </trkpt>
      <trkpt lat="47.93096" lon="-2.52696">
        <ele>71.833521</ele>
        <time>2023-05-04T17:07:29.074Z</time>
      </trkpt>
      <trkpt lat="47.93094" lon="-2.52678">
        <ele>71.968928</ele>
        <time>2023-05-04T17:07:32.077Z</time>
      </trkpt>
      <trkpt lat="47.93094" lon="-2.5266">
        <ele>72.100892</ele>
        <time>2023-05-04T17:07:35.078Z</time>
      </trkpt>
      <trkpt lat="47.93094" lon="-2.52643">
        <ele>72.226824</ele>
        <time>2023-05-04T17:07:38.070Z</time>
      </trkpt>
      <trkpt lat="47.93095" lon="-2.52623">
        <ele>72.590183</ele>
        <time>2023-05-04T17:07:41.077Z</time>
      </trkpt>
      <trkpt lat="47.93097" lon="-2.52605">
        <ele>72.961038</ele>
        <time>2023-05-04T17:07:44.067Z</time>
      </trkpt>
      <trkpt lat="47.93098" lon="-2.5259">
        <ele>73.273128</ele>
        <time>2023-05-04T17:07:47.069Z</time>
      </trkpt>
      <trkpt lat="47.931" lon="-2.52576">
        <ele>73.553786</ele>
        <time>2023-05-04T17:07:50.073Z</time>
      </trkpt>
      <trkpt lat="47.93102" lon="-2.5256">
        <ele>73.889864</ele>
        <time>2023-05-04T17:07:53.068Z</time>
      </trkpt>
      <trkpt lat="47.93102" lon="-2.52544">
        <ele>74.219285</ele>
        <time>2023-05-04T17:07:56.074Z</time>
      </trkpt>
      <trkpt lat="47.93103" lon="-2.52526">
        <ele>74.575811</ele>
        <time>2023-05-04T17:07:59.075Z</time>
      </trkpt>
      <trkpt lat="47.93105" lon="-2.5251">
        <ele>74.90537</ele>
        <time>2023-05-04T17:08:02.069Z</time>
      </trkpt>
      <trkpt lat="47.93107" lon="-2.52496">
        <ele>75.211473</ele>
        <time>2023-05-04T17:08:05.075Z</time>
      </trkpt>
      <trkpt lat="47.93108" lon="-2.52479">
        <ele>75.542231</ele>
        <time>2023-05-04T17:08:08.081Z</time>
      </trkpt>
      <trkpt lat="47.9311" lon="-2.52462">
        <ele>75.894968</ele>
        <time>2023-05-04T17:08:11.076Z</time>
      </trkpt>
      <trkpt lat="47.9311" lon="-2.52444">
        <ele>76.260717</ele>
        <time>2023-05-04T17:08:14.076Z</time>
      </trkpt>
      <trkpt lat="47.93111" lon="-2.52428">
        <ele>76.598785</ele>
        <time>2023-05-04T17:08:17.084Z</time>
      </trkpt>
      <trkpt lat="47.9311" lon="-2.52413">
        <ele>76.889832</ele>
        <time>2023-05-04T17:08:20.074Z</time>
      </trkpt>
      <trkpt lat="47.93109" lon="-2.52397">
        <ele>77.223273</ele>
        <time>2023-05-04T17:08:23.069Z</time>
      </trkpt>
      <trkpt lat="47.93108" lon="-2.5238">
        <ele>77.577357</ele>
        <time>2023-05-04T17:08:26.073Z</time>
      </trkpt>
      <trkpt lat="47.93107" lon="-2.52362">
        <ele>77.551105</ele>
        <time>2023-05-04T17:08:29.070Z</time>
      </trkpt>
      <trkpt lat="47.93106" lon="-2.52348">
        <ele>77.365521</ele>
        <time>2023-05-04T17:08:32.080Z</time>
      </trkpt>
      <trkpt lat="47.93104" lon="-2.52332">
        <ele>77.150329</ele>
        <time>2023-05-04T17:08:35.074Z</time>
      </trkpt>
      <trkpt lat="47.93103" lon="-2.52315">
        <ele>76.927595</ele>
        <time>2023-05-04T17:08:38.079Z</time>
      </trkpt>
      <trkpt lat="47.93101" lon="-2.52298">
        <ele>76.703554</ele>
        <time>2023-05-04T17:08:41.067Z</time>
      </trkpt>
      <trkpt lat="47.931" lon="-2.5228">
        <ele>76.467353</ele>
        <time>2023-05-04T17:08:44.084Z</time>
      </trkpt>
      <trkpt lat="47.93099" lon="-2.52263">
        <ele>76.236406</ele>
        <time>2023-05-04T17:08:47.077Z</time>
      </trkpt>
      <trkpt lat="47.93098" lon="-2.52246">
        <ele>76.015203</ele>
        <time>2023-05-04T17:08:50.069Z</time>
      </trkpt>
      <trkpt lat="47.93098" lon="-2.52228">
        <ele>75.773555</ele>
        <time>2023-05-04T17:08:53.071Z</time>
      </trkpt>
      <trkpt lat="47.93097" lon="-2.52211">
        <ele>75.547568</ele>
        <time>2023-05-04T17:08:56.078Z</time>
      </trkpt>
      <trkpt lat="47.93097" lon="-2.52197">
        <ele>75.359991</ele>
        <time>2023-05-04T17:08:59.074Z</time>
      </trkpt>
      <trkpt lat="47.93098" lon="-2.5218">
        <ele>75.137751</ele>
        <time>2023-05-04T17:09:02.078Z</time>
      </trkpt>
      <trkpt lat="47.93099" lon="-2.52162">
        <ele>74.90397</ele>
        <time>2023-05-04T17:09:05.082Z</time>
      </trkpt>
      <trkpt lat="47.93101" lon="-2.52148">
        <ele>74.709267</ele>
        <time>2023-05-04T17:09:08.078Z</time>
      </trkpt>
      <trkpt lat="47.93104" lon="-2.5213">
        <ele>74.470437</ele>
        <time>2023-05-04T17:09:12.067Z</time>
      </trkpt>
      <trkpt lat="47.93106" lon="-2.52115">
        <ele>74.260755</ele>
        <time>2023-05-04T17:09:15.081Z</time>
      </trkpt>
      <trkpt lat="47.93108" lon="-2.52099">
        <ele>73.890806</ele>
        <time>2023-05-04T17:09:18.074Z</time>
      </trkpt>
      <trkpt lat="47.93109" lon="-2.52082">
        <ele>73.309859</ele>
        <time>2023-05-04T17:09:21.081Z</time>
      </trkpt>
      <trkpt lat="47.93111" lon="-2.52063">
        <ele>72.674941</ele>
        <time>2023-05-04T17:09:24.066Z</time>
      </trkpt>
      <trkpt lat="47.93113" lon="-2.52048">
        <ele>72.188599</ele>
        <time>2023-05-04T17:09:26.086Z</time>
      </trkpt>
      <trkpt lat="47.93115" lon="-2.52028">
        <ele>71.527392</ele>
        <time>2023-05-04T17:09:29.067Z</time>
      </trkpt>
      <trkpt lat="47.93116" lon="-2.5201">
        <ele>70.922798</ele>
        <time>2023-05-04T17:09:32.083Z</time>
      </trkpt>
      <trkpt lat="47.93117" lon="-2.51991">
        <ele>70.298129</ele>
        <time>2023-05-04T17:09:35.068Z</time>
      </trkpt>
      <trkpt lat="47.9312" lon="-2.51974">
        <ele>69.72153</ele>
        <time>2023-05-04T17:09:38.066Z</time>
      </trkpt>
      <trkpt lat="47.93122" lon="-2.51958">
        <ele>69.198525</ele>
        <time>2023-05-04T17:09:41.073Z</time>
      </trkpt>
      <trkpt lat="47.93124" lon="-2.51941">
        <ele>68.622199</ele>
        <time>2023-05-04T17:09:44.073Z</time>
      </trkpt>
      <trkpt lat="47.93125" lon="-2.51924">
        <ele>68.04294</ele>
        <time>2023-05-04T17:09:47.077Z</time>
      </trkpt>
      <trkpt lat="47.93126" lon="-2.51905">
        <ele>67.425218</ele>
        <time>2023-05-04T17:09:50.078Z</time>
      </trkpt>
      <trkpt lat="47.93126" lon="-2.51889">
        <ele>66.887674</ele>
        <time>2023-05-04T17:09:53.078Z</time>
      </trkpt>
      <trkpt lat="47.93125" lon="-2.51869">
        <ele>66.223989</ele>
        <time>2023-05-04T17:09:56.079Z</time>
      </trkpt>
      <trkpt lat="47.93121" lon="-2.5185">
        <ele>65.575132</ele>
        <time>2023-05-04T17:09:59.078Z</time>
      </trkpt>
      <trkpt lat="47.93119" lon="-2.51833">
        <ele>65.354019</ele>
        <time>2023-05-04T17:10:02.071Z</time>
      </trkpt>
      <trkpt lat="47.93116" lon="-2.51815">
        <ele>65.4169</ele>
        <time>2023-05-04T17:10:05.078Z</time>
      </trkpt>
      <trkpt lat="47.93113" lon="-2.518">
        <ele>65.472489</ele>
        <time>2023-05-04T17:10:08.073Z</time>
      </trkpt>
      <trkpt lat="47.93111" lon="-2.51786">
        <ele>65.525736</ele>
        <time>2023-05-04T17:10:11.068Z</time>
      </trkpt>
      <trkpt lat="47.93108" lon="-2.51769">
        <ele>65.587135</ele>
        <time>2023-05-04T17:10:14.068Z</time>
      </trkpt>
      <trkpt lat="47.93103" lon="-2.51753">
        <ele>65.648631</ele>
        <time>2023-05-04T17:10:17.081Z</time>
      </trkpt>
      <trkpt lat="47.931" lon="-2.51739">
        <ele>65.702028</ele>
        <time>2023-05-04T17:10:20.077Z</time>
      </trkpt>
      <trkpt lat="47.93093" lon="-2.51723">
        <ele>65.768147</ele>
        <time>2023-05-04T17:10:23.070Z</time>
      </trkpt>
      <trkpt lat="47.9309" lon="-2.51707">
        <ele>65.830285</ele>
        <time>2023-05-04T17:10:26.082Z</time>
      </trkpt>
      <trkpt lat="47.93088" lon="-2.51689">
        <ele>65.89212</ele>
        <time>2023-05-04T17:10:29.084Z</time>
      </trkpt>
      <trkpt lat="47.93086" lon="-2.51673">
        <ele>65.952176</ele>
        <time>2023-05-04T17:10:32.068Z</time>
      </trkpt>
      <trkpt lat="47.93085" lon="-2.51656">
        <ele>66.013139</ele>
        <time>2023-05-04T17:10:36.075Z</time>
      </trkpt>
      <trkpt lat="47.93082" lon="-2.51641">
        <ele>66.068388</ele>
        <time>2023-05-04T17:10:39.074Z</time>
      </trkpt>
      <trkpt lat="47.93078" lon="-2.51626">
        <ele>66.125139</ele>
        <time>2023-05-04T17:10:42.075Z</time>
      </trkpt>
      <trkpt lat="47.93073" lon="-2.5161">
        <ele>66.186967</ele>
        <time>2023-05-04T17:10:45.077Z</time>
      </trkpt>
      <trkpt lat="47.93069" lon="-2.51591">
        <ele>66.256333</ele>
        <time>2023-05-04T17:10:48.075Z</time>
      </trkpt>
      <trkpt lat="47.93063" lon="-2.51575">
        <ele>66.307405</ele>
        <time>2023-05-04T17:10:51.083Z</time>
      </trkpt>
      <trkpt lat="47.93056" lon="-2.51559">
        <ele>66.353176</ele>
        <time>2023-05-04T17:10:54.071Z</time>
      </trkpt>
      <trkpt lat="47.9305" lon="-2.51544">
        <ele>66.396117</ele>
        <time>2023-05-04T17:10:57.078Z</time>
      </trkpt>
      <trkpt lat="47.93044" lon="-2.51531">
        <ele>66.433645</ele>
        <time>2023-05-04T17:11:00.069Z</time>
      </trkpt>
      <trkpt lat="47.93039" lon="-2.51516">
        <ele>66.475068</ele>
        <time>2023-05-04T17:11:04.073Z</time>
      </trkpt>
      <trkpt lat="47.93032" lon="-2.51505">
        <ele>66.512105</ele>
        <time>2023-05-04T17:11:07.066Z</time>
      </trkpt>
      <trkpt lat="47.93023" lon="-2.51489">
        <ele>66.562068</ele>
        <time>2023-05-04T17:11:10.087Z</time>
      </trkpt>
      <trkpt lat="47.93015" lon="-2.51473">
        <ele>66.610948</ele>
        <time>2023-05-04T17:11:13.079Z</time>
      </trkpt>
      <trkpt lat="47.93009" lon="-2.5146">
        <ele>66.649252</ele>
        <time>2023-05-04T17:11:16.071Z</time>
      </trkpt>
      <trkpt lat="47.93003" lon="-2.51448">
        <ele>66.684179</ele>
        <time>2023-05-04T17:11:19.064Z</time>
      </trkpt>
      <trkpt lat="47.92997" lon="-2.51436">
        <ele>66.720376</ele>
        <time>2023-05-04T17:11:22.082Z</time>
      </trkpt>
      <trkpt lat="47.92989" lon="-2.51424">
        <ele>66.761938</ele>
        <time>2023-05-04T17:11:25.079Z</time>
      </trkpt>
      <trkpt lat="47.92981" lon="-2.5141">
        <ele>66.806643</ele>
        <time>2023-05-04T17:11:28.077Z</time>
      </trkpt>
      <trkpt lat="47.92974" lon="-2.51398">
        <ele>66.846756</ele>
        <time>2023-05-04T17:11:31.078Z</time>
      </trkpt>
      <trkpt lat="47.92967" lon="-2.51386">
        <ele>66.883179</ele>
        <time>2023-05-04T17:11:34.081Z</time>
      </trkpt>
      <trkpt lat="47.92962" lon="-2.51373">
        <ele>66.921078</ele>
        <time>2023-05-04T17:11:37.078Z</time>
      </trkpt>
      <trkpt lat="47.92954" lon="-2.5136">
        <ele>67.419479</ele>
        <time>2023-05-04T17:11:40.085Z</time>
      </trkpt>
      <trkpt lat="47.92948" lon="-2.51348">
        <ele>67.893738</ele>
        <time>2023-05-04T17:11:43.072Z</time>
      </trkpt>
      <trkpt lat="47.92941" lon="-2.51337">
        <ele>68.365264</ele>
        <time>2023-05-04T17:11:46.076Z</time>
      </trkpt>
      <trkpt lat="47.92933" lon="-2.51326">
        <ele>68.871768</ele>
        <time>2023-05-04T17:11:50.068Z</time>
      </trkpt>
      <trkpt lat="47.92927" lon="-2.51312">
        <ele>69.391337</ele>
        <time>2023-05-04T17:11:55.074Z</time>
      </trkpt>
      <trkpt lat="47.92921" lon="-2.51299">
        <ele>69.886903</ele>
        <time>2023-05-04T17:12:00.065Z</time>
      </trkpt>
      <trkpt lat="47.92914" lon="-2.51288">
        <ele>70.364786</ele>
        <time>2023-05-04T17:12:05.071Z</time>
      </trkpt>
      <trkpt lat="47.92905" lon="-2.51282">
        <ele>70.841367</ele>
        <time>2023-05-04T17:12:09.064Z</time>
      </trkpt>
      <trkpt lat="47.92896" lon="-2.51273">
        <ele>71.365731</ele>
        <time>2023-05-04T17:12:13.068Z</time>
      </trkpt>
      <trkpt lat="47.92889" lon="-2.51263">
        <ele>71.804276</ele>
        <time>2023-05-04T17:12:27.074Z</time>
      </trkpt>
      <trkpt lat="47.92887" lon="-2.51249">
        <ele>72.256448</ele>
        <time>2023-05-04T17:12:37.078Z</time>
      </trkpt>
      <trkpt lat="47.92885" lon="-2.51235">
        <ele>72.694957</ele>
        <time>2023-05-04T17:12:47.069Z</time>
      </trkpt>
      <trkpt lat="47.92878" lon="-2.51221">
        <ele>73.277536</ele>
        <time>2023-05-04T17:12:53.069Z</time>
      </trkpt>
      <trkpt lat="47.92873" lon="-2.51209">
        <ele>73.731159</ele>
        <time>2023-05-04T17:12:56.075Z</time>
      </trkpt>
      <trkpt lat="47.92865" lon="-2.51197">
        <ele>74.248785</ele>
        <time>2023-05-04T17:12:59.075Z</time>
      </trkpt>
      <trkpt lat="47.92859" lon="-2.51185">
        <ele>74.707693</ele>
        <time>2023-05-04T17:13:02.069Z</time>
      </trkpt>
      <trkpt lat="47.92853" lon="-2.51173">
        <ele>75.204599</ele>
        <time>2023-05-04T17:13:05.081Z</time>
      </trkpt>
      <trkpt lat="47.92847" lon="-2.5116">
        <ele>74.771185</ele>
        <time>2023-05-04T17:13:09.080Z</time>
      </trkpt>
      <trkpt lat="47.92841" lon="-2.51146">
        <ele>73.665952</ele>
        <time>2023-05-04T17:13:13.082Z</time>
      </trkpt>
      <trkpt lat="47.92837" lon="-2.51133">
        <ele>72.665208</ele>
        <time>2023-05-04T17:13:16.077Z</time>
      </trkpt>
      <trkpt lat="47.9283" lon="-2.5112">
        <ele>71.57099</ele>
        <time>2023-05-04T17:13:20.068Z</time>
      </trkpt>
      <trkpt lat="47.92825" lon="-2.5111">
        <ele>70.647838</ele>
        <time>2023-05-04T17:13:23.067Z</time>
      </trkpt>
      <trkpt lat="47.92819" lon="-2.51096">
        <ele>69.51905</ele>
        <time>2023-05-04T17:13:26.087Z</time>
      </trkpt>
      <trkpt lat="47.92813" lon="-2.51085">
        <ele>68.582738</ele>
        <time>2023-05-04T17:13:29.081Z</time>
      </trkpt>
      <trkpt lat="47.92809" lon="-2.51072">
        <ele>67.606762</ele>
        <time>2023-05-04T17:13:32.075Z</time>
      </trkpt>
      <trkpt lat="47.92806" lon="-2.51056">
        <ele>66.48063</ele>
        <time>2023-05-04T17:13:35.081Z</time>
      </trkpt>
      <trkpt lat="47.92805" lon="-2.51041">
        <ele>65.439557</ele>
        <time>2023-05-04T17:13:38.069Z</time>
      </trkpt>
      <trkpt lat="47.92803" lon="-2.51025">
        <ele>64.285068</ele>
        <time>2023-05-04T17:13:42.086Z</time>
      </trkpt>
      <trkpt lat="47.928" lon="-2.51008">
        <ele>63.097328</ele>
        <time>2023-05-04T17:13:45.088Z</time>
      </trkpt>
      <trkpt lat="47.92797" lon="-2.50992">
        <ele>61.96744</ele>
        <time>2023-05-04T17:13:48.076Z</time>
      </trkpt>
      <trkpt lat="47.92795" lon="-2.50977">
        <ele>60.95532</ele>
        <time>2023-05-04T17:13:51.075Z</time>
      </trkpt>
      <trkpt lat="47.92792" lon="-2.5096">
        <ele>59.730125</ele>
        <time>2023-05-04T17:13:55.072Z</time>
      </trkpt>
      <trkpt lat="47.92789" lon="-2.50945">
        <ele>58.684283</ele>
        <time>2023-05-04T17:13:58.075Z</time>
      </trkpt>
      <trkpt lat="47.92786" lon="-2.50932">
        <ele>57.739651</ele>
        <time>2023-05-04T17:14:01.074Z</time>
      </trkpt>
      <trkpt lat="47.92782" lon="-2.50918">
        <ele>57.085605</ele>
        <time>2023-05-04T17:14:04.079Z</time>
      </trkpt>
      <trkpt lat="47.92778" lon="-2.50906">
        <ele>57.089925</ele>
        <time>2023-05-04T17:14:07.078Z</time>
      </trkpt>
      <trkpt lat="47.92775" lon="-2.50892">
        <ele>57.094628</ele>
        <time>2023-05-04T17:14:10.067Z</time>
      </trkpt>
      <trkpt lat="47.9277" lon="-2.50878">
        <ele>57.099674</ele>
        <time>2023-05-04T17:14:13.066Z</time>
      </trkpt>
      <trkpt lat="47.92766" lon="-2.50863">
        <ele>57.10496</ele>
        <time>2023-05-04T17:14:17.077Z</time>
      </trkpt>
      <trkpt lat="47.92761" lon="-2.50849">
        <ele>57.109895</ele>
        <time>2023-05-04T17:14:22.070Z</time>
      </trkpt>
      <trkpt lat="47.92756" lon="-2.50835">
        <ele>57.114908</ele>
        <time>2023-05-04T17:14:26.069Z</time>
      </trkpt>
      <trkpt lat="47.92753" lon="-2.50821">
        <ele>57.11971</ele>
        <time>2023-05-04T17:14:29.073Z</time>
      </trkpt>
      <trkpt lat="47.9275" lon="-2.50806">
        <ele>57.124725</ele>
        <time>2023-05-04T17:14:32.075Z</time>
      </trkpt>
      <trkpt lat="47.92747" lon="-2.5079">
        <ele>57.130177</ele>
        <time>2023-05-04T17:14:35.065Z</time>
      </trkpt>
      <trkpt lat="47.92747" lon="-2.50774">
        <ele>57.135207</ele>
        <time>2023-05-04T17:14:38.074Z</time>
      </trkpt>
      <trkpt lat="47.92747" lon="-2.50757">
        <ele>57.140463</ele>
        <time>2023-05-04T17:14:42.066Z</time>
      </trkpt>
      <trkpt lat="47.92749" lon="-2.50741">
        <ele>57.145685</ele>
        <time>2023-05-04T17:14:45.083Z</time>
      </trkpt>
      <trkpt lat="47.9275" lon="-2.50727">
        <ele>57.150297</ele>
        <time>2023-05-04T17:14:48.082Z</time>
      </trkpt>
      <trkpt lat="47.92749" lon="-2.50713">
        <ele>57.154863</ele>
        <time>2023-05-04T17:14:51.075Z</time>
      </trkpt>
      <trkpt lat="47.92748" lon="-2.50696">
        <ele>57.160176</ele>
        <time>2023-05-04T17:14:54.078Z</time>
      </trkpt>
      <trkpt lat="47.92746" lon="-2.50679">
        <ele>57.165809</ele>
        <time>2023-05-04T17:14:57.078Z</time>
      </trkpt>
      <trkpt lat="47.92742" lon="-2.50665">
        <ele>57.279421</ele>
        <time>2023-05-04T17:15:00.070Z</time>
      </trkpt>
      <trkpt lat="47.92739" lon="-2.50652">
        <ele>57.88277</ele>
        <time>2023-05-04T17:15:03.075Z</time>
      </trkpt>
      <trkpt lat="47.92736" lon="-2.50639">
        <ele>58.479543</ele>
        <time>2023-05-04T17:15:07.066Z</time>
      </trkpt>
      <trkpt lat="47.92731" lon="-2.50628">
        <ele>59.06948</ele>
        <time>2023-05-04T17:15:10.072Z</time>
      </trkpt>
      <trkpt lat="47.92727" lon="-2.50616">
        <ele>59.661197</ele>
        <time>2023-05-04T17:15:13.080Z</time>
      </trkpt>
      <trkpt lat="47.9272" lon="-2.50602">
        <ele>60.416877</ele>
        <time>2023-05-04T17:15:16.069Z</time>
      </trkpt>
      <trkpt lat="47.92713" lon="-2.50591">
        <ele>61.074381</ele>
        <time>2023-05-04T17:15:19.077Z</time>
      </trkpt>
      <trkpt lat="47.92707" lon="-2.50579">
        <ele>61.754611</ele>
        <time>2023-05-04T17:15:22.069Z</time>
      </trkpt>
      <trkpt lat="47.92702" lon="-2.50566">
        <ele>62.41536</ele>
        <time>2023-05-04T17:15:25.081Z</time>
      </trkpt>
      <trkpt lat="47.92694" lon="-2.50554">
        <ele>63.114699</ele>
        <time>2023-05-04T17:15:28.070Z</time>
      </trkpt>
      <trkpt lat="47.92686" lon="-2.50543">
        <ele>63.860874</ele>
        <time>2023-05-04T17:15:32.077Z</time>
      </trkpt>
      <trkpt lat="47.92678" lon="-2.50532">
        <ele>64.55922</ele>
        <time>2023-05-04T17:15:36.078Z</time>
      </trkpt>
      <trkpt lat="47.92669" lon="-2.50521">
        <ele>65.328554</ele>
        <time>2023-05-04T17:15:40.081Z</time>
      </trkpt>
      <trkpt lat="47.92662" lon="-2.50512">
        <ele>65.927131</ele>
        <time>2023-05-04T17:15:43.086Z</time>
      </trkpt>
      <trkpt lat="47.92654" lon="-2.50502">
        <ele>66.58356</ele>
        <time>2023-05-04T17:15:46.081Z</time>
      </trkpt>
      <trkpt lat="47.92646" lon="-2.50491">
        <ele>67.284863</ele>
        <time>2023-05-04T17:15:49.079Z</time>
      </trkpt>
      <trkpt lat="47.92638" lon="-2.50483">
        <ele>67.975835</ele>
        <time>2023-05-04T17:15:52.083Z</time>
      </trkpt>
      <trkpt lat="47.92628" lon="-2.50472">
        <ele>68.778743</ele>
        <time>2023-05-04T17:15:55.075Z</time>
      </trkpt>
      <trkpt lat="47.92619" lon="-2.50461">
        <ele>69.217737</ele>
        <time>2023-05-04T17:15:58.085Z</time>
      </trkpt>
      <trkpt lat="47.92611" lon="-2.5045">
        <ele>69.523113</ele>
        <time>2023-05-04T17:16:01.081Z</time>
      </trkpt>
      <trkpt lat="47.92604" lon="-2.50439">
        <ele>69.82464</ele>
        <time>2023-05-04T17:16:04.072Z</time>
      </trkpt>
      <trkpt lat="47.92597" lon="-2.50427">
        <ele>70.11259</ele>
        <time>2023-05-04T17:16:07.081Z</time>
      </trkpt>
      <trkpt lat="47.92591" lon="-2.50416">
        <ele>70.413219</ele>
        <time>2023-05-04T17:16:10.076Z</time>
      </trkpt>
      <trkpt lat="47.92584" lon="-2.50402">
        <ele>70.7444</ele>
        <time>2023-05-04T17:16:13.087Z</time>
      </trkpt>
      <trkpt lat="47.92577" lon="-2.50387">
        <ele>71.095075</ele>
        <time>2023-05-04T17:16:16.083Z</time>
      </trkpt>
      <trkpt lat="47.92571" lon="-2.50375">
        <ele>71.395283</ele>
        <time>2023-05-04T17:16:19.066Z</time>
      </trkpt>
      <trkpt lat="47.92564" lon="-2.50363">
        <ele>71.707559</ele>
        <time>2023-05-04T17:16:22.067Z</time>
      </trkpt>
      <trkpt lat="47.92557" lon="-2.50351">
        <ele>72.016433</ele>
        <time>2023-05-04T17:16:26.078Z</time>
      </trkpt>
      <trkpt lat="47.92548" lon="-2.50341">
        <ele>72.343523</ele>
        <time>2023-05-04T17:16:30.077Z</time>
      </trkpt>
      <trkpt lat="47.9254" lon="-2.50332">
        <ele>72.636742</ele>
        <time>2023-05-04T17:16:33.077Z</time>
      </trkpt>
      <trkpt lat="47.92532" lon="-2.50322">
        <ele>72.944439</ele>
        <time>2023-05-04T17:16:36.072Z</time>
      </trkpt>
      <trkpt lat="47.92524" lon="-2.50312">
        <ele>73.232185</ele>
        <time>2023-05-04T17:16:39.077Z</time>
      </trkpt>
      <trkpt lat="47.92516" lon="-2.50303">
        <ele>73.534799</ele>
        <time>2023-05-04T17:16:42.074Z</time>
      </trkpt>
      <trkpt lat="47.92509" lon="-2.50294">
        <ele>73.817811</ele>
        <time>2023-05-04T17:16:45.083Z</time>
      </trkpt>
      <trkpt lat="47.92501" lon="-2.50284">
        <ele>74.10622</ele>
        <time>2023-05-04T17:16:48.069Z</time>
      </trkpt>
      <trkpt lat="47.92495" lon="-2.50275">
        <ele>74.248145</ele>
        <time>2023-05-04T17:16:51.065Z</time>
      </trkpt>
      <trkpt lat="47.92487" lon="-2.50265">
        <ele>74.344939</ele>
        <time>2023-05-04T17:16:54.073Z</time>
      </trkpt>
      <trkpt lat="47.92479" lon="-2.50256">
        <ele>74.445177</ele>
        <time>2023-05-04T17:16:56.085Z</time>
      </trkpt>
      <trkpt lat="47.9247" lon="-2.50247">
        <ele>74.550519</ele>
        <time>2023-05-04T17:16:59.069Z</time>
      </trkpt>
      <trkpt lat="47.92462" lon="-2.50238">
        <ele>74.649712</ele>
        <time>2023-05-04T17:17:02.067Z</time>
      </trkpt>
      <trkpt lat="47.92453" lon="-2.50229">
        <ele>74.755426</ele>
        <time>2023-05-04T17:17:05.075Z</time>
      </trkpt>
      <trkpt lat="47.92444" lon="-2.5022">
        <ele>74.854854</ele>
        <time>2023-05-04T17:17:08.078Z</time>
      </trkpt>
      <trkpt lat="47.92435" lon="-2.50209">
        <ele>74.967539</ele>
        <time>2023-05-04T17:17:11.073Z</time>
      </trkpt>
      <trkpt lat="47.92427" lon="-2.50202">
        <ele>75.059946</ele>
        <time>2023-05-04T17:17:14.083Z</time>
      </trkpt>
      <trkpt lat="47.92419" lon="-2.50194">
        <ele>75.154327</ele>
        <time>2023-05-04T17:17:17.080Z</time>
      </trkpt>
      <trkpt lat="47.9241" lon="-2.50183">
        <ele>75.264362</ele>
        <time>2023-05-04T17:17:21.084Z</time>
      </trkpt>
      <trkpt lat="47.92401" lon="-2.50173">
        <ele>75.380196</ele>
        <time>2023-05-04T17:17:25.076Z</time>
      </trkpt>
      <trkpt lat="47.92392" lon="-2.50164">
        <ele>75.485972</ele>
        <time>2023-05-04T17:17:28.077Z</time>
      </trkpt>
      <trkpt lat="47.92382" lon="-2.50155">
        <ele>75.593413</ele>
        <time>2023-05-04T17:17:31.065Z</time>
      </trkpt>
      <trkpt lat="47.92372" lon="-2.50148">
        <ele>75.707835</ele>
        <time>2023-05-04T17:17:34.073Z</time>
      </trkpt>
      <trkpt lat="47.92361" lon="-2.50141">
        <ele>75.817542</ele>
        <time>2023-05-04T17:17:37.067Z</time>
      </trkpt>
      <trkpt lat="47.9235" lon="-2.50134">
        <ele>75.936056</ele>
        <time>2023-05-04T17:17:40.078Z</time>
      </trkpt>
      <trkpt lat="47.92339" lon="-2.50128">
        <ele>75.861862</ele>
        <time>2023-05-04T17:17:43.078Z</time>
      </trkpt>
      <trkpt lat="47.92329" lon="-2.50123">
        <ele>75.795463</ele>
        <time>2023-05-04T17:17:46.084Z</time>
      </trkpt>
      <trkpt lat="47.9232" lon="-2.50118">
        <ele>75.732811</ele>
        <time>2023-05-04T17:17:49.069Z</time>
      </trkpt>
      <trkpt lat="47.9231" lon="-2.50111">
        <ele>75.663428</ele>
        <time>2023-05-04T17:17:52.067Z</time>
      </trkpt>
      <trkpt lat="47.923" lon="-2.50104">
        <ele>75.594451</ele>
        <time>2023-05-04T17:17:55.069Z</time>
      </trkpt>
      <trkpt lat="47.92291" lon="-2.50095">
        <ele>75.524355</ele>
        <time>2023-05-04T17:17:58.071Z</time>
      </trkpt>
      <trkpt lat="47.92282" lon="-2.50085">
        <ele>75.453293</ele>
        <time>2023-05-04T17:18:01.076Z</time>
      </trkpt>
      <trkpt lat="47.92276" lon="-2.50073">
        <ele>75.384836</ele>
        <time>2023-05-04T17:18:04.071Z</time>
      </trkpt>
      <trkpt lat="47.9227" lon="-2.5006">
        <ele>75.318928</ele>
        <time>2023-05-04T17:18:07.077Z</time>
      </trkpt>
      <trkpt lat="47.92266" lon="-2.50046">
        <ele>75.255027</ele>
        <time>2023-05-04T17:18:10.079Z</time>
      </trkpt>
      <trkpt lat="47.92263" lon="-2.50031">
        <ele>75.18546</ele>
        <time>2023-05-04T17:18:13.081Z</time>
      </trkpt>
      <trkpt lat="47.92261" lon="-2.50017">
        <ele>75.125714</ele>
        <time>2023-05-04T17:18:16.077Z</time>
      </trkpt>
      <trkpt lat="47.92261" lon="-2.5">
        <ele>75.054</ele>
        <time>2023-05-04T17:18:20.067Z</time>
      </trkpt>
      <trkpt lat="47.92263" lon="-2.49986">
        <ele>74.993903</ele>
        <time>2023-05-04T17:18:23.066Z</time>
      </trkpt>
      <trkpt lat="47.92264" lon="-2.4997">
        <ele>74.92286</ele>
        <time>2023-05-04T17:18:26.077Z</time>
      </trkpt>
      <trkpt lat="47.92266" lon="-2.49953">
        <ele>74.850299</ele>
        <time>2023-05-04T17:18:29.068Z</time>
      </trkpt>
      <trkpt lat="47.92268" lon="-2.49938">
        <ele>74.773416</ele>
        <time>2023-05-04T17:18:32.076Z</time>
      </trkpt>
      <trkpt lat="47.92272" lon="-2.49923">
        <ele>74.048053</ele>
        <time>2023-05-04T17:18:35.075Z</time>
      </trkpt>
      <trkpt lat="47.92276" lon="-2.49906">
        <ele>73.269283</ele>
        <time>2023-05-04T17:18:38.077Z</time>
      </trkpt>
      <trkpt lat="47.9228" lon="-2.4989">
        <ele>72.478811</ele>
        <time>2023-05-04T17:18:41.081Z</time>
      </trkpt>
      <trkpt lat="47.92285" lon="-2.49875">
        <ele>71.752827</ele>
        <time>2023-05-04T17:18:44.070Z</time>
      </trkpt>
      <trkpt lat="47.92291" lon="-2.49862">
        <ele>71.049684</ele>
        <time>2023-05-04T17:18:47.063Z</time>
      </trkpt>
      <trkpt lat="47.92299" lon="-2.49849">
        <ele>70.308888</ele>
        <time>2023-05-04T17:18:50.067Z</time>
      </trkpt>
      <trkpt lat="47.92305" lon="-2.49838">
        <ele>69.657997</ele>
        <time>2023-05-04T17:18:53.076Z</time>
      </trkpt>
      <trkpt lat="47.92315" lon="-2.49828">
        <ele>68.888092</ele>
        <time>2023-05-04T17:18:57.080Z</time>
      </trkpt>
      <trkpt lat="47.92323" lon="-2.4982">
        <ele>68.22934</ele>
        <time>2023-05-04T17:19:00.077Z</time>
      </trkpt>
      <trkpt lat="47.92332" lon="-2.49813">
        <ele>67.541805</ele>
        <time>2023-05-04T17:19:03.078Z</time>
      </trkpt>
      <trkpt lat="47.92342" lon="-2.49802">
        <ele>66.771968</ele>
        <time>2023-05-04T17:19:06.083Z</time>
      </trkpt>
      <trkpt lat="47.92351" lon="-2.49791">
        <ele>66.009456</ele>
        <time>2023-05-04T17:19:09.076Z</time>
      </trkpt>
      <trkpt lat="47.92357" lon="-2.4978">
        <ele>65.384889</ele>
        <time>2023-05-04T17:19:12.070Z</time>
      </trkpt>
      <trkpt lat="47.92362" lon="-2.49769">
        <ele>64.787952</ele>
        <time>2023-05-04T17:19:15.084Z</time>
      </trkpt>
      <trkpt lat="47.92367" lon="-2.49753">
        <ele>63.985246</ele>
        <time>2023-05-04T17:19:18.069Z</time>
      </trkpt>
      <trkpt lat="47.92372" lon="-2.49739">
        <ele>63.303738</ele>
        <time>2023-05-04T17:19:20.071Z</time>
      </trkpt>
      <trkpt lat="47.92376" lon="-2.49725">
        <ele>63.175119</ele>
        <time>2023-05-04T17:19:22.071Z</time>
      </trkpt>
      <trkpt lat="47.92381" lon="-2.49712">
        <ele>63.602122</ele>
        <time>2023-05-04T17:19:26.070Z</time>
      </trkpt>
      <trkpt lat="47.92385" lon="-2.49696">
        <ele>64.09112</ele>
        <time>2023-05-04T17:19:33.082Z</time>
      </trkpt>
      <trkpt lat="47.92391" lon="-2.49683">
        <ele>64.52643</ele>
        <time>2023-05-04T17:19:36.066Z</time>
      </trkpt>
      <trkpt lat="47.92394" lon="-2.49669">
        <ele>64.947954</ele>
        <time>2023-05-04T17:19:39.067Z</time>
      </trkpt>
      <trkpt lat="47.92395" lon="-2.49652">
        <ele>65.450365</ele>
        <time>2023-05-04T17:19:43.065Z</time>
      </trkpt>
      <trkpt lat="47.92398" lon="-2.49637">
        <ele>65.891222</ele>
        <time>2023-05-04T17:19:47.075Z</time>
      </trkpt>
      <trkpt lat="47.92399" lon="-2.49624">
        <ele>66.279223</ele>
        <time>2023-05-04T17:19:51.079Z</time>
      </trkpt>
      <trkpt lat="47.924" lon="-2.49606">
        <ele>66.780693</ele>
        <time>2023-05-04T17:19:55.078Z</time>
      </trkpt>
      <trkpt lat="47.924" lon="-2.49588">
        <ele>67.293058</ele>
        <time>2023-05-04T17:19:59.075Z</time>
      </trkpt>
      <trkpt lat="47.92399" lon="-2.49573">
        <ele>67.752906</ele>
        <time>2023-05-04T17:20:02.076Z</time>
      </trkpt>
      <trkpt lat="47.92398" lon="-2.49558">
        <ele>68.18232</ele>
        <time>2023-05-04T17:20:05.075Z</time>
      </trkpt>
      <trkpt lat="47.92396" lon="-2.49542">
        <ele>68.655898</ele>
        <time>2023-05-04T17:20:08.076Z</time>
      </trkpt>
      <trkpt lat="47.92393" lon="-2.49527">
        <ele>69.084488</ele>
        <time>2023-05-04T17:20:11.065Z</time>
      </trkpt>
      <trkpt lat="47.92389" lon="-2.49514">
        <ele>69.498233</ele>
        <time>2023-05-04T17:20:14.074Z</time>
      </trkpt>
      <trkpt lat="47.92384" lon="-2.49499">
        <ele>69.991179</ele>
        <time>2023-05-04T17:20:18.067Z</time>
      </trkpt>
      <trkpt lat="47.92378" lon="-2.49485">
        <ele>70.469401</ele>
        <time>2023-05-04T17:20:22.077Z</time>
      </trkpt>
      <trkpt lat="47.92371" lon="-2.49471">
        <ele>70.678544</ele>
        <time>2023-05-04T17:20:26.070Z</time>
      </trkpt>
      <trkpt lat="47.92366" lon="-2.49459">
        <ele>70.683291</ele>
        <time>2023-05-04T17:20:29.067Z</time>
      </trkpt>
      <trkpt lat="47.92362" lon="-2.49447">
        <ele>70.68811</ele>
        <time>2023-05-04T17:20:32.076Z</time>
      </trkpt>
      <trkpt lat="47.92356" lon="-2.49436">
        <ele>70.692971</ele>
        <time>2023-05-04T17:20:35.071Z</time>
      </trkpt>
      <trkpt lat="47.92351" lon="-2.49423">
        <ele>70.697891</ele>
        <time>2023-05-04T17:20:38.074Z</time>
      </trkpt>
      <trkpt lat="47.92346" lon="-2.49411">
        <ele>70.702888</ele>
        <time>2023-05-04T17:20:41.076Z</time>
      </trkpt>
      <trkpt lat="47.92341" lon="-2.49397">
        <ele>70.708299</ele>
        <time>2023-05-04T17:20:44.074Z</time>
      </trkpt>
      <trkpt lat="47.92336" lon="-2.49384">
        <ele>70.713396</ele>
        <time>2023-05-04T17:20:47.068Z</time>
      </trkpt>
      <trkpt lat="47.92329" lon="-2.49371">
        <ele>70.718974</ele>
        <time>2023-05-04T17:20:50.067Z</time>
      </trkpt>
      <trkpt lat="47.92323" lon="-2.4936">
        <ele>70.723763</ele>
        <time>2023-05-04T17:20:53.067Z</time>
      </trkpt>
      <trkpt lat="47.92317" lon="-2.49345">
        <ele>70.729759</ele>
        <time>2023-05-04T17:20:57.070Z</time>
      </trkpt>
      <trkpt lat="47.92313" lon="-2.49333">
        <ele>70.734367</ele>
        <time>2023-05-04T17:21:00.076Z</time>
      </trkpt>
      <trkpt lat="47.92308" lon="-2.4932">
        <ele>70.73946</ele>
        <time>2023-05-04T17:21:03.080Z</time>
      </trkpt>
      <trkpt lat="47.92303" lon="-2.49308">
        <ele>70.744516</ele>
        <time>2023-05-04T17:21:06.076Z</time>
      </trkpt>
      <trkpt lat="47.92296" lon="-2.49295">
        <ele>70.750168</ele>
        <time>2023-05-04T17:21:09.067Z</time>
      </trkpt>
      <trkpt lat="47.9229" lon="-2.49282">
        <ele>70.755393</ele>
        <time>2023-05-04T17:21:12.082Z</time>
      </trkpt>
      <trkpt lat="47.92282" lon="-2.49269">
        <ele>70.761589</ele>
        <time>2023-05-04T17:21:16.069Z</time>
      </trkpt>
      <trkpt lat="47.92275" lon="-2.49259">
        <ele>70.766568</ele>
        <time>2023-05-04T17:21:19.075Z</time>
      </trkpt>
      <trkpt lat="47.92268" lon="-2.49248">
        <ele>70.857717</ele>
        <time>2023-05-04T17:21:22.081Z</time>
      </trkpt>
      <trkpt lat="47.92263" lon="-2.49236">
        <ele>70.949885</ele>
        <time>2023-05-04T17:21:25.076Z</time>
      </trkpt>
      <trkpt lat="47.92257" lon="-2.49225">
        <ele>71.040092</ele>
        <time>2023-05-04T17:21:28.078Z</time>
      </trkpt>
      <trkpt lat="47.9225" lon="-2.49216">
        <ele>71.128613</ele>
        <time>2023-05-04T17:21:31.078Z</time>
      </trkpt>
      <trkpt lat="47.92243" lon="-2.49207">
        <ele>71.217838</ele>
        <time>2023-05-04T17:21:34.076Z</time>
      </trkpt>
      <trkpt lat="47.92236" lon="-2.49198">
        <ele>71.306612</ele>
        <time>2023-05-04T17:21:37.065Z</time>
      </trkpt>
      <trkpt lat="47.92228" lon="-2.49186">
        <ele>71.416343</ele>
        <time>2023-05-04T17:21:41.075Z</time>
      </trkpt>
      <trkpt lat="47.9222" lon="-2.49177">
        <ele>71.512046</ele>
        <time>2023-05-04T17:21:44.066Z</time>
      </trkpt>
      <trkpt lat="47.92212" lon="-2.49166">
        <ele>71.616002</ele>
        <time>2023-05-04T17:21:48.070Z</time>
      </trkpt>
      <trkpt lat="47.92205" lon="-2.49156">
        <ele>71.71124</ele>
        <time>2023-05-04T17:21:51.086Z</time>
      </trkpt>
      <trkpt lat="47.92194" lon="-2.49146">
        <ele>71.829431</ele>
        <time>2023-05-04T17:21:54.071Z</time>
      </trkpt>
      <trkpt lat="47.92186" lon="-2.4914">
        <ele>71.917656</ele>
        <time>2023-05-04T17:21:57.070Z</time>
      </trkpt>
      <trkpt lat="47.92177" lon="-2.49131">
        <ele>72.025493</ele>
        <time>2023-05-04T17:22:01.067Z</time>
      </trkpt>
      <trkpt lat="47.92166" lon="-2.49123">
        <ele>72.143025</ele>
        <time>2023-05-04T17:22:05.076Z</time>
      </trkpt>
      <trkpt lat="47.92157" lon="-2.49115">
        <ele>72.240392</ele>
        <time>2023-05-04T17:22:08.067Z</time>
      </trkpt>
      <trkpt lat="47.92149" lon="-2.49108">
        <ele>72.336108</ele>
        <time>2023-05-04T17:22:11.077Z</time>
      </trkpt>
      <trkpt lat="47.9214" lon="-2.491">
        <ele>72.432843</ele>
        <time>2023-05-04T17:22:14.080Z</time>
      </trkpt>
      <trkpt lat="47.92131" lon="-2.49092">
        <ele>72.264756</ele>
        <time>2023-05-04T17:22:17.078Z</time>
      </trkpt>
      <trkpt lat="47.92122" lon="-2.49084">
        <ele>71.601746</ele>
        <time>2023-05-04T17:22:20.072Z</time>
      </trkpt>
      <trkpt lat="47.92114" lon="-2.49075">
        <ele>70.9353</ele>
        <time>2023-05-04T17:22:23.076Z</time>
      </trkpt>
      <trkpt lat="47.92106" lon="-2.49067">
        <ele>70.326363</ele>
        <time>2023-05-04T17:22:26.065Z</time>
      </trkpt>
      <trkpt lat="47.92099" lon="-2.49054">
        <ele>69.632805</ele>
        <time>2023-05-04T17:22:29.068Z</time>
      </trkpt>
      <trkpt lat="47.92096" lon="-2.49042">
        <ele>69.045803</ele>
        <time>2023-05-04T17:22:32.083Z</time>
      </trkpt>
      <trkpt lat="47.92092" lon="-2.49029">
        <ele>68.412785</ele>
        <time>2023-05-04T17:22:35.064Z</time>
      </trkpt>
      <trkpt lat="47.92088" lon="-2.49014">
        <ele>67.743817</ele>
        <time>2023-05-04T17:22:38.068Z</time>
      </trkpt>
      <trkpt lat="47.92083" lon="-2.49001">
        <ele>67.09614</ele>
        <time>2023-05-04T17:22:41.068Z</time>
      </trkpt>
      <trkpt lat="47.92079" lon="-2.48989">
        <ele>66.498022</ele>
        <time>2023-05-04T17:22:44.080Z</time>
      </trkpt>
      <trkpt lat="47.92072" lon="-2.48974">
        <ele>65.709598</ele>
        <time>2023-05-04T17:22:47.087Z</time>
      </trkpt>
      <trkpt lat="47.92066" lon="-2.48961">
        <ele>65.040073</ele>
        <time>2023-05-04T17:22:50.069Z</time>
      </trkpt>
      <trkpt lat="47.92062" lon="-2.48949">
        <ele>64.442788</ele>
        <time>2023-05-04T17:22:53.067Z</time>
      </trkpt>
      <trkpt lat="47.92058" lon="-2.48936">
        <ele>63.842577</ele>
        <time>2023-05-04T17:22:56.067Z</time>
      </trkpt>
      <trkpt lat="47.92054" lon="-2.48922">
        <ele>63.167385</ele>
        <time>2023-05-04T17:22:59.074Z</time>
      </trkpt>
      <trkpt lat="47.9205" lon="-2.48906">
        <ele>62.43554</ele>
        <time>2023-05-04T17:23:02.082Z</time>
      </trkpt>
      <trkpt lat="47.92045" lon="-2.48891">
        <ele>61.70231</ele>
        <time>2023-05-04T17:23:05.081Z</time>
      </trkpt>
      <trkpt lat="47.92041" lon="-2.48875">
        <ele>60.98261</ele>
        <time>2023-05-04T17:23:08.077Z</time>
      </trkpt>
      <trkpt lat="47.92037" lon="-2.4886">
        <ele>61.429591</ele>
        <time>2023-05-04T17:23:11.078Z</time>
      </trkpt>
      <trkpt lat="47.92032" lon="-2.48843">
        <ele>62.176191</ele>
        <time>2023-05-04T17:23:14.080Z</time>
      </trkpt>
      <trkpt lat="47.92027" lon="-2.48826">
        <ele>62.92235</ele>
        <time>2023-05-04T17:23:17.070Z</time>
      </trkpt>
      <trkpt lat="47.92021" lon="-2.48811">
        <ele>63.628419</ele>
        <time>2023-05-04T17:23:20.066Z</time>
      </trkpt>
      <trkpt lat="47.92014" lon="-2.48799">
        <ele>64.288079</ele>
        <time>2023-05-04T17:23:23.068Z</time>
      </trkpt>
      <trkpt lat="47.92006" lon="-2.48788">
        <ele>64.918537</ele>
        <time>2023-05-04T17:23:26.066Z</time>
      </trkpt>
      <trkpt lat="47.91998" lon="-2.48779">
        <ele>65.525296</ele>
        <time>2023-05-04T17:23:29.065Z</time>
      </trkpt>
      <trkpt lat="47.9199" lon="-2.48771">
        <ele>66.084369</ele>
        <time>2023-05-04T17:23:33.068Z</time>
      </trkpt>
      <trkpt lat="47.91982" lon="-2.48766">
        <ele>66.633813</ele>
        <time>2023-05-04T17:23:36.084Z</time>
      </trkpt>
      <trkpt lat="47.91974" lon="-2.48758">
        <ele>67.221855</ele>
        <time>2023-05-04T17:23:39.071Z</time>
      </trkpt>
      <trkpt lat="47.91966" lon="-2.48749">
        <ele>67.816949</ele>
        <time>2023-05-04T17:23:42.078Z</time>
      </trkpt>
      <trkpt lat="47.91957" lon="-2.48741">
        <ele>68.440194</ele>
        <time>2023-05-04T17:23:45.074Z</time>
      </trkpt>
      <trkpt lat="47.91948" lon="-2.48732">
        <ele>69.112835</ele>
        <time>2023-05-04T17:23:48.068Z</time>
      </trkpt>
      <trkpt lat="47.91939" lon="-2.48721">
        <ele>69.776302</ele>
        <time>2023-05-04T17:23:51.068Z</time>
      </trkpt>
      <trkpt lat="47.91931" lon="-2.48712">
        <ele>70.385511</ele>
        <time>2023-05-04T17:23:54.083Z</time>
      </trkpt>
      <trkpt lat="47.91922" lon="-2.48703">
        <ele>71.054273</ele>
        <time>2023-05-04T17:23:57.076Z</time>
      </trkpt>
      <trkpt lat="47.91912" lon="-2.48692">
        <ele>71.750046</ele>
        <time>2023-05-04T17:24:01.075Z</time>
      </trkpt>
      <trkpt lat="47.91904" lon="-2.48683">
        <ele>72.162123</ele>
        <time>2023-05-04T17:24:04.074Z</time>
      </trkpt>
      <trkpt lat="47.91893" lon="-2.48672">
        <ele>72.654524</ele>
        <time>2023-05-04T17:24:07.075Z</time>
      </trkpt>
      <trkpt lat="47.91884" lon="-2.48662">
        <ele>73.11696</ele>
        <time>2023-05-04T17:24:10.067Z</time>
      </trkpt>
      <trkpt lat="47.91875" lon="-2.48653">
        <ele>73.530667</ele>
        <time>2023-05-04T17:24:13.066Z</time>
      </trkpt>
      <trkpt lat="47.91866" lon="-2.48644">
        <ele>73.940992</ele>
        <time>2023-05-04T17:24:16.075Z</time>
      </trkpt>
      <trkpt lat="47.91858" lon="-2.48636">
        <ele>74.326641</ele>
        <time>2023-05-04T17:24:19.070Z</time>
      </trkpt>
      <trkpt lat="47.9185" lon="-2.48626">
        <ele>74.729435</ele>
        <time>2023-05-04T17:24:22.067Z</time>
      </trkpt>
      <trkpt lat="47.91843" lon="-2.48617">
        <ele>75.103465</ele>
        <time>2023-05-04T17:24:25.064Z</time>
      </trkpt>
      <trkpt lat="47.91834" lon="-2.48607">
        <ele>75.53434</ele>
        <time>2023-05-04T17:24:29.071Z</time>
      </trkpt>
      <trkpt lat="47.91825" lon="-2.486">
        <ele>75.913075</ele>
        <time>2023-05-04T17:24:32.068Z</time>
      </trkpt>
      <trkpt lat="47.91818" lon="-2.48591">
        <ele>76.290693</ele>
        <time>2023-05-04T17:24:35.070Z</time>
      </trkpt>
      <trkpt lat="47.91809" lon="-2.48579">
        <ele>76.762571</ele>
        <time>2023-05-04T17:24:38.065Z</time>
      </trkpt>
      <trkpt lat="47.918" lon="-2.48569">
        <ele>77.190988</ele>
        <time>2023-05-04T17:24:41.077Z</time>
      </trkpt>
      <trkpt lat="47.91792" lon="-2.48558">
        <ele>77.623843</ele>
        <time>2023-05-04T17:24:44.079Z</time>
      </trkpt>
      <trkpt lat="47.91784" lon="-2.48547">
        <ele>78.031661</ele>
        <time>2023-05-04T17:24:47.076Z</time>
      </trkpt>
      <trkpt lat="47.91776" lon="-2.48537">
        <ele>78.445703</ele>
        <time>2023-05-04T17:24:50.074Z</time>
      </trkpt>
      <trkpt lat="47.91768" lon="-2.48526">
        <ele>78.622729</ele>
        <time>2023-05-04T17:24:54.069Z</time>
      </trkpt>
      <trkpt lat="47.9176" lon="-2.48513">
        <ele>78.416432</ele>
        <time>2023-05-04T17:24:57.067Z</time>
      </trkpt>
      <trkpt lat="47.91753" lon="-2.48503">
        <ele>78.251226</ele>
        <time>2023-05-04T17:24:59.077Z</time>
      </trkpt>
      <trkpt lat="47.91747" lon="-2.48492">
        <ele>78.083417</ele>
        <time>2023-05-04T17:25:01.076Z</time>
      </trkpt>
      <trkpt lat="47.91738" lon="-2.4848">
        <ele>77.880825</ele>
        <time>2023-05-04T17:25:04.066Z</time>
      </trkpt>
      <trkpt lat="47.91733" lon="-2.48467">
        <ele>77.696148</ele>
        <time>2023-05-04T17:25:07.076Z</time>
      </trkpt>
      <trkpt lat="47.91726" lon="-2.48456">
        <ele>77.528615</ele>
        <time>2023-05-04T17:25:10.064Z</time>
      </trkpt>
      <trkpt lat="47.9172" lon="-2.48445">
        <ele>77.364247</ele>
        <time>2023-05-04T17:25:13.067Z</time>
      </trkpt>
      <trkpt lat="47.91713" lon="-2.48431">
        <ele>77.149127</ele>
        <time>2023-05-04T17:25:17.064Z</time>
      </trkpt>
      <trkpt lat="47.91706" lon="-2.48419">
        <ele>76.971712</ele>
        <time>2023-05-04T17:25:20.067Z</time>
      </trkpt>
      <trkpt lat="47.91698" lon="-2.48407">
        <ele>76.767867</ele>
        <time>2023-05-04T17:25:23.066Z</time>
      </trkpt>
      <trkpt lat="47.91688" lon="-2.48397">
        <ele>76.564933</ele>
        <time>2023-05-04T17:25:26.074Z</time>
      </trkpt>
      <trkpt lat="47.91679" lon="-2.48388">
        <ele>76.377709</ele>
        <time>2023-05-04T17:25:29.069Z</time>
      </trkpt>
      <trkpt lat="47.91672" lon="-2.4838">
        <ele>76.213897</ele>
        <time>2023-05-04T17:25:32.074Z</time>
      </trkpt>
      <trkpt lat="47.91663" lon="-2.48369">
        <ele>76.021982</ele>
        <time>2023-05-04T17:25:35.079Z</time>
      </trkpt>
      <trkpt lat="47.91654" lon="-2.48359">
        <ele>75.814853</ele>
        <time>2023-05-04T17:25:39.081Z</time>
      </trkpt>
      <trkpt lat="47.91645" lon="-2.48351">
        <ele>75.629532</ele>
        <time>2023-05-04T17:25:42.083Z</time>
      </trkpt>
      <trkpt lat="47.91634" lon="-2.48343">
        <ele>75.662418</ele>
        <time>2023-05-04T17:25:45.082Z</time>
      </trkpt>
      <trkpt lat="47.91625" lon="-2.48336">
        <ele>75.793484</ele>
        <time>2023-05-04T17:25:48.071Z</time>
      </trkpt>
      <trkpt lat="47.91614" lon="-2.48328">
        <ele>75.931745</ele>
        <time>2023-05-04T17:25:51.074Z</time>
      </trkpt>
      <trkpt lat="47.91604" lon="-2.48321">
        <ele>76.067538</ele>
        <time>2023-05-04T17:25:54.067Z</time>
      </trkpt>
      <trkpt lat="47.91594" lon="-2.48314">
        <ele>76.198603</ele>
        <time>2023-05-04T17:25:57.068Z</time>
      </trkpt>
      <trkpt lat="47.91584" lon="-2.48306">
        <ele>76.335461</ele>
        <time>2023-05-04T17:26:00.071Z</time>
      </trkpt>
      <trkpt lat="47.91574" lon="-2.48299">
        <ele>76.468718</ele>
        <time>2023-05-04T17:26:03.075Z</time>
      </trkpt>
      <trkpt lat="47.91566" lon="-2.48294">
        <ele>76.583319</ele>
        <time>2023-05-04T17:26:06.084Z</time>
      </trkpt>
      <trkpt lat="47.91556" lon="-2.48289">
        <ele>76.701745</ele>
        <time>2023-05-04T17:26:09.068Z</time>
      </trkpt>
      <trkpt lat="47.91547" lon="-2.48284">
        <ele>76.828159</ele>
        <time>2023-05-04T17:26:12.072Z</time>
      </trkpt>
      <trkpt lat="47.91537" lon="-2.48278">
        <ele>76.948569</ele>
        <time>2023-05-04T17:26:15.068Z</time>
      </trkpt>
      <trkpt lat="47.91526" lon="-2.48272">
        <ele>77.095654</ele>
        <time>2023-05-04T17:26:19.065Z</time>
      </trkpt>
      <trkpt lat="47.91517" lon="-2.48268">
        <ele>77.209576</ele>
        <time>2023-05-04T17:26:22.079Z</time>
      </trkpt>
      <trkpt lat="47.91508" lon="-2.48262">
        <ele>77.322116</ele>
        <time>2023-05-04T17:26:25.080Z</time>
      </trkpt>
      <trkpt lat="47.91498" lon="-2.48257">
        <ele>77.455674</ele>
        <time>2023-05-04T17:26:28.076Z</time>
      </trkpt>
      <trkpt lat="47.91488" lon="-2.48252">
        <ele>77.580944</ele>
        <time>2023-05-04T17:26:31.079Z</time>
      </trkpt>
      <trkpt lat="47.91478" lon="-2.48246">
        <ele>77.713607</ele>
        <time>2023-05-04T17:26:34.077Z</time>
      </trkpt>
      <trkpt lat="47.91468" lon="-2.4824">
        <ele>77.696242</ele>
        <time>2023-05-04T17:26:37.078Z</time>
      </trkpt>
      <trkpt lat="47.91458" lon="-2.48234">
        <ele>77.633944</ele>
        <time>2023-05-04T17:26:40.064Z</time>
      </trkpt>
      <trkpt lat="47.91447" lon="-2.48229">
        <ele>77.570464</ele>
        <time>2023-05-04T17:26:43.075Z</time>
      </trkpt>
      <trkpt lat="47.91436" lon="-2.48224">
        <ele>77.50432</ele>
        <time>2023-05-04T17:26:46.067Z</time>
      </trkpt>
      <trkpt lat="47.91425" lon="-2.48219">
        <ele>77.441649</ele>
        <time>2023-05-04T17:26:49.081Z</time>
      </trkpt>
      <trkpt lat="47.91414" lon="-2.48215">
        <ele>77.37649</ele>
        <time>2023-05-04T17:26:52.069Z</time>
      </trkpt>
      <trkpt lat="47.91404" lon="-2.48211">
        <ele>77.315705</ele>
        <time>2023-05-04T17:26:55.066Z</time>
      </trkpt>
      <trkpt lat="47.91393" lon="-2.48206">
        <ele>77.25314</ele>
        <time>2023-05-04T17:26:58.075Z</time>
      </trkpt>
      <trkpt lat="47.91382" lon="-2.48203">
        <ele>77.192793</ele>
        <time>2023-05-04T17:27:01.084Z</time>
      </trkpt>
      <trkpt lat="47.91372" lon="-2.48197">
        <ele>77.12919</ele>
        <time>2023-05-04T17:27:04.070Z</time>
      </trkpt>
      <trkpt lat="47.91361" lon="-2.48192">
        <ele>77.067827</ele>
        <time>2023-05-04T17:27:07.078Z</time>
      </trkpt>
      <trkpt lat="47.91352" lon="-2.48187">
        <ele>77.01053</ele>
        <time>2023-05-04T17:27:10.075Z</time>
      </trkpt>
      <trkpt lat="47.91341" lon="-2.48183">
        <ele>76.94829</ele>
        <time>2023-05-04T17:27:13.077Z</time>
      </trkpt>
      <trkpt lat="47.9133" lon="-2.48179">
        <ele>76.88336</ele>
        <time>2023-05-04T17:27:16.075Z</time>
      </trkpt>
      <trkpt lat="47.91319" lon="-2.48174">
        <ele>76.820043</ele>
        <time>2023-05-04T17:27:19.078Z</time>
      </trkpt>
      <trkpt lat="47.91308" lon="-2.48169">
        <ele>76.756705</ele>
        <time>2023-05-04T17:27:22.073Z</time>
      </trkpt>
      <trkpt lat="47.91297" lon="-2.48165">
        <ele>76.679357</ele>
        <time>2023-05-04T17:27:25.076Z</time>
      </trkpt>
      <trkpt lat="47.91288" lon="-2.4816">
        <ele>76.598393</ele>
        <time>2023-05-04T17:27:28.068Z</time>
      </trkpt>
      <trkpt lat="47.91277" lon="-2.48153">
        <ele>76.497884</ele>
        <time>2023-05-04T17:27:32.074Z</time>
      </trkpt>
      <trkpt lat="47.91268" lon="-2.48148">
        <ele>76.41594</ele>
        <time>2023-05-04T17:27:35.070Z</time>
      </trkpt>
      <trkpt lat="47.91258" lon="-2.48143">
        <ele>76.334176</ele>
        <time>2023-05-04T17:27:38.064Z</time>
      </trkpt>
      <trkpt lat="47.91249" lon="-2.48139">
        <ele>76.253263</ele>
        <time>2023-05-04T17:27:41.068Z</time>
      </trkpt>
      <trkpt lat="47.91239" lon="-2.4814">
        <ele>76.173982</ele>
        <time>2023-05-04T17:27:44.089Z</time>
      </trkpt>
      <trkpt lat="47.91228" lon="-2.48143">
        <ele>76.082239</ele>
        <time>2023-05-04T17:27:47.064Z</time>
      </trkpt>
      <trkpt lat="47.91217" lon="-2.48143">
        <ele>75.98677</ele>
        <time>2023-05-04T17:27:50.073Z</time>
      </trkpt>
      <trkpt lat="47.91206" lon="-2.48142">
        <ele>75.896217</ele>
        <time>2023-05-04T17:27:53.075Z</time>
      </trkpt>
      <trkpt lat="47.91194" lon="-2.4814">
        <ele>75.797158</ele>
        <time>2023-05-04T17:27:56.063Z</time>
      </trkpt>
      <trkpt lat="47.91183" lon="-2.48141">
        <ele>75.711058</ele>
        <time>2023-05-04T17:28:02.076Z</time>
      </trkpt>
      <trkpt lat="47.91171" lon="-2.48139">
        <ele>75.610111</ele>
        <time>2023-05-04T17:28:05.074Z</time>
      </trkpt>
      <trkpt lat="47.91161" lon="-2.4814">
        <ele>75.523672</ele>
        <time>2023-05-04T17:28:08.075Z</time>
      </trkpt>
      <trkpt lat="47.9115" lon="-2.48141">
        <ele>75.433861</ele>
        <time>2023-05-04T17:28:11.071Z</time>
      </trkpt>
      <trkpt lat="47.91139" lon="-2.48142">
        <ele>75.340395</ele>
        <time>2023-05-04T17:28:14.077Z</time>
      </trkpt>
      <trkpt lat="47.91127" lon="-2.48143">
        <ele>75.248067</ele>
        <time>2023-05-04T17:28:18.078Z</time>
      </trkpt>
      <trkpt lat="47.91116" lon="-2.48145">
        <ele>75.194652</ele>
        <time>2023-05-04T17:28:21.071Z</time>
      </trkpt>
      <trkpt lat="47.91106" lon="-2.48146">
        <ele>75.147016</ele>
        <time>2023-05-04T17:28:25.089Z</time>
      </trkpt>
      <trkpt lat="47.91095" lon="-2.48146">
        <ele>75.09229</ele>
        <time>2023-05-04T17:28:29.067Z</time>
      </trkpt>
      <trkpt lat="47.91085" lon="-2.48145">
        <ele>75.042822</ele>
        <time>2023-05-04T17:28:32.068Z</time>
      </trkpt>
      <trkpt lat="47.91075" lon="-2.48147">
        <ele>74.993397</ele>
        <time>2023-05-04T17:28:35.066Z</time>
      </trkpt>
      <trkpt lat="47.91063" lon="-2.48149">
        <ele>74.933812</ele>
        <time>2023-05-04T17:28:38.076Z</time>
      </trkpt>
      <trkpt lat="47.9105" lon="-2.48149">
        <ele>74.870302</ele>
        <time>2023-05-04T17:28:41.071Z</time>
      </trkpt>
      <trkpt lat="47.91041" lon="-2.48149">
        <ele>74.824356</ele>
        <time>2023-05-04T17:28:44.083Z</time>
      </trkpt>
      <trkpt lat="47.91031" lon="-2.48149">
        <ele>74.775018</ele>
        <time>2023-05-04T17:28:47.076Z</time>
      </trkpt>
      <trkpt lat="47.91021" lon="-2.48149">
        <ele>74.727142</ele>
        <time>2023-05-04T17:28:50.069Z</time>
      </trkpt>
      <trkpt lat="47.9101" lon="-2.48149">
        <ele>74.675363</ele>
        <time>2023-05-04T17:28:53.081Z</time>
      </trkpt>
      <trkpt lat="47.90999" lon="-2.48148">
        <ele>74.619641</ele>
        <time>2023-05-04T17:28:57.069Z</time>
      </trkpt>
      <trkpt lat="47.90987" lon="-2.48142">
        <ele>74.558849</ele>
        <time>2023-05-04T17:29:01.103Z</time>
      </trkpt>
      <trkpt lat="47.90976" lon="-2.48135">
        <ele>74.501065</ele>
        <time>2023-05-04T17:29:04.075Z</time>
      </trkpt>
      <trkpt lat="47.90969" lon="-2.48126">
        <ele>74.45242</ele>
        <time>2023-05-04T17:29:07.066Z</time>
      </trkpt>
      <trkpt lat="47.90962" lon="-2.48116">
        <ele>74.407621</ele>
        <time>2023-05-04T17:29:10.067Z</time>
      </trkpt>
      <trkpt lat="47.90957" lon="-2.48102">
        <ele>74.350262</ele>
        <time>2023-05-04T17:29:13.067Z</time>
      </trkpt>
      <trkpt lat="47.90951" lon="-2.48087">
        <ele>74.272763</ele>
        <time>2023-05-04T17:29:16.088Z</time>
      </trkpt>
      <trkpt lat="47.90944" lon="-2.48072">
        <ele>74.190847</ele>
        <time>2023-05-04T17:29:19.080Z</time>
      </trkpt>
      <trkpt lat="47.9094" lon="-2.4806">
        <ele>74.126993</ele>
        <time>2023-05-04T17:29:22.086Z</time>
      </trkpt>
      <trkpt lat="47.90934" lon="-2.48046">
        <ele>74.057249</ele>
        <time>2023-05-04T17:29:25.064Z</time>
      </trkpt>
      <trkpt lat="47.90929" lon="-2.48032">
        <ele>73.984356</ele>
        <time>2023-05-04T17:29:28.065Z</time>
      </trkpt>
      <trkpt lat="47.90925" lon="-2.48019">
        <ele>73.91704</ele>
        <time>2023-05-04T17:29:31.066Z</time>
      </trkpt>
      <trkpt lat="47.90919" lon="-2.48003">
        <ele>73.838184</ele>
        <time>2023-05-04T17:29:34.069Z</time>
      </trkpt>
      <trkpt lat="47.90914" lon="-2.4799">
        <ele>73.768826</ele>
        <time>2023-05-04T17:29:37.065Z</time>
      </trkpt>
      <trkpt lat="47.90909" lon="-2.47974">
        <ele>73.692697</ele>
        <time>2023-05-04T17:29:40.069Z</time>
      </trkpt>
      <trkpt lat="47.90905" lon="-2.4796">
        <ele>73.623259</ele>
        <time>2023-05-04T17:29:43.078Z</time>
      </trkpt>
      <trkpt lat="47.909" lon="-2.47947">
        <ele>73.558469</ele>
        <time>2023-05-04T17:29:46.077Z</time>
      </trkpt>
      <trkpt lat="47.90894" lon="-2.47934">
        <ele>73.483995</ele>
        <time>2023-05-04T17:29:49.079Z</time>
      </trkpt>
      <trkpt lat="47.90887" lon="-2.47923">
        <ele>73.414609</ele>
        <time>2023-05-04T17:29:52.088Z</time>
      </trkpt>
      <trkpt lat="47.90879" lon="-2.47911">
        <ele>73.33906</ele>
        <time>2023-05-04T17:29:55.078Z</time>
      </trkpt>
      <trkpt lat="47.90872" lon="-2.47901">
        <ele>73.274557</ele>
        <time>2023-05-04T17:29:58.065Z</time>
      </trkpt>
      <trkpt lat="47.90865" lon="-2.4789">
        <ele>73.206119</ele>
        <time>2023-05-04T17:30:01.072Z</time>
      </trkpt>
      <trkpt lat="47.90858" lon="-2.47878">
        <ele>73.253486</ele>
        <time>2023-05-04T17:30:04.067Z</time>
      </trkpt>
      <trkpt lat="47.9085" lon="-2.47863">
        <ele>73.451637</ele>
        <time>2023-05-04T17:30:07.065Z</time>
      </trkpt>
      <trkpt lat="47.90843" lon="-2.47852">
        <ele>73.616662</ele>
        <time>2023-05-04T17:30:10.064Z</time>
      </trkpt>
      <trkpt lat="47.90835" lon="-2.47842">
        <ele>73.785361</ele>
        <time>2023-05-04T17:30:13.069Z</time>
      </trkpt>
      <trkpt lat="47.90827" lon="-2.4783">
        <ele>73.963491</ele>
        <time>2023-05-04T17:30:16.075Z</time>
      </trkpt>
      <trkpt lat="47.90819" lon="-2.4782">
        <ele>74.124052</ele>
        <time>2023-05-04T17:30:19.081Z</time>
      </trkpt>
      <trkpt lat="47.90813" lon="-2.47808">
        <ele>74.285047</ele>
        <time>2023-05-04T17:30:22.076Z</time>
      </trkpt>
      <trkpt lat="47.90805" lon="-2.47796">
        <ele>74.460303</ele>
        <time>2023-05-04T17:30:25.081Z</time>
      </trkpt>
      <trkpt lat="47.90796" lon="-2.47785">
        <ele>74.643127</ele>
        <time>2023-05-04T17:30:28.069Z</time>
      </trkpt>
      <trkpt lat="47.90787" lon="-2.47774">
        <ele>74.828938</ele>
        <time>2023-05-04T17:30:31.086Z</time>
      </trkpt>
      <trkpt lat="47.90779" lon="-2.47762">
        <ele>75.019791</ele>
        <time>2023-05-04T17:30:34.078Z</time>
      </trkpt>
      <trkpt lat="47.90774" lon="-2.47746">
        <ele>75.194886</ele>
        <time>2023-05-04T17:30:37.078Z</time>
      </trkpt>
      <trkpt lat="47.90771" lon="-2.47729">
        <ele>75.381832</ele>
        <time>2023-05-04T17:30:40.069Z</time>
      </trkpt>
      <trkpt lat="47.9077" lon="-2.47714">
        <ele>75.552173</ele>
        <time>2023-05-04T17:30:43.077Z</time>
      </trkpt>
      <trkpt lat="47.90772" lon="-2.47699">
        <ele>75.711596</ele>
        <time>2023-05-04T17:30:46.075Z</time>
      </trkpt>
      <trkpt lat="47.90774" lon="-2.47684">
        <ele>75.872473</ele>
        <time>2023-05-04T17:30:49.068Z</time>
      </trkpt>
      <trkpt lat="47.90777" lon="-2.47665">
        <ele>76.020672</ele>
        <time>2023-05-04T17:30:52.065Z</time>
      </trkpt>
      <trkpt lat="47.9078" lon="-2.47647">
        <ele>76.010855</ele>
        <time>2023-05-04T17:30:55.066Z</time>
      </trkpt>
      <trkpt lat="47.90782" lon="-2.47629">
        <ele>76.001067</ele>
        <time>2023-05-04T17:30:58.067Z</time>
      </trkpt>
      <trkpt lat="47.90784" lon="-2.47613">
        <ele>75.992042</ele>
        <time>2023-05-04T17:31:01.071Z</time>
      </trkpt>
      <trkpt lat="47.90785" lon="-2.47599">
        <ele>75.984294</ele>
        <time>2023-05-04T17:31:03.080Z</time>
      </trkpt>
      <trkpt lat="47.90784" lon="-2.47581">
        <ele>75.974501</ele>
        <time>2023-05-04T17:31:06.089Z</time>
      </trkpt>
      <trkpt lat="47.90781" lon="-2.47565">
        <ele>75.965602</ele>
        <time>2023-05-04T17:31:09.068Z</time>
      </trkpt>
      <trkpt lat="47.90776" lon="-2.47551">
        <ele>75.956873</ele>
        <time>2023-05-04T17:31:12.084Z</time>
      </trkpt>
      <trkpt lat="47.90768" lon="-2.4754">
        <ele>75.948166</ele>
        <time>2023-05-04T17:31:16.076Z</time>
      </trkpt>
      <trkpt lat="47.9076" lon="-2.47531">
        <ele>75.939972</ele>
        <time>2023-05-04T17:31:19.081Z</time>
      </trkpt>
      <trkpt lat="47.90752" lon="-2.47524">
        <ele>75.932258</ele>
        <time>2023-05-04T17:31:22.076Z</time>
      </trkpt>
      <trkpt lat="47.90742" lon="-2.47515">
        <ele>75.923397</ele>
        <time>2023-05-04T17:31:25.079Z</time>
      </trkpt>
      <trkpt lat="47.90732" lon="-2.47508">
        <ele>75.91378</ele>
        <time>2023-05-04T17:31:28.080Z</time>
      </trkpt>
      <trkpt lat="47.90721" lon="-2.475">
        <ele>75.904047</ele>
        <time>2023-05-04T17:31:31.082Z</time>
      </trkpt>
      <trkpt lat="47.90711" lon="-2.4749">
        <ele>75.894287</ele>
        <time>2023-05-04T17:31:35.066Z</time>
      </trkpt>
      <trkpt lat="47.90702" lon="-2.47482">
        <ele>75.885984</ele>
        <time>2023-05-04T17:31:38.066Z</time>
      </trkpt>
      <trkpt lat="47.90695" lon="-2.47474">
        <ele>75.878442</ele>
        <time>2023-05-04T17:31:41.064Z</time>
      </trkpt>
      <trkpt lat="47.90686" lon="-2.47465">
        <ele>76.041641</ele>
        <time>2023-05-04T17:31:44.079Z</time>
      </trkpt>
      <trkpt lat="47.90676" lon="-2.47454">
        <ele>76.240301</ele>
        <time>2023-05-04T17:31:48.080Z</time>
      </trkpt>
      <trkpt lat="47.90667" lon="-2.47446">
        <ele>76.410557</ele>
        <time>2023-05-04T17:31:51.065Z</time>
      </trkpt>
      <trkpt lat="47.90659" lon="-2.47437">
        <ele>76.568186</ele>
        <time>2023-05-04T17:31:54.082Z</time>
      </trkpt>
      <trkpt lat="47.90651" lon="-2.47428">
        <ele>76.73469</ele>
        <time>2023-05-04T17:31:57.067Z</time>
      </trkpt>
      <trkpt lat="47.90642" lon="-2.4742">
        <ele>76.906334</ele>
        <time>2023-05-04T17:32:00.075Z</time>
      </trkpt>
      <trkpt lat="47.90633" lon="-2.47412">
        <ele>77.06855</ele>
        <time>2023-05-04T17:32:03.066Z</time>
      </trkpt>
      <trkpt lat="47.90624" lon="-2.47401">
        <ele>77.262066</ele>
        <time>2023-05-04T17:32:06.066Z</time>
      </trkpt>
      <trkpt lat="47.90615" lon="-2.47391">
        <ele>77.436075</ele>
        <time>2023-05-04T17:32:09.072Z</time>
      </trkpt>
      <trkpt lat="47.90607" lon="-2.47383">
        <ele>77.595776</ele>
        <time>2023-05-04T17:32:12.076Z</time>
      </trkpt>
      <trkpt lat="47.90599" lon="-2.47373">
        <ele>77.764023</ele>
        <time>2023-05-04T17:32:15.078Z</time>
      </trkpt>
      <trkpt lat="47.9059" lon="-2.47362">
        <ele>77.95229</ele>
        <time>2023-05-04T17:32:18.078Z</time>
      </trkpt>
      <trkpt lat="47.90582" lon="-2.47354">
        <ele>78.117441</ele>
        <time>2023-05-04T17:32:21.085Z</time>
      </trkpt>
      <trkpt lat="47.90573" lon="-2.47348">
        <ele>78.26785</ele>
        <time>2023-05-04T17:32:24.077Z</time>
      </trkpt>
      <trkpt lat="47.90565" lon="-2.47339">
        <ele>78.437075</ele>
        <time>2023-05-04T17:32:27.073Z</time>
      </trkpt>
      <trkpt lat="47.90555" lon="-2.47329">
        <ele>78.622213</ele>
        <time>2023-05-04T17:32:30.063Z</time>
      </trkpt>
      <trkpt lat="47.90547" lon="-2.47318">
        <ele>78.768666</ele>
        <time>2023-05-04T17:32:33.080Z</time>
      </trkpt>
      <trkpt lat="47.9054" lon="-2.47307">
        <ele>78.533721</ele>
        <time>2023-05-04T17:32:36.066Z</time>
      </trkpt>
      <trkpt lat="47.90534" lon="-2.47296">
        <ele>78.316131</ele>
        <time>2023-05-04T17:32:39.067Z</time>
      </trkpt>
      <trkpt lat="47.90529" lon="-2.47281">
        <ele>78.062905</ele>
        <time>2023-05-04T17:32:42.067Z</time>
      </trkpt>
      <trkpt lat="47.90527" lon="-2.47264">
        <ele>77.797758</ele>
        <time>2023-05-04T17:32:45.074Z</time>
      </trkpt>
      <trkpt lat="47.90525" lon="-2.47247">
        <ele>77.535321</ele>
        <time>2023-05-04T17:32:48.065Z</time>
      </trkpt>
      <trkpt lat="47.90524" lon="-2.4723">
        <ele>77.262523</ele>
        <time>2023-05-04T17:32:51.076Z</time>
      </trkpt>
      <trkpt lat="47.90521" lon="-2.47215">
        <ele>77.032183</ele>
        <time>2023-05-04T17:32:54.065Z</time>
      </trkpt>
      <trkpt lat="47.90518" lon="-2.47199">
        <ele>76.774409</ele>
        <time>2023-05-04T17:32:57.069Z</time>
      </trkpt>
      <trkpt lat="47.90514" lon="-2.47183">
        <ele>76.505637</ele>
        <time>2023-05-04T17:33:00.069Z</time>
      </trkpt>
      <trkpt lat="47.90509" lon="-2.47168">
        <ele>76.244723</ele>
        <time>2023-05-04T17:33:03.075Z</time>
      </trkpt>
      <trkpt lat="47.90503" lon="-2.47157">
        <ele>76.024224</ele>
        <time>2023-05-04T17:33:06.078Z</time>
      </trkpt>
      <trkpt lat="47.90496" lon="-2.47146">
        <ele>75.799316</ele>
        <time>2023-05-04T17:33:09.082Z</time>
      </trkpt>
      <trkpt lat="47.90488" lon="-2.47139">
        <ele>75.584865</ele>
        <time>2023-05-04T17:33:12.081Z</time>
      </trkpt>
      <trkpt lat="47.90479" lon="-2.47129">
        <ele>75.326178</ele>
        <time>2023-05-04T17:33:15.074Z</time>
      </trkpt>
      <trkpt lat="47.90469" lon="-2.4712">
        <ele>75.053913</ele>
        <time>2023-05-04T17:33:18.069Z</time>
      </trkpt>
      <trkpt lat="47.9046" lon="-2.47112">
        <ele>74.808482</ele>
        <time>2023-05-04T17:33:21.064Z</time>
      </trkpt>
      <trkpt lat="47.90452" lon="-2.47103">
        <ele>74.5376</ele>
        <time>2023-05-04T17:33:24.076Z</time>
      </trkpt>
      <trkpt lat="47.90443" lon="-2.47093">
        <ele>74.125808</ele>
        <time>2023-05-04T17:33:27.066Z</time>
      </trkpt>
      <trkpt lat="47.90433" lon="-2.47085">
        <ele>73.727381</ele>
        <time>2023-05-04T17:33:30.086Z</time>
      </trkpt>
      <trkpt lat="47.90424" lon="-2.47076">
        <ele>73.328006</ele>
        <time>2023-05-04T17:33:33.081Z</time>
      </trkpt>
      <trkpt lat="47.90414" lon="-2.47067">
        <ele>72.924615</ele>
        <time>2023-05-04T17:33:36.075Z</time>
      </trkpt>
      <trkpt lat="47.90405" lon="-2.47057">
        <ele>72.497679</ele>
        <time>2023-05-04T17:33:39.065Z</time>
      </trkpt>
      <trkpt lat="47.90395" lon="-2.47048">
        <ele>72.085744</ele>
        <time>2023-05-04T17:33:42.072Z</time>
      </trkpt>
      <trkpt lat="47.90386" lon="-2.47039">
        <ele>71.697755</ele>
        <time>2023-05-04T17:33:45.066Z</time>
      </trkpt>
      <trkpt lat="47.90378" lon="-2.47031">
        <ele>71.335276</ele>
        <time>2023-05-04T17:33:48.074Z</time>
      </trkpt>
      <trkpt lat="47.9037" lon="-2.47022">
        <ele>70.976913</ele>
        <time>2023-05-04T17:33:51.085Z</time>
      </trkpt>
      <trkpt lat="47.9036" lon="-2.47014">
        <ele>70.555369</ele>
        <time>2023-05-04T17:33:54.075Z</time>
      </trkpt>
      <trkpt lat="47.90349" lon="-2.47007">
        <ele>70.116328</ele>
        <time>2023-05-04T17:33:57.079Z</time>
      </trkpt>
      <trkpt lat="47.90338" lon="-2.47001">
        <ele>69.720932</ele>
        <time>2023-05-04T17:34:00.063Z</time>
      </trkpt>
      <trkpt lat="47.90328" lon="-2.46997">
        <ele>69.325021</ele>
        <time>2023-05-04T17:34:03.080Z</time>
      </trkpt>
      <trkpt lat="47.90317" lon="-2.46993">
        <ele>68.900987</ele>
        <time>2023-05-04T17:34:06.080Z</time>
      </trkpt>
      <trkpt lat="47.90308" lon="-2.46989">
        <ele>68.571219</ele>
        <time>2023-05-04T17:34:09.066Z</time>
      </trkpt>
      <trkpt lat="47.90296" lon="-2.46984">
        <ele>68.125911</ele>
        <time>2023-05-04T17:34:13.068Z</time>
      </trkpt>
      <trkpt lat="47.90285" lon="-2.46979">
        <ele>68.223527</ele>
        <time>2023-05-04T17:34:17.072Z</time>
      </trkpt>
      <trkpt lat="47.90275" lon="-2.46976">
        <ele>68.323248</ele>
        <time>2023-05-04T17:34:21.066Z</time>
      </trkpt>
      <trkpt lat="47.90265" lon="-2.46975">
        <ele>68.429617</ele>
        <time>2023-05-04T17:34:25.066Z</time>
      </trkpt>
      <trkpt lat="47.90255" lon="-2.46971">
        <ele>68.529172</ele>
        <time>2023-05-04T17:34:28.080Z</time>
      </trkpt>
      <trkpt lat="47.90244" lon="-2.46964">
        <ele>68.643404</ele>
        <time>2023-05-04T17:34:32.076Z</time>
      </trkpt>
      <trkpt lat="47.90236" lon="-2.46953">
        <ele>68.746152</ele>
        <time>2023-05-04T17:34:36.078Z</time>
      </trkpt>
      <trkpt lat="47.90229" lon="-2.4694">
        <ele>68.855019</ele>
        <time>2023-05-04T17:34:39.074Z</time>
      </trkpt>
      <trkpt lat="47.90226" lon="-2.46927">
        <ele>68.942787</ele>
        <time>2023-05-04T17:34:42.071Z</time>
      </trkpt>
      <trkpt lat="47.90223" lon="-2.46913">
        <ele>69.042298</ele>
        <time>2023-05-04T17:34:45.074Z</time>
      </trkpt>
      <trkpt lat="47.90219" lon="-2.46898">
        <ele>69.147521</ele>
        <time>2023-05-04T17:34:48.075Z</time>
      </trkpt>
      <trkpt lat="47.90214" lon="-2.46883">
        <ele>69.254963</ele>
        <time>2023-05-04T17:34:51.075Z</time>
      </trkpt>
      <trkpt lat="47.90209" lon="-2.46867">
        <ele>69.367253</ele>
        <time>2023-05-04T17:34:55.076Z</time>
      </trkpt>
      <trkpt lat="47.90206" lon="-2.46852">
        <ele>69.470155</ele>
        <time>2023-05-04T17:34:58.069Z</time>
      </trkpt>
      <trkpt lat="47.90201" lon="-2.46836">
        <ele>69.585056</ele>
        <time>2023-05-04T17:35:01.076Z</time>
      </trkpt>
      <trkpt lat="47.90196" lon="-2.4682">
        <ele>69.701676</ele>
        <time>2023-05-04T17:35:04.076Z</time>
      </trkpt>
      <trkpt lat="47.9019" lon="-2.46805">
        <ele>69.816253</ele>
        <time>2023-05-04T17:35:07.070Z</time>
      </trkpt>
      <trkpt lat="47.90186" lon="-2.4679">
        <ele>69.89853</ele>
        <time>2023-05-04T17:35:10.075Z</time>
      </trkpt>
      <trkpt lat="47.90183" lon="-2.46776">
        <ele>69.957774</ele>
        <time>2023-05-04T17:35:13.076Z</time>
      </trkpt>
      <trkpt lat="47.9018" lon="-2.46764">
        <ele>70.012603</ele>
        <time>2023-05-04T17:35:16.073Z</time>
      </trkpt>
      <trkpt lat="47.90177" lon="-2.46748">
        <ele>70.079947</ele>
        <time>2023-05-04T17:35:20.073Z</time>
      </trkpt>
      <trkpt lat="47.90172" lon="-2.46735">
        <ele>70.137674</ele>
        <time>2023-05-04T17:35:23.073Z</time>
      </trkpt>
      <trkpt lat="47.90166" lon="-2.46724">
        <ele>70.197798</ele>
        <time>2023-05-04T17:35:26.075Z</time>
      </trkpt>
      <trkpt lat="47.9016" lon="-2.46712">
        <ele>70.258545</ele>
        <time>2023-05-04T17:35:29.079Z</time>
      </trkpt>
      <trkpt lat="47.90153" lon="-2.46702">
        <ele>70.314421</ele>
        <time>2023-05-04T17:35:32.079Z</time>
      </trkpt>
      <trkpt lat="47.90144" lon="-2.4669">
        <ele>70.386768</ele>
        <time>2023-05-04T17:35:36.075Z</time>
      </trkpt>
      <trkpt lat="47.90137" lon="-2.46681">
        <ele>70.446059</ele>
        <time>2023-05-04T17:35:39.079Z</time>
      </trkpt>
      <trkpt lat="47.90129" lon="-2.46673">
        <ele>70.504151</ele>
        <time>2023-05-04T17:35:42.081Z</time>
      </trkpt>
      <trkpt lat="47.9012" lon="-2.46665">
        <ele>70.568185</ele>
        <time>2023-05-04T17:35:45.072Z</time>
      </trkpt>
      <trkpt lat="47.90111" lon="-2.46655">
        <ele>70.633457</ele>
        <time>2023-05-04T17:35:49.067Z</time>
      </trkpt>
      <trkpt lat="47.90101" lon="-2.46646">
        <ele>70.702761</ele>
        <time>2023-05-04T17:35:53.064Z</time>
      </trkpt>
      <trkpt lat="47.90093" lon="-2.46638">
        <ele>70.762033</ele>
        <time>2023-05-04T17:35:56.067Z</time>
      </trkpt>
      <trkpt lat="47.90084" lon="-2.46629">
        <ele>70.82421</ele>
        <time>2023-05-04T17:35:59.068Z</time>
      </trkpt>
      <trkpt lat="47.90076" lon="-2.46621">
        <ele>70.882302</ele>
        <time>2023-05-04T17:36:02.066Z</time>
      </trkpt>
      <trkpt lat="47.90068" lon="-2.46613">
        <ele>70.944251</ele>
        <time>2023-05-04T17:36:06.064Z</time>
      </trkpt>
      <trkpt lat="47.90059" lon="-2.46605">
        <ele>70.756525</ele>
        <time>2023-05-04T17:36:09.074Z</time>
      </trkpt>
      <trkpt lat="47.90049" lon="-2.46596">
        <ele>70.520479</ele>
        <time>2023-05-04T17:36:12.077Z</time>
      </trkpt>
      <trkpt lat="47.90041" lon="-2.46586">
        <ele>70.300858</ele>
        <time>2023-05-04T17:36:15.069Z</time>
      </trkpt>
      <trkpt lat="47.90034" lon="-2.46575">
        <ele>70.080963</ele>
        <time>2023-05-04T17:36:18.075Z</time>
      </trkpt>
      <trkpt lat="47.90026" lon="-2.46563">
        <ele>69.841697</ele>
        <time>2023-05-04T17:36:22.075Z</time>
      </trkpt>
      <trkpt lat="47.90019" lon="-2.46553">
        <ele>69.648708</ele>
        <time>2023-05-04T17:36:25.074Z</time>
      </trkpt>
      <trkpt lat="47.90013" lon="-2.46542">
        <ele>69.440303</ele>
        <time>2023-05-04T17:36:28.076Z</time>
      </trkpt>
      <trkpt lat="47.90006" lon="-2.46528">
        <ele>69.19871</ele>
        <time>2023-05-04T17:36:32.079Z</time>
      </trkpt>
      <trkpt lat="47.89999" lon="-2.46516">
        <ele>68.968035</ele>
        <time>2023-05-04T17:36:36.068Z</time>
      </trkpt>
      <trkpt lat="47.89992" lon="-2.46501">
        <ele>68.711111</ele>
        <time>2023-05-04T17:36:39.064Z</time>
      </trkpt>
      <trkpt lat="47.89988" lon="-2.46487">
        <ele>68.490934</ele>
        <time>2023-05-04T17:36:42.076Z</time>
      </trkpt>
      <trkpt lat="47.89986" lon="-2.46473">
        <ele>68.291186</ele>
        <time>2023-05-04T17:36:45.075Z</time>
      </trkpt>
      <trkpt lat="47.89983" lon="-2.46457">
        <ele>68.067244</ele>
        <time>2023-05-04T17:36:48.068Z</time>
      </trkpt>
      <trkpt lat="47.89981" lon="-2.46441">
        <ele>67.835491</ele>
        <time>2023-05-04T17:36:51.065Z</time>
      </trkpt>
      <trkpt lat="47.89979" lon="-2.46424">
        <ele>67.586696</ele>
        <time>2023-05-04T17:36:55.079Z</time>
      </trkpt>
      <trkpt lat="47.89976" lon="-2.46408">
        <ele>67.351723</ele>
        <time>2023-05-04T17:36:59.069Z</time>
      </trkpt>
      <trkpt lat="47.89974" lon="-2.46394">
        <ele>67.185126</ele>
        <time>2023-05-04T17:37:02.066Z</time>
      </trkpt>
      <trkpt lat="47.89974" lon="-2.46379">
        <ele>67.474494</ele>
        <time>2023-05-04T17:37:06.074Z</time>
      </trkpt>
      <trkpt lat="47.89974" lon="-2.46361">
        <ele>67.809342</ele>
        <time>2023-05-04T17:37:10.079Z</time>
      </trkpt>
      <trkpt lat="47.89974" lon="-2.46346">
        <ele>68.112017</ele>
        <time>2023-05-04T17:37:13.080Z</time>
      </trkpt>
      <trkpt lat="47.89974" lon="-2.46329">
        <ele>68.433951</ele>
        <time>2023-05-04T17:37:16.081Z</time>
      </trkpt>
      <trkpt lat="47.89976" lon="-2.46312">
        <ele>68.751511</ele>
        <time>2023-05-04T17:37:20.079Z</time>
      </trkpt>
      <trkpt lat="47.89979" lon="-2.46297">
        <ele>69.051373</ele>
        <time>2023-05-04T17:37:24.077Z</time>
      </trkpt>
      <trkpt lat="47.89981" lon="-2.46282">
        <ele>69.343121</ele>
        <time>2023-05-04T17:37:28.065Z</time>
      </trkpt>
      <trkpt lat="47.89985" lon="-2.46267">
        <ele>69.651096</ele>
        <time>2023-05-04T17:37:33.067Z</time>
      </trkpt>
      <trkpt lat="47.89989" lon="-2.46253">
        <ele>69.950454</ele>
        <time>2023-05-04T17:37:38.067Z</time>
      </trkpt>
      <trkpt lat="47.89995" lon="-2.46238">
        <ele>70.259615</ele>
        <time>2023-05-04T17:37:42.066Z</time>
      </trkpt>
      <trkpt lat="47.9" lon="-2.46225">
        <ele>70.549044</ele>
        <time>2023-05-04T17:37:47.075Z</time>
      </trkpt>
      <trkpt lat="47.89997" lon="-2.4621">
        <ele>70.844184</ele>
        <time>2023-05-04T17:37:51.074Z</time>
      </trkpt>
      <trkpt lat="47.89988" lon="-2.46204">
        <ele>71.11859</ele>
        <time>2023-05-04T17:39:57.075Z</time>
      </trkpt>
      <trkpt lat="47.89978" lon="-2.462">
        <ele>71.407905</ele>
        <time>2023-05-04T17:40:02.070Z</time>
      </trkpt>
      <trkpt lat="47.8997" lon="-2.46196">
        <ele>71.664082</ele>
        <time>2023-05-04T17:40:06.072Z</time>
      </trkpt>
      <trkpt lat="47.89961" lon="-2.46191">
        <ele>71.946564</ele>
        <time>2023-05-04T17:40:10.078Z</time>
      </trkpt>
      <trkpt lat="47.89949" lon="-2.46186">
        <ele>72.275016</ele>
        <time>2023-05-04T17:40:14.075Z</time>
      </trkpt>
      <trkpt lat="47.89937" lon="-2.46183">
        <ele>72.419949</ele>
        <time>2023-05-04T17:40:18.074Z</time>
      </trkpt>
      <trkpt lat="47.89927" lon="-2.4618">
        <ele>72.547117</ele>
        <time>2023-05-04T17:40:21.077Z</time>
      </trkpt>
      <trkpt lat="47.89917" lon="-2.46176">
        <ele>72.666382</ele>
        <time>2023-05-04T17:40:25.078Z</time>
      </trkpt>
      <trkpt lat="47.89907" lon="-2.46171">
        <ele>72.792346</ele>
        <time>2023-05-04T17:40:29.070Z</time>
      </trkpt>
      <trkpt lat="47.89896" lon="-2.46169">
        <ele>72.929575</ele>
        <time>2023-05-04T17:40:33.075Z</time>
      </trkpt>
      <trkpt lat="47.89885" lon="-2.46168">
        <ele>73.069021</ele>
        <time>2023-05-04T17:40:37.076Z</time>
      </trkpt>
      <trkpt lat="47.89875" lon="-2.46166">
        <ele>73.185703</ele>
        <time>2023-05-04T17:40:40.076Z</time>
      </trkpt>
      <trkpt lat="47.89864" lon="-2.46166">
        <ele>73.315948</ele>
        <time>2023-05-04T17:40:43.073Z</time>
      </trkpt>
      <trkpt lat="47.89853" lon="-2.46166">
        <ele>73.452231</ele>
        <time>2023-05-04T17:40:46.078Z</time>
      </trkpt>
      <trkpt lat="47.89841" lon="-2.46168">
        <ele>73.594767</ele>
        <time>2023-05-04T17:40:49.074Z</time>
      </trkpt>
      <trkpt lat="47.89829" lon="-2.46173">
        <ele>73.744962</ele>
        <time>2023-05-04T17:40:52.083Z</time>
      </trkpt>
      <trkpt lat="47.89819" lon="-2.46177">
        <ele>73.876433</ele>
        <time>2023-05-04T17:40:55.076Z</time>
      </trkpt>
      <trkpt lat="47.89809" lon="-2.46181">
        <ele>73.995488</ele>
        <time>2023-05-04T17:40:58.077Z</time>
      </trkpt>
      <trkpt lat="47.89799" lon="-2.46188">
        <ele>74.1244</ele>
        <time>2023-05-04T17:41:02.073Z</time>
      </trkpt>
      <trkpt lat="47.8979" lon="-2.46195">
        <ele>74.249693</ele>
        <time>2023-05-04T17:41:06.083Z</time>
      </trkpt>
      <trkpt lat="47.8978" lon="-2.46203">
        <ele>74.383967</ele>
        <time>2023-05-04T17:41:10.069Z</time>
      </trkpt>
      <trkpt lat="47.8977" lon="-2.46208">
        <ele>74.041963</ele>
        <time>2023-05-04T17:41:14.076Z</time>
      </trkpt>
      <trkpt lat="47.8976" lon="-2.46214">
        <ele>73.38824</ele>
        <time>2023-05-04T17:41:18.075Z</time>
      </trkpt>
      <trkpt lat="47.89749" lon="-2.46219">
        <ele>72.720072</ele>
        <time>2023-05-04T17:41:22.076Z</time>
      </trkpt>
      <trkpt lat="47.8974" lon="-2.46224">
        <ele>72.095006</ele>
        <time>2023-05-04T17:41:26.076Z</time>
      </trkpt>
      <trkpt lat="47.89731" lon="-2.46229">
        <ele>71.528051</ele>
        <time>2023-05-04T17:41:30.075Z</time>
      </trkpt>
      <trkpt lat="47.89721" lon="-2.46235">
        <ele>70.89572</ele>
        <time>2023-05-04T17:41:34.075Z</time>
      </trkpt>
      <trkpt lat="47.89712" lon="-2.4624">
        <ele>70.304611</ele>
        <time>2023-05-04T17:41:38.077Z</time>
      </trkpt>
      <trkpt lat="47.89702" lon="-2.46247">
        <ele>69.671621</ele>
        <time>2023-05-04T17:41:43.075Z</time>
      </trkpt>
      <trkpt lat="47.89693" lon="-2.46254">
        <ele>69.039468</ele>
        <time>2023-05-04T17:41:47.077Z</time>
      </trkpt>
      <trkpt lat="47.89683" lon="-2.46259">
        <ele>68.407137</ele>
        <time>2023-05-04T17:41:51.076Z</time>
      </trkpt>
      <trkpt lat="47.89674" lon="-2.46264">
        <ele>67.819187</ele>
        <time>2023-05-04T17:41:55.076Z</time>
      </trkpt>
      <trkpt lat="47.89665" lon="-2.46268">
        <ele>67.218006</ele>
        <time>2023-05-04T17:41:59.078Z</time>
      </trkpt>
      <trkpt lat="47.89655" lon="-2.46274">
        <ele>66.597197</ele>
        <time>2023-05-04T17:42:03.073Z</time>
      </trkpt>
      <trkpt lat="47.89646" lon="-2.46279">
        <ele>66.001551</ele>
        <time>2023-05-04T17:42:08.076Z</time>
      </trkpt>
      <trkpt lat="47.89636" lon="-2.46283">
        <ele>65.413133</ele>
        <time>2023-05-04T17:42:12.075Z</time>
      </trkpt>
      <trkpt lat="47.89625" lon="-2.46287">
        <ele>64.712699</ele>
        <time>2023-05-04T17:42:17.074Z</time>
      </trkpt>
      <trkpt lat="47.89614" lon="-2.46294">
        <ele>63.982537</ele>
        <time>2023-05-04T17:42:22.075Z</time>
      </trkpt>
      <trkpt lat="47.89606" lon="-2.46299">
        <ele>63.632212</ele>
        <time>2023-05-04T17:42:26.076Z</time>
      </trkpt>
      <trkpt lat="47.89596" lon="-2.46305">
        <ele>64.031742</ele>
        <time>2023-05-04T17:42:30.073Z</time>
      </trkpt>
      <trkpt lat="47.89587" lon="-2.46314">
        <ele>64.437396</ele>
        <time>2023-05-04T17:42:34.074Z</time>
      </trkpt>
      <trkpt lat="47.89578" lon="-2.46321">
        <ele>64.7985</ele>
        <time>2023-05-04T17:42:37.071Z</time>
      </trkpt>
      <trkpt lat="47.89568" lon="-2.46329">
        <ele>65.221631</ele>
        <time>2023-05-04T17:42:40.078Z</time>
      </trkpt>
      <trkpt lat="47.89558" lon="-2.46335">
        <ele>65.618557</ele>
        <time>2023-05-04T17:42:44.077Z</time>
      </trkpt>
      <trkpt lat="47.89548" lon="-2.46341">
        <ele>66.044431</ele>
        <time>2023-05-04T17:42:48.075Z</time>
      </trkpt>
      <trkpt lat="47.89538" lon="-2.46345">
        <ele>66.42439</ele>
        <time>2023-05-04T17:42:51.071Z</time>
      </trkpt>
      <trkpt lat="47.89526" lon="-2.4635">
        <ele>66.904844</ele>
        <time>2023-05-04T17:42:54.074Z</time>
      </trkpt>
      <trkpt lat="47.89516" lon="-2.46357">
        <ele>67.310446</ele>
        <time>2023-05-04T17:42:57.071Z</time>
      </trkpt>
      <trkpt lat="47.89506" lon="-2.46364">
        <ele>67.72688</ele>
        <time>2023-05-04T17:43:00.074Z</time>
      </trkpt>
      <trkpt lat="47.89497" lon="-2.46369">
        <ele>68.070335</ele>
        <time>2023-05-04T17:43:03.070Z</time>
      </trkpt>
      <trkpt lat="47.89488" lon="-2.46375">
        <ele>68.458198</ele>
        <time>2023-05-04T17:43:08.076Z</time>
      </trkpt>
      <trkpt lat="47.89477" lon="-2.46381">
        <ele>68.89214</ele>
        <time>2023-05-04T17:43:12.079Z</time>
      </trkpt>
      <trkpt lat="47.89468" lon="-2.46386">
        <ele>69.247114</ele>
        <time>2023-05-04T17:43:15.074Z</time>
      </trkpt>
      <trkpt lat="47.89458" lon="-2.46392">
        <ele>69.642405</ele>
        <time>2023-05-04T17:43:18.075Z</time>
      </trkpt>
      <trkpt lat="47.89449" lon="-2.46397">
        <ele>70.006964</ele>
        <time>2023-05-04T17:43:21.072Z</time>
      </trkpt>
      <trkpt lat="47.8944" lon="-2.46402">
        <ele>70.374977</ele>
        <time>2023-05-04T17:43:24.076Z</time>
      </trkpt>
      <trkpt lat="47.8943" lon="-2.46408">
        <ele>70.930566</ele>
        <time>2023-05-04T17:43:29.073Z</time>
      </trkpt>
      <trkpt lat="47.8942" lon="-2.46414">
        <ele>71.436706</ele>
        <time>2023-05-04T17:43:33.074Z</time>
      </trkpt>
      <trkpt lat="47.8941" lon="-2.46419">
        <ele>71.930564</ele>
        <time>2023-05-04T17:43:37.075Z</time>
      </trkpt>
      <trkpt lat="47.894" lon="-2.46427">
        <ele>72.47683</ele>
        <time>2023-05-04T17:43:41.074Z</time>
      </trkpt>
      <trkpt lat="47.89391" lon="-2.46438">
        <ele>73.037603</ele>
        <time>2023-05-04T17:43:45.070Z</time>
      </trkpt>
      <trkpt lat="47.89383" lon="-2.46447">
        <ele>73.498793</ele>
        <time>2023-05-04T17:43:48.072Z</time>
      </trkpt>
      <trkpt lat="47.89377" lon="-2.46457">
        <ele>73.93087</ele>
        <time>2023-05-04T17:43:51.069Z</time>
      </trkpt>
      <trkpt lat="47.89372" lon="-2.4647">
        <ele>74.424853</ele>
        <time>2023-05-04T17:43:55.080Z</time>
      </trkpt>
      <trkpt lat="47.89366" lon="-2.46485">
        <ele>74.99183</ele>
        <time>2023-05-04T17:43:59.068Z</time>
      </trkpt>
      <trkpt lat="47.8936" lon="-2.46499">
        <ele>75.510301</ele>
        <time>2023-05-04T17:44:02.073Z</time>
      </trkpt>
      <trkpt lat="47.89356" lon="-2.46515">
        <ele>76.065561</ele>
        <time>2023-05-04T17:44:06.071Z</time>
      </trkpt>
      <trkpt lat="47.89353" lon="-2.46531">
        <ele>76.606916</ele>
        <time>2023-05-04T17:44:10.073Z</time>
      </trkpt>
      <trkpt lat="47.89351" lon="-2.46545">
        <ele>77.064892</ele>
        <time>2023-05-04T17:44:13.077Z</time>
      </trkpt>
      <trkpt lat="47.89348" lon="-2.46559">
        <ele>77.535317</ele>
        <time>2023-05-04T17:44:16.071Z</time>
      </trkpt>
      <trkpt lat="47.89346" lon="-2.46574">
        <ele>78.024455</ele>
        <time>2023-05-04T17:44:20.075Z</time>
      </trkpt>
      <trkpt lat="47.89342" lon="-2.4659">
        <ele>78.554612</ele>
        <time>2023-05-04T17:44:24.073Z</time>
      </trkpt>
      <trkpt lat="47.8934" lon="-2.46603">
        <ele>78.942293</ele>
        <time>2023-05-04T17:44:28.070Z</time>
      </trkpt>
      <trkpt lat="47.89337" lon="-2.46616">
        <ele>79.115387</ele>
        <time>2023-05-04T17:44:31.083Z</time>
      </trkpt>
      <trkpt lat="47.89333" lon="-2.46633">
        <ele>79.336783</ele>
        <time>2023-05-04T17:44:34.073Z</time>
      </trkpt>
      <trkpt lat="47.89327" lon="-2.46644">
        <ele>79.513431</ele>
        <time>2023-05-04T17:44:37.073Z</time>
      </trkpt>
      <trkpt lat="47.89322" lon="-2.46657">
        <ele>79.704751</ele>
        <time>2023-05-04T17:44:41.079Z</time>
      </trkpt>
      <trkpt lat="47.89318" lon="-2.46671">
        <ele>79.894504</ele>
        <time>2023-05-04T17:44:46.074Z</time>
      </trkpt>
      <trkpt lat="47.89315" lon="-2.46684">
        <ele>80.072671</ele>
        <time>2023-05-04T17:44:50.075Z</time>
      </trkpt>
      <trkpt lat="47.89314" lon="-2.46699">
        <ele>80.263447</ele>
        <time>2023-05-04T17:44:56.076Z</time>
      </trkpt>
      <trkpt lat="47.8931" lon="-2.46714">
        <ele>80.453318</ele>
        <time>2023-05-04T17:45:01.073Z</time>
      </trkpt>
      <trkpt lat="47.89308" lon="-2.46727">
        <ele>80.622396</ele>
        <time>2023-05-04T17:45:06.072Z</time>
      </trkpt>
      <trkpt lat="47.89304" lon="-2.4674">
        <ele>80.802052</ele>
        <time>2023-05-04T17:45:11.073Z</time>
      </trkpt>
      <trkpt lat="47.89301" lon="-2.46752">
        <ele>80.977893</ele>
        <time>2023-05-04T17:45:17.076Z</time>
      </trkpt>
      <trkpt lat="47.893" lon="-2.46767">
        <ele>81.167593</ele>
        <time>2023-05-04T17:45:23.078Z</time>
      </trkpt>
      <trkpt lat="47.89296" lon="-2.46781">
        <ele>81.354978</ele>
        <time>2023-05-04T17:45:28.064Z</time>
      </trkpt>
      <trkpt lat="47.89292" lon="-2.46796">
        <ele>81.550293</ele>
        <time>2023-05-04T17:45:33.065Z</time>
      </trkpt>
      <trkpt lat="47.89288" lon="-2.4681">
        <ele>81.744542</ele>
        <time>2023-05-04T17:45:39.080Z</time>
      </trkpt>
      <trkpt lat="47.89284" lon="-2.46823">
        <ele>81.931121</ele>
        <time>2023-05-04T17:45:45.072Z</time>
      </trkpt>
      <trkpt lat="47.89279" lon="-2.46837">
        <ele>82.126765</ele>
        <time>2023-05-04T17:45:51.075Z</time>
      </trkpt>
      <trkpt lat="47.89272" lon="-2.46849">
        <ele>82.585678</ele>
        <time>2023-05-04T17:45:58.074Z</time>
      </trkpt>
      <trkpt lat="47.89262" lon="-2.4685">
        <ele>83.813839</ele>
        <time>2023-05-04T17:46:06.074Z</time>
      </trkpt>
      <trkpt lat="47.89253" lon="-2.46844">
        <ele>84.930536</ele>
        <time>2023-05-04T17:46:13.071Z</time>
      </trkpt>
      <trkpt lat="47.89247" lon="-2.46833">
        <ele>86.10679</ele>
        <time>2023-05-04T17:46:21.074Z</time>
      </trkpt>
      <trkpt lat="47.89246" lon="-2.46819">
        <ele>87.265345</ele>
        <time>2023-05-04T17:46:26.076Z</time>
      </trkpt>
      <trkpt lat="47.89246" lon="-2.46804">
        <ele>88.398228</ele>
        <time>2023-05-04T17:46:33.067Z</time>
      </trkpt>
      <trkpt lat="47.89249" lon="-2.46789">
        <ele>89.691764</ele>
        <time>2023-05-04T17:46:39.075Z</time>
      </trkpt>
      <trkpt lat="47.89253" lon="-2.46774">
        <ele>90.946185</ele>
        <time>2023-05-04T17:46:46.076Z</time>
      </trkpt>
      <trkpt lat="47.89253" lon="-2.4676">
        <ele>92.060963</ele>
        <time>2023-05-04T17:46:53.073Z</time>
      </trkpt>
      <trkpt lat="47.89251" lon="-2.46746">
        <ele>93.193809</ele>
        <time>2023-05-04T17:46:58.079Z</time>
      </trkpt>
      <trkpt lat="47.8925" lon="-2.46731">
        <ele>94.426933</ele>
        <time>2023-05-04T17:47:06.075Z</time>
      </trkpt>
      <trkpt lat="47.89249" lon="-2.46717">
        <ele>95.545689</ele>
        <time>2023-05-04T17:47:11.081Z</time>
      </trkpt>
      <trkpt lat="47.89248" lon="-2.46703">
        <ele>96.680609</ele>
        <time>2023-05-04T17:47:16.071Z</time>
      </trkpt>
      <trkpt lat="47.89244" lon="-2.46689">
        <ele>97.818227</ele>
        <time>2023-05-04T17:47:21.075Z</time>
      </trkpt>
      <trkpt lat="47.89239" lon="-2.46678">
        <ele>98.943446</ele>
        <time>2023-05-04T17:47:28.075Z</time>
      </trkpt>
      <trkpt lat="47.8923" lon="-2.46667">
        <ele>100.265634</ele>
        <time>2023-05-04T17:47:34.067Z</time>
      </trkpt>
      <trkpt lat="47.89222" lon="-2.46659">
        <ele>101.420559</ele>
        <time>2023-05-04T17:47:38.075Z</time>
      </trkpt>
      <trkpt lat="47.89214" lon="-2.46652">
        <ele>102.540295</ele>
        <time>2023-05-04T17:47:43.076Z</time>
      </trkpt>
      <trkpt lat="47.89205" lon="-2.46646">
        <ele>103.635206</ele>
        <time>2023-05-04T17:47:50.073Z</time>
      </trkpt>
      <trkpt lat="47.89197" lon="-2.46641">
        <ele>103.635206</ele>
        <time>2023-05-04T17:47:55.073Z</time>
      </trkpt>
      <trkpt lat="47.89187" lon="-2.46638">
        <ele>103.635206</ele>
        <time>2023-05-04T17:48:00.072Z</time>
      </trkpt>
      <trkpt lat="47.89176" lon="-2.46637">
        <ele>103.635206</ele>
        <time>2023-05-04T17:48:05.079Z</time>
      </trkpt>
      <trkpt lat="47.89167" lon="-2.46636">
        <ele>103.635206</ele>
        <time>2023-05-04T17:48:12.067Z</time>
      </trkpt>
      <trkpt lat="47.89157" lon="-2.46641">
        <ele>103.635206</ele>
        <time>2023-05-04T17:48:19.095Z</time>
      </trkpt>
      <trkpt lat="47.89148" lon="-2.46643">
        <ele>103.635206</ele>
        <time>2023-05-04T17:48:24.078Z</time>
      </trkpt>
      <trkpt lat="47.89138" lon="-2.46647">
        <ele>103.635206</ele>
        <time>2023-05-04T17:48:29.066Z</time>
      </trkpt>
      <trkpt lat="47.8913" lon="-2.46656">
        <ele>103.635206</ele>
        <time>2023-05-04T17:48:34.067Z</time>
      </trkpt>
      <trkpt lat="47.89123" lon="-2.46666">
        <ele>103.635206</ele>
        <time>2023-05-04T17:48:39.075Z</time>
      </trkpt>
      <trkpt lat="47.89117" lon="-2.46677">
        <ele>103.635206</ele>
        <time>2023-05-04T17:48:44.073Z</time>
      </trkpt>
      <trkpt lat="47.89111" lon="-2.46688">
        <ele>103.635206</ele>
        <time>2023-05-04T17:48:49.075Z</time>
      </trkpt>
      <trkpt lat="47.89105" lon="-2.467">
        <ele>103.635206</ele>
        <time>2023-05-04T17:48:54.073Z</time>
      </trkpt>
      <trkpt lat="47.89099" lon="-2.46712">
        <ele>103.635206</ele>
        <time>2023-05-04T17:48:59.076Z</time>
      </trkpt>
      <trkpt lat="47.89093" lon="-2.46701">
        <ele>103.635206</ele>
        <time>2023-05-04T17:52:37.078Z</time>
      </trkpt>
      <trkpt lat="47.89096" lon="-2.46687">
        <ele>103.635206</ele>
        <time>2023-05-04T17:52:51.080Z</time>
      </trkpt>
      <trkpt lat="47.89106" lon="-2.4668">
        <ele>103.635206</ele>
        <time>2023-05-04T17:56:27.072Z</time>
      </trkpt>
      <trkpt lat="47.89102" lon="-2.46684">
        <ele>103.635206</ele>
        <time>2023-05-04T18:02:06.183Z</time>
      </trkpt>
    </trkseg>
  </trk>
</gpx>